<?xml version='1.0' encoding='UTF-8'?><gpx version="1.1" creator="JPX - https://github.com/jenetics/jpx" xmlns="http://www.topografix.com/GPX/1/1"><trk><trkseg><trkpt lat="44.8236094" lon="9.1960829"><ele>412.00000000000006</ele><time>2026-04-11T13:15:13.042Z</time></trkpt><trkpt lat="44.8235501" lon="9.1961178"><ele>412.0</ele><time>2026-04-11T13:15:24.042Z</time></trkpt><trkpt lat="44.8235975" lon="9.1960256"><ele>412.0</ele><time>2026-04-11T13:15:32.042Z</time></trkpt><trkpt lat="44.823635" lon="9.195924"><ele>412.0</ele><time>2026-04-11T13:15:56.042Z</time></trkpt><trkpt lat="44.8236364" lon="9.1957811"><ele>412.00000000000006</ele><time>2026-04-11T13:15:59.042Z</time></trkpt><trkpt lat="44.8236496" lon="9.1956286"><ele>412.0</ele><time>2026-04-11T13:16:01.042Z</time></trkpt><trkpt lat="44.8236523" lon="9.1954667"><ele>410.8</ele><time>2026-04-11T13:16:03.042Z</time></trkpt><trkpt lat="44.8236508" lon="9.1952997"><ele>409.6</ele><time>2026-04-11T13:16:05.042Z</time></trkpt><trkpt lat="44.8236264" lon="9.1952053"><ele>408.40000000000003</ele><time>2026-04-11T13:16:06.042Z</time></trkpt><trkpt lat="44.82359" lon="9.1951037"><ele>407.20000000000005</ele><time>2026-04-11T13:16:07.041Z</time></trkpt><trkpt lat="44.8235372" lon="9.1950037"><ele>406.0</ele><time>2026-04-11T13:16:08.042Z</time></trkpt><trkpt lat="44.8234766" lon="9.1949027"><ele>406.00000000000006</ele><time>2026-04-11T13:16:09.042Z</time></trkpt><trkpt lat="44.8234166" lon="9.1948021"><ele>406.0</ele><time>2026-04-11T13:16:10.042Z</time></trkpt><trkpt lat="44.8233596" lon="9.1946989"><ele>406.0</ele><time>2026-04-11T13:16:11.042Z</time></trkpt><trkpt lat="44.8233092" lon="9.1945922"><ele>406.0</ele><time>2026-04-11T13:16:12.042Z</time></trkpt><trkpt lat="44.8232673" lon="9.1944839"><ele>406.00000000000006</ele><time>2026-04-11T13:16:13.042Z</time></trkpt><trkpt lat="44.8232352" lon="9.1943802"><ele>406.0</ele><time>2026-04-11T13:16:14.042Z</time></trkpt><trkpt lat="44.8232223" lon="9.1942785"><ele>406.00000000000006</ele><time>2026-04-11T13:16:15.042Z</time></trkpt><trkpt lat="44.8232211" lon="9.1941832"><ele>406.0</ele><time>2026-04-11T13:16:16.042Z</time></trkpt><trkpt lat="44.823217" lon="9.1940501"><ele>406.0</ele><time>2026-04-11T13:16:18.042Z</time></trkpt><trkpt lat="44.8231909" lon="9.1939556"><ele>406.0</ele><time>2026-04-11T13:16:20.042Z</time></trkpt><trkpt lat="44.823115" lon="9.1939138"><ele>406.00000000000006</ele><time>2026-04-11T13:16:22.042Z</time></trkpt><trkpt lat="44.8229859" lon="9.19387"><ele>406.0</ele><time>2026-04-11T13:16:24.042Z</time></trkpt><trkpt lat="44.8229183" lon="9.1938529"><ele>406.00000000000006</ele><time>2026-04-11T13:16:25.041Z</time></trkpt><trkpt lat="44.8228449" lon="9.1938332"><ele>406.0</ele><time>2026-04-11T13:16:26.042Z</time></trkpt><trkpt lat="44.822767" lon="9.1938067"><ele>406.0</ele><time>2026-04-11T13:16:27.041Z</time></trkpt><trkpt lat="44.8226972" lon="9.1937786"><ele>406.0</ele><time>2026-04-11T13:16:28.041Z</time></trkpt><trkpt lat="44.8226326" lon="9.1937547"><ele>406.00000000000006</ele><time>2026-04-11T13:16:29.041Z</time></trkpt><trkpt lat="44.8225106" lon="9.1937266"><ele>406.0</ele><time>2026-04-11T13:16:31.042Z</time></trkpt><trkpt lat="44.8224021" lon="9.1937657"><ele>405.1666666666667</ele><time>2026-04-11T13:16:33.041Z</time></trkpt><trkpt lat="44.82235" lon="9.1938383"><ele>404.33333333333337</ele><time>2026-04-11T13:16:34.041Z</time></trkpt><trkpt lat="44.8223133" lon="9.193915"><ele>403.5</ele><time>2026-04-11T13:16:35.041Z</time></trkpt><trkpt lat="44.82229" lon="9.1940283"><ele>402.66666666666663</ele><time>2026-04-11T13:16:36.042Z</time></trkpt><trkpt lat="44.8222817" lon="9.1941633"><ele>401.8333333333333</ele><time>2026-04-11T13:16:37.042Z</time></trkpt><trkpt lat="44.8222783" lon="9.1943017"><ele>401.0</ele><time>2026-04-11T13:16:38.042Z</time></trkpt><trkpt lat="44.8222833" lon="9.19445"><ele>401.0</ele><time>2026-04-11T13:16:39.042Z</time></trkpt><trkpt lat="44.822275" lon="9.1945833"><ele>401.0</ele><time>2026-04-11T13:16:40.042Z</time></trkpt><trkpt lat="44.8222583" lon="9.1947033"><ele>401.0</ele><time>2026-04-11T13:16:41.042Z</time></trkpt><trkpt lat="44.8222417" lon="9.1948417"><ele>401.0</ele><time>2026-04-11T13:16:42.042Z</time></trkpt><trkpt lat="44.8222217" lon="9.19498"><ele>401.0</ele><time>2026-04-11T13:16:43.041Z</time></trkpt><trkpt lat="44.8222" lon="9.1951183"><ele>401.4</ele><time>2026-04-11T13:16:44.042Z</time></trkpt><trkpt lat="44.8221867" lon="9.1952617"><ele>401.8</ele><time>2026-04-11T13:16:45.042Z</time></trkpt><trkpt lat="44.8221733" lon="9.1953967"><ele>402.2</ele><time>2026-04-11T13:16:46.042Z</time></trkpt><trkpt lat="44.8221583" lon="9.1955383"><ele>402.59999999999997</ele><time>2026-04-11T13:16:47.041Z</time></trkpt><trkpt lat="44.8221383" lon="9.195675"><ele>403.0</ele><time>2026-04-11T13:16:48.042Z</time></trkpt><trkpt lat="44.8221183" lon="9.195775"><ele>403.59999999999997</ele><time>2026-04-11T13:16:49.042Z</time></trkpt><trkpt lat="44.8220867" lon="9.1959233"><ele>404.2</ele><time>2026-04-11T13:16:51.042Z</time></trkpt><trkpt lat="44.8220267" lon="9.196"><ele>404.8</ele><time>2026-04-11T13:16:54.042Z</time></trkpt><trkpt lat="44.8219633" lon="9.19598"><ele>405.4</ele><time>2026-04-11T13:16:56.042Z</time></trkpt><trkpt lat="44.821875" lon="9.1959283"><ele>406.0</ele><time>2026-04-11T13:16:58.042Z</time></trkpt><trkpt lat="44.8217533" lon="9.1958783"><ele>405.00000000000006</ele><time>2026-04-11T13:17:00.042Z</time></trkpt><trkpt lat="44.8216867" lon="9.195855"><ele>404.0</ele><time>2026-04-11T13:17:01.042Z</time></trkpt><trkpt lat="44.8216083" lon="9.195825"><ele>403.0</ele><time>2026-04-11T13:17:02.042Z</time></trkpt><trkpt lat="44.8215233" lon="9.1957967"><ele>402.0</ele><time>2026-04-11T13:17:03.042Z</time></trkpt><trkpt lat="44.8214317" lon="9.195765"><ele>401.00000000000006</ele><time>2026-04-11T13:17:04.042Z</time></trkpt><trkpt lat="44.82134" lon="9.195735"><ele>400.0</ele><time>2026-04-11T13:17:05.042Z</time></trkpt><trkpt lat="44.8212467" lon="9.1957017"><ele>400.0</ele><time>2026-04-11T13:17:06.041Z</time></trkpt><trkpt lat="44.8211517" lon="9.1956717"><ele>400.0</ele><time>2026-04-11T13:17:07.042Z</time></trkpt><trkpt lat="44.82106" lon="9.1956467"><ele>400.0</ele><time>2026-04-11T13:17:08.042Z</time></trkpt><trkpt lat="44.8209683" lon="9.1956117"><ele>400.0</ele><time>2026-04-11T13:17:09.042Z</time></trkpt><trkpt lat="44.8208767" lon="9.1955867"><ele>400.0</ele><time>2026-04-11T13:17:10.041Z</time></trkpt><trkpt lat="44.8207883" lon="9.19555"><ele>400.2</ele><time>2026-04-11T13:17:11.042Z</time></trkpt><trkpt lat="44.8206883" lon="9.1955233"><ele>400.4</ele><time>2026-04-11T13:17:12.042Z</time></trkpt><trkpt lat="44.82058" lon="9.1955"><ele>400.6</ele><time>2026-04-11T13:17:13.042Z</time></trkpt><trkpt lat="44.8204717" lon="9.195465"><ele>400.8</ele><time>2026-04-11T13:17:14.042Z</time></trkpt><trkpt lat="44.8203717" lon="9.1954333"><ele>401.0</ele><time>2026-04-11T13:17:15.042Z</time></trkpt><trkpt lat="44.820285" lon="9.195405"><ele>401.0</ele><time>2026-04-11T13:17:16.042Z</time></trkpt><trkpt lat="44.8201983" lon="9.1953583"><ele>401.0</ele><time>2026-04-11T13:17:17.042Z</time></trkpt><trkpt lat="44.8201167" lon="9.195295"><ele>401.0</ele><time>2026-04-11T13:17:18.042Z</time></trkpt><trkpt lat="44.8200483" lon="9.1952117"><ele>401.0</ele><time>2026-04-11T13:17:19.042Z</time></trkpt><trkpt lat="44.8200017" lon="9.1951067"><ele>401.0</ele><time>2026-04-11T13:17:20.042Z</time></trkpt><trkpt lat="44.8199717" lon="9.1949933"><ele>402.5</ele><time>2026-04-11T13:17:21.042Z</time></trkpt><trkpt lat="44.8199617" lon="9.19473"><ele>404.0</ele><time>2026-04-11T13:17:23.042Z</time></trkpt><trkpt lat="44.819975" lon="9.1945817"><ele>405.5</ele><time>2026-04-11T13:17:24.042Z</time></trkpt><trkpt lat="44.8199967" lon="9.1944283"><ele>407.0</ele><time>2026-04-11T13:17:25.042Z</time></trkpt><trkpt lat="44.820025" lon="9.1942783"><ele>407.0</ele><time>2026-04-11T13:17:26.042Z</time></trkpt><trkpt lat="44.8200383" lon="9.1941333"><ele>407.0</ele><time>2026-04-11T13:17:27.042Z</time></trkpt><trkpt lat="44.820015" lon="9.1938567"><ele>407.0</ele><time>2026-04-11T13:17:29.042Z</time></trkpt><trkpt lat="44.8199833" lon="9.193705"><ele>407.0</ele><time>2026-04-11T13:17:30.042Z</time></trkpt><trkpt lat="44.8199417" lon="9.19355"><ele>405.3333333333333</ele><time>2026-04-11T13:17:31.042Z</time></trkpt><trkpt lat="44.8198917" lon="9.193395"><ele>403.66666666666663</ele><time>2026-04-11T13:17:32.042Z</time></trkpt><trkpt lat="44.8198467" lon="9.1930617"><ele>402.0</ele><time>2026-04-11T13:17:34.042Z</time></trkpt><trkpt lat="44.819825" lon="9.1928917"><ele>401.5</ele><time>2026-04-11T13:17:35.042Z</time></trkpt><trkpt lat="44.8198167" lon="9.1927167"><ele>401.0</ele><time>2026-04-11T13:17:36.042Z</time></trkpt><trkpt lat="44.8197933" lon="9.1925383"><ele>400.5</ele><time>2026-04-11T13:17:37.042Z</time></trkpt><trkpt lat="44.8197717" lon="9.192355"><ele>400.0</ele><time>2026-04-11T13:17:38.042Z</time></trkpt><trkpt lat="44.8197533" lon="9.1921783"><ele>399.33333333333337</ele><time>2026-04-11T13:17:39.041Z</time></trkpt><trkpt lat="44.8197133" lon="9.192"><ele>398.66666666666663</ele><time>2026-04-11T13:17:40.042Z</time></trkpt><trkpt lat="44.8196067" lon="9.1916783"><ele>398.0</ele><time>2026-04-11T13:17:42.042Z</time></trkpt><trkpt lat="44.819545" lon="9.1915317"><ele>397.0</ele><time>2026-04-11T13:17:43.042Z</time></trkpt><trkpt lat="44.8194467" lon="9.1912167"><ele>396.0</ele><time>2026-04-11T13:17:45.042Z</time></trkpt><trkpt lat="44.8194167" lon="9.1910317"><ele>395.0</ele><time>2026-04-11T13:17:46.042Z</time></trkpt><trkpt lat="44.8193933" lon="9.1908383"><ele>394.0</ele><time>2026-04-11T13:17:47.041Z</time></trkpt><trkpt lat="44.8193733" lon="9.190645"><ele>393.0</ele><time>2026-04-11T13:17:48.042Z</time></trkpt><trkpt lat="44.8193517" lon="9.1900783"><ele>393.0</ele><time>2026-04-11T13:17:51.042Z</time></trkpt><trkpt lat="44.8193467" lon="9.18989"><ele>393.0</ele><time>2026-04-11T13:17:52.042Z</time></trkpt><trkpt lat="44.8193433" lon="9.1896983"><ele>393.0</ele><time>2026-04-11T13:17:53.042Z</time></trkpt><trkpt lat="44.8193417" lon="9.1895067"><ele>393.0</ele><time>2026-04-11T13:17:54.042Z</time></trkpt><trkpt lat="44.8193333" lon="9.1893183"><ele>392.75</ele><time>2026-04-11T13:17:55.042Z</time></trkpt><trkpt lat="44.819325" lon="9.18913"><ele>392.5</ele><time>2026-04-11T13:17:56.042Z</time></trkpt><trkpt lat="44.8193133" lon="9.1889467"><ele>392.25</ele><time>2026-04-11T13:17:57.042Z</time></trkpt><trkpt lat="44.8193" lon="9.1887633"><ele>392.0</ele><time>2026-04-11T13:17:58.041Z</time></trkpt><trkpt lat="44.819285" lon="9.1885917"><ele>393.0</ele><time>2026-04-11T13:17:59.042Z</time></trkpt><trkpt lat="44.81928" lon="9.188275"><ele>394.0</ele><time>2026-04-11T13:18:01.042Z</time></trkpt><trkpt lat="44.81926" lon="9.1881183"><ele>395.0</ele><time>2026-04-11T13:18:02.042Z</time></trkpt><trkpt lat="44.8192333" lon="9.1879667"><ele>396.0</ele><time>2026-04-11T13:18:03.041Z</time></trkpt><trkpt lat="44.8191917" lon="9.1878333"><ele>396.0</ele><time>2026-04-11T13:18:04.042Z</time></trkpt><trkpt lat="44.8190483" lon="9.18764"><ele>396.0</ele><time>2026-04-11T13:18:06.042Z</time></trkpt><trkpt lat="44.8189433" lon="9.1875817"><ele>396.0</ele><time>2026-04-11T13:18:07.042Z</time></trkpt><trkpt lat="44.8188317" lon="9.187535"><ele>396.0</ele><time>2026-04-11T13:18:08.042Z</time></trkpt><trkpt lat="44.8187183" lon="9.187485"><ele>396.0</ele><time>2026-04-11T13:18:09.042Z</time></trkpt><trkpt lat="44.8186083" lon="9.18744"><ele>396.0</ele><time>2026-04-11T13:18:10.041Z</time></trkpt><trkpt lat="44.81839" lon="9.1874033"><ele>396.0</ele><time>2026-04-11T13:18:12.042Z</time></trkpt><trkpt lat="44.8182967" lon="9.1874383"><ele>396.0</ele><time>2026-04-11T13:18:13.042Z</time></trkpt><trkpt lat="44.8182117" lon="9.1874967"><ele>397.5</ele><time>2026-04-11T13:18:14.042Z</time></trkpt><trkpt lat="44.8181283" lon="9.1875917"><ele>399.0</ele><time>2026-04-11T13:18:15.042Z</time></trkpt><trkpt lat="44.81805" lon="9.187705"><ele>400.5</ele><time>2026-04-11T13:18:16.041Z</time></trkpt><trkpt lat="44.8179583" lon="9.1878183"><ele>402.0</ele><time>2026-04-11T13:18:17.042Z</time></trkpt><trkpt lat="44.817875" lon="9.1879183"><ele>402.0</ele><time>2026-04-11T13:18:18.041Z</time></trkpt><trkpt lat="44.8177833" lon="9.188"><ele>402.0</ele><time>2026-04-11T13:18:19.042Z</time></trkpt><trkpt lat="44.81768" lon="9.1880567"><ele>402.0</ele><time>2026-04-11T13:18:20.042Z</time></trkpt><trkpt lat="44.81756" lon="9.18807"><ele>402.0</ele><time>2026-04-11T13:18:21.042Z</time></trkpt><trkpt lat="44.817435" lon="9.18806"><ele>400.75</ele><time>2026-04-11T13:18:22.042Z</time></trkpt><trkpt lat="44.8173067" lon="9.1880383"><ele>399.5</ele><time>2026-04-11T13:18:23.042Z</time></trkpt><trkpt lat="44.8171817" lon="9.1880233"><ele>398.25</ele><time>2026-04-11T13:18:24.041Z</time></trkpt><trkpt lat="44.8170633" lon="9.1880133"><ele>397.0</ele><time>2026-04-11T13:18:25.041Z</time></trkpt><trkpt lat="44.8169433" lon="9.188005"><ele>397.0</ele><time>2026-04-11T13:18:26.042Z</time></trkpt><trkpt lat="44.8168217" lon="9.1880117"><ele>397.0</ele><time>2026-04-11T13:18:27.041Z</time></trkpt><trkpt lat="44.8167033" lon="9.1880433"><ele>397.0</ele><time>2026-04-11T13:18:28.042Z</time></trkpt><trkpt lat="44.8165817" lon="9.1881"><ele>397.0</ele><time>2026-04-11T13:18:29.042Z</time></trkpt><trkpt lat="44.816465" lon="9.1881667"><ele>401.0</ele><time>2026-04-11T13:18:30.042Z</time></trkpt><trkpt lat="44.8163533" lon="9.1882383"><ele>405.0</ele><time>2026-04-11T13:18:31.042Z</time></trkpt><trkpt lat="44.81612" lon="9.1883167"><ele>409.0</ele><time>2026-04-11T13:18:33.042Z</time></trkpt><trkpt lat="44.8160017" lon="9.1883167"><ele>408.5</ele><time>2026-04-11T13:18:34.042Z</time></trkpt><trkpt lat="44.81588" lon="9.188295"><ele>408.0</ele><time>2026-04-11T13:18:35.041Z</time></trkpt><trkpt lat="44.81576" lon="9.188285"><ele>407.5</ele><time>2026-04-11T13:18:36.042Z</time></trkpt><trkpt lat="44.815645" lon="9.1883117"><ele>407.0</ele><time>2026-04-11T13:18:37.042Z</time></trkpt><trkpt lat="44.815525" lon="9.188355"><ele>407.0</ele><time>2026-04-11T13:18:38.042Z</time></trkpt><trkpt lat="44.8154017" lon="9.1884283"><ele>407.0</ele><time>2026-04-11T13:18:39.042Z</time></trkpt><trkpt lat="44.8152983" lon="9.188525"><ele>407.0</ele><time>2026-04-11T13:18:40.042Z</time></trkpt><trkpt lat="44.815185" lon="9.1886133"><ele>407.0</ele><time>2026-04-11T13:18:41.042Z</time></trkpt><trkpt lat="44.815075" lon="9.18872"><ele>409.75</ele><time>2026-04-11T13:18:42.042Z</time></trkpt><trkpt lat="44.8149783" lon="9.1888383"><ele>412.5</ele><time>2026-04-11T13:18:43.042Z</time></trkpt><trkpt lat="44.81487" lon="9.1889567"><ele>415.25</ele><time>2026-04-11T13:18:44.042Z</time></trkpt><trkpt lat="44.8147767" lon="9.189095"><ele>418.0</ele><time>2026-04-11T13:18:45.041Z</time></trkpt><trkpt lat="44.8146783" lon="9.1892183"><ele>418.25</ele><time>2026-04-11T13:18:46.042Z</time></trkpt><trkpt lat="44.81459" lon="9.18934"><ele>418.5</ele><time>2026-04-11T13:18:47.042Z</time></trkpt><trkpt lat="44.814495" lon="9.18946"><ele>418.75</ele><time>2026-04-11T13:18:48.042Z</time></trkpt><trkpt lat="44.8143917" lon="9.1895567"><ele>419.0</ele><time>2026-04-11T13:18:49.042Z</time></trkpt><trkpt lat="44.8140283" lon="9.1897567"><ele>419.3333333333333</ele><time>2026-04-11T13:18:52.042Z</time></trkpt><trkpt lat="44.8137733" lon="9.1898767"><ele>419.66666666666663</ele><time>2026-04-11T13:18:54.042Z</time></trkpt><trkpt lat="44.81363" lon="9.189905"><ele>420.0</ele><time>2026-04-11T13:18:55.042Z</time></trkpt><trkpt lat="44.8134883" lon="9.18993"><ele>420.0</ele><time>2026-04-11T13:18:56.042Z</time></trkpt><trkpt lat="44.8133567" lon="9.1899517"><ele>420.0</ele><time>2026-04-11T13:18:57.042Z</time></trkpt><trkpt lat="44.81322" lon="9.18996"><ele>420.0</ele><time>2026-04-11T13:18:58.042Z</time></trkpt><trkpt lat="44.813095" lon="9.1899433"><ele>420.0</ele><time>2026-04-11T13:18:59.041Z</time></trkpt><trkpt lat="44.8129967" lon="9.1899"><ele>421.0</ele><time>2026-04-11T13:19:00.042Z</time></trkpt><trkpt lat="44.812895" lon="9.189835"><ele>422.0</ele><time>2026-04-11T13:19:01.042Z</time></trkpt><trkpt lat="44.81268" lon="9.1896567"><ele>423.0</ele><time>2026-04-11T13:19:03.042Z</time></trkpt><trkpt lat="44.812575" lon="9.18957"><ele>423.0</ele><time>2026-04-11T13:19:04.042Z</time></trkpt><trkpt lat="44.8124517" lon="9.1894767"><ele>423.0</ele><time>2026-04-11T13:19:05.042Z</time></trkpt><trkpt lat="44.8123217" lon="9.1893817"><ele>423.0</ele><time>2026-04-11T13:19:06.042Z</time></trkpt><trkpt lat="44.8121867" lon="9.1892867"><ele>423.0</ele><time>2026-04-11T13:19:07.041Z</time></trkpt><trkpt lat="44.8120567" lon="9.189185"><ele>423.0</ele><time>2026-04-11T13:19:08.042Z</time></trkpt><trkpt lat="44.8119267" lon="9.189085"><ele>423.0</ele><time>2026-04-11T13:19:09.042Z</time></trkpt><trkpt lat="44.8117983" lon="9.1889983"><ele>423.0</ele><time>2026-04-11T13:19:10.042Z</time></trkpt><trkpt lat="44.8116717" lon="9.1889117"><ele>423.0</ele><time>2026-04-11T13:19:11.042Z</time></trkpt><trkpt lat="44.8115467" lon="9.1888267"><ele>427.66666666666663</ele><time>2026-04-11T13:19:12.042Z</time></trkpt><trkpt lat="44.811425" lon="9.1887333"><ele>432.3333333333333</ele><time>2026-04-11T13:19:13.042Z</time></trkpt><trkpt lat="44.81131" lon="9.1886683"><ele>437.0</ele><time>2026-04-11T13:19:14.042Z</time></trkpt><trkpt lat="44.811075" lon="9.18862"><ele>435.5</ele><time>2026-04-11T13:19:16.042Z</time></trkpt><trkpt lat="44.8109567" lon="9.1886233"><ele>434.0</ele><time>2026-04-11T13:19:17.042Z</time></trkpt><trkpt lat="44.8108367" lon="9.1886483"><ele>432.5</ele><time>2026-04-11T13:19:18.042Z</time></trkpt><trkpt lat="44.8107133" lon="9.1886433"><ele>431.0</ele><time>2026-04-11T13:19:19.042Z</time></trkpt><trkpt lat="44.8105833" lon="9.1886283"><ele>431.0</ele><time>2026-04-11T13:19:20.042Z</time></trkpt><trkpt lat="44.8104567" lon="9.1886117"><ele>431.0</ele><time>2026-04-11T13:19:21.042Z</time></trkpt><trkpt lat="44.8103217" lon="9.1886"><ele>431.0</ele><time>2026-04-11T13:19:22.042Z</time></trkpt><trkpt lat="44.8101833" lon="9.1885933"><ele>431.0</ele><time>2026-04-11T13:19:23.042Z</time></trkpt><trkpt lat="44.8100517" lon="9.18857"><ele>430.5</ele><time>2026-04-11T13:19:24.041Z</time></trkpt><trkpt lat="44.809935" lon="9.188515"><ele>430.0</ele><time>2026-04-11T13:19:25.042Z</time></trkpt><trkpt lat="44.809835" lon="9.1884217"><ele>429.5</ele><time>2026-04-11T13:19:26.042Z</time></trkpt><trkpt lat="44.80973" lon="9.1883"><ele>429.0</ele><time>2026-04-11T13:19:27.042Z</time></trkpt><trkpt lat="44.80965" lon="9.1881767"><ele>432.33333333333337</ele><time>2026-04-11T13:19:28.042Z</time></trkpt><trkpt lat="44.8095617" lon="9.1880417"><ele>435.6666666666667</ele><time>2026-04-11T13:19:29.041Z</time></trkpt><trkpt lat="44.809405" lon="9.1877833"><ele>439.0</ele><time>2026-04-11T13:19:31.042Z</time></trkpt><trkpt lat="44.809315" lon="9.18766"><ele>439.0</ele><time>2026-04-11T13:19:32.042Z</time></trkpt><trkpt lat="44.80922" lon="9.1875467"><ele>439.0</ele><time>2026-04-11T13:19:33.042Z</time></trkpt><trkpt lat="44.8091283" lon="9.18744"><ele>439.0</ele><time>2026-04-11T13:19:34.042Z</time></trkpt><trkpt lat="44.8090217" lon="9.1873467"><ele>439.0</ele><time>2026-04-11T13:19:35.042Z</time></trkpt><trkpt lat="44.8089" lon="9.1872583"><ele>440.25</ele><time>2026-04-11T13:19:36.042Z</time></trkpt><trkpt lat="44.808765" lon="9.1871867"><ele>441.5</ele><time>2026-04-11T13:19:37.042Z</time></trkpt><trkpt lat="44.80864" lon="9.1871217"><ele>442.75</ele><time>2026-04-11T13:19:38.041Z</time></trkpt><trkpt lat="44.8085" lon="9.1870483"><ele>444.0</ele><time>2026-04-11T13:19:39.042Z</time></trkpt><trkpt lat="44.80836" lon="9.1869683"><ele>444.0</ele><time>2026-04-11T13:19:40.042Z</time></trkpt><trkpt lat="44.8082183" lon="9.1868783"><ele>444.0</ele><time>2026-04-11T13:19:41.042Z</time></trkpt><trkpt lat="44.8080817" lon="9.1867633"><ele>444.0</ele><time>2026-04-11T13:19:42.042Z</time></trkpt><trkpt lat="44.807955" lon="9.186645"><ele>445.5</ele><time>2026-04-11T13:19:43.041Z</time></trkpt><trkpt lat="44.8077033" lon="9.1864067"><ele>447.0</ele><time>2026-04-11T13:19:45.041Z</time></trkpt><trkpt lat="44.8075817" lon="9.186275"><ele>447.0</ele><time>2026-04-11T13:19:46.042Z</time></trkpt><trkpt lat="44.807455" lon="9.1861517"><ele>447.0</ele><time>2026-04-11T13:19:47.042Z</time></trkpt><trkpt lat="44.8073217" lon="9.1860283"><ele>447.0</ele><time>2026-04-11T13:19:48.042Z</time></trkpt><trkpt lat="44.8071967" lon="9.185905"><ele>447.0</ele><time>2026-04-11T13:19:49.042Z</time></trkpt><trkpt lat="44.8070683" lon="9.1857917"><ele>447.0</ele><time>2026-04-11T13:19:50.042Z</time></trkpt><trkpt lat="44.8068183" lon="9.185545"><ele>449.66666666666663</ele><time>2026-04-11T13:19:52.042Z</time></trkpt><trkpt lat="44.8066867" lon="9.18542"><ele>452.3333333333333</ele><time>2026-04-11T13:19:53.042Z</time></trkpt><trkpt lat="44.8065617" lon="9.1852983"><ele>455.0</ele><time>2026-04-11T13:19:54.042Z</time></trkpt><trkpt lat="44.8064333" lon="9.1851783"><ele>455.0</ele><time>2026-04-11T13:19:55.042Z</time></trkpt><trkpt lat="44.8063217" lon="9.18508"><ele>455.0</ele><time>2026-04-11T13:19:56.042Z</time></trkpt><trkpt lat="44.8062083" lon="9.1849917"><ele>455.0</ele><time>2026-04-11T13:19:57.042Z</time></trkpt><trkpt lat="44.80609" lon="9.1849367"><ele>455.0</ele><time>2026-04-11T13:19:58.042Z</time></trkpt><trkpt lat="44.8059633" lon="9.1848983"><ele>455.75</ele><time>2026-04-11T13:19:59.042Z</time></trkpt><trkpt lat="44.805825" lon="9.184895"><ele>456.5</ele><time>2026-04-11T13:20:00.042Z</time></trkpt><trkpt lat="44.8056917" lon="9.1849267"><ele>457.25</ele><time>2026-04-11T13:20:01.042Z</time></trkpt><trkpt lat="44.80556" lon="9.184995"><ele>458.0</ele><time>2026-04-11T13:20:02.042Z</time></trkpt><trkpt lat="44.805455" lon="9.1850817"><ele>458.0</ele><time>2026-04-11T13:20:03.042Z</time></trkpt><trkpt lat="44.805365" lon="9.1851633"><ele>457.99999999999994</ele><time>2026-04-11T13:20:04.041Z</time></trkpt><trkpt lat="44.8052783" lon="9.1852417"><ele>457.99999999999994</ele><time>2026-04-11T13:20:05.042Z</time></trkpt><trkpt lat="44.805185" lon="9.1852933"><ele>458.0</ele><time>2026-04-11T13:20:06.042Z</time></trkpt><trkpt lat="44.8050783" lon="9.1853133"><ele>458.0</ele><time>2026-04-11T13:20:07.042Z</time></trkpt><trkpt lat="44.80497" lon="9.1853183"><ele>460.0</ele><time>2026-04-11T13:20:08.041Z</time></trkpt><trkpt lat="44.8048617" lon="9.1853067"><ele>462.0</ele><time>2026-04-11T13:20:09.042Z</time></trkpt><trkpt lat="44.8047483" lon="9.1852817"><ele>464.0</ele><time>2026-04-11T13:20:10.042Z</time></trkpt><trkpt lat="44.8046333" lon="9.1852517"><ele>466.0</ele><time>2026-04-11T13:20:11.042Z</time></trkpt><trkpt lat="44.8045083" lon="9.185225"><ele>466.0</ele><time>2026-04-11T13:20:12.041Z</time></trkpt><trkpt lat="44.8043767" lon="9.1852"><ele>466.0</ele><time>2026-04-11T13:20:13.042Z</time></trkpt><trkpt lat="44.80423" lon="9.1851667"><ele>466.0</ele><time>2026-04-11T13:20:14.042Z</time></trkpt><trkpt lat="44.8040833" lon="9.1851233"><ele>466.0</ele><time>2026-04-11T13:20:15.042Z</time></trkpt><trkpt lat="44.80394" lon="9.185085"><ele>465.75</ele><time>2026-04-11T13:20:16.042Z</time></trkpt><trkpt lat="44.803805" lon="9.185025"><ele>465.5</ele><time>2026-04-11T13:20:17.042Z</time></trkpt><trkpt lat="44.8036833" lon="9.1849517"><ele>465.25</ele><time>2026-04-11T13:20:18.042Z</time></trkpt><trkpt lat="44.8035717" lon="9.1848817"><ele>465.0</ele><time>2026-04-11T13:20:19.042Z</time></trkpt><trkpt lat="44.803455" lon="9.1848"><ele>471.5</ele><time>2026-04-11T13:20:20.042Z</time></trkpt><trkpt lat="44.8033533" lon="9.184725"><ele>478.0</ele><time>2026-04-11T13:20:21.042Z</time></trkpt><trkpt lat="44.8032317" lon="9.1846833"><ele>484.5</ele><time>2026-04-11T13:20:22.042Z</time></trkpt><trkpt lat="44.803105" lon="9.1847033"><ele>491.0</ele><time>2026-04-11T13:20:23.042Z</time></trkpt><trkpt lat="44.8029733" lon="9.18473"><ele>491.0</ele><time>2026-04-11T13:20:24.042Z</time></trkpt><trkpt lat="44.8028483" lon="9.184785"><ele>491.0</ele><time>2026-04-11T13:20:25.042Z</time></trkpt><trkpt lat="44.8027417" lon="9.184835"><ele>491.0</ele><time>2026-04-11T13:20:26.042Z</time></trkpt><trkpt lat="44.8026467" lon="9.1848533"><ele>491.0</ele><time>2026-04-11T13:20:27.042Z</time></trkpt><trkpt lat="44.802565" lon="9.184785"><ele>491.0</ele><time>2026-04-11T13:20:28.042Z</time></trkpt><trkpt lat="44.8024767" lon="9.1847367"><ele>490.4</ele><time>2026-04-11T13:20:29.042Z</time></trkpt><trkpt lat="44.80238" lon="9.18468"><ele>489.8</ele><time>2026-04-11T13:20:30.042Z</time></trkpt><trkpt lat="44.8022783" lon="9.1846367"><ele>489.19999999999993</ele><time>2026-04-11T13:20:31.042Z</time></trkpt><trkpt lat="44.802175" lon="9.1846167"><ele>488.59999999999997</ele><time>2026-04-11T13:20:32.042Z</time></trkpt><trkpt lat="44.8020617" lon="9.1846217"><ele>488.0</ele><time>2026-04-11T13:20:33.042Z</time></trkpt><trkpt lat="44.8019583" lon="9.1846433"><ele>488.0</ele><time>2026-04-11T13:20:34.042Z</time></trkpt><trkpt lat="44.8018467" lon="9.1846883"><ele>488.0</ele><time>2026-04-11T13:20:35.042Z</time></trkpt><trkpt lat="44.8017383" lon="9.1847417"><ele>488.0</ele><time>2026-04-11T13:20:36.041Z</time></trkpt><trkpt lat="44.8016317" lon="9.1847917"><ele>488.0</ele><time>2026-04-11T13:20:37.042Z</time></trkpt><trkpt lat="44.8015183" lon="9.1848367"><ele>482.25</ele><time>2026-04-11T13:20:38.042Z</time></trkpt><trkpt lat="44.8014167" lon="9.18489"><ele>476.5</ele><time>2026-04-11T13:20:39.041Z</time></trkpt><trkpt lat="44.801305" lon="9.184935"><ele>470.75</ele><time>2026-04-11T13:20:40.042Z</time></trkpt><trkpt lat="44.8011917" lon="9.184965"><ele>465.0</ele><time>2026-04-11T13:20:41.042Z</time></trkpt><trkpt lat="44.80108" lon="9.1849733"><ele>465.2</ele><time>2026-04-11T13:20:42.042Z</time></trkpt><trkpt lat="44.8009733" lon="9.1849533"><ele>465.4</ele><time>2026-04-11T13:20:43.042Z</time></trkpt><trkpt lat="44.8008767" lon="9.1849033"><ele>465.6</ele><time>2026-04-11T13:20:44.042Z</time></trkpt><trkpt lat="44.80078" lon="9.1848383"><ele>465.8</ele><time>2026-04-11T13:20:45.042Z</time></trkpt><trkpt lat="44.8006933" lon="9.18475"><ele>466.0</ele><time>2026-04-11T13:20:46.041Z</time></trkpt><trkpt lat="44.8006167" lon="9.184655"><ele>467.20000000000005</ele><time>2026-04-11T13:20:47.042Z</time></trkpt><trkpt lat="44.80056" lon="9.1845533"><ele>468.40000000000003</ele><time>2026-04-11T13:20:48.042Z</time></trkpt><trkpt lat="44.8005167" lon="9.18443"><ele>469.6</ele><time>2026-04-11T13:20:49.041Z</time></trkpt><trkpt lat="44.8005117" lon="9.1842833"><ele>470.8</ele><time>2026-04-11T13:20:50.042Z</time></trkpt><trkpt lat="44.800515" lon="9.1841317"><ele>472.0</ele><time>2026-04-11T13:20:51.042Z</time></trkpt><trkpt lat="44.8005283" lon="9.1839733"><ele>474.0</ele><time>2026-04-11T13:20:52.042Z</time></trkpt><trkpt lat="44.8005267" lon="9.1838183"><ele>476.0</ele><time>2026-04-11T13:20:53.042Z</time></trkpt><trkpt lat="44.8005067" lon="9.1836633"><ele>478.0</ele><time>2026-04-11T13:20:54.042Z</time></trkpt><trkpt lat="44.8004617" lon="9.1835133"><ele>480.0</ele><time>2026-04-11T13:20:55.042Z</time></trkpt><trkpt lat="44.800405" lon="9.183375"><ele>480.0</ele><time>2026-04-11T13:20:56.042Z</time></trkpt><trkpt lat="44.8003283" lon="9.1832517"><ele>480.0</ele><time>2026-04-11T13:20:57.042Z</time></trkpt><trkpt lat="44.800255" lon="9.18312"><ele>480.0</ele><time>2026-04-11T13:20:58.042Z</time></trkpt><trkpt lat="44.8001683" lon="9.18299"><ele>480.0</ele><time>2026-04-11T13:20:59.041Z</time></trkpt><trkpt lat="44.800075" lon="9.182855"><ele>479.25</ele><time>2026-04-11T13:21:00.042Z</time></trkpt><trkpt lat="44.799985" lon="9.1827283"><ele>478.5</ele><time>2026-04-11T13:21:01.042Z</time></trkpt><trkpt lat="44.79989" lon="9.1825867"><ele>477.75</ele><time>2026-04-11T13:21:02.042Z</time></trkpt><trkpt lat="44.799795" lon="9.1824283"><ele>477.0</ele><time>2026-04-11T13:21:03.041Z</time></trkpt><trkpt lat="44.799695" lon="9.1822817"><ele>477.0</ele><time>2026-04-11T13:21:04.042Z</time></trkpt><trkpt lat="44.7995983" lon="9.1821333"><ele>477.0</ele><time>2026-04-11T13:21:05.042Z</time></trkpt><trkpt lat="44.7994983" lon="9.1819767"><ele>477.0</ele><time>2026-04-11T13:21:06.042Z</time></trkpt><trkpt lat="44.7993817" lon="9.1818383"><ele>477.0</ele><time>2026-04-11T13:21:07.042Z</time></trkpt><trkpt lat="44.7992733" lon="9.1816933"><ele>477.0</ele><time>2026-04-11T13:21:08.042Z</time></trkpt><trkpt lat="44.7991583" lon="9.181545"><ele>477.0</ele><time>2026-04-11T13:21:09.042Z</time></trkpt><trkpt lat="44.79905" lon="9.1813917"><ele>477.0</ele><time>2026-04-11T13:21:10.042Z</time></trkpt><trkpt lat="44.7989517" lon="9.1812333"><ele>479.25</ele><time>2026-04-11T13:21:11.042Z</time></trkpt><trkpt lat="44.79887" lon="9.1810767"><ele>481.5</ele><time>2026-04-11T13:21:12.042Z</time></trkpt><trkpt lat="44.7987933" lon="9.180925"><ele>483.75</ele><time>2026-04-11T13:21:13.042Z</time></trkpt><trkpt lat="44.7987367" lon="9.18079"><ele>486.0</ele><time>2026-04-11T13:21:14.041Z</time></trkpt><trkpt lat="44.798685" lon="9.18067"><ele>488.6</ele><time>2026-04-11T13:21:15.042Z</time></trkpt><trkpt lat="44.798655" lon="9.180535"><ele>491.20000000000005</ele><time>2026-04-11T13:21:16.041Z</time></trkpt><trkpt lat="44.7986567" lon="9.1804067"><ele>493.79999999999995</ele><time>2026-04-11T13:21:17.041Z</time></trkpt><trkpt lat="44.7986717" lon="9.1802733"><ele>496.4</ele><time>2026-04-11T13:21:18.042Z</time></trkpt><trkpt lat="44.7987117" lon="9.180145"><ele>499.0</ele><time>2026-04-11T13:21:19.042Z</time></trkpt><trkpt lat="44.7987517" lon="9.1800117"><ele>499.0</ele><time>2026-04-11T13:21:20.042Z</time></trkpt><trkpt lat="44.7987983" lon="9.179875"><ele>499.0</ele><time>2026-04-11T13:21:21.042Z</time></trkpt><trkpt lat="44.798845" lon="9.1797367"><ele>499.0</ele><time>2026-04-11T13:21:22.042Z</time></trkpt><trkpt lat="44.7988767" lon="9.1796"><ele>499.0</ele><time>2026-04-11T13:21:23.041Z</time></trkpt><trkpt lat="44.7988983" lon="9.1794983"><ele>499.0</ele><time>2026-04-11T13:21:24.042Z</time></trkpt><trkpt lat="44.7989067" lon="9.179405"><ele>500.0</ele><time>2026-04-11T13:21:25.042Z</time></trkpt><trkpt lat="44.7988733" lon="9.179245"><ele>501.0</ele><time>2026-04-11T13:21:27.042Z</time></trkpt><trkpt lat="44.798775" lon="9.1791267"><ele>502.0</ele><time>2026-04-11T13:21:29.041Z</time></trkpt><trkpt lat="44.7987033" lon="9.1790983"><ele>503.0</ele><time>2026-04-11T13:21:30.042Z</time></trkpt><trkpt lat="44.7986233" lon="9.1790983"><ele>504.0</ele><time>2026-04-11T13:21:31.042Z</time></trkpt><trkpt lat="44.7985467" lon="9.17912"><ele>502.5</ele><time>2026-04-11T13:21:32.042Z</time></trkpt><trkpt lat="44.7984833" lon="9.17918"><ele>501.0</ele><time>2026-04-11T13:21:33.042Z</time></trkpt><trkpt lat="44.7984183" lon="9.179255"><ele>499.5</ele><time>2026-04-11T13:21:34.042Z</time></trkpt><trkpt lat="44.79835" lon="9.1793167"><ele>498.0</ele><time>2026-04-11T13:21:35.042Z</time></trkpt><trkpt lat="44.79828" lon="9.1793633"><ele>496.5</ele><time>2026-04-11T13:21:36.042Z</time></trkpt><trkpt lat="44.798205" lon="9.1793683"><ele>495.0</ele><time>2026-04-11T13:21:37.041Z</time></trkpt><trkpt lat="44.798125" lon="9.1793567"><ele>495.0</ele><time>2026-04-11T13:21:38.042Z</time></trkpt><trkpt lat="44.7980417" lon="9.179335"><ele>495.0</ele><time>2026-04-11T13:21:39.042Z</time></trkpt><trkpt lat="44.7979617" lon="9.17929"><ele>495.0</ele><time>2026-04-11T13:21:40.042Z</time></trkpt><trkpt lat="44.7978817" lon="9.1792217"><ele>495.0</ele><time>2026-04-11T13:21:41.042Z</time></trkpt><trkpt lat="44.7978133" lon="9.179135"><ele>495.0</ele><time>2026-04-11T13:21:42.042Z</time></trkpt><trkpt lat="44.7977433" lon="9.179035"><ele>497.0</ele><time>2026-04-11T13:21:43.042Z</time></trkpt><trkpt lat="44.79767" lon="9.17893"><ele>499.0</ele><time>2026-04-11T13:21:44.042Z</time></trkpt><trkpt lat="44.797595" lon="9.1788283"><ele>501.0</ele><time>2026-04-11T13:21:45.042Z</time></trkpt><trkpt lat="44.797525" lon="9.17871"><ele>503.0</ele><time>2026-04-11T13:21:46.042Z</time></trkpt><trkpt lat="44.7974783" lon="9.1785817"><ele>505.0</ele><time>2026-04-11T13:21:47.041Z</time></trkpt><trkpt lat="44.7974667" lon="9.1784283"><ele>505.0</ele><time>2026-04-11T13:21:48.042Z</time></trkpt><trkpt lat="44.79746" lon="9.178255"><ele>505.0</ele><time>2026-04-11T13:21:49.042Z</time></trkpt><trkpt lat="44.79746" lon="9.178085"><ele>505.0</ele><time>2026-04-11T13:21:50.042Z</time></trkpt><trkpt lat="44.797455" lon="9.17792"><ele>505.0</ele><time>2026-04-11T13:21:51.042Z</time></trkpt><trkpt lat="44.7974567" lon="9.177755"><ele>505.75</ele><time>2026-04-11T13:21:52.041Z</time></trkpt><trkpt lat="44.7974533" lon="9.177595"><ele>506.5</ele><time>2026-04-11T13:21:53.042Z</time></trkpt><trkpt lat="44.7974533" lon="9.1774317"><ele>507.25</ele><time>2026-04-11T13:21:54.041Z</time></trkpt><trkpt lat="44.79745" lon="9.177265"><ele>508.0</ele><time>2026-04-11T13:21:55.042Z</time></trkpt><trkpt lat="44.7974417" lon="9.1770917"><ele>508.75</ele><time>2026-04-11T13:21:56.042Z</time></trkpt><trkpt lat="44.7974367" lon="9.1769217"><ele>509.5</ele><time>2026-04-11T13:21:57.042Z</time></trkpt><trkpt lat="44.797435" lon="9.1767717"><ele>510.25</ele><time>2026-04-11T13:21:58.042Z</time></trkpt><trkpt lat="44.7974433" lon="9.17661"><ele>511.0</ele><time>2026-04-11T13:21:59.041Z</time></trkpt><trkpt lat="44.7974783" lon="9.1764567"><ele>512.0</ele><time>2026-04-11T13:22:00.042Z</time></trkpt><trkpt lat="44.7975367" lon="9.17632"><ele>513.0</ele><time>2026-04-11T13:22:01.042Z</time></trkpt><trkpt lat="44.797615" lon="9.1761983"><ele>514.0</ele><time>2026-04-11T13:22:02.041Z</time></trkpt><trkpt lat="44.7977" lon="9.17609"><ele>515.0</ele><time>2026-04-11T13:22:03.042Z</time></trkpt><trkpt lat="44.7977883" lon="9.175985"><ele>518.0</ele><time>2026-04-11T13:22:04.041Z</time></trkpt><trkpt lat="44.7978783" lon="9.1758833"><ele>521.0</ele><time>2026-04-11T13:22:05.042Z</time></trkpt><trkpt lat="44.7979717" lon="9.1757783"><ele>524.0</ele><time>2026-04-11T13:22:06.042Z</time></trkpt><trkpt lat="44.79807" lon="9.17567"><ele>527.0</ele><time>2026-04-11T13:22:07.042Z</time></trkpt><trkpt lat="44.7981667" lon="9.1755633"><ele>527.0</ele><time>2026-04-11T13:22:08.041Z</time></trkpt><trkpt lat="44.7982633" lon="9.1754617"><ele>527.0</ele><time>2026-04-11T13:22:09.042Z</time></trkpt><trkpt lat="44.7983583" lon="9.1753633"><ele>527.0</ele><time>2026-04-11T13:22:10.042Z</time></trkpt><trkpt lat="44.7984483" lon="9.1752567"><ele>527.0</ele><time>2026-04-11T13:22:11.042Z</time></trkpt><trkpt lat="44.7985433" lon="9.1751467"><ele>530.0</ele><time>2026-04-11T13:22:12.042Z</time></trkpt><trkpt lat="44.7986217" lon="9.1750317"><ele>533.0</ele><time>2026-04-11T13:22:13.042Z</time></trkpt><trkpt lat="44.7986867" lon="9.174905"><ele>536.0</ele><time>2026-04-11T13:22:14.042Z</time></trkpt><trkpt lat="44.7987517" lon="9.1747583"><ele>539.0</ele><time>2026-04-11T13:22:15.041Z</time></trkpt><trkpt lat="44.798805" lon="9.174605"><ele>539.2</ele><time>2026-04-11T13:22:16.042Z</time></trkpt><trkpt lat="44.7988567" lon="9.17445"><ele>539.4</ele><time>2026-04-11T13:22:17.042Z</time></trkpt><trkpt lat="44.7988733" lon="9.1742983"><ele>539.6</ele><time>2026-04-11T13:22:18.042Z</time></trkpt><trkpt lat="44.7988667" lon="9.1741717"><ele>539.8</ele><time>2026-04-11T13:22:19.042Z</time></trkpt><trkpt lat="44.798845" lon="9.17405"><ele>540.0</ele><time>2026-04-11T13:22:20.042Z</time></trkpt><trkpt lat="44.798785" lon="9.1739333"><ele>540.0</ele><time>2026-04-11T13:22:21.042Z</time></trkpt><trkpt lat="44.7987017" lon="9.1738367"><ele>540.0</ele><time>2026-04-11T13:22:22.042Z</time></trkpt><trkpt lat="44.798605" lon="9.173755"><ele>540.0</ele><time>2026-04-11T13:22:23.042Z</time></trkpt><trkpt lat="44.7985017" lon="9.1736767"><ele>540.0</ele><time>2026-04-11T13:22:24.042Z</time></trkpt><trkpt lat="44.798295" lon="9.17349"><ele>540.0</ele><time>2026-04-11T13:22:26.042Z</time></trkpt><trkpt lat="44.7981817" lon="9.173385"><ele>540.0</ele><time>2026-04-11T13:22:27.041Z</time></trkpt><trkpt lat="44.79807" lon="9.173285"><ele>540.0</ele><time>2026-04-11T13:22:28.042Z</time></trkpt><trkpt lat="44.7978367" lon="9.1730717"><ele>542.3333333333334</ele><time>2026-04-11T13:22:30.042Z</time></trkpt><trkpt lat="44.7977283" lon="9.1729617"><ele>544.6666666666667</ele><time>2026-04-11T13:22:31.042Z</time></trkpt><trkpt lat="44.7976233" lon="9.1728383"><ele>547.0</ele><time>2026-04-11T13:22:32.042Z</time></trkpt><trkpt lat="44.7974567" lon="9.1725467"><ele>547.0</ele><time>2026-04-11T13:22:34.041Z</time></trkpt><trkpt lat="44.7973833" lon="9.1723817"><ele>547.0</ele><time>2026-04-11T13:22:35.042Z</time></trkpt><trkpt lat="44.7972167" lon="9.172035"><ele>547.0</ele><time>2026-04-11T13:22:37.041Z</time></trkpt><trkpt lat="44.797135" lon="9.17186"><ele>548.25</ele><time>2026-04-11T13:22:38.041Z</time></trkpt><trkpt lat="44.7970517" lon="9.1716817"><ele>549.5</ele><time>2026-04-11T13:22:39.042Z</time></trkpt><trkpt lat="44.796965" lon="9.171505"><ele>550.75</ele><time>2026-04-11T13:22:40.042Z</time></trkpt><trkpt lat="44.7968833" lon="9.17134"><ele>552.0</ele><time>2026-04-11T13:22:41.042Z</time></trkpt><trkpt lat="44.7968017" lon="9.17119"><ele>553.5</ele><time>2026-04-11T13:22:42.042Z</time></trkpt><trkpt lat="44.7967283" lon="9.1710483"><ele>555.0</ele><time>2026-04-11T13:22:43.042Z</time></trkpt><trkpt lat="44.796655" lon="9.1709117"><ele>556.5</ele><time>2026-04-11T13:22:44.042Z</time></trkpt><trkpt lat="44.7965683" lon="9.1707833"><ele>558.0</ele><time>2026-04-11T13:22:45.042Z</time></trkpt><trkpt lat="44.7964767" lon="9.170665"><ele>561.0</ele><time>2026-04-11T13:22:46.041Z</time></trkpt><trkpt lat="44.79638" lon="9.170565"><ele>564.0</ele><time>2026-04-11T13:22:47.042Z</time></trkpt><trkpt lat="44.7962717" lon="9.1704817"><ele>567.0</ele><time>2026-04-11T13:22:48.042Z</time></trkpt><trkpt lat="44.7960783" lon="9.1703117"><ele>565.5</ele><time>2026-04-11T13:22:50.042Z</time></trkpt><trkpt lat="44.7958833" lon="9.1701683"><ele>564.0</ele><time>2026-04-11T13:22:52.042Z</time></trkpt><trkpt lat="44.7957883" lon="9.1700867"><ele>562.5</ele><time>2026-04-11T13:22:53.042Z</time></trkpt><trkpt lat="44.7956983" lon="9.1700033"><ele>561.0</ele><time>2026-04-11T13:22:54.042Z</time></trkpt><trkpt lat="44.7956067" lon="9.1699233"><ele>562.6</ele><time>2026-04-11T13:22:55.042Z</time></trkpt><trkpt lat="44.795515" lon="9.169845"><ele>564.2</ele><time>2026-04-11T13:22:56.042Z</time></trkpt><trkpt lat="44.7954233" lon="9.169765"><ele>565.8</ele><time>2026-04-11T13:22:57.042Z</time></trkpt><trkpt lat="44.7953333" lon="9.1696833"><ele>567.4</ele><time>2026-04-11T13:22:58.042Z</time></trkpt><trkpt lat="44.795235" lon="9.1696067"><ele>569.0</ele><time>2026-04-11T13:22:59.041Z</time></trkpt><trkpt lat="44.795135" lon="9.1695233"><ele>569.0</ele><time>2026-04-11T13:23:00.042Z</time></trkpt><trkpt lat="44.794925" lon="9.16935"><ele>569.0</ele><time>2026-04-11T13:23:02.042Z</time></trkpt><trkpt lat="44.794815" lon="9.16925"><ele>569.0</ele><time>2026-04-11T13:23:03.042Z</time></trkpt><trkpt lat="44.7947017" lon="9.1691517"><ele>569.0</ele><time>2026-04-11T13:23:04.042Z</time></trkpt><trkpt lat="44.7945883" lon="9.1690617"><ele>569.0</ele><time>2026-04-11T13:23:05.042Z</time></trkpt><trkpt lat="44.794475" lon="9.1689633"><ele>569.0</ele><time>2026-04-11T13:23:06.042Z</time></trkpt><trkpt lat="44.79436" lon="9.1688617"><ele>569.0</ele><time>2026-04-11T13:23:07.042Z</time></trkpt><trkpt lat="44.794245" lon="9.168755"><ele>571.3333333333333</ele><time>2026-04-11T13:23:08.042Z</time></trkpt><trkpt lat="44.79414" lon="9.1686367"><ele>573.6666666666666</ele><time>2026-04-11T13:23:09.042Z</time></trkpt><trkpt lat="44.7940283" lon="9.1684983"><ele>576.0</ele><time>2026-04-11T13:23:10.041Z</time></trkpt><trkpt lat="44.793825" lon="9.16802"><ele>577.5</ele><time>2026-04-11T13:23:13.042Z</time></trkpt><trkpt lat="44.7937833" lon="9.1678317"><ele>579.0</ele><time>2026-04-11T13:23:14.041Z</time></trkpt><trkpt lat="44.79372" lon="9.1676483"><ele>580.5</ele><time>2026-04-11T13:23:15.042Z</time></trkpt><trkpt lat="44.793665" lon="9.1674683"><ele>582.0</ele><time>2026-04-11T13:23:16.042Z</time></trkpt><trkpt lat="44.7936083" lon="9.1672683"><ele>580.0</ele><time>2026-04-11T13:23:17.042Z</time></trkpt><trkpt lat="44.79349" lon="9.16686"><ele>578.0</ele><time>2026-04-11T13:23:19.041Z</time></trkpt><trkpt lat="44.793435" lon="9.16666"><ele>578.0</ele><time>2026-04-11T13:23:20.042Z</time></trkpt><trkpt lat="44.7933867" lon="9.166465"><ele>578.0</ele><time>2026-04-11T13:23:21.042Z</time></trkpt><trkpt lat="44.793335" lon="9.16626"><ele>578.0</ele><time>2026-04-11T13:23:22.042Z</time></trkpt><trkpt lat="44.79329" lon="9.1660483"><ele>578.0</ele><time>2026-04-11T13:23:23.042Z</time></trkpt><trkpt lat="44.7932417" lon="9.165835"><ele>578.0</ele><time>2026-04-11T13:23:24.042Z</time></trkpt><trkpt lat="44.7932067" lon="9.1656333"><ele>578.0</ele><time>2026-04-11T13:23:25.042Z</time></trkpt><trkpt lat="44.79318" lon="9.1654167"><ele>577.0</ele><time>2026-04-11T13:23:26.042Z</time></trkpt><trkpt lat="44.793165" lon="9.1652017"><ele>576.0</ele><time>2026-04-11T13:23:27.042Z</time></trkpt><trkpt lat="44.7931567" lon="9.16454"><ele>574.3333333333334</ele><time>2026-04-11T13:23:30.042Z</time></trkpt><trkpt lat="44.7931667" lon="9.16433"><ele>572.6666666666667</ele><time>2026-04-11T13:23:31.042Z</time></trkpt><trkpt lat="44.79317" lon="9.1641133"><ele>571.0</ele><time>2026-04-11T13:23:32.041Z</time></trkpt><trkpt lat="44.79317" lon="9.163895"><ele>570.0</ele><time>2026-04-11T13:23:33.041Z</time></trkpt><trkpt lat="44.7931717" lon="9.163675"><ele>569.0</ele><time>2026-04-11T13:23:34.042Z</time></trkpt><trkpt lat="44.793175" lon="9.163455"><ele>568.0</ele><time>2026-04-11T13:23:35.042Z</time></trkpt><trkpt lat="44.7931767" lon="9.1632267"><ele>567.0</ele><time>2026-04-11T13:23:36.042Z</time></trkpt><trkpt lat="44.793175" lon="9.1629967"><ele>566.0</ele><time>2026-04-11T13:23:37.042Z</time></trkpt><trkpt lat="44.7931767" lon="9.1627667"><ele>565.0</ele><time>2026-04-11T13:23:38.042Z</time></trkpt><trkpt lat="44.79318" lon="9.1620667"><ele>563.3333333333334</ele><time>2026-04-11T13:23:41.042Z</time></trkpt><trkpt lat="44.7931883" lon="9.1618317"><ele>561.6666666666666</ele><time>2026-04-11T13:23:42.042Z</time></trkpt><trkpt lat="44.79319" lon="9.1615917"><ele>560.0</ele><time>2026-04-11T13:23:43.041Z</time></trkpt><trkpt lat="44.79319" lon="9.1613517"><ele>559.6666666666666</ele><time>2026-04-11T13:23:44.041Z</time></trkpt><trkpt lat="44.7931883" lon="9.1611133"><ele>559.3333333333334</ele><time>2026-04-11T13:23:45.042Z</time></trkpt><trkpt lat="44.793195" lon="9.1608867"><ele>559.0</ele><time>2026-04-11T13:23:46.041Z</time></trkpt><trkpt lat="44.79319" lon="9.16065"><ele>554.0</ele><time>2026-04-11T13:23:47.042Z</time></trkpt><trkpt lat="44.79319" lon="9.16041"><ele>549.0</ele><time>2026-04-11T13:23:48.042Z</time></trkpt><trkpt lat="44.79314" lon="9.159675"><ele>547.0</ele><time>2026-04-11T13:23:51.042Z</time></trkpt><trkpt lat="44.7931033" lon="9.15943"><ele>545.0</ele><time>2026-04-11T13:23:52.042Z</time></trkpt><trkpt lat="44.7930483" lon="9.159185"><ele>543.0</ele><time>2026-04-11T13:23:53.042Z</time></trkpt><trkpt lat="44.7930033" lon="9.1589483"><ele>548.6666666666666</ele><time>2026-04-11T13:23:54.042Z</time></trkpt><trkpt lat="44.7929567" lon="9.15871"><ele>554.3333333333333</ele><time>2026-04-11T13:23:55.042Z</time></trkpt><trkpt lat="44.7928967" lon="9.1584767"><ele>560.0</ele><time>2026-04-11T13:23:56.042Z</time></trkpt><trkpt lat="44.7927983" lon="9.158055"><ele>558.75</ele><time>2026-04-11T13:23:58.042Z</time></trkpt><trkpt lat="44.7927483" lon="9.1578783"><ele>557.5</ele><time>2026-04-11T13:23:59.042Z</time></trkpt><trkpt lat="44.7926667" lon="9.157745"><ele>556.25</ele><time>2026-04-11T13:24:00.042Z</time></trkpt><trkpt lat="44.7925733" lon="9.1576317"><ele>555.0</ele><time>2026-04-11T13:24:01.042Z</time></trkpt><trkpt lat="44.7923467" lon="9.1574733"><ele>555.0</ele><time>2026-04-11T13:24:03.042Z</time></trkpt><trkpt lat="44.7922417" lon="9.1573783"><ele>555.0</ele><time>2026-04-11T13:24:04.042Z</time></trkpt><trkpt lat="44.7921367" lon="9.1572683"><ele>555.0</ele><time>2026-04-11T13:24:05.042Z</time></trkpt><trkpt lat="44.7920667" lon="9.1571267"><ele>555.0</ele><time>2026-04-11T13:24:06.042Z</time></trkpt><trkpt lat="44.792025" lon="9.1569717"><ele>557.0</ele><time>2026-04-11T13:24:07.041Z</time></trkpt><trkpt lat="44.7919933" lon="9.156815"><ele>559.0</ele><time>2026-04-11T13:24:08.042Z</time></trkpt><trkpt lat="44.7919633" lon="9.156645"><ele>561.0</ele><time>2026-04-11T13:24:09.042Z</time></trkpt><trkpt lat="44.7919217" lon="9.1564867"><ele>563.0</ele><time>2026-04-11T13:24:10.041Z</time></trkpt><trkpt lat="44.791875" lon="9.1563617"><ele>559.5</ele><time>2026-04-11T13:24:11.041Z</time></trkpt><trkpt lat="44.7917767" lon="9.1562417"><ele>556.0</ele><time>2026-04-11T13:24:12.042Z</time></trkpt><trkpt lat="44.791665" lon="9.1561433"><ele>552.5</ele><time>2026-04-11T13:24:13.042Z</time></trkpt><trkpt lat="44.79155" lon="9.1560383"><ele>549.0</ele><time>2026-04-11T13:24:14.042Z</time></trkpt><trkpt lat="44.791435" lon="9.15591"><ele>549.0</ele><time>2026-04-11T13:24:15.042Z</time></trkpt><trkpt lat="44.791325" lon="9.15577"><ele>549.0</ele><time>2026-04-11T13:24:16.042Z</time></trkpt><trkpt lat="44.7912167" lon="9.1556217"><ele>549.0</ele><time>2026-04-11T13:24:17.042Z</time></trkpt><trkpt lat="44.7911067" lon="9.1554633"><ele>542.6666666666666</ele><time>2026-04-11T13:24:18.041Z</time></trkpt><trkpt lat="44.7909883" lon="9.1553017"><ele>536.3333333333333</ele><time>2026-04-11T13:24:19.041Z</time></trkpt><trkpt lat="44.7908833" lon="9.1551633"><ele>530.0</ele><time>2026-04-11T13:24:20.042Z</time></trkpt><trkpt lat="44.7907933" lon="9.1550033"><ele>529.5</ele><time>2026-04-11T13:24:21.042Z</time></trkpt><trkpt lat="44.7907267" lon="9.1548233"><ele>529.0</ele><time>2026-04-11T13:24:22.042Z</time></trkpt><trkpt lat="44.79068" lon="9.1546267"><ele>528.5</ele><time>2026-04-11T13:24:23.042Z</time></trkpt><trkpt lat="44.7906617" lon="9.1544217"><ele>528.0</ele><time>2026-04-11T13:24:24.042Z</time></trkpt><trkpt lat="44.79067" lon="9.1542"><ele>525.6666666666666</ele><time>2026-04-11T13:24:25.042Z</time></trkpt><trkpt lat="44.7906967" lon="9.15398"><ele>523.3333333333333</ele><time>2026-04-11T13:24:26.042Z</time></trkpt><trkpt lat="44.7907333" lon="9.1537633"><ele>521.0</ele><time>2026-04-11T13:24:27.042Z</time></trkpt><trkpt lat="44.7907667" lon="9.1535467"><ele>521.0</ele><time>2026-04-11T13:24:28.042Z</time></trkpt><trkpt lat="44.7907983" lon="9.1533433"><ele>521.0</ele><time>2026-04-11T13:24:29.041Z</time></trkpt><trkpt lat="44.7908183" lon="9.1531483"><ele>521.0</ele><time>2026-04-11T13:24:30.042Z</time></trkpt><trkpt lat="44.79082" lon="9.1529683"><ele>521.0</ele><time>2026-04-11T13:24:31.042Z</time></trkpt><trkpt lat="44.790795" lon="9.152785"><ele>519.2</ele><time>2026-04-11T13:24:32.041Z</time></trkpt><trkpt lat="44.790765" lon="9.1526167"><ele>517.4000000000001</ele><time>2026-04-11T13:24:33.042Z</time></trkpt><trkpt lat="44.7907333" lon="9.1524617"><ele>515.6</ele><time>2026-04-11T13:24:34.042Z</time></trkpt><trkpt lat="44.7907117" lon="9.1523367"><ele>513.8000000000001</ele><time>2026-04-11T13:24:35.042Z</time></trkpt><trkpt lat="44.79068" lon="9.15223"><ele>512.0</ele><time>2026-04-11T13:24:36.042Z</time></trkpt><trkpt lat="44.7906233" lon="9.15215"><ele>516.4</ele><time>2026-04-11T13:24:37.042Z</time></trkpt><trkpt lat="44.790555" lon="9.1521117"><ele>520.8000000000001</ele><time>2026-04-11T13:24:38.042Z</time></trkpt><trkpt lat="44.7904767" lon="9.152095"><ele>525.2</ele><time>2026-04-11T13:24:39.042Z</time></trkpt><trkpt lat="44.7903917" lon="9.152125"><ele>529.6</ele><time>2026-04-11T13:24:40.042Z</time></trkpt><trkpt lat="44.79029" lon="9.1521567"><ele>534.0</ele><time>2026-04-11T13:24:41.042Z</time></trkpt><trkpt lat="44.7901817" lon="9.1521767"><ele>531.6</ele><time>2026-04-11T13:24:42.042Z</time></trkpt><trkpt lat="44.7900767" lon="9.1521917"><ele>529.2</ele><time>2026-04-11T13:24:43.042Z</time></trkpt><trkpt lat="44.7899617" lon="9.15218"><ele>526.8000000000001</ele><time>2026-04-11T13:24:44.042Z</time></trkpt><trkpt lat="44.78986" lon="9.152115"><ele>524.4</ele><time>2026-04-11T13:24:45.041Z</time></trkpt><trkpt lat="44.7897667" lon="9.1520167"><ele>522.0</ele><time>2026-04-11T13:24:46.042Z</time></trkpt><trkpt lat="44.78968" lon="9.15189"><ele>522.0</ele><time>2026-04-11T13:24:47.042Z</time></trkpt><trkpt lat="44.7895933" lon="9.1517317"><ele>522.0</ele><time>2026-04-11T13:24:48.042Z</time></trkpt><trkpt lat="44.789525" lon="9.1515533"><ele>522.0</ele><time>2026-04-11T13:24:49.042Z</time></trkpt><trkpt lat="44.7894717" lon="9.1513633"><ele>522.0</ele><time>2026-04-11T13:24:50.042Z</time></trkpt><trkpt lat="44.789415" lon="9.15116"><ele>516.6666666666666</ele><time>2026-04-11T13:24:51.042Z</time></trkpt><trkpt lat="44.7893317" lon="9.1509683"><ele>511.3333333333333</ele><time>2026-04-11T13:24:52.042Z</time></trkpt><trkpt lat="44.7892433" lon="9.1507717"><ele>506.0</ele><time>2026-04-11T13:24:53.041Z</time></trkpt><trkpt lat="44.7891533" lon="9.15057"><ele>506.0</ele><time>2026-04-11T13:24:54.041Z</time></trkpt><trkpt lat="44.7890583" lon="9.1503733"><ele>506.0</ele><time>2026-04-11T13:24:55.042Z</time></trkpt><trkpt lat="44.78896" lon="9.1501817"><ele>506.0</ele><time>2026-04-11T13:24:56.042Z</time></trkpt><trkpt lat="44.7888667" lon="9.15001"><ele>508.0</ele><time>2026-04-11T13:24:57.042Z</time></trkpt><trkpt lat="44.7887567" lon="9.1498317"><ele>510.0</ele><time>2026-04-11T13:24:58.042Z</time></trkpt><trkpt lat="44.78864" lon="9.149655"><ele>512.0</ele><time>2026-04-11T13:24:59.042Z</time></trkpt><trkpt lat="44.788535" lon="9.1494867"><ele>505.3333333333333</ele><time>2026-04-11T13:25:00.042Z</time></trkpt><trkpt lat="44.788425" lon="9.1493233"><ele>498.66666666666663</ele><time>2026-04-11T13:25:01.041Z</time></trkpt><trkpt lat="44.788305" lon="9.1491567"><ele>492.0</ele><time>2026-04-11T13:25:02.042Z</time></trkpt><trkpt lat="44.7881783" lon="9.1489883"><ele>491.66666666666663</ele><time>2026-04-11T13:25:03.042Z</time></trkpt><trkpt lat="44.788035" lon="9.1488467"><ele>491.3333333333333</ele><time>2026-04-11T13:25:04.042Z</time></trkpt><trkpt lat="44.78788" lon="9.1487317"><ele>491.0</ele><time>2026-04-11T13:25:05.042Z</time></trkpt><trkpt lat="44.7877183" lon="9.14864"><ele>490.3333333333333</ele><time>2026-04-11T13:25:06.042Z</time></trkpt><trkpt lat="44.787555" lon="9.1485517"><ele>489.66666666666663</ele><time>2026-04-11T13:25:07.042Z</time></trkpt><trkpt lat="44.7873833" lon="9.1484667"><ele>489.0</ele><time>2026-04-11T13:25:08.042Z</time></trkpt><trkpt lat="44.7872133" lon="9.1483783"><ele>489.0</ele><time>2026-04-11T13:25:09.042Z</time></trkpt><trkpt lat="44.78706" lon="9.1482983"><ele>489.0</ele><time>2026-04-11T13:25:10.042Z</time></trkpt><trkpt lat="44.7869117" lon="9.14821"><ele>489.0</ele><time>2026-04-11T13:25:11.041Z</time></trkpt><trkpt lat="44.786775" lon="9.14814"><ele>488.25</ele><time>2026-04-11T13:25:12.042Z</time></trkpt><trkpt lat="44.786655" lon="9.148085"><ele>487.5</ele><time>2026-04-11T13:25:13.042Z</time></trkpt><trkpt lat="44.7865433" lon="9.1480167"><ele>486.75</ele><time>2026-04-11T13:25:14.041Z</time></trkpt><trkpt lat="44.7864433" lon="9.1479417"><ele>486.0</ele><time>2026-04-11T13:25:15.042Z</time></trkpt><trkpt lat="44.786355" lon="9.14784"><ele>486.0</ele><time>2026-04-11T13:25:16.042Z</time></trkpt><trkpt lat="44.7862667" lon="9.1477167"><ele>486.0</ele><time>2026-04-11T13:25:17.042Z</time></trkpt><trkpt lat="44.7861933" lon="9.1475717"><ele>486.0</ele><time>2026-04-11T13:25:18.042Z</time></trkpt><trkpt lat="44.786125" lon="9.14743"><ele>486.0</ele><time>2026-04-11T13:25:19.042Z</time></trkpt><trkpt lat="44.7860683" lon="9.1473017"><ele>484.8333333333333</ele><time>2026-04-11T13:25:20.042Z</time></trkpt><trkpt lat="44.7860283" lon="9.14718"><ele>483.66666666666663</ele><time>2026-04-11T13:25:21.042Z</time></trkpt><trkpt lat="44.78598" lon="9.14707"><ele>482.5</ele><time>2026-04-11T13:25:22.042Z</time></trkpt><trkpt lat="44.7859383" lon="9.1469733"><ele>481.3333333333333</ele><time>2026-04-11T13:25:23.042Z</time></trkpt><trkpt lat="44.7858983" lon="9.1468683"><ele>480.16666666666663</ele><time>2026-04-11T13:25:25.042Z</time></trkpt><trkpt lat="44.7858283" lon="9.1468317"><ele>479.0</ele><time>2026-04-11T13:25:29.042Z</time></trkpt><trkpt lat="44.7857567" lon="9.146855"><ele>477.4</ele><time>2026-04-11T13:25:31.042Z</time></trkpt><trkpt lat="44.78564" lon="9.1469283"><ele>475.79999999999995</ele><time>2026-04-11T13:25:33.042Z</time></trkpt><trkpt lat="44.7855633" lon="9.14697"><ele>474.20000000000005</ele><time>2026-04-11T13:25:34.042Z</time></trkpt><trkpt lat="44.7854817" lon="9.1470267"><ele>472.6</ele><time>2026-04-11T13:25:35.042Z</time></trkpt><trkpt lat="44.7853917" lon="9.1470733"><ele>471.0</ele><time>2026-04-11T13:25:36.042Z</time></trkpt><trkpt lat="44.7853033" lon="9.1471333"><ele>471.0</ele><time>2026-04-11T13:25:37.041Z</time></trkpt><trkpt lat="44.7852183" lon="9.1471867"><ele>471.0</ele><time>2026-04-11T13:25:38.042Z</time></trkpt><trkpt lat="44.7851333" lon="9.14724"><ele>471.0</ele><time>2026-04-11T13:25:39.042Z</time></trkpt><trkpt lat="44.7850483" lon="9.1472933"><ele>471.0</ele><time>2026-04-11T13:25:40.042Z</time></trkpt><trkpt lat="44.784965" lon="9.1473333"><ele>471.0</ele><time>2026-04-11T13:25:41.042Z</time></trkpt><trkpt lat="44.7848933" lon="9.1473967"><ele>471.0</ele><time>2026-04-11T13:25:42.042Z</time></trkpt><trkpt lat="44.784825" lon="9.1474817"><ele>471.0</ele><time>2026-04-11T13:25:43.042Z</time></trkpt><trkpt lat="44.784755" lon="9.147565"><ele>471.0</ele><time>2026-04-11T13:25:44.042Z</time></trkpt><trkpt lat="44.7846883" lon="9.14765"><ele>471.0</ele><time>2026-04-11T13:25:45.042Z</time></trkpt><trkpt lat="44.7846183" lon="9.1477283"><ele>471.0</ele><time>2026-04-11T13:25:46.042Z</time></trkpt><trkpt lat="44.7845367" lon="9.1478"><ele>471.0</ele><time>2026-04-11T13:25:47.042Z</time></trkpt><trkpt lat="44.784445" lon="9.1478617"><ele>471.0</ele><time>2026-04-11T13:25:48.042Z</time></trkpt><trkpt lat="44.7843517" lon="9.1479167"><ele>471.0</ele><time>2026-04-11T13:25:49.041Z</time></trkpt><trkpt lat="44.7842817" lon="9.1479567"><ele>471.0</ele><time>2026-04-11T13:25:50.042Z</time></trkpt><trkpt lat="44.7841917" lon="9.147985"><ele>471.0</ele><time>2026-04-11T13:25:52.042Z</time></trkpt><trkpt lat="44.78415" lon="9.1478683"><ele>470.8</ele><time>2026-04-11T13:25:55.042Z</time></trkpt><trkpt lat="44.7841367" lon="9.1477483"><ele>470.6</ele><time>2026-04-11T13:25:57.042Z</time></trkpt><trkpt lat="44.7841067" lon="9.1475933"><ele>470.4</ele><time>2026-04-11T13:25:59.041Z</time></trkpt><trkpt lat="44.7840717" lon="9.1474617"><ele>470.2</ele><time>2026-04-11T13:26:00.042Z</time></trkpt><trkpt lat="44.78403" lon="9.1473017"><ele>470.0</ele><time>2026-04-11T13:26:01.042Z</time></trkpt><trkpt lat="44.783965" lon="9.14709"><ele>469.0</ele><time>2026-04-11T13:26:02.042Z</time></trkpt><trkpt lat="44.7839133" lon="9.14689"><ele>468.0</ele><time>2026-04-11T13:26:03.042Z</time></trkpt><trkpt lat="44.7838583" lon="9.1466633"><ele>467.0</ele><time>2026-04-11T13:26:04.042Z</time></trkpt><trkpt lat="44.7838033" lon="9.14646"><ele>466.8</ele><time>2026-04-11T13:26:05.042Z</time></trkpt><trkpt lat="44.7837633" lon="9.1462867"><ele>466.6</ele><time>2026-04-11T13:26:06.041Z</time></trkpt><trkpt lat="44.7837383" lon="9.146135"><ele>466.40000000000003</ele><time>2026-04-11T13:26:07.042Z</time></trkpt><trkpt lat="44.783735" lon="9.1459867"><ele>466.20000000000005</ele><time>2026-04-11T13:26:08.042Z</time></trkpt><trkpt lat="44.78374" lon="9.14585"><ele>466.0</ele><time>2026-04-11T13:26:09.042Z</time></trkpt><trkpt lat="44.7837567" lon="9.1457183"><ele>466.33333333333337</ele><time>2026-04-11T13:26:10.042Z</time></trkpt><trkpt lat="44.783775" lon="9.1455967"><ele>466.6666666666667</ele><time>2026-04-11T13:26:11.042Z</time></trkpt><trkpt lat="44.7837783" lon="9.1454717"><ele>467.0</ele><time>2026-04-11T13:26:12.042Z</time></trkpt><trkpt lat="44.7837667" lon="9.1453533"><ele>467.33333333333337</ele><time>2026-04-11T13:26:13.042Z</time></trkpt><trkpt lat="44.7837417" lon="9.145255"><ele>467.6666666666667</ele><time>2026-04-11T13:26:14.042Z</time></trkpt><trkpt lat="44.7836917" lon="9.1451567"><ele>468.0</ele><time>2026-04-11T13:26:15.042Z</time></trkpt><trkpt lat="44.78365" lon="9.1450567"><ele>468.0</ele><time>2026-04-11T13:26:16.042Z</time></trkpt><trkpt lat="44.7836067" lon="9.144975"><ele>468.0</ele><time>2026-04-11T13:26:17.042Z</time></trkpt><trkpt lat="44.7835833" lon="9.144885"><ele>468.0</ele><time>2026-04-11T13:26:18.042Z</time></trkpt><trkpt lat="44.7835733" lon="9.1447867"><ele>468.0</ele><time>2026-04-11T13:26:19.042Z</time></trkpt><trkpt lat="44.783635" lon="9.1446533"><ele>468.0</ele><time>2026-04-11T13:26:21.042Z</time></trkpt><trkpt lat="44.783685" lon="9.1445933"><ele>468.0</ele><time>2026-04-11T13:26:22.042Z</time></trkpt><trkpt lat="44.783745" lon="9.1445383"><ele>470.0</ele><time>2026-04-11T13:26:23.042Z</time></trkpt><trkpt lat="44.7838117" lon="9.144495"><ele>472.0</ele><time>2026-04-11T13:26:24.042Z</time></trkpt><trkpt lat="44.78391" lon="9.14437"><ele>474.0</ele><time>2026-04-11T13:26:26.042Z</time></trkpt><trkpt lat="44.783955" lon="9.1442917"><ele>476.0</ele><time>2026-04-11T13:26:27.041Z</time></trkpt><trkpt lat="44.7839933" lon="9.1441967"><ele>478.0</ele><time>2026-04-11T13:26:28.042Z</time></trkpt><trkpt lat="44.7840217" lon="9.1440917"><ele>480.0</ele><time>2026-04-11T13:26:29.042Z</time></trkpt><trkpt lat="44.7840533" lon="9.1439883"><ele>482.1666666666667</ele><time>2026-04-11T13:26:30.041Z</time></trkpt><trkpt lat="44.784085" lon="9.1438767"><ele>484.33333333333337</ele><time>2026-04-11T13:26:31.042Z</time></trkpt><trkpt lat="44.784105" lon="9.1437617"><ele>486.5</ele><time>2026-04-11T13:26:32.042Z</time></trkpt><trkpt lat="44.78413" lon="9.14365"><ele>488.6666666666667</ele><time>2026-04-11T13:26:33.042Z</time></trkpt><trkpt lat="44.7841417" lon="9.1435383"><ele>490.83333333333337</ele><time>2026-04-11T13:26:34.041Z</time></trkpt><trkpt lat="44.7841467" lon="9.1434267"><ele>493.0</ele><time>2026-04-11T13:26:35.042Z</time></trkpt><trkpt lat="44.784145" lon="9.14333"><ele>493.0</ele><time>2026-04-11T13:26:36.041Z</time></trkpt><trkpt lat="44.784155" lon="9.14324"><ele>492.99999999999994</ele><time>2026-04-11T13:26:37.042Z</time></trkpt><trkpt lat="44.7841633" lon="9.14315"><ele>492.99999999999994</ele><time>2026-04-11T13:26:38.042Z</time></trkpt><trkpt lat="44.7841467" lon="9.142975"><ele>493.0</ele><time>2026-04-11T13:26:40.042Z</time></trkpt><trkpt lat="44.7841717" lon="9.1428117"><ele>493.0</ele><time>2026-04-11T13:26:42.041Z</time></trkpt><trkpt lat="44.78422" lon="9.1427033"><ele>494.0</ele><time>2026-04-11T13:26:44.042Z</time></trkpt><trkpt lat="44.78424" lon="9.1426067"><ele>494.99999999999994</ele><time>2026-04-11T13:26:46.041Z</time></trkpt><trkpt lat="44.78421" lon="9.1424817"><ele>495.99999999999994</ele><time>2026-04-11T13:26:48.042Z</time></trkpt><trkpt lat="44.784175" lon="9.142345"><ele>497.0</ele><time>2026-04-11T13:26:50.042Z</time></trkpt><trkpt lat="44.7841433" lon="9.1422"><ele>498.0</ele><time>2026-04-11T13:26:52.042Z</time></trkpt><trkpt lat="44.7840933" lon="9.1420383"><ele>495.3333333333333</ele><time>2026-04-11T13:26:54.042Z</time></trkpt><trkpt lat="44.7840583" lon="9.1419617"><ele>492.66666666666663</ele><time>2026-04-11T13:26:55.042Z</time></trkpt><trkpt lat="44.7840083" lon="9.141895"><ele>490.0</ele><time>2026-04-11T13:26:56.042Z</time></trkpt><trkpt lat="44.7839383" lon="9.1418433"><ele>487.3333333333333</ele><time>2026-04-11T13:26:57.042Z</time></trkpt><trkpt lat="44.7838517" lon="9.1418083"><ele>484.66666666666663</ele><time>2026-04-11T13:26:58.042Z</time></trkpt><trkpt lat="44.7837483" lon="9.14179"><ele>482.0</ele><time>2026-04-11T13:26:59.041Z</time></trkpt><trkpt lat="44.7836467" lon="9.1417917"><ele>481.99999999999994</ele><time>2026-04-11T13:27:00.041Z</time></trkpt><trkpt lat="44.7835533" lon="9.1417983"><ele>482.0</ele><time>2026-04-11T13:27:01.042Z</time></trkpt><trkpt lat="44.7834617" lon="9.1417917"><ele>482.0</ele><time>2026-04-11T13:27:02.042Z</time></trkpt><trkpt lat="44.7833683" lon="9.1417983"><ele>482.0</ele><time>2026-04-11T13:27:03.042Z</time></trkpt><trkpt lat="44.78328" lon="9.141795"><ele>481.99999999999994</ele><time>2026-04-11T13:27:04.042Z</time></trkpt><trkpt lat="44.7832" lon="9.1417733"><ele>482.0</ele><time>2026-04-11T13:27:05.042Z</time></trkpt><trkpt lat="44.783125" lon="9.141735"><ele>482.40000000000003</ele><time>2026-04-11T13:27:06.042Z</time></trkpt><trkpt lat="44.783055" lon="9.1416667"><ele>482.80000000000007</ele><time>2026-04-11T13:27:07.042Z</time></trkpt><trkpt lat="44.7829917" lon="9.141575"><ele>483.2</ele><time>2026-04-11T13:27:08.042Z</time></trkpt><trkpt lat="44.7829217" lon="9.1414583"><ele>483.6</ele><time>2026-04-11T13:27:09.042Z</time></trkpt><trkpt lat="44.78285" lon="9.141325"><ele>484.0</ele><time>2026-04-11T13:27:10.042Z</time></trkpt><trkpt lat="44.782785" lon="9.141195"><ele>483.6</ele><time>2026-04-11T13:27:11.041Z</time></trkpt><trkpt lat="44.782715" lon="9.14108"><ele>483.2</ele><time>2026-04-11T13:27:12.041Z</time></trkpt><trkpt lat="44.7826517" lon="9.1409733"><ele>482.80000000000007</ele><time>2026-04-11T13:27:13.042Z</time></trkpt><trkpt lat="44.7825917" lon="9.1408867"><ele>482.40000000000003</ele><time>2026-04-11T13:27:14.042Z</time></trkpt><trkpt lat="44.7825183" lon="9.1408017"><ele>482.0</ele><time>2026-04-11T13:27:15.042Z</time></trkpt><trkpt lat="44.782445" lon="9.1407133"><ele>482.0</ele><time>2026-04-11T13:27:16.042Z</time></trkpt><trkpt lat="44.7823767" lon="9.1406183"><ele>482.00000000000006</ele><time>2026-04-11T13:27:17.042Z</time></trkpt><trkpt lat="44.7823133" lon="9.140505"><ele>482.00000000000006</ele><time>2026-04-11T13:27:18.041Z</time></trkpt><trkpt lat="44.7822433" lon="9.1403983"><ele>482.0</ele><time>2026-04-11T13:27:19.042Z</time></trkpt><trkpt lat="44.782155" lon="9.1403067"><ele>482.0</ele><time>2026-04-11T13:27:20.042Z</time></trkpt><trkpt lat="44.7820767" lon="9.1402183"><ele>482.0</ele><time>2026-04-11T13:27:21.042Z</time></trkpt><trkpt lat="44.7819967" lon="9.14012"><ele>482.00000000000006</ele><time>2026-04-11T13:27:22.042Z</time></trkpt><trkpt lat="44.7819367" lon="9.14001"><ele>482.00000000000006</ele><time>2026-04-11T13:27:23.042Z</time></trkpt><trkpt lat="44.78189" lon="9.1398933"><ele>482.0</ele><time>2026-04-11T13:27:24.042Z</time></trkpt><trkpt lat="44.78186" lon="9.1397517"><ele>482.0</ele><time>2026-04-11T13:27:25.042Z</time></trkpt><trkpt lat="44.7818367" lon="9.1396133"><ele>482.40000000000003</ele><time>2026-04-11T13:27:26.042Z</time></trkpt><trkpt lat="44.7818017" lon="9.139495"><ele>482.80000000000007</ele><time>2026-04-11T13:27:27.042Z</time></trkpt><trkpt lat="44.7817483" lon="9.1393967"><ele>483.2</ele><time>2026-04-11T13:27:28.042Z</time></trkpt><trkpt lat="44.7816683" lon="9.139325"><ele>483.6</ele><time>2026-04-11T13:27:29.042Z</time></trkpt><trkpt lat="44.7815783" lon="9.1392883"><ele>484.0</ele><time>2026-04-11T13:27:30.042Z</time></trkpt><trkpt lat="44.78148" lon="9.1392833"><ele>484.0</ele><time>2026-04-11T13:27:31.041Z</time></trkpt><trkpt lat="44.7813717" lon="9.1392867"><ele>484.0</ele><time>2026-04-11T13:27:32.042Z</time></trkpt><trkpt lat="44.781255" lon="9.1392783"><ele>484.0</ele><time>2026-04-11T13:27:33.042Z</time></trkpt><trkpt lat="44.7811433" lon="9.1392433"><ele>484.0</ele><time>2026-04-11T13:27:34.042Z</time></trkpt><trkpt lat="44.7810383" lon="9.1391917"><ele>484.6</ele><time>2026-04-11T13:27:35.041Z</time></trkpt><trkpt lat="44.78094" lon="9.1391283"><ele>485.2</ele><time>2026-04-11T13:27:36.042Z</time></trkpt><trkpt lat="44.7808583" lon="9.1390633"><ele>485.80000000000007</ele><time>2026-04-11T13:27:37.041Z</time></trkpt><trkpt lat="44.7807833" lon="9.138985"><ele>486.40000000000003</ele><time>2026-04-11T13:27:38.042Z</time></trkpt><trkpt lat="44.7807117" lon="9.1388967"><ele>487.0</ele><time>2026-04-11T13:27:39.042Z</time></trkpt><trkpt lat="44.780635" lon="9.13878"><ele>488.40000000000003</ele><time>2026-04-11T13:27:40.041Z</time></trkpt><trkpt lat="44.7805717" lon="9.1386517"><ele>489.80000000000007</ele><time>2026-04-11T13:27:41.041Z</time></trkpt><trkpt lat="44.7805133" lon="9.1385283"><ele>491.2</ele><time>2026-04-11T13:27:42.042Z</time></trkpt><trkpt lat="44.7804617" lon="9.1383983"><ele>492.6</ele><time>2026-04-11T13:27:43.042Z</time></trkpt><trkpt lat="44.7804117" lon="9.1382667"><ele>494.0</ele><time>2026-04-11T13:27:44.041Z</time></trkpt><trkpt lat="44.7803583" lon="9.13813"><ele>494.79999999999995</ele><time>2026-04-11T13:27:45.041Z</time></trkpt><trkpt lat="44.7802833" lon="9.1380483"><ele>495.59999999999997</ele><time>2026-04-11T13:27:46.042Z</time></trkpt><trkpt lat="44.7802083" lon="9.137985"><ele>496.4</ele><time>2026-04-11T13:27:47.042Z</time></trkpt><trkpt lat="44.780115" lon="9.1379667"><ele>497.2</ele><time>2026-04-11T13:27:48.042Z</time></trkpt><trkpt lat="44.780015" lon="9.137955"><ele>498.0</ele><time>2026-04-11T13:27:49.042Z</time></trkpt><trkpt lat="44.7799117" lon="9.1379417"><ele>498.0</ele><time>2026-04-11T13:27:50.042Z</time></trkpt><trkpt lat="44.77981" lon="9.1379383"><ele>497.99999999999994</ele><time>2026-04-11T13:27:51.042Z</time></trkpt><trkpt lat="44.7797267" lon="9.1379433"><ele>497.99999999999994</ele><time>2026-04-11T13:27:52.042Z</time></trkpt><trkpt lat="44.779625" lon="9.137905"><ele>498.0</ele><time>2026-04-11T13:27:54.042Z</time></trkpt><trkpt lat="44.7795767" lon="9.1377767"><ele>498.0</ele><time>2026-04-11T13:27:56.041Z</time></trkpt><trkpt lat="44.7795567" lon="9.1376767"><ele>498.0</ele><time>2026-04-11T13:27:57.042Z</time></trkpt><trkpt lat="44.7795383" lon="9.1375683"><ele>498.0</ele><time>2026-04-11T13:27:58.042Z</time></trkpt><trkpt lat="44.7795117" lon="9.1374583"><ele>498.0</ele><time>2026-04-11T13:27:59.042Z</time></trkpt><trkpt lat="44.77948" lon="9.1373533"><ele>498.0</ele><time>2026-04-11T13:28:00.042Z</time></trkpt><trkpt lat="44.7794417" lon="9.137255"><ele>498.0</ele><time>2026-04-11T13:28:01.042Z</time></trkpt><trkpt lat="44.7793833" lon="9.1371633"><ele>498.0</ele><time>2026-04-11T13:28:02.042Z</time></trkpt><trkpt lat="44.7793133" lon="9.1370733"><ele>496.75</ele><time>2026-04-11T13:28:03.042Z</time></trkpt><trkpt lat="44.7792333" lon="9.1369733"><ele>495.5</ele><time>2026-04-11T13:28:04.042Z</time></trkpt><trkpt lat="44.7791617" lon="9.1368533"><ele>494.25</ele><time>2026-04-11T13:28:05.042Z</time></trkpt><trkpt lat="44.7790867" lon="9.1367083"><ele>493.0</ele><time>2026-04-11T13:28:06.042Z</time></trkpt><trkpt lat="44.7790283" lon="9.1365633"><ele>497.0</ele><time>2026-04-11T13:28:07.042Z</time></trkpt><trkpt lat="44.77897" lon="9.1363983"><ele>501.0</ele><time>2026-04-11T13:28:08.041Z</time></trkpt><trkpt lat="44.7789067" lon="9.1362383"><ele>505.0</ele><time>2026-04-11T13:28:09.042Z</time></trkpt><trkpt lat="44.7788417" lon="9.13608"><ele>509.0</ele><time>2026-04-11T13:28:10.042Z</time></trkpt><trkpt lat="44.7787833" lon="9.135945"><ele>509.0</ele><time>2026-04-11T13:28:11.042Z</time></trkpt><trkpt lat="44.7787233" lon="9.1358283"><ele>509.0</ele><time>2026-04-11T13:28:12.042Z</time></trkpt><trkpt lat="44.778655" lon="9.135735"><ele>509.0</ele><time>2026-04-11T13:28:13.041Z</time></trkpt><trkpt lat="44.77858" lon="9.1356433"><ele>509.0</ele><time>2026-04-11T13:28:14.042Z</time></trkpt><trkpt lat="44.778495" lon="9.13559"><ele>509.0</ele><time>2026-04-11T13:28:15.042Z</time></trkpt><trkpt lat="44.7783883" lon="9.13557"><ele>508.4</ele><time>2026-04-11T13:28:16.042Z</time></trkpt><trkpt lat="44.7782833" lon="9.1355733"><ele>507.79999999999995</ele><time>2026-04-11T13:28:17.042Z</time></trkpt><trkpt lat="44.7781767" lon="9.1355817"><ele>507.20000000000005</ele><time>2026-04-11T13:28:18.042Z</time></trkpt><trkpt lat="44.778065" lon="9.1355833"><ele>506.6</ele><time>2026-04-11T13:28:19.042Z</time></trkpt><trkpt lat="44.7779483" lon="9.1355817"><ele>506.0</ele><time>2026-04-11T13:28:20.042Z</time></trkpt><trkpt lat="44.7778317" lon="9.1355817"><ele>506.0</ele><time>2026-04-11T13:28:21.042Z</time></trkpt><trkpt lat="44.7777167" lon="9.1355817"><ele>506.0</ele><time>2026-04-11T13:28:22.042Z</time></trkpt><trkpt lat="44.7775933" lon="9.13556"><ele>506.0</ele><time>2026-04-11T13:28:23.042Z</time></trkpt><trkpt lat="44.7774683" lon="9.1355283"><ele>506.0</ele><time>2026-04-11T13:28:24.042Z</time></trkpt><trkpt lat="44.7773633" lon="9.1354833"><ele>506.8</ele><time>2026-04-11T13:28:25.041Z</time></trkpt><trkpt lat="44.777265" lon="9.1354133"><ele>507.6</ele><time>2026-04-11T13:28:26.042Z</time></trkpt><trkpt lat="44.777175" lon="9.135345"><ele>508.4</ele><time>2026-04-11T13:28:27.042Z</time></trkpt><trkpt lat="44.7770983" lon="9.13528"><ele>509.2</ele><time>2026-04-11T13:28:28.042Z</time></trkpt><trkpt lat="44.777025" lon="9.1352133"><ele>510.0</ele><time>2026-04-11T13:28:29.041Z</time></trkpt><trkpt lat="44.776965" lon="9.1351717"><ele>510.4</ele><time>2026-04-11T13:28:30.041Z</time></trkpt><trkpt lat="44.7768433" lon="9.1351483"><ele>510.8</ele><time>2026-04-11T13:28:32.042Z</time></trkpt><trkpt lat="44.7767167" lon="9.1351567"><ele>511.20000000000005</ele><time>2026-04-11T13:28:34.042Z</time></trkpt><trkpt lat="44.77665" lon="9.1351583"><ele>511.6</ele><time>2026-04-11T13:28:35.042Z</time></trkpt><trkpt lat="44.77657" lon="9.1351517"><ele>512.0</ele><time>2026-04-11T13:28:36.042Z</time></trkpt><trkpt lat="44.7765017" lon="9.13514"><ele>511.99999999999994</ele><time>2026-04-11T13:28:37.042Z</time></trkpt><trkpt lat="44.776425" lon="9.13512"><ele>512.0</ele><time>2026-04-11T13:28:38.042Z</time></trkpt><trkpt lat="44.7763483" lon="9.1351033"><ele>512.0</ele><time>2026-04-11T13:28:39.042Z</time></trkpt><trkpt lat="44.7762683" lon="9.1350817"><ele>512.0</ele><time>2026-04-11T13:28:40.042Z</time></trkpt><trkpt lat="44.7761883" lon="9.13506"><ele>511.99999999999994</ele><time>2026-04-11T13:28:41.042Z</time></trkpt><trkpt lat="44.7761083" lon="9.1350333"><ele>512.0</ele><time>2026-04-11T13:28:42.041Z</time></trkpt><trkpt lat="44.7760283" lon="9.1350083"><ele>513.5</ele><time>2026-04-11T13:28:43.042Z</time></trkpt><trkpt lat="44.7759567" lon="9.1349867"><ele>515.0</ele><time>2026-04-11T13:28:44.042Z</time></trkpt><trkpt lat="44.7758733" lon="9.1349617"><ele>516.5</ele><time>2026-04-11T13:28:45.042Z</time></trkpt><trkpt lat="44.7757833" lon="9.1349467"><ele>518.0</ele><time>2026-04-11T13:28:46.042Z</time></trkpt><trkpt lat="44.775695" lon="9.1349283"><ele>519.5</ele><time>2026-04-11T13:28:47.042Z</time></trkpt><trkpt lat="44.7756067" lon="9.1349133"><ele>521.0</ele><time>2026-04-11T13:28:48.042Z</time></trkpt><trkpt lat="44.775515" lon="9.13489"><ele>523.4</ele><time>2026-04-11T13:28:49.042Z</time></trkpt><trkpt lat="44.7754233" lon="9.134855"><ele>525.8</ele><time>2026-04-11T13:28:50.042Z</time></trkpt><trkpt lat="44.7753267" lon="9.1348233"><ele>528.1999999999999</ele><time>2026-04-11T13:28:51.042Z</time></trkpt><trkpt lat="44.7752367" lon="9.1347917"><ele>530.6</ele><time>2026-04-11T13:28:52.041Z</time></trkpt><trkpt lat="44.7751333" lon="9.13474"><ele>533.0</ele><time>2026-04-11T13:28:53.042Z</time></trkpt><trkpt lat="44.7750283" lon="9.13469"><ele>533.5</ele><time>2026-04-11T13:28:54.042Z</time></trkpt><trkpt lat="44.77493" lon="9.134655"><ele>534.0</ele><time>2026-04-11T13:28:55.041Z</time></trkpt><trkpt lat="44.774845" lon="9.13462"><ele>534.5</ele><time>2026-04-11T13:28:56.041Z</time></trkpt><trkpt lat="44.7747717" lon="9.1345917"><ele>535.0</ele><time>2026-04-11T13:28:57.041Z</time></trkpt><trkpt lat="44.7746933" lon="9.13455"><ele>535.5</ele><time>2026-04-11T13:28:58.042Z</time></trkpt><trkpt lat="44.7746217" lon="9.1344883"><ele>536.0</ele><time>2026-04-11T13:28:59.042Z</time></trkpt><trkpt lat="44.7745517" lon="9.1344117"><ele>536.0</ele><time>2026-04-11T13:29:00.042Z</time></trkpt><trkpt lat="44.77448" lon="9.1343217"><ele>536.0</ele><time>2026-04-11T13:29:01.042Z</time></trkpt><trkpt lat="44.77441" lon="9.134225"><ele>536.0</ele><time>2026-04-11T13:29:02.042Z</time></trkpt><trkpt lat="44.7743433" lon="9.1341017"><ele>536.0</ele><time>2026-04-11T13:29:03.042Z</time></trkpt><trkpt lat="44.7743017" lon="9.13398"><ele>536.0</ele><time>2026-04-11T13:29:04.042Z</time></trkpt><trkpt lat="44.7742783" lon="9.1338433"><ele>538.6</ele><time>2026-04-11T13:29:05.042Z</time></trkpt><trkpt lat="44.774265" lon="9.1337"><ele>541.2</ele><time>2026-04-11T13:29:06.042Z</time></trkpt><trkpt lat="44.7742533" lon="9.1335417"><ele>543.8</ele><time>2026-04-11T13:29:07.042Z</time></trkpt><trkpt lat="44.77424" lon="9.133395"><ele>546.4</ele><time>2026-04-11T13:29:08.041Z</time></trkpt><trkpt lat="44.774225" lon="9.1332433"><ele>549.0</ele><time>2026-04-11T13:29:09.042Z</time></trkpt><trkpt lat="44.7742083" lon="9.1330967"><ele>550.6</ele><time>2026-04-11T13:29:10.042Z</time></trkpt><trkpt lat="44.7742083" lon="9.1329583"><ele>552.2</ele><time>2026-04-11T13:29:11.041Z</time></trkpt><trkpt lat="44.7742083" lon="9.13281"><ele>553.8000000000001</ele><time>2026-04-11T13:29:12.042Z</time></trkpt><trkpt lat="44.7742017" lon="9.1326733"><ele>555.4</ele><time>2026-04-11T13:29:13.042Z</time></trkpt><trkpt lat="44.7742067" lon="9.1325567"><ele>557.0</ele><time>2026-04-11T13:29:14.042Z</time></trkpt><trkpt lat="44.7742067" lon="9.1324417"><ele>558.4</ele><time>2026-04-11T13:29:15.042Z</time></trkpt><trkpt lat="44.7742483" lon="9.1322917"><ele>559.8000000000001</ele><time>2026-04-11T13:29:17.042Z</time></trkpt><trkpt lat="44.7743567" lon="9.1322083"><ele>561.2</ele><time>2026-04-11T13:29:19.042Z</time></trkpt><trkpt lat="44.7744283" lon="9.1322083"><ele>562.6</ele><time>2026-04-11T13:29:20.042Z</time></trkpt><trkpt lat="44.77451" lon="9.132225"><ele>564.0</ele><time>2026-04-11T13:29:21.042Z</time></trkpt><trkpt lat="44.7745967" lon="9.1322417"><ele>565.8</ele><time>2026-04-11T13:29:22.042Z</time></trkpt><trkpt lat="44.7746833" lon="9.1322433"><ele>567.5999999999999</ele><time>2026-04-11T13:29:23.042Z</time></trkpt><trkpt lat="44.7747767" lon="9.1322417"><ele>569.4</ele><time>2026-04-11T13:29:24.042Z</time></trkpt><trkpt lat="44.77487" lon="9.1322283"><ele>571.1999999999999</ele><time>2026-04-11T13:29:25.042Z</time></trkpt><trkpt lat="44.77497" lon="9.1322083"><ele>573.0</ele><time>2026-04-11T13:29:26.042Z</time></trkpt><trkpt lat="44.7750783" lon="9.13219"><ele>573.0</ele><time>2026-04-11T13:29:27.042Z</time></trkpt><trkpt lat="44.77518" lon="9.13217"><ele>573.0</ele><time>2026-04-11T13:29:28.041Z</time></trkpt><trkpt lat="44.7752833" lon="9.1321517"><ele>573.0</ele><time>2026-04-11T13:29:29.042Z</time></trkpt><trkpt lat="44.775385" lon="9.1321417"><ele>573.0</ele><time>2026-04-11T13:29:30.042Z</time></trkpt><trkpt lat="44.7754833" lon="9.13213"><ele>573.0</ele><time>2026-04-11T13:29:31.042Z</time></trkpt><trkpt lat="44.775585" lon="9.1321317"><ele>573.6666666666666</ele><time>2026-04-11T13:29:32.041Z</time></trkpt><trkpt lat="44.7756767" lon="9.1321217"><ele>574.3333333333334</ele><time>2026-04-11T13:29:33.042Z</time></trkpt><trkpt lat="44.7757617" lon="9.132115"><ele>575.0</ele><time>2026-04-11T13:29:34.042Z</time></trkpt><trkpt lat="44.7758417" lon="9.1320967"><ele>575.6666666666667</ele><time>2026-04-11T13:29:35.042Z</time></trkpt><trkpt lat="44.7759183" lon="9.132075"><ele>576.3333333333334</ele><time>2026-04-11T13:29:36.042Z</time></trkpt><trkpt lat="44.7759933" lon="9.13206"><ele>577.0</ele><time>2026-04-11T13:29:37.042Z</time></trkpt><trkpt lat="44.7760667" lon="9.1320367"><ele>577.0</ele><time>2026-04-11T13:29:38.041Z</time></trkpt><trkpt lat="44.7761433" lon="9.1320083"><ele>577.0</ele><time>2026-04-11T13:29:39.042Z</time></trkpt><trkpt lat="44.7762183" lon="9.1319833"><ele>577.0</ele><time>2026-04-11T13:29:40.042Z</time></trkpt><trkpt lat="44.77628" lon="9.1319583"><ele>577.0</ele><time>2026-04-11T13:29:41.042Z</time></trkpt><trkpt lat="44.7763867" lon="9.1319517"><ele>577.0</ele><time>2026-04-11T13:29:43.042Z</time></trkpt><trkpt lat="44.776515" lon="9.13195"><ele>577.0</ele><time>2026-04-11T13:29:45.042Z</time></trkpt><trkpt lat="44.776585" lon="9.1319383"><ele>577.0</ele><time>2026-04-11T13:29:46.041Z</time></trkpt><trkpt lat="44.7766433" lon="9.131895"><ele>577.0</ele><time>2026-04-11T13:29:47.041Z</time></trkpt><trkpt lat="44.776695" lon="9.1318383"><ele>577.0</ele><time>2026-04-11T13:29:48.042Z</time></trkpt><trkpt lat="44.7767617" lon="9.1317"><ele>577.0</ele><time>2026-04-11T13:29:50.041Z</time></trkpt><trkpt lat="44.7767933" lon="9.131555"><ele>577.0</ele><time>2026-04-11T13:29:52.041Z</time></trkpt><trkpt lat="44.77676" lon="9.131455"><ele>580.0</ele><time>2026-04-11T13:29:54.042Z</time></trkpt><trkpt lat="44.7766933" lon="9.13138"><ele>583.0</ele><time>2026-04-11T13:29:56.042Z</time></trkpt><trkpt lat="44.776615" lon="9.1313483"><ele>586.0</ele><time>2026-04-11T13:29:58.041Z</time></trkpt><trkpt lat="44.7765033" lon="9.1313017"><ele>589.0</ele><time>2026-04-11T13:30:00.042Z</time></trkpt><trkpt lat="44.7764417" lon="9.1312683"><ele>592.0</ele><time>2026-04-11T13:30:01.042Z</time></trkpt><trkpt lat="44.7763733" lon="9.1312283"><ele>595.0</ele><time>2026-04-11T13:30:02.042Z</time></trkpt><trkpt lat="44.7763083" lon="9.1311967"><ele>595.0</ele><time>2026-04-11T13:30:03.042Z</time></trkpt><trkpt lat="44.77624" lon="9.1311617"><ele>595.0</ele><time>2026-04-11T13:30:04.042Z</time></trkpt><trkpt lat="44.7761733" lon="9.131135"><ele>595.0</ele><time>2026-04-11T13:30:05.042Z</time></trkpt><trkpt lat="44.7761017" lon="9.1311067"><ele>595.0</ele><time>2026-04-11T13:30:06.042Z</time></trkpt><trkpt lat="44.77603" lon="9.1310717"><ele>595.0</ele><time>2026-04-11T13:30:07.042Z</time></trkpt><trkpt lat="44.7759583" lon="9.1310367"><ele>595.0</ele><time>2026-04-11T13:30:08.042Z</time></trkpt><trkpt lat="44.7758867" lon="9.1310017"><ele>595.0</ele><time>2026-04-11T13:30:09.042Z</time></trkpt><trkpt lat="44.7758183" lon="9.1309767"><ele>596.7142857142857</ele><time>2026-04-11T13:30:10.042Z</time></trkpt><trkpt lat="44.7757517" lon="9.130945"><ele>598.4285714285714</ele><time>2026-04-11T13:30:11.042Z</time></trkpt><trkpt lat="44.77569" lon="9.1309183"><ele>600.1428571428571</ele><time>2026-04-11T13:30:12.042Z</time></trkpt><trkpt lat="44.7756317" lon="9.1308817"><ele>601.8571428571429</ele><time>2026-04-11T13:30:13.042Z</time></trkpt><trkpt lat="44.77558" lon="9.1308183"><ele>603.5714285714286</ele><time>2026-04-11T13:30:14.042Z</time></trkpt><trkpt lat="44.7755383" lon="9.130735"><ele>605.2857142857142</ele><time>2026-04-11T13:30:15.042Z</time></trkpt><trkpt lat="44.77551" lon="9.1306417"><ele>607.0</ele><time>2026-04-11T13:30:16.042Z</time></trkpt><trkpt lat="44.775485" lon="9.1305283"><ele>609.0</ele><time>2026-04-11T13:30:17.042Z</time></trkpt><trkpt lat="44.77546" lon="9.1304133"><ele>611.0</ele><time>2026-04-11T13:30:18.042Z</time></trkpt><trkpt lat="44.77544" lon="9.1303"><ele>613.0</ele><time>2026-04-11T13:30:19.042Z</time></trkpt><trkpt lat="44.7754217" lon="9.1301817"><ele>615.0</ele><time>2026-04-11T13:30:20.042Z</time></trkpt><trkpt lat="44.77541" lon="9.1300617"><ele>617.0</ele><time>2026-04-11T13:30:21.042Z</time></trkpt><trkpt lat="44.7753967" lon="9.1299433"><ele>619.0</ele><time>2026-04-11T13:30:22.041Z</time></trkpt><trkpt lat="44.7753983" lon="9.12983"><ele>620.5</ele><time>2026-04-11T13:30:23.042Z</time></trkpt><trkpt lat="44.7754133" lon="9.1297167"><ele>622.0</ele><time>2026-04-11T13:30:24.042Z</time></trkpt><trkpt lat="44.7754283" lon="9.129605"><ele>623.5</ele><time>2026-04-11T13:30:25.042Z</time></trkpt><trkpt lat="44.7754467" lon="9.1294917"><ele>625.0</ele><time>2026-04-11T13:30:26.042Z</time></trkpt><trkpt lat="44.775445" lon="9.129395"><ele>626.5</ele><time>2026-04-11T13:30:27.042Z</time></trkpt><trkpt lat="44.7754333" lon="9.1292933"><ele>628.0</ele><time>2026-04-11T13:30:28.042Z</time></trkpt><trkpt lat="44.77543" lon="9.1291883"><ele>628.0</ele><time>2026-04-11T13:30:29.042Z</time></trkpt><trkpt lat="44.7754383" lon="9.1290867"><ele>628.0</ele><time>2026-04-11T13:30:30.042Z</time></trkpt><trkpt lat="44.7754483" lon="9.1289967"><ele>628.0</ele><time>2026-04-11T13:30:31.041Z</time></trkpt><trkpt lat="44.7754433" lon="9.1288317"><ele>628.0</ele><time>2026-04-11T13:30:33.041Z</time></trkpt><trkpt lat="44.775385" lon="9.1286983"><ele>628.0</ele><time>2026-04-11T13:30:35.042Z</time></trkpt><trkpt lat="44.7753183" lon="9.1285633"><ele>629.6666666666667</ele><time>2026-04-11T13:30:37.042Z</time></trkpt><trkpt lat="44.7752967" lon="9.1284783"><ele>631.3333333333334</ele><time>2026-04-11T13:30:38.042Z</time></trkpt><trkpt lat="44.77527" lon="9.12832"><ele>633.0</ele><time>2026-04-11T13:30:40.042Z</time></trkpt><trkpt lat="44.7751917" lon="9.12818"><ele>634.6666666666666</ele><time>2026-04-11T13:30:42.041Z</time></trkpt><trkpt lat="44.77514" lon="9.1281183"><ele>636.3333333333333</ele><time>2026-04-11T13:30:43.042Z</time></trkpt><trkpt lat="44.7750833" lon="9.1280533"><ele>638.0</ele><time>2026-04-11T13:30:44.041Z</time></trkpt><trkpt lat="44.775035" lon="9.1279767"><ele>638.4</ele><time>2026-04-11T13:30:45.042Z</time></trkpt><trkpt lat="44.7749783" lon="9.1278983"><ele>638.8</ele><time>2026-04-11T13:30:46.042Z</time></trkpt><trkpt lat="44.7749167" lon="9.1278167"><ele>639.2</ele><time>2026-04-11T13:30:47.042Z</time></trkpt><trkpt lat="44.7748367" lon="9.12775"><ele>639.6</ele><time>2026-04-11T13:30:48.042Z</time></trkpt><trkpt lat="44.77475" lon="9.12769"><ele>640.0</ele><time>2026-04-11T13:30:49.042Z</time></trkpt><trkpt lat="44.7746583" lon="9.1276383"><ele>640.0</ele><time>2026-04-11T13:30:50.042Z</time></trkpt><trkpt lat="44.7745817" lon="9.1276083"><ele>640.0</ele><time>2026-04-11T13:30:51.042Z</time></trkpt><trkpt lat="44.7745167" lon="9.1275917"><ele>640.0</ele><time>2026-04-11T13:30:52.042Z</time></trkpt><trkpt lat="44.7744517" lon="9.1275883"><ele>640.0</ele><time>2026-04-11T13:30:53.042Z</time></trkpt><trkpt lat="44.774385" lon="9.1276167"><ele>640.0</ele><time>2026-04-11T13:30:54.042Z</time></trkpt><trkpt lat="44.7743283" lon="9.1276667"><ele>640.0</ele><time>2026-04-11T13:30:55.042Z</time></trkpt><trkpt lat="44.7742683" lon="9.1277167"><ele>640.0</ele><time>2026-04-11T13:30:56.042Z</time></trkpt><trkpt lat="44.774205" lon="9.1277733"><ele>637.0</ele><time>2026-04-11T13:30:57.042Z</time></trkpt><trkpt lat="44.7741267" lon="9.1278367"><ele>634.0</ele><time>2026-04-11T13:30:58.042Z</time></trkpt><trkpt lat="44.774045" lon="9.127885"><ele>631.0</ele><time>2026-04-11T13:30:59.041Z</time></trkpt><trkpt lat="44.77396" lon="9.1279283"><ele>628.0</ele><time>2026-04-11T13:31:00.042Z</time></trkpt><trkpt lat="44.7738667" lon="9.12797"><ele>625.0</ele><time>2026-04-11T13:31:01.042Z</time></trkpt><trkpt lat="44.7737667" lon="9.1280133"><ele>625.0</ele><time>2026-04-11T13:31:02.042Z</time></trkpt><trkpt lat="44.77366" lon="9.1280567"><ele>625.0</ele><time>2026-04-11T13:31:03.042Z</time></trkpt><trkpt lat="44.7735633" lon="9.128105"><ele>625.0</ele><time>2026-04-11T13:31:04.042Z</time></trkpt><trkpt lat="44.7734717" lon="9.1281567"><ele>625.0</ele><time>2026-04-11T13:31:05.042Z</time></trkpt><trkpt lat="44.7733817" lon="9.128205"><ele>625.0</ele><time>2026-04-11T13:31:06.042Z</time></trkpt><trkpt lat="44.77329" lon="9.12825"><ele>622.8</ele><time>2026-04-11T13:31:07.041Z</time></trkpt><trkpt lat="44.7732067" lon="9.12831"><ele>620.6</ele><time>2026-04-11T13:31:08.042Z</time></trkpt><trkpt lat="44.7731233" lon="9.1283717"><ele>618.4</ele><time>2026-04-11T13:31:09.042Z</time></trkpt><trkpt lat="44.7730417" lon="9.1284517"><ele>616.2</ele><time>2026-04-11T13:31:10.041Z</time></trkpt><trkpt lat="44.7729567" lon="9.1285333"><ele>614.0</ele><time>2026-04-11T13:31:11.042Z</time></trkpt><trkpt lat="44.7728633" lon="9.12862"><ele>614.0</ele><time>2026-04-11T13:31:12.042Z</time></trkpt><trkpt lat="44.7727683" lon="9.128705"><ele>614.0</ele><time>2026-04-11T13:31:13.042Z</time></trkpt><trkpt lat="44.7726717" lon="9.12879"><ele>614.0</ele><time>2026-04-11T13:31:14.042Z</time></trkpt><trkpt lat="44.7725783" lon="9.1288833"><ele>614.0</ele><time>2026-04-11T13:31:15.042Z</time></trkpt><trkpt lat="44.7724867" lon="9.1289717"><ele>613.1666666666666</ele><time>2026-04-11T13:31:16.042Z</time></trkpt><trkpt lat="44.772395" lon="9.129055"><ele>612.3333333333333</ele><time>2026-04-11T13:31:17.042Z</time></trkpt><trkpt lat="44.7723083" lon="9.12913"><ele>611.5</ele><time>2026-04-11T13:31:18.042Z</time></trkpt><trkpt lat="44.7722383" lon="9.1291933"><ele>610.6666666666666</ele><time>2026-04-11T13:31:19.042Z</time></trkpt><trkpt lat="44.7721683" lon="9.1292483"><ele>609.8333333333334</ele><time>2026-04-11T13:31:20.042Z</time></trkpt><trkpt lat="44.7721067" lon="9.1293033"><ele>609.0</ele><time>2026-04-11T13:31:21.042Z</time></trkpt><trkpt lat="44.77201" lon="9.1293667"><ele>609.0</ele><time>2026-04-11T13:31:23.042Z</time></trkpt><trkpt lat="44.7719583" lon="9.1292883"><ele>609.0</ele><time>2026-04-11T13:31:27.042Z</time></trkpt><trkpt lat="44.772" lon="9.1291817"><ele>609.0</ele><time>2026-04-11T13:31:29.042Z</time></trkpt><trkpt lat="44.7720367" lon="9.1291"><ele>609.0</ele><time>2026-04-11T13:31:30.041Z</time></trkpt><trkpt lat="44.772075" lon="9.1290017"><ele>609.0</ele><time>2026-04-11T13:31:31.042Z</time></trkpt><trkpt lat="44.77212" lon="9.1288867"><ele>609.0</ele><time>2026-04-11T13:31:32.042Z</time></trkpt><trkpt lat="44.77216" lon="9.12876"><ele>608.4</ele><time>2026-04-11T13:31:33.041Z</time></trkpt><trkpt lat="44.7721983" lon="9.128615"><ele>607.8</ele><time>2026-04-11T13:31:34.042Z</time></trkpt><trkpt lat="44.7722383" lon="9.1284667"><ele>607.2</ele><time>2026-04-11T13:31:35.042Z</time></trkpt><trkpt lat="44.77227" lon="9.1283233"><ele>606.6</ele><time>2026-04-11T13:31:36.042Z</time></trkpt><trkpt lat="44.7723017" lon="9.1281767"><ele>606.0</ele><time>2026-04-11T13:31:37.042Z</time></trkpt><trkpt lat="44.7723383" lon="9.1280383"><ele>603.25</ele><time>2026-04-11T13:31:38.042Z</time></trkpt><trkpt lat="44.77238" lon="9.1278933"><ele>600.5</ele><time>2026-04-11T13:31:39.041Z</time></trkpt><trkpt lat="44.7724283" lon="9.1277417"><ele>597.75</ele><time>2026-04-11T13:31:40.042Z</time></trkpt><trkpt lat="44.77248" lon="9.12759"><ele>595.0</ele><time>2026-04-11T13:31:41.042Z</time></trkpt><trkpt lat="44.77253" lon="9.1274417"><ele>595.4</ele><time>2026-04-11T13:31:42.042Z</time></trkpt><trkpt lat="44.77258" lon="9.1273067"><ele>595.8</ele><time>2026-04-11T13:31:43.042Z</time></trkpt><trkpt lat="44.77263" lon="9.1271867"><ele>596.2</ele><time>2026-04-11T13:31:44.042Z</time></trkpt><trkpt lat="44.7726867" lon="9.1270867"><ele>596.6</ele><time>2026-04-11T13:31:45.042Z</time></trkpt><trkpt lat="44.77276" lon="9.1269933"><ele>597.0</ele><time>2026-04-11T13:31:46.042Z</time></trkpt><trkpt lat="44.772835" lon="9.1269117"><ele>597.0</ele><time>2026-04-11T13:31:47.042Z</time></trkpt><trkpt lat="44.7729183" lon="9.126845"><ele>597.0</ele><time>2026-04-11T13:31:48.042Z</time></trkpt><trkpt lat="44.7729933" lon="9.126775"><ele>597.0</ele><time>2026-04-11T13:31:49.042Z</time></trkpt><trkpt lat="44.7730583" lon="9.1266933"><ele>597.0</ele><time>2026-04-11T13:31:50.042Z</time></trkpt><trkpt lat="44.7731117" lon="9.126605"><ele>597.0</ele><time>2026-04-11T13:31:51.042Z</time></trkpt><trkpt lat="44.773145" lon="9.1264983"><ele>597.0</ele><time>2026-04-11T13:31:52.042Z</time></trkpt><trkpt lat="44.7731433" lon="9.1263867"><ele>595.3333333333334</ele><time>2026-04-11T13:31:53.042Z</time></trkpt><trkpt lat="44.7731283" lon="9.1262733"><ele>593.6666666666666</ele><time>2026-04-11T13:31:54.041Z</time></trkpt><trkpt lat="44.7730933" lon="9.12617"><ele>592.0</ele><time>2026-04-11T13:31:55.041Z</time></trkpt><trkpt lat="44.77305" lon="9.1260683"><ele>590.3333333333333</ele><time>2026-04-11T13:31:56.042Z</time></trkpt><trkpt lat="44.7730117" lon="9.1259483"><ele>588.6666666666666</ele><time>2026-04-11T13:31:57.042Z</time></trkpt><trkpt lat="44.7729767" lon="9.1258167"><ele>587.0</ele><time>2026-04-11T13:31:58.042Z</time></trkpt><trkpt lat="44.77296" lon="9.1256867"><ele>584.0</ele><time>2026-04-11T13:31:59.042Z</time></trkpt><trkpt lat="44.7729633" lon="9.1255367"><ele>581.0</ele><time>2026-04-11T13:32:00.041Z</time></trkpt><trkpt lat="44.7729867" lon="9.1253867"><ele>578.0</ele><time>2026-04-11T13:32:01.041Z</time></trkpt><trkpt lat="44.7730283" lon="9.125235"><ele>575.0</ele><time>2026-04-11T13:32:02.041Z</time></trkpt><trkpt lat="44.7730767" lon="9.12507"><ele>575.0</ele><time>2026-04-11T13:32:03.041Z</time></trkpt><trkpt lat="44.7731283" lon="9.12491"><ele>575.0</ele><time>2026-04-11T13:32:04.041Z</time></trkpt><trkpt lat="44.7731717" lon="9.1247767"><ele>575.0</ele><time>2026-04-11T13:32:05.041Z</time></trkpt><trkpt lat="44.7731983" lon="9.1246717"><ele>575.0</ele><time>2026-04-11T13:32:06.041Z</time></trkpt><trkpt lat="44.77321" lon="9.12458"><ele>575.0</ele><time>2026-04-11T13:32:07.041Z</time></trkpt><trkpt lat="44.7731633" lon="9.1244567"><ele>573.4</ele><time>2026-04-11T13:32:09.041Z</time></trkpt><trkpt lat="44.7730517" lon="9.1244217"><ele>571.8</ele><time>2026-04-11T13:32:11.041Z</time></trkpt><trkpt lat="44.772975" lon="9.12444"><ele>570.2</ele><time>2026-04-11T13:32:12.04Z</time></trkpt><trkpt lat="44.77289" lon="9.12449"><ele>568.6</ele><time>2026-04-11T13:32:13.041Z</time></trkpt><trkpt lat="44.7728017" lon="9.1245483"><ele>567.0</ele><time>2026-04-11T13:32:14.041Z</time></trkpt><trkpt lat="44.7727067" lon="9.124605"><ele>565.2</ele><time>2026-04-11T13:32:15.04Z</time></trkpt><trkpt lat="44.7726233" lon="9.1246583"><ele>563.4000000000001</ele><time>2026-04-11T13:32:16.041Z</time></trkpt><trkpt lat="44.7725517" lon="9.1246983"><ele>561.5999999999999</ele><time>2026-04-11T13:32:17.041Z</time></trkpt><trkpt lat="44.7724567" lon="9.1247167"><ele>559.8</ele><time>2026-04-11T13:32:19.04Z</time></trkpt><trkpt lat="44.77239" lon="9.1246417"><ele>558.0</ele><time>2026-04-11T13:32:21.041Z</time></trkpt><trkpt lat="44.7724" lon="9.1244783"><ele>558.0</ele><time>2026-04-11T13:32:23.04Z</time></trkpt><trkpt lat="44.7724233" lon="9.12436"><ele>558.0</ele><time>2026-04-11T13:32:24.041Z</time></trkpt><trkpt lat="44.7724533" lon="9.1242267"><ele>558.0</ele><time>2026-04-11T13:32:25.041Z</time></trkpt><trkpt lat="44.772485" lon="9.124085"><ele>558.0</ele><time>2026-04-11T13:32:26.04Z</time></trkpt><trkpt lat="44.7725167" lon="9.1239317"><ele>558.0</ele><time>2026-04-11T13:32:27.041Z</time></trkpt><trkpt lat="44.7725517" lon="9.1237733"><ele>556.8</ele><time>2026-04-11T13:32:28.041Z</time></trkpt><trkpt lat="44.7725983" lon="9.12363"><ele>555.5999999999999</ele><time>2026-04-11T13:32:29.041Z</time></trkpt><trkpt lat="44.772655" lon="9.1234833"><ele>554.4000000000001</ele><time>2026-04-11T13:32:30.041Z</time></trkpt><trkpt lat="44.77271" lon="9.1233567"><ele>553.2</ele><time>2026-04-11T13:32:31.041Z</time></trkpt><trkpt lat="44.77277" lon="9.123255"><ele>552.0</ele><time>2026-04-11T13:32:32.041Z</time></trkpt><trkpt lat="44.7728317" lon="9.1231683"><ele>550.5</ele><time>2026-04-11T13:32:33.041Z</time></trkpt><trkpt lat="44.7728933" lon="9.1230983"><ele>549.0</ele><time>2026-04-11T13:32:34.041Z</time></trkpt><trkpt lat="44.77294" lon="9.1230383"><ele>547.5</ele><time>2026-04-11T13:32:35.041Z</time></trkpt><trkpt lat="44.7729767" lon="9.122895"><ele>546.0</ele><time>2026-04-11T13:32:37.041Z</time></trkpt><trkpt lat="44.77293" lon="9.1227517"><ele>544.5</ele><time>2026-04-11T13:32:39.04Z</time></trkpt><trkpt lat="44.77287" lon="9.1227"><ele>543.0</ele><time>2026-04-11T13:32:40.041Z</time></trkpt><trkpt lat="44.772795" lon="9.122655"><ele>543.0</ele><time>2026-04-11T13:32:41.041Z</time></trkpt><trkpt lat="44.7727233" lon="9.122615"><ele>543.0</ele><time>2026-04-11T13:32:42.041Z</time></trkpt><trkpt lat="44.7726483" lon="9.122595"><ele>543.0</ele><time>2026-04-11T13:32:43.04Z</time></trkpt><trkpt lat="44.7725733" lon="9.1225833"><ele>543.0</ele><time>2026-04-11T13:32:44.041Z</time></trkpt><trkpt lat="44.7724967" lon="9.1225867"><ele>543.0</ele><time>2026-04-11T13:32:45.041Z</time></trkpt><trkpt lat="44.7724117" lon="9.122585"><ele>543.0</ele><time>2026-04-11T13:32:46.041Z</time></trkpt><trkpt lat="44.7723133" lon="9.1225983"><ele>543.0</ele><time>2026-04-11T13:32:47.041Z</time></trkpt><trkpt lat="44.7722217" lon="9.1226117"><ele>543.0</ele><time>2026-04-11T13:32:48.041Z</time></trkpt><trkpt lat="44.7721333" lon="9.122635"><ele>543.0</ele><time>2026-04-11T13:32:49.04Z</time></trkpt><trkpt lat="44.77205" lon="9.122655"><ele>543.0</ele><time>2026-04-11T13:32:50.041Z</time></trkpt><trkpt lat="44.77197" lon="9.1226717"><ele>543.0</ele><time>2026-04-11T13:32:51.041Z</time></trkpt><trkpt lat="44.7719" lon="9.1227017"><ele>543.0</ele><time>2026-04-11T13:32:52.041Z</time></trkpt><trkpt lat="44.7718317" lon="9.1227217"><ele>541.0</ele><time>2026-04-11T13:32:53.041Z</time></trkpt><trkpt lat="44.7717233" lon="9.1227183"><ele>539.0</ele><time>2026-04-11T13:32:55.04Z</time></trkpt><trkpt lat="44.7716617" lon="9.1226317"><ele>537.0</ele><time>2026-04-11T13:32:57.041Z</time></trkpt><trkpt lat="44.771665" lon="9.1224933"><ele>535.0</ele><time>2026-04-11T13:32:59.041Z</time></trkpt><trkpt lat="44.771685" lon="9.1224033"><ele>533.0</ele><time>2026-04-11T13:33:00.041Z</time></trkpt><trkpt lat="44.7717283" lon="9.12231"><ele>531.0</ele><time>2026-04-11T13:33:01.041Z</time></trkpt><trkpt lat="44.7717883" lon="9.1222183"><ele>531.25</ele><time>2026-04-11T13:33:02.041Z</time></trkpt><trkpt lat="44.7718617" lon="9.1221083"><ele>531.5</ele><time>2026-04-11T13:33:03.04Z</time></trkpt><trkpt lat="44.7719383" lon="9.121995"><ele>531.75</ele><time>2026-04-11T13:33:04.04Z</time></trkpt><trkpt lat="44.77202" lon="9.1218717"><ele>532.0</ele><time>2026-04-11T13:33:05.041Z</time></trkpt><trkpt lat="44.7721083" lon="9.1217683"><ele>532.0</ele><time>2026-04-11T13:33:06.041Z</time></trkpt><trkpt lat="44.7721917" lon="9.1216517"><ele>532.0</ele><time>2026-04-11T13:33:07.041Z</time></trkpt><trkpt lat="44.7722833" lon="9.1215533"><ele>532.0</ele><time>2026-04-11T13:33:08.041Z</time></trkpt><trkpt lat="44.7723667" lon="9.1214617"><ele>532.0</ele><time>2026-04-11T13:33:09.041Z</time></trkpt><trkpt lat="44.7724417" lon="9.1213833"><ele>532.0</ele><time>2026-04-11T13:33:10.041Z</time></trkpt><trkpt lat="44.77252" lon="9.1213067"><ele>529.2</ele><time>2026-04-11T13:33:11.041Z</time></trkpt><trkpt lat="44.7726083" lon="9.1212567"><ele>526.4000000000001</ele><time>2026-04-11T13:33:12.041Z</time></trkpt><trkpt lat="44.77271" lon="9.1212117"><ele>523.5999999999999</ele><time>2026-04-11T13:33:13.04Z</time></trkpt><trkpt lat="44.7728117" lon="9.1211783"><ele>520.8</ele><time>2026-04-11T13:33:14.041Z</time></trkpt><trkpt lat="44.7729167" lon="9.12115"><ele>518.0</ele><time>2026-04-11T13:33:15.041Z</time></trkpt><trkpt lat="44.7730233" lon="9.121125"><ele>518.0</ele><time>2026-04-11T13:33:16.041Z</time></trkpt><trkpt lat="44.7731217" lon="9.1211017"><ele>518.0</ele><time>2026-04-11T13:33:17.041Z</time></trkpt><trkpt lat="44.77321" lon="9.1210717"><ele>518.0</ele><time>2026-04-11T13:33:18.041Z</time></trkpt><trkpt lat="44.7732967" lon="9.12102"><ele>518.0</ele><time>2026-04-11T13:33:19.041Z</time></trkpt><trkpt lat="44.77338" lon="9.1209633"><ele>518.0</ele><time>2026-04-11T13:33:20.041Z</time></trkpt><trkpt lat="44.7734533" lon="9.1208767"><ele>518.0</ele><time>2026-04-11T13:33:21.04Z</time></trkpt><trkpt lat="44.773505" lon="9.12076"><ele>518.0</ele><time>2026-04-11T13:33:22.041Z</time></trkpt><trkpt lat="44.7735433" lon="9.1206117"><ele>518.0</ele><time>2026-04-11T13:33:23.041Z</time></trkpt><trkpt lat="44.7735683" lon="9.12045"><ele>518.0</ele><time>2026-04-11T13:33:24.041Z</time></trkpt><trkpt lat="44.773575" lon="9.1203"><ele>518.0</ele><time>2026-04-11T13:33:25.041Z</time></trkpt><trkpt lat="44.7735667" lon="9.1201767"><ele>516.4</ele><time>2026-04-11T13:33:26.041Z</time></trkpt><trkpt lat="44.7735367" lon="9.1200633"><ele>514.8</ele><time>2026-04-11T13:33:27.041Z</time></trkpt><trkpt lat="44.77348" lon="9.1199583"><ele>513.2</ele><time>2026-04-11T13:33:28.041Z</time></trkpt><trkpt lat="44.7734067" lon="9.1198733"><ele>511.6</ele><time>2026-04-11T13:33:29.041Z</time></trkpt><trkpt lat="44.7733217" lon="9.119795"><ele>510.0</ele><time>2026-04-11T13:33:30.041Z</time></trkpt><trkpt lat="44.77324" lon="9.1197233"><ele>510.0</ele><time>2026-04-11T13:33:31.041Z</time></trkpt><trkpt lat="44.7731683" lon="9.11967"><ele>510.0</ele><time>2026-04-11T13:33:32.041Z</time></trkpt><trkpt lat="44.7731" lon="9.119625"><ele>510.0</ele><time>2026-04-11T13:33:33.041Z</time></trkpt><trkpt lat="44.773035" lon="9.1195817"><ele>510.0</ele><time>2026-04-11T13:33:34.04Z</time></trkpt><trkpt lat="44.77297" lon="9.1195317"><ele>510.0</ele><time>2026-04-11T13:33:35.041Z</time></trkpt><trkpt lat="44.7729067" lon="9.11948"><ele>510.0</ele><time>2026-04-11T13:33:36.041Z</time></trkpt><trkpt lat="44.7728333" lon="9.1194183"><ele>510.0</ele><time>2026-04-11T13:33:37.041Z</time></trkpt><trkpt lat="44.7727483" lon="9.1193417"><ele>510.0</ele><time>2026-04-11T13:33:38.041Z</time></trkpt><trkpt lat="44.7726633" lon="9.1192433"><ele>510.0</ele><time>2026-04-11T13:33:39.041Z</time></trkpt><trkpt lat="44.7725917" lon="9.11914"><ele>510.0</ele><time>2026-04-11T13:33:40.041Z</time></trkpt><trkpt lat="44.7725317" lon="9.11904"><ele>510.0</ele><time>2026-04-11T13:33:41.041Z</time></trkpt><trkpt lat="44.7724617" lon="9.1189633"><ele>507.8</ele><time>2026-04-11T13:33:42.041Z</time></trkpt><trkpt lat="44.7724067" lon="9.1189133"><ele>505.6</ele><time>2026-04-11T13:33:43.04Z</time></trkpt><trkpt lat="44.7723067" lon="9.11883"><ele>503.4</ele><time>2026-04-11T13:33:45.041Z</time></trkpt><trkpt lat="44.7722283" lon="9.1186883"><ele>501.2</ele><time>2026-04-11T13:33:47.04Z</time></trkpt><trkpt lat="44.7722117" lon="9.1185783"><ele>499.0</ele><time>2026-04-11T13:33:48.041Z</time></trkpt><trkpt lat="44.7722217" lon="9.1184567"><ele>499.0</ele><time>2026-04-11T13:33:49.041Z</time></trkpt><trkpt lat="44.7722533" lon="9.1183283"><ele>499.0</ele><time>2026-04-11T13:33:50.04Z</time></trkpt><trkpt lat="44.7722883" lon="9.1181917"><ele>499.0</ele><time>2026-04-11T13:33:51.041Z</time></trkpt><trkpt lat="44.7723083" lon="9.1180567"><ele>499.0</ele><time>2026-04-11T13:33:52.041Z</time></trkpt><trkpt lat="44.7723317" lon="9.1179383"><ele>499.0</ele><time>2026-04-11T13:33:53.041Z</time></trkpt><trkpt lat="44.7723533" lon="9.1178433"><ele>498.79999999999995</ele><time>2026-04-11T13:33:54.04Z</time></trkpt><trkpt lat="44.7723333" lon="9.11769"><ele>498.59999999999997</ele><time>2026-04-11T13:33:56.041Z</time></trkpt><trkpt lat="44.7722967" lon="9.1175967"><ele>498.4</ele><time>2026-04-11T13:33:57.041Z</time></trkpt><trkpt lat="44.7722417" lon="9.1174983"><ele>498.2</ele><time>2026-04-11T13:33:58.041Z</time></trkpt><trkpt lat="44.772185" lon="9.1173817"><ele>498.0</ele><time>2026-04-11T13:33:59.041Z</time></trkpt><trkpt lat="44.772135" lon="9.1172667"><ele>497.2</ele><time>2026-04-11T13:34:00.041Z</time></trkpt><trkpt lat="44.7720883" lon="9.117145"><ele>496.4</ele><time>2026-04-11T13:34:01.04Z</time></trkpt><trkpt lat="44.7720767" lon="9.117015"><ele>495.59999999999997</ele><time>2026-04-11T13:34:02.04Z</time></trkpt><trkpt lat="44.772085" lon="9.1168683"><ele>494.79999999999995</ele><time>2026-04-11T13:34:03.041Z</time></trkpt><trkpt lat="44.7721017" lon="9.116725"><ele>494.0</ele><time>2026-04-11T13:34:04.041Z</time></trkpt><trkpt lat="44.7721167" lon="9.1165867"><ele>492.79999999999995</ele><time>2026-04-11T13:34:05.041Z</time></trkpt><trkpt lat="44.7721367" lon="9.1164367"><ele>491.59999999999997</ele><time>2026-04-11T13:34:06.041Z</time></trkpt><trkpt lat="44.7721567" lon="9.1162883"><ele>490.4</ele><time>2026-04-11T13:34:07.041Z</time></trkpt><trkpt lat="44.7721783" lon="9.116135"><ele>489.2</ele><time>2026-04-11T13:34:08.041Z</time></trkpt><trkpt lat="44.7722017" lon="9.11598"><ele>488.0</ele><time>2026-04-11T13:34:09.04Z</time></trkpt><trkpt lat="44.772225" lon="9.11583"><ele>487.2</ele><time>2026-04-11T13:34:10.041Z</time></trkpt><trkpt lat="44.7722467" lon="9.1156733"><ele>486.4</ele><time>2026-04-11T13:34:11.041Z</time></trkpt><trkpt lat="44.77226" lon="9.1155167"><ele>485.59999999999997</ele><time>2026-04-11T13:34:12.041Z</time></trkpt><trkpt lat="44.7722767" lon="9.1153767"><ele>484.79999999999995</ele><time>2026-04-11T13:34:13.041Z</time></trkpt><trkpt lat="44.7722933" lon="9.1152483"><ele>484.0</ele><time>2026-04-11T13:34:14.041Z</time></trkpt><trkpt lat="44.7723083" lon="9.115125"><ele>484.00000000000006</ele><time>2026-04-11T13:34:15.041Z</time></trkpt><trkpt lat="44.7723117" lon="9.114995"><ele>484.0</ele><time>2026-04-11T13:34:16.04Z</time></trkpt><trkpt lat="44.7723183" lon="9.114875"><ele>484.0</ele><time>2026-04-11T13:34:17.04Z</time></trkpt><trkpt lat="44.7723183" lon="9.1147633"><ele>484.0</ele><time>2026-04-11T13:34:18.041Z</time></trkpt><trkpt lat="44.7723233" lon="9.1146417"><ele>484.00000000000006</ele><time>2026-04-11T13:34:19.041Z</time></trkpt><trkpt lat="44.7723017" lon="9.1145383"><ele>484.0</ele><time>2026-04-11T13:34:20.041Z</time></trkpt><trkpt lat="44.7722683" lon="9.11444"><ele>483.2</ele><time>2026-04-11T13:34:21.041Z</time></trkpt><trkpt lat="44.772225" lon="9.1143417"><ele>482.4</ele><time>2026-04-11T13:34:22.041Z</time></trkpt><trkpt lat="44.7721883" lon="9.114225"><ele>481.6</ele><time>2026-04-11T13:34:23.041Z</time></trkpt><trkpt lat="44.77217" lon="9.1140983"><ele>480.8</ele><time>2026-04-11T13:34:24.041Z</time></trkpt><trkpt lat="44.7721683" lon="9.1139633"><ele>480.0</ele><time>2026-04-11T13:34:25.041Z</time></trkpt><trkpt lat="44.77218" lon="9.1138183"><ele>479.0</ele><time>2026-04-11T13:34:26.041Z</time></trkpt><trkpt lat="44.7722" lon="9.1136717"><ele>478.0</ele><time>2026-04-11T13:34:27.041Z</time></trkpt><trkpt lat="44.772225" lon="9.11352"><ele>477.0</ele><time>2026-04-11T13:34:28.04Z</time></trkpt><trkpt lat="44.772255" lon="9.113365"><ele>476.0</ele><time>2026-04-11T13:34:29.04Z</time></trkpt><trkpt lat="44.7722717" lon="9.1132033"><ele>475.0</ele><time>2026-04-11T13:34:30.04Z</time></trkpt><trkpt lat="44.7722783" lon="9.113045"><ele>474.6</ele><time>2026-04-11T13:34:31.041Z</time></trkpt><trkpt lat="44.7722733" lon="9.1128933"><ele>474.2</ele><time>2026-04-11T13:34:32.04Z</time></trkpt><trkpt lat="44.77226" lon="9.112755"><ele>473.79999999999995</ele><time>2026-04-11T13:34:33.041Z</time></trkpt><trkpt lat="44.7722383" lon="9.1126167"><ele>473.4</ele><time>2026-04-11T13:34:34.04Z</time></trkpt><trkpt lat="44.772215" lon="9.1124683"><ele>473.0</ele><time>2026-04-11T13:34:35.041Z</time></trkpt><trkpt lat="44.7721867" lon="9.1123083"><ele>472.0</ele><time>2026-04-11T13:34:36.041Z</time></trkpt><trkpt lat="44.7721567" lon="9.11214"><ele>471.0</ele><time>2026-04-11T13:34:37.041Z</time></trkpt><trkpt lat="44.7721367" lon="9.111975"><ele>470.0</ele><time>2026-04-11T13:34:38.04Z</time></trkpt><trkpt lat="44.7721167" lon="9.1118183"><ele>469.0</ele><time>2026-04-11T13:34:39.04Z</time></trkpt><trkpt lat="44.7721017" lon="9.1116617"><ele>467.0</ele><time>2026-04-11T13:34:40.041Z</time></trkpt><trkpt lat="44.7720933" lon="9.1115067"><ele>465.0</ele><time>2026-04-11T13:34:41.041Z</time></trkpt><trkpt lat="44.772095" lon="9.1113733"><ele>463.0</ele><time>2026-04-11T13:34:42.04Z</time></trkpt><trkpt lat="44.7721033" lon="9.1112433"><ele>461.0</ele><time>2026-04-11T13:34:43.041Z</time></trkpt><trkpt lat="44.7721167" lon="9.1111133"><ele>459.0</ele><time>2026-04-11T13:34:44.041Z</time></trkpt><trkpt lat="44.7721417" lon="9.1109817"><ele>459.0</ele><time>2026-04-11T13:34:45.041Z</time></trkpt><trkpt lat="44.7721667" lon="9.1108517"><ele>459.0</ele><time>2026-04-11T13:34:46.041Z</time></trkpt><trkpt lat="44.77218" lon="9.1107367"><ele>459.0</ele><time>2026-04-11T13:34:47.04Z</time></trkpt><trkpt lat="44.7721983" lon="9.11065"><ele>459.0</ele><time>2026-04-11T13:34:48.041Z</time></trkpt><trkpt lat="44.7722183" lon="9.11052"><ele>459.0</ele><time>2026-04-11T13:34:50.04Z</time></trkpt><trkpt lat="44.7722033" lon="9.1104283"><ele>459.0</ele><time>2026-04-11T13:34:53.041Z</time></trkpt><trkpt lat="44.7720967" lon="9.110465"><ele>457.5</ele><time>2026-04-11T13:34:56.041Z</time></trkpt><trkpt lat="44.7720433" lon="9.110515"><ele>456.0</ele><time>2026-04-11T13:34:57.041Z</time></trkpt><trkpt lat="44.771975" lon="9.110565"><ele>454.5</ele><time>2026-04-11T13:34:58.04Z</time></trkpt><trkpt lat="44.7719" lon="9.1106083"><ele>453.0</ele><time>2026-04-11T13:34:59.041Z</time></trkpt><trkpt lat="44.77181" lon="9.11063"><ele>451.5</ele><time>2026-04-11T13:35:00.041Z</time></trkpt><trkpt lat="44.7717133" lon="9.11064"><ele>450.0</ele><time>2026-04-11T13:35:01.041Z</time></trkpt><trkpt lat="44.771615" lon="9.1106417"><ele>449.0</ele><time>2026-04-11T13:35:02.041Z</time></trkpt><trkpt lat="44.7715167" lon="9.1106333"><ele>448.0</ele><time>2026-04-11T13:35:03.041Z</time></trkpt><trkpt lat="44.7714133" lon="9.1106167"><ele>447.0</ele><time>2026-04-11T13:35:04.041Z</time></trkpt><trkpt lat="44.7713033" lon="9.1106033"><ele>446.0</ele><time>2026-04-11T13:35:05.041Z</time></trkpt><trkpt lat="44.77119" lon="9.1105867"><ele>445.0</ele><time>2026-04-11T13:35:06.041Z</time></trkpt><trkpt lat="44.7710717" lon="9.1105683"><ele>446.8</ele><time>2026-04-11T13:35:07.041Z</time></trkpt><trkpt lat="44.7709583" lon="9.110545"><ele>448.6</ele><time>2026-04-11T13:35:08.041Z</time></trkpt><trkpt lat="44.7708567" lon="9.1105167"><ele>450.4</ele><time>2026-04-11T13:35:09.041Z</time></trkpt><trkpt lat="44.7707667" lon="9.1104817"><ele>452.2</ele><time>2026-04-11T13:35:10.041Z</time></trkpt><trkpt lat="44.7706833" lon="9.1104367"><ele>454.0</ele><time>2026-04-11T13:35:11.041Z</time></trkpt><trkpt lat="44.7706017" lon="9.1103667"><ele>454.0</ele><time>2026-04-11T13:35:12.041Z</time></trkpt><trkpt lat="44.7705283" lon="9.110285"><ele>454.0</ele><time>2026-04-11T13:35:13.041Z</time></trkpt><trkpt lat="44.7704533" lon="9.1101983"><ele>454.0</ele><time>2026-04-11T13:35:14.04Z</time></trkpt><trkpt lat="44.7703817" lon="9.110115"><ele>454.0</ele><time>2026-04-11T13:35:15.041Z</time></trkpt><trkpt lat="44.770305" lon="9.1100283"><ele>454.0</ele><time>2026-04-11T13:35:16.04Z</time></trkpt><trkpt lat="44.77022" lon="9.1099467"><ele>454.79999999999995</ele><time>2026-04-11T13:35:17.041Z</time></trkpt><trkpt lat="44.7701383" lon="9.109885"><ele>455.59999999999997</ele><time>2026-04-11T13:35:18.041Z</time></trkpt><trkpt lat="44.7700433" lon="9.10984"><ele>456.4</ele><time>2026-04-11T13:35:19.041Z</time></trkpt><trkpt lat="44.7699417" lon="9.10982"><ele>457.2</ele><time>2026-04-11T13:35:20.04Z</time></trkpt><trkpt lat="44.7698383" lon="9.1098167"><ele>458.0</ele><time>2026-04-11T13:35:21.041Z</time></trkpt><trkpt lat="44.7697367" lon="9.1098133"><ele>458.0</ele><time>2026-04-11T13:35:22.041Z</time></trkpt><trkpt lat="44.7696317" lon="9.1098183"><ele>457.99999999999994</ele><time>2026-04-11T13:35:23.041Z</time></trkpt><trkpt lat="44.7695183" lon="9.1098017"><ele>457.99999999999994</ele><time>2026-04-11T13:35:24.041Z</time></trkpt><trkpt lat="44.76941" lon="9.1097967"><ele>458.0</ele><time>2026-04-11T13:35:25.041Z</time></trkpt><trkpt lat="44.7693117" lon="9.1097883"><ele>458.0</ele><time>2026-04-11T13:35:26.041Z</time></trkpt><trkpt lat="44.7692383" lon="9.1097833"><ele>459.4</ele><time>2026-04-11T13:35:27.041Z</time></trkpt><trkpt lat="44.7691417" lon="9.1097783"><ele>460.79999999999995</ele><time>2026-04-11T13:35:29.041Z</time></trkpt><trkpt lat="44.7690567" lon="9.1097483"><ele>462.2</ele><time>2026-04-11T13:35:31.041Z</time></trkpt><trkpt lat="44.76894" lon="9.1096867"><ele>463.6</ele><time>2026-04-11T13:35:33.041Z</time></trkpt><trkpt lat="44.76888" lon="9.1096433"><ele>465.0</ele><time>2026-04-11T13:35:34.041Z</time></trkpt><trkpt lat="44.7688233" lon="9.1095683"><ele>465.0</ele><time>2026-04-11T13:35:35.041Z</time></trkpt><trkpt lat="44.76877" lon="9.1094767"><ele>465.0</ele><time>2026-04-11T13:35:36.041Z</time></trkpt><trkpt lat="44.7687233" lon="9.1093717"><ele>465.0</ele><time>2026-04-11T13:35:37.041Z</time></trkpt><trkpt lat="44.7686933" lon="9.1092733"><ele>465.0</ele><time>2026-04-11T13:35:38.041Z</time></trkpt><trkpt lat="44.76866" lon="9.109175"><ele>465.0</ele><time>2026-04-11T13:35:39.041Z</time></trkpt><trkpt lat="44.7686317" lon="9.1090833"><ele>465.0</ele><time>2026-04-11T13:35:40.04Z</time></trkpt><trkpt lat="44.7685967" lon="9.10898"><ele>464.4</ele><time>2026-04-11T13:35:41.041Z</time></trkpt><trkpt lat="44.7685517" lon="9.108875"><ele>463.8</ele><time>2026-04-11T13:35:42.041Z</time></trkpt><trkpt lat="44.7684917" lon="9.1087667"><ele>463.20000000000005</ele><time>2026-04-11T13:35:43.041Z</time></trkpt><trkpt lat="44.7684217" lon="9.1086733"><ele>462.6</ele><time>2026-04-11T13:35:44.041Z</time></trkpt><trkpt lat="44.768335" lon="9.1086067"><ele>462.0</ele><time>2026-04-11T13:35:45.041Z</time></trkpt><trkpt lat="44.7682417" lon="9.108585"><ele>464.8</ele><time>2026-04-11T13:35:46.041Z</time></trkpt><trkpt lat="44.76814" lon="9.1085783"><ele>467.6</ele><time>2026-04-11T13:35:47.041Z</time></trkpt><trkpt lat="44.76804" lon="9.1085867"><ele>470.40000000000003</ele><time>2026-04-11T13:35:48.041Z</time></trkpt><trkpt lat="44.7679417" lon="9.1085917"><ele>473.20000000000005</ele><time>2026-04-11T13:35:49.041Z</time></trkpt><trkpt lat="44.7678367" lon="9.108595"><ele>476.0</ele><time>2026-04-11T13:35:50.041Z</time></trkpt><trkpt lat="44.76773" lon="9.1086017"><ele>478.8</ele><time>2026-04-11T13:35:51.041Z</time></trkpt><trkpt lat="44.7676233" lon="9.1086133"><ele>481.6</ele><time>2026-04-11T13:35:52.041Z</time></trkpt><trkpt lat="44.7675183" lon="9.10862"><ele>484.4</ele><time>2026-04-11T13:35:53.041Z</time></trkpt><trkpt lat="44.76743" lon="9.1086017"><ele>487.2</ele><time>2026-04-11T13:35:54.041Z</time></trkpt><trkpt lat="44.7673367" lon="9.10855"><ele>490.0</ele><time>2026-04-11T13:35:55.041Z</time></trkpt><trkpt lat="44.767245" lon="9.1085017"><ele>490.0</ele><time>2026-04-11T13:35:56.041Z</time></trkpt><trkpt lat="44.7671633" lon="9.108475"><ele>490.0</ele><time>2026-04-11T13:35:57.041Z</time></trkpt><trkpt lat="44.7670967" lon="9.10846"><ele>490.0</ele><time>2026-04-11T13:35:58.041Z</time></trkpt><trkpt lat="44.7669983" lon="9.1084517"><ele>490.0</ele><time>2026-04-11T13:36:00.041Z</time></trkpt><trkpt lat="44.7668983" lon="9.108445"><ele>490.0</ele><time>2026-04-11T13:36:02.04Z</time></trkpt><trkpt lat="44.7668" lon="9.1083867"><ele>491.0</ele><time>2026-04-11T13:36:04.041Z</time></trkpt><trkpt lat="44.7666983" lon="9.10827"><ele>492.0</ele><time>2026-04-11T13:36:06.041Z</time></trkpt><trkpt lat="44.7666417" lon="9.1081983"><ele>493.0</ele><time>2026-04-11T13:36:07.041Z</time></trkpt><trkpt lat="44.76658" lon="9.1081283"><ele>494.0</ele><time>2026-04-11T13:36:08.04Z</time></trkpt><trkpt lat="44.766515" lon="9.1080583"><ele>495.0</ele><time>2026-04-11T13:36:09.041Z</time></trkpt><trkpt lat="44.7664483" lon="9.1079833"><ele>497.0</ele><time>2026-04-11T13:36:10.041Z</time></trkpt><trkpt lat="44.7663767" lon="9.1079117"><ele>499.0</ele><time>2026-04-11T13:36:11.04Z</time></trkpt><trkpt lat="44.766305" lon="9.1078433"><ele>501.0</ele><time>2026-04-11T13:36:12.041Z</time></trkpt><trkpt lat="44.7662417" lon="9.1077583"><ele>503.0</ele><time>2026-04-11T13:36:13.041Z</time></trkpt><trkpt lat="44.76619" lon="9.1076617"><ele>505.0</ele><time>2026-04-11T13:36:14.041Z</time></trkpt><trkpt lat="44.7661517" lon="9.1075467"><ele>507.0</ele><time>2026-04-11T13:36:15.041Z</time></trkpt><trkpt lat="44.7661233" lon="9.1074283"><ele>509.20000000000005</ele><time>2026-04-11T13:36:16.041Z</time></trkpt><trkpt lat="44.7661183" lon="9.1073083"><ele>511.40000000000003</ele><time>2026-04-11T13:36:17.041Z</time></trkpt><trkpt lat="44.7661333" lon="9.1071833"><ele>513.5999999999999</ele><time>2026-04-11T13:36:18.041Z</time></trkpt><trkpt lat="44.7661733" lon="9.1070633"><ele>515.8</ele><time>2026-04-11T13:36:19.041Z</time></trkpt><trkpt lat="44.76623" lon="9.10694"><ele>518.0</ele><time>2026-04-11T13:36:20.041Z</time></trkpt><trkpt lat="44.76631" lon="9.10685"><ele>518.0</ele><time>2026-04-11T13:36:21.041Z</time></trkpt><trkpt lat="44.7664067" lon="9.1067733"><ele>518.0</ele><time>2026-04-11T13:36:22.041Z</time></trkpt><trkpt lat="44.76652" lon="9.1067"><ele>518.0</ele><time>2026-04-11T13:36:23.04Z</time></trkpt><trkpt lat="44.7666333" lon="9.10663"><ele>518.0</ele><time>2026-04-11T13:36:24.04Z</time></trkpt><trkpt lat="44.766745" lon="9.1065583"><ele>516.4</ele><time>2026-04-11T13:36:25.041Z</time></trkpt><trkpt lat="44.7668583" lon="9.1064983"><ele>514.8</ele><time>2026-04-11T13:36:26.041Z</time></trkpt><trkpt lat="44.7669517" lon="9.106445"><ele>513.2</ele><time>2026-04-11T13:36:27.041Z</time></trkpt><trkpt lat="44.7670283" lon="9.1063883"><ele>511.6</ele><time>2026-04-11T13:36:28.041Z</time></trkpt><trkpt lat="44.76709" lon="9.1063383"><ele>510.0</ele><time>2026-04-11T13:36:29.04Z</time></trkpt><trkpt lat="44.76715" lon="9.1062133"><ele>510.0</ele><time>2026-04-11T13:36:31.041Z</time></trkpt><trkpt lat="44.7671167" lon="9.106085"><ele>510.0</ele><time>2026-04-11T13:36:33.041Z</time></trkpt><trkpt lat="44.7670633" lon="9.1059133"><ele>510.0</ele><time>2026-04-11T13:36:35.041Z</time></trkpt><trkpt lat="44.767035" lon="9.10582"><ele>510.0</ele><time>2026-04-11T13:36:36.04Z</time></trkpt><trkpt lat="44.7670067" lon="9.1057333"><ele>510.0</ele><time>2026-04-11T13:36:37.04Z</time></trkpt><trkpt lat="44.766945" lon="9.105605"><ele>510.0</ele><time>2026-04-11T13:36:39.041Z</time></trkpt><trkpt lat="44.76691" lon="9.1055017"><ele>510.0</ele><time>2026-04-11T13:36:41.041Z</time></trkpt><trkpt lat="44.76696" lon="9.105385"><ele>510.0</ele><time>2026-04-11T13:36:43.041Z</time></trkpt><trkpt lat="44.76699" lon="9.1052733"><ele>510.0</ele><time>2026-04-11T13:36:45.041Z</time></trkpt><trkpt lat="44.7670367" lon="9.1051317"><ele>510.0</ele><time>2026-04-11T13:36:47.041Z</time></trkpt><trkpt lat="44.7670583" lon="9.1050483"><ele>510.0</ele><time>2026-04-11T13:36:48.041Z</time></trkpt><trkpt lat="44.7670617" lon="9.1049517"><ele>510.0</ele><time>2026-04-11T13:36:49.041Z</time></trkpt><trkpt lat="44.76706" lon="9.1048433"><ele>510.0</ele><time>2026-04-11T13:36:50.041Z</time></trkpt><trkpt lat="44.76706" lon="9.104725"><ele>510.0</ele><time>2026-04-11T13:36:51.041Z</time></trkpt><trkpt lat="44.7670467" lon="9.10461"><ele>510.0</ele><time>2026-04-11T13:36:52.041Z</time></trkpt><trkpt lat="44.7670283" lon="9.104515"><ele>510.0</ele><time>2026-04-11T13:36:53.041Z</time></trkpt><trkpt lat="44.76699" lon="9.1044167"><ele>510.0</ele><time>2026-04-11T13:36:54.04Z</time></trkpt><trkpt lat="44.7669317" lon="9.1043333"><ele>510.0</ele><time>2026-04-11T13:36:55.041Z</time></trkpt><trkpt lat="44.7668667" lon="9.104265"><ele>510.00000000000006</ele><time>2026-04-11T13:36:56.041Z</time></trkpt><trkpt lat="44.7668033" lon="9.10421"><ele>510.0</ele><time>2026-04-11T13:36:57.041Z</time></trkpt><trkpt lat="44.7667383" lon="9.10417"><ele>510.0</ele><time>2026-04-11T13:36:58.041Z</time></trkpt><trkpt lat="44.7666683" lon="9.1041533"><ele>510.00000000000006</ele><time>2026-04-11T13:36:59.04Z</time></trkpt><trkpt lat="44.766595" lon="9.104165"><ele>510.0</ele><time>2026-04-11T13:37:00.04Z</time></trkpt><trkpt lat="44.7665317" lon="9.1041917"><ele>510.0</ele><time>2026-04-11T13:37:01.041Z</time></trkpt><trkpt lat="44.7664667" lon="9.10423"><ele>514.6666666666666</ele><time>2026-04-11T13:37:02.041Z</time></trkpt><trkpt lat="44.766405" lon="9.1042767"><ele>519.3333333333334</ele><time>2026-04-11T13:37:03.041Z</time></trkpt><trkpt lat="44.7663367" lon="9.1043267"><ele>524.0</ele><time>2026-04-11T13:37:04.041Z</time></trkpt><trkpt lat="44.7662483" lon="9.1043817"><ele>528.6666666666667</ele><time>2026-04-11T13:37:05.041Z</time></trkpt><trkpt lat="44.766165" lon="9.104445"><ele>533.3333333333334</ele><time>2026-04-11T13:37:06.041Z</time></trkpt><trkpt lat="44.766085" lon="9.1045167"><ele>538.0</ele><time>2026-04-11T13:37:07.041Z</time></trkpt><trkpt lat="44.7660217" lon="9.1045983"><ele>539.6</ele><time>2026-04-11T13:37:08.041Z</time></trkpt><trkpt lat="44.7659833" lon="9.1046983"><ele>541.1999999999999</ele><time>2026-04-11T13:37:09.041Z</time></trkpt><trkpt lat="44.765945" lon="9.1048183"><ele>542.8</ele><time>2026-04-11T13:37:10.04Z</time></trkpt><trkpt lat="44.7658933" lon="9.104935"><ele>544.4</ele><time>2026-04-11T13:37:11.041Z</time></trkpt><trkpt lat="44.7658317" lon="9.1050533"><ele>546.0</ele><time>2026-04-11T13:37:12.041Z</time></trkpt><trkpt lat="44.7657733" lon="9.1051583"><ele>546.0</ele><time>2026-04-11T13:37:13.041Z</time></trkpt><trkpt lat="44.7657083" lon="9.1052467"><ele>546.0</ele><time>2026-04-11T13:37:14.041Z</time></trkpt><trkpt lat="44.7656317" lon="9.1053217"><ele>546.0</ele><time>2026-04-11T13:37:15.041Z</time></trkpt><trkpt lat="44.765545" lon="9.105385"><ele>546.0</ele><time>2026-04-11T13:37:16.041Z</time></trkpt><trkpt lat="44.76545" lon="9.1054383"><ele>546.0</ele><time>2026-04-11T13:37:17.041Z</time></trkpt><trkpt lat="44.76535" lon="9.1054833"><ele>546.0</ele><time>2026-04-11T13:37:18.041Z</time></trkpt><trkpt lat="44.7652517" lon="9.105525"><ele>546.0</ele><time>2026-04-11T13:37:19.04Z</time></trkpt><trkpt lat="44.7651517" lon="9.105565"><ele>546.0</ele><time>2026-04-11T13:37:20.041Z</time></trkpt><trkpt lat="44.7650583" lon="9.10562"><ele>546.0</ele><time>2026-04-11T13:37:21.041Z</time></trkpt><trkpt lat="44.7649783" lon="9.1056917"><ele>546.0</ele><time>2026-04-11T13:37:22.041Z</time></trkpt><trkpt lat="44.764905" lon="9.1057783"><ele>546.8333333333334</ele><time>2026-04-11T13:37:23.041Z</time></trkpt><trkpt lat="44.7648383" lon="9.1058733"><ele>547.6666666666666</ele><time>2026-04-11T13:37:24.041Z</time></trkpt><trkpt lat="44.76477" lon="9.1059683"><ele>548.5</ele><time>2026-04-11T13:37:25.041Z</time></trkpt><trkpt lat="44.7646983" lon="9.1060383"><ele>549.3333333333333</ele><time>2026-04-11T13:37:26.04Z</time></trkpt><trkpt lat="44.7646317" lon="9.1060617"><ele>550.1666666666666</ele><time>2026-04-11T13:37:27.041Z</time></trkpt><trkpt lat="44.7645583" lon="9.106055"><ele>551.0</ele><time>2026-04-11T13:37:28.041Z</time></trkpt><trkpt lat="44.7644867" lon="9.1060317"><ele>551.0</ele><time>2026-04-11T13:37:29.041Z</time></trkpt><trkpt lat="44.7644167" lon="9.1059867"><ele>551.0</ele><time>2026-04-11T13:37:30.041Z</time></trkpt><trkpt lat="44.764345" lon="9.1059517"><ele>551.0</ele><time>2026-04-11T13:37:31.041Z</time></trkpt><trkpt lat="44.7642683" lon="9.1059267"><ele>551.0</ele><time>2026-04-11T13:37:32.041Z</time></trkpt><trkpt lat="44.7641883" lon="9.10589"><ele>551.0</ele><time>2026-04-11T13:37:33.041Z</time></trkpt><trkpt lat="44.7640983" lon="9.1058633"><ele>551.0</ele><time>2026-04-11T13:37:34.041Z</time></trkpt><trkpt lat="44.764005" lon="9.1058367"><ele>554.6</ele><time>2026-04-11T13:37:35.041Z</time></trkpt><trkpt lat="44.76391" lon="9.105815"><ele>558.2</ele><time>2026-04-11T13:37:36.04Z</time></trkpt><trkpt lat="44.7638117" lon="9.1057767"><ele>561.8</ele><time>2026-04-11T13:37:37.041Z</time></trkpt><trkpt lat="44.7637183" lon="9.1057467"><ele>565.4</ele><time>2026-04-11T13:37:38.041Z</time></trkpt><trkpt lat="44.7636067" lon="9.105725"><ele>569.0</ele><time>2026-04-11T13:37:39.041Z</time></trkpt><trkpt lat="44.7634967" lon="9.1057083"><ele>572.8</ele><time>2026-04-11T13:37:40.041Z</time></trkpt><trkpt lat="44.7633917" lon="9.1056967"><ele>576.5999999999999</ele><time>2026-04-11T13:37:41.041Z</time></trkpt><trkpt lat="44.7632883" lon="9.1056767"><ele>580.4</ele><time>2026-04-11T13:37:42.041Z</time></trkpt><trkpt lat="44.763185" lon="9.105665"><ele>584.1999999999999</ele><time>2026-04-11T13:37:43.041Z</time></trkpt><trkpt lat="44.763085" lon="9.1056517"><ele>588.0</ele><time>2026-04-11T13:37:44.041Z</time></trkpt><trkpt lat="44.763" lon="9.10563"><ele>588.0</ele><time>2026-04-11T13:37:45.041Z</time></trkpt><trkpt lat="44.762925" lon="9.1056133"><ele>588.0</ele><time>2026-04-11T13:37:46.041Z</time></trkpt><trkpt lat="44.7628517" lon="9.105605"><ele>588.0</ele><time>2026-04-11T13:37:47.041Z</time></trkpt><trkpt lat="44.7627467" lon="9.1056433"><ele>588.0</ele><time>2026-04-11T13:37:49.041Z</time></trkpt><trkpt lat="44.762665" lon="9.1057133"><ele>588.0</ele><time>2026-04-11T13:37:51.04Z</time></trkpt><trkpt lat="44.7625883" lon="9.1057283"><ele>588.0</ele><time>2026-04-11T13:37:53.041Z</time></trkpt><trkpt lat="44.76257" lon="9.1056433"><ele>588.0</ele><time>2026-04-11T13:37:55.041Z</time></trkpt><trkpt lat="44.76264" lon="9.1055483"><ele>588.0</ele><time>2026-04-11T13:37:57.041Z</time></trkpt><trkpt lat="44.7627567" lon="9.10545"><ele>588.0</ele><time>2026-04-11T13:37:59.041Z</time></trkpt><trkpt lat="44.76283" lon="9.1053933"><ele>588.0</ele><time>2026-04-11T13:38:00.041Z</time></trkpt><trkpt lat="44.7629133" lon="9.1053283"><ele>588.0</ele><time>2026-04-11T13:38:01.041Z</time></trkpt><trkpt lat="44.7629967" lon="9.1052533"><ele>588.0</ele><time>2026-04-11T13:38:02.041Z</time></trkpt><trkpt lat="44.7630683" lon="9.1051617"><ele>588.0</ele><time>2026-04-11T13:38:03.04Z</time></trkpt><trkpt lat="44.7631217" lon="9.10506"><ele>588.0</ele><time>2026-04-11T13:38:04.041Z</time></trkpt><trkpt lat="44.7631533" lon="9.10493"><ele>588.0</ele><time>2026-04-11T13:38:05.041Z</time></trkpt><trkpt lat="44.7631817" lon="9.104815"><ele>588.0</ele><time>2026-04-11T13:38:06.04Z</time></trkpt><trkpt lat="44.7632167" lon="9.1047167"><ele>588.0</ele><time>2026-04-11T13:38:07.04Z</time></trkpt><trkpt lat="44.7632667" lon="9.1046517"><ele>588.0</ele><time>2026-04-11T13:38:08.041Z</time></trkpt><trkpt lat="44.7633283" lon="9.1046317"><ele>588.0</ele><time>2026-04-11T13:38:09.041Z</time></trkpt><trkpt lat="44.7634617" lon="9.1046733"><ele>588.0</ele><time>2026-04-11T13:38:11.041Z</time></trkpt><trkpt lat="44.7635383" lon="9.1047333"><ele>588.0</ele><time>2026-04-11T13:38:12.04Z</time></trkpt><trkpt lat="44.76363" lon="9.1048117"><ele>588.0</ele><time>2026-04-11T13:38:13.041Z</time></trkpt><trkpt lat="44.7637083" lon="9.1048733"><ele>588.0</ele><time>2026-04-11T13:38:14.041Z</time></trkpt><trkpt lat="44.76381" lon="9.1048883"><ele>588.0</ele><time>2026-04-11T13:38:16.041Z</time></trkpt><trkpt lat="44.7638383" lon="9.1047867"><ele>588.0</ele><time>2026-04-11T13:38:18.041Z</time></trkpt><trkpt lat="44.76378" lon="9.1047117"><ele>588.0</ele><time>2026-04-11T13:38:20.041Z</time></trkpt><trkpt lat="44.76367" lon="9.1046417"><ele>588.0</ele><time>2026-04-11T13:38:22.041Z</time></trkpt><trkpt lat="44.7636117" lon="9.1045917"><ele>588.0</ele><time>2026-04-11T13:38:23.041Z</time></trkpt><trkpt lat="44.76355" lon="9.1045283"><ele>591.0</ele><time>2026-04-11T13:38:24.041Z</time></trkpt><trkpt lat="44.7634867" lon="9.1044533"><ele>594.0</ele><time>2026-04-11T13:38:25.041Z</time></trkpt><trkpt lat="44.7634233" lon="9.104375"><ele>597.0</ele><time>2026-04-11T13:38:26.041Z</time></trkpt><trkpt lat="44.7633483" lon="9.104295"><ele>600.0</ele><time>2026-04-11T13:38:27.041Z</time></trkpt><trkpt lat="44.7632717" lon="9.104215"><ele>603.0</ele><time>2026-04-11T13:38:28.04Z</time></trkpt><trkpt lat="44.7631783" lon="9.1041517"><ele>603.0</ele><time>2026-04-11T13:38:29.041Z</time></trkpt><trkpt lat="44.7630817" lon="9.1040833"><ele>603.0</ele><time>2026-04-11T13:38:30.04Z</time></trkpt><trkpt lat="44.76299" lon="9.1040067"><ele>603.0</ele><time>2026-04-11T13:38:31.041Z</time></trkpt><trkpt lat="44.7629017" lon="9.103935"><ele>603.0</ele><time>2026-04-11T13:38:32.041Z</time></trkpt><trkpt lat="44.7628333" lon="9.1038783"><ele>603.0</ele><time>2026-04-11T13:38:33.041Z</time></trkpt><trkpt lat="44.7627617" lon="9.1038433"><ele>604.5</ele><time>2026-04-11T13:38:34.041Z</time></trkpt><trkpt lat="44.7626933" lon="9.1038233"><ele>606.0</ele><time>2026-04-11T13:38:35.041Z</time></trkpt><trkpt lat="44.762625" lon="9.1038433"><ele>607.5</ele><time>2026-04-11T13:38:36.041Z</time></trkpt><trkpt lat="44.7625617" lon="9.1038967"><ele>609.0</ele><time>2026-04-11T13:38:37.041Z</time></trkpt><trkpt lat="44.7625017" lon="9.1039633"><ele>610.5</ele><time>2026-04-11T13:38:38.041Z</time></trkpt><trkpt lat="44.762435" lon="9.1040367"><ele>612.0</ele><time>2026-04-11T13:38:39.041Z</time></trkpt><trkpt lat="44.7623667" lon="9.1041183"><ele>612.0</ele><time>2026-04-11T13:38:40.04Z</time></trkpt><trkpt lat="44.7622967" lon="9.10418"><ele>612.0</ele><time>2026-04-11T13:38:41.041Z</time></trkpt><trkpt lat="44.76223" lon="9.1042067"><ele>612.0</ele><time>2026-04-11T13:38:42.041Z</time></trkpt><trkpt lat="44.7621567" lon="9.1042067"><ele>612.0</ele><time>2026-04-11T13:38:43.041Z</time></trkpt><trkpt lat="44.7620833" lon="9.10419"><ele>612.0</ele><time>2026-04-11T13:38:44.041Z</time></trkpt><trkpt lat="44.7620083" lon="9.10416"><ele>612.0</ele><time>2026-04-11T13:38:45.041Z</time></trkpt><trkpt lat="44.761935" lon="9.1041283"><ele>613.5</ele><time>2026-04-11T13:38:46.04Z</time></trkpt><trkpt lat="44.7618567" lon="9.1040883"><ele>615.0</ele><time>2026-04-11T13:38:47.04Z</time></trkpt><trkpt lat="44.7617817" lon="9.1040333"><ele>616.5</ele><time>2026-04-11T13:38:48.041Z</time></trkpt><trkpt lat="44.7617167" lon="9.1039683"><ele>618.0</ele><time>2026-04-11T13:38:49.041Z</time></trkpt><trkpt lat="44.7616483" lon="9.1038883"><ele>619.5</ele><time>2026-04-11T13:38:50.04Z</time></trkpt><trkpt lat="44.761575" lon="9.1038183"><ele>621.0</ele><time>2026-04-11T13:38:51.041Z</time></trkpt><trkpt lat="44.7615" lon="9.1037533"><ele>623.8</ele><time>2026-04-11T13:38:52.041Z</time></trkpt><trkpt lat="44.7614167" lon="9.1037"><ele>626.6</ele><time>2026-04-11T13:38:53.041Z</time></trkpt><trkpt lat="44.761325" lon="9.1036483"><ele>629.4</ele><time>2026-04-11T13:38:54.041Z</time></trkpt><trkpt lat="44.7612333" lon="9.103595"><ele>632.2</ele><time>2026-04-11T13:38:55.041Z</time></trkpt><trkpt lat="44.7611433" lon="9.1035317"><ele>635.0</ele><time>2026-04-11T13:38:56.041Z</time></trkpt><trkpt lat="44.761055" lon="9.10347"><ele>636.2</ele><time>2026-04-11T13:38:57.041Z</time></trkpt><trkpt lat="44.7609667" lon="9.1034217"><ele>637.4</ele><time>2026-04-11T13:38:58.041Z</time></trkpt><trkpt lat="44.7608733" lon="9.1034067"><ele>638.5999999999999</ele><time>2026-04-11T13:38:59.041Z</time></trkpt><trkpt lat="44.7607917" lon="9.10343"><ele>639.8</ele><time>2026-04-11T13:39:00.04Z</time></trkpt><trkpt lat="44.7607067" lon="9.1034883"><ele>641.0</ele><time>2026-04-11T13:39:01.041Z</time></trkpt><trkpt lat="44.7606267" lon="9.1035867"><ele>641.0</ele><time>2026-04-11T13:39:02.041Z</time></trkpt><trkpt lat="44.760545" lon="9.103695"><ele>641.0</ele><time>2026-04-11T13:39:03.041Z</time></trkpt><trkpt lat="44.760455" lon="9.1038117"><ele>641.0</ele><time>2026-04-11T13:39:04.04Z</time></trkpt><trkpt lat="44.76036" lon="9.1039233"><ele>641.0</ele><time>2026-04-11T13:39:05.04Z</time></trkpt><trkpt lat="44.7602633" lon="9.1040217"><ele>642.0</ele><time>2026-04-11T13:39:06.041Z</time></trkpt><trkpt lat="44.76016" lon="9.1041083"><ele>643.0</ele><time>2026-04-11T13:39:07.04Z</time></trkpt><trkpt lat="44.760055" lon="9.1041767"><ele>644.0</ele><time>2026-04-11T13:39:08.041Z</time></trkpt><trkpt lat="44.7599433" lon="9.1042383"><ele>645.0</ele><time>2026-04-11T13:39:09.041Z</time></trkpt><trkpt lat="44.7598267" lon="9.1042883"><ele>645.0</ele><time>2026-04-11T13:39:10.041Z</time></trkpt><trkpt lat="44.7597017" lon="9.104295"><ele>645.0</ele><time>2026-04-11T13:39:11.041Z</time></trkpt><trkpt lat="44.7595767" lon="9.1042967"><ele>645.0</ele><time>2026-04-11T13:39:12.041Z</time></trkpt><trkpt lat="44.7594467" lon="9.104295"><ele>645.0</ele><time>2026-04-11T13:39:13.041Z</time></trkpt><trkpt lat="44.7593167" lon="9.1042983"><ele>647.5</ele><time>2026-04-11T13:39:14.041Z</time></trkpt><trkpt lat="44.7591983" lon="9.1042967"><ele>650.0</ele><time>2026-04-11T13:39:15.04Z</time></trkpt><trkpt lat="44.7590867" lon="9.1043167"><ele>652.5</ele><time>2026-04-11T13:39:16.041Z</time></trkpt><trkpt lat="44.7589783" lon="9.1043767"><ele>655.0</ele><time>2026-04-11T13:39:17.041Z</time></trkpt><trkpt lat="44.7588767" lon="9.1044483"><ele>655.0</ele><time>2026-04-11T13:39:18.041Z</time></trkpt><trkpt lat="44.7587817" lon="9.1045333"><ele>655.0</ele><time>2026-04-11T13:39:19.04Z</time></trkpt><trkpt lat="44.7587017" lon="9.10462"><ele>655.0</ele><time>2026-04-11T13:39:20.041Z</time></trkpt><trkpt lat="44.758635" lon="9.104665"><ele>655.0</ele><time>2026-04-11T13:39:21.041Z</time></trkpt><trkpt lat="44.7585367" lon="9.1046617"><ele>655.0</ele><time>2026-04-11T13:39:23.04Z</time></trkpt><trkpt lat="44.7584867" lon="9.1045867"><ele>655.0</ele><time>2026-04-11T13:39:25.041Z</time></trkpt><trkpt lat="44.7585033" lon="9.1044683"><ele>655.0</ele><time>2026-04-11T13:39:27.041Z</time></trkpt><trkpt lat="44.7585917" lon="9.104335"><ele>655.0</ele><time>2026-04-11T13:39:29.041Z</time></trkpt><trkpt lat="44.7586467" lon="9.104275"><ele>655.0</ele><time>2026-04-11T13:39:30.041Z</time></trkpt><trkpt lat="44.7587083" lon="9.1042083"><ele>655.0</ele><time>2026-04-11T13:39:31.041Z</time></trkpt><trkpt lat="44.7587717" lon="9.10414"><ele>655.0</ele><time>2026-04-11T13:39:32.04Z</time></trkpt><trkpt lat="44.7588467" lon="9.104075"><ele>658.4</ele><time>2026-04-11T13:39:33.04Z</time></trkpt><trkpt lat="44.7589283" lon="9.1040167"><ele>661.8</ele><time>2026-04-11T13:39:34.041Z</time></trkpt><trkpt lat="44.7590017" lon="9.1039583"><ele>665.2</ele><time>2026-04-11T13:39:35.041Z</time></trkpt><trkpt lat="44.7590733" lon="9.1038667"><ele>668.6</ele><time>2026-04-11T13:39:36.041Z</time></trkpt><trkpt lat="44.75914" lon="9.1037683"><ele>672.0</ele><time>2026-04-11T13:39:37.04Z</time></trkpt><trkpt lat="44.7592067" lon="9.103665"><ele>672.0</ele><time>2026-04-11T13:39:38.04Z</time></trkpt><trkpt lat="44.7592683" lon="9.1035933"><ele>672.0</ele><time>2026-04-11T13:39:39.041Z</time></trkpt><trkpt lat="44.7593567" lon="9.1034933"><ele>672.0</ele><time>2026-04-11T13:39:41.041Z</time></trkpt><trkpt lat="44.7593983" lon="9.1034067"><ele>672.0</ele><time>2026-04-11T13:39:43.041Z</time></trkpt><trkpt lat="44.759425" lon="9.103275"><ele>672.0</ele><time>2026-04-11T13:39:45.041Z</time></trkpt><trkpt lat="44.7594267" lon="9.103125"><ele>672.0</ele><time>2026-04-11T13:39:47.041Z</time></trkpt><trkpt lat="44.75938" lon="9.1030533"><ele>672.0</ele><time>2026-04-11T13:39:49.041Z</time></trkpt><trkpt lat="44.7593067" lon="9.1031483"><ele>672.0</ele><time>2026-04-11T13:39:52.041Z</time></trkpt><trkpt lat="44.7592167" lon="9.1032733"><ele>672.0</ele><time>2026-04-11T13:39:54.041Z</time></trkpt><trkpt lat="44.7591467" lon="9.1033333"><ele>672.0</ele><time>2026-04-11T13:39:55.041Z</time></trkpt><trkpt lat="44.7590717" lon="9.1033667"><ele>672.0</ele><time>2026-04-11T13:39:56.041Z</time></trkpt><trkpt lat="44.7589783" lon="9.1034267"><ele>672.0</ele><time>2026-04-11T13:39:57.041Z</time></trkpt><trkpt lat="44.75888" lon="9.10349"><ele>672.0</ele><time>2026-04-11T13:39:58.041Z</time></trkpt><trkpt lat="44.758785" lon="9.1035433"><ele>672.0</ele><time>2026-04-11T13:39:59.041Z</time></trkpt><trkpt lat="44.758695" lon="9.10359"><ele>672.0</ele><time>2026-04-11T13:40:00.041Z</time></trkpt><trkpt lat="44.7586167" lon="9.103615"><ele>672.0</ele><time>2026-04-11T13:40:01.041Z</time></trkpt><trkpt lat="44.7585383" lon="9.10366"><ele>672.0</ele><time>2026-04-11T13:40:02.04Z</time></trkpt><trkpt lat="44.75847" lon="9.1036933"><ele>672.0</ele><time>2026-04-11T13:40:03.04Z</time></trkpt><trkpt lat="44.7583583" lon="9.1037217"><ele>672.0</ele><time>2026-04-11T13:40:05.041Z</time></trkpt><trkpt lat="44.7583" lon="9.103635"><ele>672.0</ele><time>2026-04-11T13:40:07.041Z</time></trkpt><trkpt lat="44.7583317" lon="9.1034867"><ele>674.0</ele><time>2026-04-11T13:40:09.04Z</time></trkpt><trkpt lat="44.7584083" lon="9.1033267"><ele>676.0</ele><time>2026-04-11T13:40:11.041Z</time></trkpt><trkpt lat="44.75848" lon="9.1032167"><ele>678.0</ele><time>2026-04-11T13:40:12.04Z</time></trkpt><trkpt lat="44.758535" lon="9.103105"><ele>680.0</ele><time>2026-04-11T13:40:13.041Z</time></trkpt><trkpt lat="44.7585983" lon="9.1029917"><ele>682.0</ele><time>2026-04-11T13:40:14.041Z</time></trkpt><trkpt lat="44.7586533" lon="9.1028783"><ele>682.0</ele><time>2026-04-11T13:40:15.041Z</time></trkpt><trkpt lat="44.7587033" lon="9.1027567"><ele>682.0</ele><time>2026-04-11T13:40:16.041Z</time></trkpt><trkpt lat="44.758735" lon="9.102625"><ele>682.0</ele><time>2026-04-11T13:40:17.041Z</time></trkpt><trkpt lat="44.75875" lon="9.1024867"><ele>682.0</ele><time>2026-04-11T13:40:18.041Z</time></trkpt><trkpt lat="44.7587333" lon="9.102365"><ele>682.0</ele><time>2026-04-11T13:40:19.041Z</time></trkpt><trkpt lat="44.7587083" lon="9.1022383"><ele>682.6</ele><time>2026-04-11T13:40:20.041Z</time></trkpt><trkpt lat="44.7586717" lon="9.1021117"><ele>683.2</ele><time>2026-04-11T13:40:21.041Z</time></trkpt><trkpt lat="44.7586333" lon="9.1019783"><ele>683.8</ele><time>2026-04-11T13:40:22.041Z</time></trkpt><trkpt lat="44.758595" lon="9.1018383"><ele>684.4</ele><time>2026-04-11T13:40:23.041Z</time></trkpt><trkpt lat="44.7585483" lon="9.1017083"><ele>685.0</ele><time>2026-04-11T13:40:24.041Z</time></trkpt><trkpt lat="44.7584983" lon="9.1015933"><ele>688.4</ele><time>2026-04-11T13:40:25.041Z</time></trkpt><trkpt lat="44.7584417" lon="9.10148"><ele>691.8</ele><time>2026-04-11T13:40:26.041Z</time></trkpt><trkpt lat="44.75837" lon="9.10137"><ele>695.2</ele><time>2026-04-11T13:40:27.04Z</time></trkpt><trkpt lat="44.7583033" lon="9.1012617"><ele>698.6</ele><time>2026-04-11T13:40:28.041Z</time></trkpt><trkpt lat="44.7582367" lon="9.1011517"><ele>702.0</ele><time>2026-04-11T13:40:29.04Z</time></trkpt><trkpt lat="44.7581683" lon="9.1010383"><ele>702.0</ele><time>2026-04-11T13:40:30.041Z</time></trkpt><trkpt lat="44.7580917" lon="9.10094"><ele>702.0</ele><time>2026-04-11T13:40:31.041Z</time></trkpt><trkpt lat="44.7580017" lon="9.1008517"><ele>702.0</ele><time>2026-04-11T13:40:32.041Z</time></trkpt><trkpt lat="44.7579117" lon="9.10077"><ele>702.0</ele><time>2026-04-11T13:40:33.041Z</time></trkpt><trkpt lat="44.7578317" lon="9.1006883"><ele>702.0</ele><time>2026-04-11T13:40:34.041Z</time></trkpt><trkpt lat="44.7577733" lon="9.1006017"><ele>703.0</ele><time>2026-04-11T13:40:35.04Z</time></trkpt><trkpt lat="44.7577383" lon="9.1005"><ele>704.0</ele><time>2026-04-11T13:40:36.041Z</time></trkpt><trkpt lat="44.757735" lon="9.1004033"><ele>705.0</ele><time>2026-04-11T13:40:37.04Z</time></trkpt><trkpt lat="44.75776" lon="9.100305"><ele>706.0</ele><time>2026-04-11T13:40:38.041Z</time></trkpt><trkpt lat="44.7578067" lon="9.1002083"><ele>707.0</ele><time>2026-04-11T13:40:39.041Z</time></trkpt><trkpt lat="44.757865" lon="9.1001083"><ele>708.0</ele><time>2026-04-11T13:40:40.041Z</time></trkpt><trkpt lat="44.7579267" lon="9.10002"><ele>708.0</ele><time>2026-04-11T13:40:41.04Z</time></trkpt><trkpt lat="44.758" lon="9.0999383"><ele>708.0</ele><time>2026-04-11T13:40:42.04Z</time></trkpt><trkpt lat="44.7580667" lon="9.0998617"><ele>708.0</ele><time>2026-04-11T13:40:43.041Z</time></trkpt><trkpt lat="44.758125" lon="9.0998"><ele>708.0</ele><time>2026-04-11T13:40:44.04Z</time></trkpt><trkpt lat="44.7581717" lon="9.0997367"><ele>708.0</ele><time>2026-04-11T13:40:45.04Z</time></trkpt><trkpt lat="44.7581867" lon="9.0996083"><ele>708.0</ele><time>2026-04-11T13:40:47.041Z</time></trkpt><trkpt lat="44.7581233" lon="9.0995367"><ele>709.8333333333334</ele><time>2026-04-11T13:40:49.041Z</time></trkpt><trkpt lat="44.75804" lon="9.0995483"><ele>711.6666666666666</ele><time>2026-04-11T13:40:51.041Z</time></trkpt><trkpt lat="44.75798" lon="9.09958"><ele>713.5</ele><time>2026-04-11T13:40:52.041Z</time></trkpt><trkpt lat="44.7579067" lon="9.0996283"><ele>715.3333333333333</ele><time>2026-04-11T13:40:53.04Z</time></trkpt><trkpt lat="44.7578333" lon="9.0996883"><ele>717.1666666666666</ele><time>2026-04-11T13:40:54.041Z</time></trkpt><trkpt lat="44.75775" lon="9.099755"><ele>719.0</ele><time>2026-04-11T13:40:55.041Z</time></trkpt><trkpt lat="44.7576617" lon="9.0998083"><ele>718.8000000000001</ele><time>2026-04-11T13:40:56.041Z</time></trkpt><trkpt lat="44.757565" lon="9.0998483"><ele>718.6</ele><time>2026-04-11T13:40:57.041Z</time></trkpt><trkpt lat="44.757465" lon="9.099885"><ele>718.4</ele><time>2026-04-11T13:40:58.041Z</time></trkpt><trkpt lat="44.7573517" lon="9.0999083"><ele>718.2</ele><time>2026-04-11T13:40:59.04Z</time></trkpt><trkpt lat="44.7572283" lon="9.0999283"><ele>718.0</ele><time>2026-04-11T13:41:00.041Z</time></trkpt><trkpt lat="44.7570967" lon="9.099945"><ele>718.0</ele><time>2026-04-11T13:41:01.04Z</time></trkpt><trkpt lat="44.75697" lon="9.0999733"><ele>718.0</ele><time>2026-04-11T13:41:02.041Z</time></trkpt><trkpt lat="44.75684" lon="9.100015"><ele>718.0</ele><time>2026-04-11T13:41:03.041Z</time></trkpt><trkpt lat="44.7567083" lon="9.1000617"><ele>718.0</ele><time>2026-04-11T13:41:04.041Z</time></trkpt><trkpt lat="44.75658" lon="9.1001117"><ele>718.75</ele><time>2026-04-11T13:41:05.041Z</time></trkpt><trkpt lat="44.75645" lon="9.1001517"><ele>719.5</ele><time>2026-04-11T13:41:06.041Z</time></trkpt><trkpt lat="44.7563233" lon="9.100195"><ele>720.25</ele><time>2026-04-11T13:41:07.041Z</time></trkpt><trkpt lat="44.7562033" lon="9.100245"><ele>721.0</ele><time>2026-04-11T13:41:08.041Z</time></trkpt><trkpt lat="44.7560933" lon="9.1003017"><ele>721.25</ele><time>2026-04-11T13:41:09.041Z</time></trkpt><trkpt lat="44.7559817" lon="9.1003617"><ele>721.5</ele><time>2026-04-11T13:41:10.041Z</time></trkpt><trkpt lat="44.7558633" lon="9.100415"><ele>721.75</ele><time>2026-04-11T13:41:11.041Z</time></trkpt><trkpt lat="44.755745" lon="9.10048"><ele>722.0</ele><time>2026-04-11T13:41:12.041Z</time></trkpt><trkpt lat="44.7556367" lon="9.1005433"><ele>722.0</ele><time>2026-04-11T13:41:13.041Z</time></trkpt><trkpt lat="44.7555233" lon="9.1006133"><ele>722.0</ele><time>2026-04-11T13:41:14.04Z</time></trkpt><trkpt lat="44.7554017" lon="9.1006817"><ele>722.0</ele><time>2026-04-11T13:41:15.041Z</time></trkpt><trkpt lat="44.755285" lon="9.1007283"><ele>722.0</ele><time>2026-04-11T13:41:16.041Z</time></trkpt><trkpt lat="44.755165" lon="9.100765"><ele>724.4000000000001</ele><time>2026-04-11T13:41:17.041Z</time></trkpt><trkpt lat="44.7550467" lon="9.1007983"><ele>726.8000000000001</ele><time>2026-04-11T13:41:18.041Z</time></trkpt><trkpt lat="44.7549333" lon="9.1008283"><ele>729.2</ele><time>2026-04-11T13:41:19.041Z</time></trkpt><trkpt lat="44.75483" lon="9.1008483"><ele>731.6</ele><time>2026-04-11T13:41:20.041Z</time></trkpt><trkpt lat="44.7547467" lon="9.10086"><ele>734.0</ele><time>2026-04-11T13:41:21.041Z</time></trkpt><trkpt lat="44.754675" lon="9.10087"><ele>734.0</ele><time>2026-04-11T13:41:22.04Z</time></trkpt><trkpt lat="44.75458" lon="9.10093"><ele>734.0</ele><time>2026-04-11T13:41:24.041Z</time></trkpt><trkpt lat="44.7545433" lon="9.10105"><ele>734.0</ele><time>2026-04-11T13:41:26.041Z</time></trkpt><trkpt lat="44.7545883" lon="9.1011817"><ele>734.0</ele><time>2026-04-11T13:41:28.04Z</time></trkpt><trkpt lat="44.7546917" lon="9.1012683"><ele>734.0</ele><time>2026-04-11T13:41:30.04Z</time></trkpt><trkpt lat="44.754755" lon="9.10131"><ele>734.0</ele><time>2026-04-11T13:41:31.04Z</time></trkpt><trkpt lat="44.7548233" lon="9.101355"><ele>734.0</ele><time>2026-04-11T13:41:32.04Z</time></trkpt><trkpt lat="44.754885" lon="9.1014083"><ele>734.0</ele><time>2026-04-11T13:41:33.04Z</time></trkpt><trkpt lat="44.7549433" lon="9.1014633"><ele>734.0</ele><time>2026-04-11T13:41:34.04Z</time></trkpt><trkpt lat="44.75499" lon="9.101525"><ele>734.0</ele><time>2026-04-11T13:41:35.04Z</time></trkpt><trkpt lat="44.7550167" lon="9.10168"><ele>734.0</ele><time>2026-04-11T13:41:37.04Z</time></trkpt><trkpt lat="44.7549967" lon="9.101765"><ele>735.6666666666666</ele><time>2026-04-11T13:41:38.04Z</time></trkpt><trkpt lat="44.7549567" lon="9.1018467"><ele>737.3333333333333</ele><time>2026-04-11T13:41:39.04Z</time></trkpt><trkpt lat="44.7549017" lon="9.101915"><ele>739.0</ele><time>2026-04-11T13:41:40.039Z</time></trkpt><trkpt lat="44.7548383" lon="9.1019717"><ele>740.6666666666666</ele><time>2026-04-11T13:41:41.04Z</time></trkpt><trkpt lat="44.7547733" lon="9.1020283"><ele>742.3333333333334</ele><time>2026-04-11T13:41:42.039Z</time></trkpt><trkpt lat="44.7547117" lon="9.1021017"><ele>744.0</ele><time>2026-04-11T13:41:43.04Z</time></trkpt><trkpt lat="44.754665" lon="9.1021867"><ele>744.0</ele><time>2026-04-11T13:41:44.039Z</time></trkpt><trkpt lat="44.7546333" lon="9.1023033"><ele>744.0</ele><time>2026-04-11T13:41:45.039Z</time></trkpt><trkpt lat="44.75462" lon="9.102425"><ele>744.0</ele><time>2026-04-11T13:41:46.04Z</time></trkpt><trkpt lat="44.75462" lon="9.1025617"><ele>744.0</ele><time>2026-04-11T13:41:47.04Z</time></trkpt><trkpt lat="44.7546333" lon="9.1027017"><ele>744.0</ele><time>2026-04-11T13:41:48.04Z</time></trkpt><trkpt lat="44.7546483" lon="9.1028467"><ele>744.8000000000001</ele><time>2026-04-11T13:41:49.039Z</time></trkpt><trkpt lat="44.7546617" lon="9.10299"><ele>745.6</ele><time>2026-04-11T13:41:50.04Z</time></trkpt><trkpt lat="44.754665" lon="9.1031267"><ele>746.4</ele><time>2026-04-11T13:41:51.04Z</time></trkpt><trkpt lat="44.75466" lon="9.1032667"><ele>747.2</ele><time>2026-04-11T13:41:52.039Z</time></trkpt><trkpt lat="44.7546333" lon="9.1034033"><ele>748.0</ele><time>2026-04-11T13:41:53.04Z</time></trkpt><trkpt lat="44.7545967" lon="9.1035267"><ele>749.2</ele><time>2026-04-11T13:41:54.04Z</time></trkpt><trkpt lat="44.7545467" lon="9.10365"><ele>750.4</ele><time>2026-04-11T13:41:55.04Z</time></trkpt><trkpt lat="44.754485" lon="9.10377"><ele>751.6</ele><time>2026-04-11T13:41:56.04Z</time></trkpt><trkpt lat="44.7544217" lon="9.10389"><ele>752.8000000000001</ele><time>2026-04-11T13:41:57.04Z</time></trkpt><trkpt lat="44.7543517" lon="9.10399"><ele>754.0</ele><time>2026-04-11T13:41:58.04Z</time></trkpt><trkpt lat="44.7542667" lon="9.1040817"><ele>756.4000000000001</ele><time>2026-04-11T13:41:59.04Z</time></trkpt><trkpt lat="44.7541733" lon="9.104165"><ele>758.8</ele><time>2026-04-11T13:42:00.04Z</time></trkpt><trkpt lat="44.7540767" lon="9.1042483"><ele>761.2</ele><time>2026-04-11T13:42:01.039Z</time></trkpt><trkpt lat="44.7539883" lon="9.104335"><ele>763.5999999999999</ele><time>2026-04-11T13:42:02.04Z</time></trkpt><trkpt lat="44.7538983" lon="9.1044233"><ele>766.0</ele><time>2026-04-11T13:42:03.04Z</time></trkpt><trkpt lat="44.753805" lon="9.104515"><ele>766.0</ele><time>2026-04-11T13:42:04.04Z</time></trkpt><trkpt lat="44.7537183" lon="9.1046083"><ele>766.0</ele><time>2026-04-11T13:42:05.04Z</time></trkpt><trkpt lat="44.7536467" lon="9.1047167"><ele>766.0</ele><time>2026-04-11T13:42:06.04Z</time></trkpt><trkpt lat="44.7535933" lon="9.1048383"><ele>766.0</ele><time>2026-04-11T13:42:07.04Z</time></trkpt><trkpt lat="44.7535567" lon="9.1049633"><ele>766.0</ele><time>2026-04-11T13:42:08.04Z</time></trkpt><trkpt lat="44.7535217" lon="9.105085"><ele>768.0</ele><time>2026-04-11T13:42:09.04Z</time></trkpt><trkpt lat="44.753485" lon="9.1052117"><ele>770.0</ele><time>2026-04-11T13:42:10.04Z</time></trkpt><trkpt lat="44.7534417" lon="9.105335"><ele>772.0</ele><time>2026-04-11T13:42:11.04Z</time></trkpt><trkpt lat="44.7533883" lon="9.1054283"><ele>774.0</ele><time>2026-04-11T13:42:12.04Z</time></trkpt><trkpt lat="44.7533317" lon="9.1055133"><ele>775.9999999999999</ele><time>2026-04-11T13:42:13.04Z</time></trkpt><trkpt lat="44.75327" lon="9.1055583"><ele>778.0</ele><time>2026-04-11T13:42:14.04Z</time></trkpt><trkpt lat="44.7531483" lon="9.1055617"><ele>777.9999999999999</ele><time>2026-04-11T13:42:16.04Z</time></trkpt><trkpt lat="44.753085" lon="9.10555"><ele>778.0</ele><time>2026-04-11T13:42:17.039Z</time></trkpt><trkpt lat="44.7530217" lon="9.1055667"><ele>778.0</ele><time>2026-04-11T13:42:18.039Z</time></trkpt><trkpt lat="44.752935" lon="9.105665"><ele>778.0</ele><time>2026-04-11T13:42:20.04Z</time></trkpt><trkpt lat="44.7528667" lon="9.1058133"><ele>777.9999999999999</ele><time>2026-04-11T13:42:22.04Z</time></trkpt><trkpt lat="44.7528283" lon="9.1058933"><ele>778.0</ele><time>2026-04-11T13:42:23.04Z</time></trkpt><trkpt lat="44.7527783" lon="9.1059817"><ele>780.1666666666666</ele><time>2026-04-11T13:42:24.039Z</time></trkpt><trkpt lat="44.7527267" lon="9.10607"><ele>782.3333333333333</ele><time>2026-04-11T13:42:25.04Z</time></trkpt><trkpt lat="44.7526733" lon="9.1061533"><ele>784.5</ele><time>2026-04-11T13:42:26.04Z</time></trkpt><trkpt lat="44.7526233" lon="9.1062183"><ele>786.6666666666667</ele><time>2026-04-11T13:42:27.04Z</time></trkpt><trkpt lat="44.7525617" lon="9.1062983"><ele>788.8333333333334</ele><time>2026-04-11T13:42:28.04Z</time></trkpt><trkpt lat="44.7524933" lon="9.1063717"><ele>791.0</ele><time>2026-04-11T13:42:29.04Z</time></trkpt><trkpt lat="44.7524367" lon="9.1064183"><ele>791.0000000000001</ele><time>2026-04-11T13:42:30.04Z</time></trkpt><trkpt lat="44.7523533" lon="9.106485"><ele>791.0</ele><time>2026-04-11T13:42:32.04Z</time></trkpt><trkpt lat="44.752285" lon="9.1065317"><ele>791.0</ele><time>2026-04-11T13:42:35.039Z</time></trkpt><trkpt lat="44.7522067" lon="9.10651"><ele>791.0</ele><time>2026-04-11T13:42:37.039Z</time></trkpt><trkpt lat="44.752145" lon="9.1064717"><ele>791.0000000000001</ele><time>2026-04-11T13:42:38.04Z</time></trkpt><trkpt lat="44.75207" lon="9.1064333"><ele>791.0</ele><time>2026-04-11T13:42:39.04Z</time></trkpt><trkpt lat="44.7520033" lon="9.1063817"><ele>791.0</ele><time>2026-04-11T13:42:40.039Z</time></trkpt><trkpt lat="44.7519217" lon="9.1063433"><ele>791.0</ele><time>2026-04-11T13:42:41.039Z</time></trkpt><trkpt lat="44.7518217" lon="9.106295"><ele>791.0</ele><time>2026-04-11T13:42:42.04Z</time></trkpt><trkpt lat="44.7517167" lon="9.10624"><ele>791.0</ele><time>2026-04-11T13:42:43.04Z</time></trkpt><trkpt lat="44.751615" lon="9.106185"><ele>791.0</ele><time>2026-04-11T13:42:44.039Z</time></trkpt><trkpt lat="44.75151" lon="9.1060883"><ele>791.5</ele><time>2026-04-11T13:42:45.04Z</time></trkpt><trkpt lat="44.7513983" lon="9.1059883"><ele>792.0</ele><time>2026-04-11T13:42:46.04Z</time></trkpt><trkpt lat="44.7512967" lon="9.105885"><ele>792.5</ele><time>2026-04-11T13:42:47.04Z</time></trkpt><trkpt lat="44.7511817" lon="9.1057967"><ele>793.0</ele><time>2026-04-11T13:42:48.04Z</time></trkpt><trkpt lat="44.751065" lon="9.1057367"><ele>790.0</ele><time>2026-04-11T13:42:49.04Z</time></trkpt><trkpt lat="44.7509567" lon="9.1056833"><ele>787.0</ele><time>2026-04-11T13:42:50.04Z</time></trkpt><trkpt lat="44.7508333" lon="9.1056233"><ele>784.0</ele><time>2026-04-11T13:42:51.04Z</time></trkpt><trkpt lat="44.75071" lon="9.105555"><ele>781.0</ele><time>2026-04-11T13:42:52.04Z</time></trkpt><trkpt lat="44.7505783" lon="9.1054867"><ele>781.0</ele><time>2026-04-11T13:42:53.04Z</time></trkpt><trkpt lat="44.7504583" lon="9.105415"><ele>781.0</ele><time>2026-04-11T13:42:54.04Z</time></trkpt><trkpt lat="44.750355" lon="9.1053433"><ele>781.0</ele><time>2026-04-11T13:42:55.04Z</time></trkpt><trkpt lat="44.7502517" lon="9.1052633"><ele>781.0</ele><time>2026-04-11T13:42:56.04Z</time></trkpt><trkpt lat="44.7501483" lon="9.105175"><ele>782.75</ele><time>2026-04-11T13:42:57.04Z</time></trkpt><trkpt lat="44.750065" lon="9.1050583"><ele>784.5</ele><time>2026-04-11T13:42:58.04Z</time></trkpt><trkpt lat="44.7499733" lon="9.1049317"><ele>786.25</ele><time>2026-04-11T13:42:59.04Z</time></trkpt><trkpt lat="44.749865" lon="9.1048033"><ele>788.0</ele><time>2026-04-11T13:43:00.04Z</time></trkpt><trkpt lat="44.7497633" lon="9.1046717"><ele>785.0</ele><time>2026-04-11T13:43:01.04Z</time></trkpt><trkpt lat="44.7496767" lon="9.1045533"><ele>782.0</ele><time>2026-04-11T13:43:02.04Z</time></trkpt><trkpt lat="44.7495733" lon="9.1044283"><ele>779.0</ele><time>2026-04-11T13:43:03.04Z</time></trkpt><trkpt lat="44.7494617" lon="9.1042933"><ele>776.0</ele><time>2026-04-11T13:43:04.04Z</time></trkpt><trkpt lat="44.7493417" lon="9.1041517"><ele>773.75</ele><time>2026-04-11T13:43:05.039Z</time></trkpt><trkpt lat="44.7492317" lon="9.10404"><ele>771.5</ele><time>2026-04-11T13:43:06.04Z</time></trkpt><trkpt lat="44.7491433" lon="9.1039333"><ele>769.25</ele><time>2026-04-11T13:43:07.04Z</time></trkpt><trkpt lat="44.7490467" lon="9.103835"><ele>767.0</ele><time>2026-04-11T13:43:08.04Z</time></trkpt><trkpt lat="44.7489567" lon="9.10377"><ele>767.0</ele><time>2026-04-11T13:43:09.04Z</time></trkpt><trkpt lat="44.7488467" lon="9.1037317"><ele>767.0</ele><time>2026-04-11T13:43:10.04Z</time></trkpt><trkpt lat="44.7487333" lon="9.1037133"><ele>767.0</ele><time>2026-04-11T13:43:11.04Z</time></trkpt><trkpt lat="44.7486167" lon="9.1037017"><ele>767.0</ele><time>2026-04-11T13:43:12.04Z</time></trkpt><trkpt lat="44.74849" lon="9.1036817"><ele>767.5</ele><time>2026-04-11T13:43:13.04Z</time></trkpt><trkpt lat="44.7483733" lon="9.1036433"><ele>768.0</ele><time>2026-04-11T13:43:14.04Z</time></trkpt><trkpt lat="44.7482517" lon="9.1035817"><ele>768.5</ele><time>2026-04-11T13:43:15.04Z</time></trkpt><trkpt lat="44.748135" lon="9.1035117"><ele>769.0</ele><time>2026-04-11T13:43:16.04Z</time></trkpt><trkpt lat="44.7480267" lon="9.1034433"><ele>769.0</ele><time>2026-04-11T13:43:17.04Z</time></trkpt><trkpt lat="44.747935" lon="9.1033733"><ele>769.0</ele><time>2026-04-11T13:43:18.04Z</time></trkpt><trkpt lat="44.7478517" lon="9.1033067"><ele>769.0</ele><time>2026-04-11T13:43:19.04Z</time></trkpt><trkpt lat="44.7477767" lon="9.10323"><ele>769.0</ele><time>2026-04-11T13:43:20.039Z</time></trkpt><trkpt lat="44.74771" lon="9.1031433"><ele>769.0</ele><time>2026-04-11T13:43:21.04Z</time></trkpt><trkpt lat="44.7476517" lon="9.103035"><ele>770.0</ele><time>2026-04-11T13:43:22.04Z</time></trkpt><trkpt lat="44.747605" lon="9.1029167"><ele>771.0</ele><time>2026-04-11T13:43:23.04Z</time></trkpt><trkpt lat="44.7475833" lon="9.1027867"><ele>772.0</ele><time>2026-04-11T13:43:24.04Z</time></trkpt><trkpt lat="44.7475783" lon="9.1026283"><ele>773.0</ele><time>2026-04-11T13:43:25.039Z</time></trkpt><trkpt lat="44.7475717" lon="9.1024683"><ele>774.0</ele><time>2026-04-11T13:43:26.04Z</time></trkpt><trkpt lat="44.74757" lon="9.10229"><ele>774.0</ele><time>2026-04-11T13:43:27.04Z</time></trkpt><trkpt lat="44.7475733" lon="9.1021217"><ele>774.0</ele><time>2026-04-11T13:43:28.04Z</time></trkpt><trkpt lat="44.7475833" lon="9.1019717"><ele>774.0</ele><time>2026-04-11T13:43:29.04Z</time></trkpt><trkpt lat="44.7475817" lon="9.101835"><ele>774.0</ele><time>2026-04-11T13:43:30.04Z</time></trkpt><trkpt lat="44.74758" lon="9.1016967"><ele>774.0</ele><time>2026-04-11T13:43:31.04Z</time></trkpt><trkpt lat="44.74757" lon="9.1015717"><ele>773.25</ele><time>2026-04-11T13:43:32.039Z</time></trkpt><trkpt lat="44.747535" lon="9.1014333"><ele>772.5</ele><time>2026-04-11T13:43:33.04Z</time></trkpt><trkpt lat="44.7475033" lon="9.1012817"><ele>771.75</ele><time>2026-04-11T13:43:34.04Z</time></trkpt><trkpt lat="44.74748" lon="9.1011183"><ele>771.0</ele><time>2026-04-11T13:43:35.04Z</time></trkpt><trkpt lat="44.74746" lon="9.1009567"><ele>771.0</ele><time>2026-04-11T13:43:36.04Z</time></trkpt><trkpt lat="44.7474367" lon="9.100795"><ele>771.0</ele><time>2026-04-11T13:43:37.04Z</time></trkpt><trkpt lat="44.7474333" lon="9.1006333"><ele>771.0</ele><time>2026-04-11T13:43:38.04Z</time></trkpt><trkpt lat="44.7474317" lon="9.1004883"><ele>771.0</ele><time>2026-04-11T13:43:39.04Z</time></trkpt><trkpt lat="44.74743" lon="9.1003667"><ele>771.0</ele><time>2026-04-11T13:43:40.039Z</time></trkpt><trkpt lat="44.747415" lon="9.1002467"><ele>770.5</ele><time>2026-04-11T13:43:41.04Z</time></trkpt><trkpt lat="44.7473933" lon="9.100135"><ele>770.0</ele><time>2026-04-11T13:43:42.04Z</time></trkpt><trkpt lat="44.7473683" lon="9.10003"><ele>769.5</ele><time>2026-04-11T13:43:43.04Z</time></trkpt><trkpt lat="44.7473233" lon="9.0999317"><ele>769.0</ele><time>2026-04-11T13:43:44.04Z</time></trkpt><trkpt lat="44.7472683" lon="9.0998483"><ele>768.5</ele><time>2026-04-11T13:43:45.04Z</time></trkpt><trkpt lat="44.7472" lon="9.0997617"><ele>768.0</ele><time>2026-04-11T13:43:46.04Z</time></trkpt><trkpt lat="44.7471233" lon="9.099645"><ele>766.0</ele><time>2026-04-11T13:43:47.04Z</time></trkpt><trkpt lat="44.7470533" lon="9.0995217"><ele>764.0</ele><time>2026-04-11T13:43:48.04Z</time></trkpt><trkpt lat="44.7470133" lon="9.099365"><ele>762.0</ele><time>2026-04-11T13:43:49.04Z</time></trkpt><trkpt lat="44.7469767" lon="9.0991733"><ele>760.0</ele><time>2026-04-11T13:43:50.04Z</time></trkpt><trkpt lat="44.74696" lon="9.0989917"><ele>761.0</ele><time>2026-04-11T13:43:51.039Z</time></trkpt><trkpt lat="44.7469367" lon="9.09883"><ele>762.0</ele><time>2026-04-11T13:43:52.04Z</time></trkpt><trkpt lat="44.7469033" lon="9.0986917"><ele>763.0</ele><time>2026-04-11T13:43:53.04Z</time></trkpt><trkpt lat="44.7468533" lon="9.09855"><ele>764.0</ele><time>2026-04-11T13:43:54.04Z</time></trkpt><trkpt lat="44.7467833" lon="9.098405"><ele>762.75</ele><time>2026-04-11T13:43:55.04Z</time></trkpt><trkpt lat="44.7467017" lon="9.09824"><ele>761.5</ele><time>2026-04-11T13:43:56.04Z</time></trkpt><trkpt lat="44.7466317" lon="9.0981"><ele>760.25</ele><time>2026-04-11T13:43:57.04Z</time></trkpt><trkpt lat="44.7465767" lon="9.0979767"><ele>759.0</ele><time>2026-04-11T13:43:58.04Z</time></trkpt><trkpt lat="44.746525" lon="9.097845"><ele>759.0</ele><time>2026-04-11T13:43:59.04Z</time></trkpt><trkpt lat="44.7464633" lon="9.0977067"><ele>759.0</ele><time>2026-04-11T13:44:00.039Z</time></trkpt><trkpt lat="44.7464067" lon="9.0975683"><ele>759.0</ele><time>2026-04-11T13:44:01.04Z</time></trkpt><trkpt lat="44.7463517" lon="9.0974367"><ele>759.0</ele><time>2026-04-11T13:44:02.04Z</time></trkpt><trkpt lat="44.7462917" lon="9.0973033"><ele>757.4000000000001</ele><time>2026-04-11T13:44:03.04Z</time></trkpt><trkpt lat="44.74623" lon="9.0971733"><ele>755.8</ele><time>2026-04-11T13:44:04.04Z</time></trkpt><trkpt lat="44.7461767" lon="9.09704"><ele>754.2</ele><time>2026-04-11T13:44:05.039Z</time></trkpt><trkpt lat="44.7461283" lon="9.0968967"><ele>752.5999999999999</ele><time>2026-04-11T13:44:06.039Z</time></trkpt><trkpt lat="44.74609" lon="9.0967667"><ele>751.0</ele><time>2026-04-11T13:44:07.039Z</time></trkpt><trkpt lat="44.74606" lon="9.09665"><ele>751.5</ele><time>2026-04-11T13:44:08.039Z</time></trkpt><trkpt lat="44.7460433" lon="9.0965433"><ele>752.0</ele><time>2026-04-11T13:44:09.04Z</time></trkpt><trkpt lat="44.7460533" lon="9.0964433"><ele>752.5</ele><time>2026-04-11T13:44:10.039Z</time></trkpt><trkpt lat="44.7460767" lon="9.0963367"><ele>753.0</ele><time>2026-04-11T13:44:11.04Z</time></trkpt><trkpt lat="44.746135" lon="9.0962383"><ele>753.5</ele><time>2026-04-11T13:44:12.04Z</time></trkpt><trkpt lat="44.7461967" lon="9.0961333"><ele>754.0</ele><time>2026-04-11T13:44:13.04Z</time></trkpt><trkpt lat="44.7462583" lon="9.09601"><ele>754.0</ele><time>2026-04-11T13:44:14.04Z</time></trkpt><trkpt lat="44.746305" lon="9.0958783"><ele>754.0</ele><time>2026-04-11T13:44:15.039Z</time></trkpt><trkpt lat="44.746345" lon="9.0957483"><ele>754.0</ele><time>2026-04-11T13:44:16.04Z</time></trkpt><trkpt lat="44.7463733" lon="9.09563"><ele>754.0</ele><time>2026-04-11T13:44:17.04Z</time></trkpt><trkpt lat="44.7463867" lon="9.0955083"><ele>754.0</ele><time>2026-04-11T13:44:18.039Z</time></trkpt><trkpt lat="44.746385" lon="9.0953883"><ele>755.0</ele><time>2026-04-11T13:44:19.04Z</time></trkpt><trkpt lat="44.7463633" lon="9.0952633"><ele>756.0</ele><time>2026-04-11T13:44:20.039Z</time></trkpt><trkpt lat="44.7463217" lon="9.0951417"><ele>757.0</ele><time>2026-04-11T13:44:21.04Z</time></trkpt><trkpt lat="44.7462533" lon="9.0950283"><ele>758.0</ele><time>2026-04-11T13:44:22.04Z</time></trkpt><trkpt lat="44.7461767" lon="9.0949267"><ele>759.0</ele><time>2026-04-11T13:44:23.04Z</time></trkpt><trkpt lat="44.7460983" lon="9.09482"><ele>756.6</ele><time>2026-04-11T13:44:24.04Z</time></trkpt><trkpt lat="44.7460217" lon="9.0947017"><ele>754.2</ele><time>2026-04-11T13:44:25.04Z</time></trkpt><trkpt lat="44.7459367" lon="9.0945683"><ele>751.8000000000001</ele><time>2026-04-11T13:44:26.04Z</time></trkpt><trkpt lat="44.74587" lon="9.094445"><ele>749.4000000000001</ele><time>2026-04-11T13:44:27.039Z</time></trkpt><trkpt lat="44.7458233" lon="9.0943317"><ele>747.0</ele><time>2026-04-11T13:44:28.039Z</time></trkpt><trkpt lat="44.7457667" lon="9.0942267"><ele>747.0</ele><time>2026-04-11T13:44:29.04Z</time></trkpt><trkpt lat="44.7457" lon="9.09414"><ele>747.0</ele><time>2026-04-11T13:44:30.04Z</time></trkpt><trkpt lat="44.7456233" lon="9.0940583"><ele>747.0</ele><time>2026-04-11T13:44:31.04Z</time></trkpt><trkpt lat="44.7455283" lon="9.093985"><ele>747.0</ele><time>2026-04-11T13:44:32.04Z</time></trkpt><trkpt lat="44.7454333" lon="9.0939317"><ele>747.0</ele><time>2026-04-11T13:44:33.04Z</time></trkpt><trkpt lat="44.7453333" lon="9.0938867"><ele>745.4000000000001</ele><time>2026-04-11T13:44:34.04Z</time></trkpt><trkpt lat="44.7452367" lon="9.0938433"><ele>743.8000000000001</ele><time>2026-04-11T13:44:35.04Z</time></trkpt><trkpt lat="44.745145" lon="9.0938"><ele>742.2</ele><time>2026-04-11T13:44:36.04Z</time></trkpt><trkpt lat="44.7450517" lon="9.0937567"><ele>740.6</ele><time>2026-04-11T13:44:37.04Z</time></trkpt><trkpt lat="44.7449567" lon="9.0937233"><ele>739.0</ele><time>2026-04-11T13:44:38.04Z</time></trkpt><trkpt lat="44.7448667" lon="9.093695"><ele>738.0</ele><time>2026-04-11T13:44:39.04Z</time></trkpt><trkpt lat="44.74478" lon="9.0936767"><ele>737.0</ele><time>2026-04-11T13:44:40.04Z</time></trkpt><trkpt lat="44.7447033" lon="9.09366"><ele>736.0</ele><time>2026-04-11T13:44:41.04Z</time></trkpt><trkpt lat="44.7446283" lon="9.093645"><ele>735.0</ele><time>2026-04-11T13:44:42.04Z</time></trkpt><trkpt lat="44.7445517" lon="9.09363"><ele>734.0</ele><time>2026-04-11T13:44:43.04Z</time></trkpt><trkpt lat="44.7444667" lon="9.0935983"><ele>733.0</ele><time>2026-04-11T13:44:44.04Z</time></trkpt><trkpt lat="44.74437" lon="9.093565"><ele>732.1666666666667</ele><time>2026-04-11T13:44:45.04Z</time></trkpt><trkpt lat="44.7442783" lon="9.093535"><ele>731.3333333333334</ele><time>2026-04-11T13:44:46.039Z</time></trkpt><trkpt lat="44.7441833" lon="9.09351"><ele>730.5</ele><time>2026-04-11T13:44:47.04Z</time></trkpt><trkpt lat="44.7440833" lon="9.093485"><ele>729.6666666666666</ele><time>2026-04-11T13:44:48.04Z</time></trkpt><trkpt lat="44.74401" lon="9.0934783"><ele>728.8333333333333</ele><time>2026-04-11T13:44:49.04Z</time></trkpt><trkpt lat="44.74394" lon="9.0935"><ele>728.0</ele><time>2026-04-11T13:44:50.04Z</time></trkpt><trkpt lat="44.74388" lon="9.0935517"><ele>728.0</ele><time>2026-04-11T13:44:51.04Z</time></trkpt><trkpt lat="44.74382" lon="9.0936233"><ele>728.0</ele><time>2026-04-11T13:44:52.04Z</time></trkpt><trkpt lat="44.7437533" lon="9.093705"><ele>728.0</ele><time>2026-04-11T13:44:53.04Z</time></trkpt><trkpt lat="44.7436767" lon="9.0937817"><ele>728.0</ele><time>2026-04-11T13:44:54.04Z</time></trkpt><trkpt lat="44.7436067" lon="9.0938367"><ele>728.0</ele><time>2026-04-11T13:44:55.04Z</time></trkpt><trkpt lat="44.7435383" lon="9.093875"><ele>728.0</ele><time>2026-04-11T13:44:56.04Z</time></trkpt><trkpt lat="44.74346" lon="9.0939183"><ele>727.8</ele><time>2026-04-11T13:44:57.039Z</time></trkpt><trkpt lat="44.7433833" lon="9.0939667"><ele>727.5999999999999</ele><time>2026-04-11T13:44:58.04Z</time></trkpt><trkpt lat="44.7433133" lon="9.0939917"><ele>727.4000000000001</ele><time>2026-04-11T13:44:59.04Z</time></trkpt><trkpt lat="44.7432133" lon="9.0940367"><ele>727.2</ele><time>2026-04-11T13:45:01.04Z</time></trkpt><trkpt lat="44.7431033" lon="9.0940783"><ele>727.0</ele><time>2026-04-11T13:45:03.04Z</time></trkpt><trkpt lat="44.74303" lon="9.0940967"><ele>727.0</ele><time>2026-04-11T13:45:04.04Z</time></trkpt><trkpt lat="44.7429467" lon="9.094125"><ele>727.0</ele><time>2026-04-11T13:45:05.04Z</time></trkpt><trkpt lat="44.7428533" lon="9.0941667"><ele>727.0</ele><time>2026-04-11T13:45:06.04Z</time></trkpt><trkpt lat="44.7427583" lon="9.094215"><ele>727.0</ele><time>2026-04-11T13:45:07.04Z</time></trkpt><trkpt lat="44.74264" lon="9.09425"><ele>727.0</ele><time>2026-04-11T13:45:08.04Z</time></trkpt><trkpt lat="44.7425283" lon="9.0942583"><ele>725.8333333333334</ele><time>2026-04-11T13:45:09.04Z</time></trkpt><trkpt lat="44.7424383" lon="9.0942583"><ele>724.6666666666667</ele><time>2026-04-11T13:45:10.04Z</time></trkpt><trkpt lat="44.7423583" lon="9.0942667"><ele>723.5</ele><time>2026-04-11T13:45:11.04Z</time></trkpt><trkpt lat="44.7422933" lon="9.09428"><ele>722.3333333333334</ele><time>2026-04-11T13:45:12.04Z</time></trkpt><trkpt lat="44.7422" lon="9.0943367"><ele>721.1666666666666</ele><time>2026-04-11T13:45:14.04Z</time></trkpt><trkpt lat="44.7421267" lon="9.094335"><ele>720.0</ele><time>2026-04-11T13:45:16.04Z</time></trkpt><trkpt lat="44.74207" lon="9.094295"><ele>720.0</ele><time>2026-04-11T13:45:18.039Z</time></trkpt><trkpt lat="44.74197" lon="9.09425"><ele>720.0</ele><time>2026-04-11T13:45:20.04Z</time></trkpt><trkpt lat="44.7419033" lon="9.09423"><ele>720.0</ele><time>2026-04-11T13:45:21.039Z</time></trkpt><trkpt lat="44.7418333" lon="9.0941967"><ele>720.0</ele><time>2026-04-11T13:45:22.04Z</time></trkpt><trkpt lat="44.7417633" lon="9.0941717"><ele>720.0</ele><time>2026-04-11T13:45:23.04Z</time></trkpt><trkpt lat="44.74169" lon="9.0941317"><ele>720.0</ele><time>2026-04-11T13:45:24.04Z</time></trkpt><trkpt lat="44.74162" lon="9.0940933"><ele>720.5</ele><time>2026-04-11T13:45:25.04Z</time></trkpt><trkpt lat="44.7415517" lon="9.0940517"><ele>721.0</ele><time>2026-04-11T13:45:26.04Z</time></trkpt><trkpt lat="44.741495" lon="9.0940067"><ele>721.5</ele><time>2026-04-11T13:45:27.04Z</time></trkpt><trkpt lat="44.7414117" lon="9.09398"><ele>722.0</ele><time>2026-04-11T13:45:30.04Z</time></trkpt><trkpt lat="44.7413367" lon="9.09401"><ele>722.5</ele><time>2026-04-11T13:45:32.04Z</time></trkpt><trkpt lat="44.741235" lon="9.0940583"><ele>723.0</ele><time>2026-04-11T13:45:34.04Z</time></trkpt><trkpt lat="44.7411733" lon="9.094095"><ele>723.0000000000001</ele><time>2026-04-11T13:45:35.04Z</time></trkpt><trkpt lat="44.7411017" lon="9.0941333"><ele>723.0</ele><time>2026-04-11T13:45:36.04Z</time></trkpt><trkpt lat="44.74103" lon="9.0941583"><ele>723.0</ele><time>2026-04-11T13:45:37.04Z</time></trkpt><trkpt lat="44.7409617" lon="9.09418"><ele>723.0</ele><time>2026-04-11T13:45:38.04Z</time></trkpt><trkpt lat="44.7409" lon="9.0942117"><ele>723.0</ele><time>2026-04-11T13:45:39.04Z</time></trkpt><trkpt lat="44.7408317" lon="9.0942417"><ele>723.0000000000001</ele><time>2026-04-11T13:45:41.04Z</time></trkpt><trkpt lat="44.7408033" lon="9.09414"><ele>723.0</ele><time>2026-04-11T13:45:46.039Z</time></trkpt><trkpt lat="44.74085" lon="9.09408"><ele>721.1666666666666</ele><time>2026-04-11T13:45:48.04Z</time></trkpt><trkpt lat="44.740935" lon="9.0940183"><ele>719.3333333333334</ele><time>2026-04-11T13:45:50.04Z</time></trkpt><trkpt lat="44.7409867" lon="9.093965"><ele>717.5</ele><time>2026-04-11T13:45:51.04Z</time></trkpt><trkpt lat="44.74104" lon="9.0939"><ele>715.6666666666667</ele><time>2026-04-11T13:45:52.039Z</time></trkpt><trkpt lat="44.7410967" lon="9.0938117"><ele>713.8333333333334</ele><time>2026-04-11T13:45:53.04Z</time></trkpt><trkpt lat="44.74115" lon="9.09371"><ele>712.0</ele><time>2026-04-11T13:45:54.04Z</time></trkpt><trkpt lat="44.7412083" lon="9.0935717"><ele>712.0</ele><time>2026-04-11T13:45:55.04Z</time></trkpt><trkpt lat="44.7412633" lon="9.0934267"><ele>712.0</ele><time>2026-04-11T13:45:56.039Z</time></trkpt><trkpt lat="44.7413167" lon="9.0932733"><ele>712.0</ele><time>2026-04-11T13:45:57.039Z</time></trkpt><trkpt lat="44.7413617" lon="9.0931283"><ele>712.0</ele><time>2026-04-11T13:45:58.04Z</time></trkpt><trkpt lat="44.7413983" lon="9.093"><ele>712.0</ele><time>2026-04-11T13:45:59.039Z</time></trkpt><trkpt lat="44.7414267" lon="9.0928883"><ele>709.3333333333334</ele><time>2026-04-11T13:46:00.039Z</time></trkpt><trkpt lat="44.7414533" lon="9.0928067"><ele>706.6666666666667</ele><time>2026-04-11T13:46:01.04Z</time></trkpt><trkpt lat="44.7414833" lon="9.0927267"><ele>704.0</ele><time>2026-04-11T13:46:02.04Z</time></trkpt><trkpt lat="44.7415817" lon="9.0926617"><ele>701.3333333333334</ele><time>2026-04-11T13:46:04.04Z</time></trkpt><trkpt lat="44.74169" lon="9.0927217"><ele>698.6666666666666</ele><time>2026-04-11T13:46:06.039Z</time></trkpt><trkpt lat="44.7417333" lon="9.0927867"><ele>696.0</ele><time>2026-04-11T13:46:07.04Z</time></trkpt><trkpt lat="44.7417933" lon="9.0928683"><ele>696.0</ele><time>2026-04-11T13:46:09.04Z</time></trkpt><trkpt lat="44.74183" lon="9.092755"><ele>696.0</ele><time>2026-04-11T13:46:12.039Z</time></trkpt><trkpt lat="44.7417883" lon="9.0926767"><ele>696.0</ele><time>2026-04-11T13:46:13.04Z</time></trkpt><trkpt lat="44.7417317" lon="9.0925967"><ele>696.0</ele><time>2026-04-11T13:46:14.04Z</time></trkpt><trkpt lat="44.7416717" lon="9.0925283"><ele>696.0</ele><time>2026-04-11T13:46:15.04Z</time></trkpt><trkpt lat="44.741605" lon="9.0924783"><ele>696.0</ele><time>2026-04-11T13:46:16.04Z</time></trkpt><trkpt lat="44.741525" lon="9.0924567"><ele>696.0</ele><time>2026-04-11T13:46:17.04Z</time></trkpt><trkpt lat="44.74145" lon="9.09247"><ele>696.0</ele><time>2026-04-11T13:46:18.04Z</time></trkpt><trkpt lat="44.7413767" lon="9.092515"><ele>696.0</ele><time>2026-04-11T13:46:19.039Z</time></trkpt><trkpt lat="44.7413033" lon="9.0925867"><ele>696.0</ele><time>2026-04-11T13:46:20.04Z</time></trkpt><trkpt lat="44.74124" lon="9.092665"><ele>696.0</ele><time>2026-04-11T13:46:21.04Z</time></trkpt><trkpt lat="44.7411817" lon="9.0927617"><ele>696.0</ele><time>2026-04-11T13:46:22.04Z</time></trkpt><trkpt lat="44.7411267" lon="9.09287"><ele>696.0</ele><time>2026-04-11T13:46:23.039Z</time></trkpt><trkpt lat="44.74108" lon="9.0929733"><ele>696.0</ele><time>2026-04-11T13:46:24.039Z</time></trkpt><trkpt lat="44.7410217" lon="9.09306"><ele>696.0</ele><time>2026-04-11T13:46:25.039Z</time></trkpt><trkpt lat="44.7409617" lon="9.0931483"><ele>696.0</ele><time>2026-04-11T13:46:26.04Z</time></trkpt><trkpt lat="44.74091" lon="9.0932233"><ele>696.0</ele><time>2026-04-11T13:46:27.04Z</time></trkpt><trkpt lat="44.7408533" lon="9.0932683"><ele>696.0</ele><time>2026-04-11T13:46:28.04Z</time></trkpt><trkpt lat="44.7407467" lon="9.0932933"><ele>694.3333333333334</ele><time>2026-04-11T13:46:30.04Z</time></trkpt><trkpt lat="44.740675" lon="9.093245"><ele>692.6666666666666</ele><time>2026-04-11T13:46:32.04Z</time></trkpt><trkpt lat="44.7406733" lon="9.093155"><ele>691.0</ele><time>2026-04-11T13:46:34.039Z</time></trkpt><trkpt lat="44.74076" lon="9.0930467"><ele>689.3333333333333</ele><time>2026-04-11T13:46:36.04Z</time></trkpt><trkpt lat="44.740815" lon="9.09298"><ele>687.6666666666666</ele><time>2026-04-11T13:46:37.04Z</time></trkpt><trkpt lat="44.74087" lon="9.0928817"><ele>686.0</ele><time>2026-04-11T13:46:38.04Z</time></trkpt><trkpt lat="44.7409317" lon="9.09277"><ele>686.0</ele><time>2026-04-11T13:46:39.039Z</time></trkpt><trkpt lat="44.7409633" lon="9.092645"><ele>686.0</ele><time>2026-04-11T13:46:40.039Z</time></trkpt><trkpt lat="44.7409833" lon="9.0924983"><ele>686.0</ele><time>2026-04-11T13:46:41.04Z</time></trkpt><trkpt lat="44.7410017" lon="9.0923333"><ele>686.0</ele><time>2026-04-11T13:46:42.04Z</time></trkpt><trkpt lat="44.7410083" lon="9.0921733"><ele>686.0</ele><time>2026-04-11T13:46:43.04Z</time></trkpt><trkpt lat="44.741015" lon="9.0920283"><ele>684.8333333333333</ele><time>2026-04-11T13:46:44.04Z</time></trkpt><trkpt lat="44.741035" lon="9.0919017"><ele>683.6666666666666</ele><time>2026-04-11T13:46:45.04Z</time></trkpt><trkpt lat="44.741065" lon="9.0918017"><ele>682.5</ele><time>2026-04-11T13:46:46.04Z</time></trkpt><trkpt lat="44.7411167" lon="9.09172"><ele>681.3333333333334</ele><time>2026-04-11T13:46:47.04Z</time></trkpt><trkpt lat="44.74118" lon="9.09165"><ele>680.1666666666667</ele><time>2026-04-11T13:46:48.04Z</time></trkpt><trkpt lat="44.7412667" lon="9.091605"><ele>679.0</ele><time>2026-04-11T13:46:49.04Z</time></trkpt><trkpt lat="44.7413583" lon="9.0915633"><ele>675.2</ele><time>2026-04-11T13:46:50.04Z</time></trkpt><trkpt lat="44.741455" lon="9.0915283"><ele>671.4000000000001</ele><time>2026-04-11T13:46:51.04Z</time></trkpt><trkpt lat="44.7415583" lon="9.0914833"><ele>667.6</ele><time>2026-04-11T13:46:52.04Z</time></trkpt><trkpt lat="44.74165" lon="9.0914283"><ele>663.8</ele><time>2026-04-11T13:46:53.04Z</time></trkpt><trkpt lat="44.7417317" lon="9.0913583"><ele>660.0</ele><time>2026-04-11T13:46:54.04Z</time></trkpt><trkpt lat="44.7418" lon="9.0912867"><ele>660.0</ele><time>2026-04-11T13:46:55.04Z</time></trkpt><trkpt lat="44.741865" lon="9.09121"><ele>660.0</ele><time>2026-04-11T13:46:56.04Z</time></trkpt><trkpt lat="44.7419483" lon="9.0911617"><ele>660.0</ele><time>2026-04-11T13:46:57.04Z</time></trkpt><trkpt lat="44.7420383" lon="9.091145"><ele>660.0</ele><time>2026-04-11T13:46:58.04Z</time></trkpt><trkpt lat="44.7421333" lon="9.09116"><ele>660.0</ele><time>2026-04-11T13:46:59.039Z</time></trkpt><trkpt lat="44.742215" lon="9.091175"><ele>660.0</ele><time>2026-04-11T13:47:00.04Z</time></trkpt><trkpt lat="44.74228" lon="9.091175"><ele>660.0</ele><time>2026-04-11T13:47:01.039Z</time></trkpt><trkpt lat="44.7423467" lon="9.0911033"><ele>660.0</ele><time>2026-04-11T13:47:03.04Z</time></trkpt><trkpt lat="44.7423267" lon="9.0910017"><ele>660.0</ele><time>2026-04-11T13:47:05.039Z</time></trkpt><trkpt lat="44.7422433" lon="9.0909533"><ele>660.0</ele><time>2026-04-11T13:47:07.04Z</time></trkpt><trkpt lat="44.742175" lon="9.090945"><ele>660.0</ele><time>2026-04-11T13:47:08.04Z</time></trkpt><trkpt lat="44.74209" lon="9.0909367"><ele>660.0</ele><time>2026-04-11T13:47:09.04Z</time></trkpt><trkpt lat="44.742" lon="9.0909283"><ele>660.0</ele><time>2026-04-11T13:47:10.04Z</time></trkpt><trkpt lat="44.741905" lon="9.090915"><ele>660.0</ele><time>2026-04-11T13:47:11.039Z</time></trkpt><trkpt lat="44.74181" lon="9.0909033"><ele>660.0</ele><time>2026-04-11T13:47:12.04Z</time></trkpt><trkpt lat="44.74173" lon="9.090895"><ele>660.0</ele><time>2026-04-11T13:47:13.04Z</time></trkpt><trkpt lat="44.74166" lon="9.090885"><ele>660.0</ele><time>2026-04-11T13:47:14.04Z</time></trkpt><trkpt lat="44.74158" lon="9.0908383"><ele>660.0</ele><time>2026-04-11T13:47:16.04Z</time></trkpt><trkpt lat="44.7415633" lon="9.0907417"><ele>658.0</ele><time>2026-04-11T13:47:18.04Z</time></trkpt><trkpt lat="44.7416133" lon="9.09066"><ele>656.0</ele><time>2026-04-11T13:47:20.04Z</time></trkpt><trkpt lat="44.7417383" lon="9.0906733"><ele>654.0</ele><time>2026-04-11T13:47:22.04Z</time></trkpt><trkpt lat="44.7418183" lon="9.0906817"><ele>652.0</ele><time>2026-04-11T13:47:23.04Z</time></trkpt><trkpt lat="44.74191" lon="9.09067"><ele>650.0</ele><time>2026-04-11T13:47:24.04Z</time></trkpt><trkpt lat="44.7419817" lon="9.0906283"><ele>650.0</ele><time>2026-04-11T13:47:25.04Z</time></trkpt><trkpt lat="44.7420583" lon="9.0905617"><ele>650.0</ele><time>2026-04-11T13:47:26.04Z</time></trkpt><trkpt lat="44.7421417" lon="9.0904733"><ele>650.0</ele><time>2026-04-11T13:47:27.04Z</time></trkpt><trkpt lat="44.7422317" lon="9.0903817"><ele>650.0</ele><time>2026-04-11T13:47:28.04Z</time></trkpt><trkpt lat="44.74233" lon="9.0903033"><ele>650.0</ele><time>2026-04-11T13:47:29.04Z</time></trkpt><trkpt lat="44.7424383" lon="9.0902267"><ele>650.0</ele><time>2026-04-11T13:47:30.04Z</time></trkpt><trkpt lat="44.742545" lon="9.0901317"><ele>650.0</ele><time>2026-04-11T13:47:31.039Z</time></trkpt><trkpt lat="44.7426417" lon="9.0900417"><ele>650.0</ele><time>2026-04-11T13:47:32.04Z</time></trkpt><trkpt lat="44.7427417" lon="9.08995"><ele>650.0</ele><time>2026-04-11T13:47:33.04Z</time></trkpt><trkpt lat="44.7428217" lon="9.0898783"><ele>651.0</ele><time>2026-04-11T13:47:34.04Z</time></trkpt><trkpt lat="44.7428833" lon="9.089815"><ele>652.0</ele><time>2026-04-11T13:47:35.04Z</time></trkpt><trkpt lat="44.7429367" lon="9.089745"><ele>653.0</ele><time>2026-04-11T13:47:36.04Z</time></trkpt><trkpt lat="44.7429733" lon="9.0896583"><ele>654.0</ele><time>2026-04-11T13:47:37.04Z</time></trkpt><trkpt lat="44.74301" lon="9.089545"><ele>655.0</ele><time>2026-04-11T13:47:38.04Z</time></trkpt><trkpt lat="44.7430467" lon="9.0894317"><ele>656.0</ele><time>2026-04-11T13:47:39.04Z</time></trkpt><trkpt lat="44.7430717" lon="9.0892983"><ele>656.0</ele><time>2026-04-11T13:47:40.04Z</time></trkpt><trkpt lat="44.7430817" lon="9.0891667"><ele>656.0</ele><time>2026-04-11T13:47:41.04Z</time></trkpt><trkpt lat="44.743105" lon="9.0890333"><ele>656.0</ele><time>2026-04-11T13:47:42.04Z</time></trkpt><trkpt lat="44.7431167" lon="9.0888933"><ele>656.0</ele><time>2026-04-11T13:47:43.04Z</time></trkpt><trkpt lat="44.7431267" lon="9.0887467"><ele>656.0</ele><time>2026-04-11T13:47:44.04Z</time></trkpt><trkpt lat="44.7431217" lon="9.0886067"><ele>654.8</ele><time>2026-04-11T13:47:45.039Z</time></trkpt><trkpt lat="44.743105" lon="9.0884733"><ele>653.5999999999999</ele><time>2026-04-11T13:47:46.039Z</time></trkpt><trkpt lat="44.743065" lon="9.0883317"><ele>652.4</ele><time>2026-04-11T13:47:47.04Z</time></trkpt><trkpt lat="44.7430317" lon="9.0881883"><ele>651.2</ele><time>2026-04-11T13:47:48.04Z</time></trkpt><trkpt lat="44.742995" lon="9.088035"><ele>650.0</ele><time>2026-04-11T13:47:49.04Z</time></trkpt><trkpt lat="44.7429617" lon="9.087875"><ele>647.5</ele><time>2026-04-11T13:47:50.04Z</time></trkpt><trkpt lat="44.7429467" lon="9.08771"><ele>645.0</ele><time>2026-04-11T13:47:51.04Z</time></trkpt><trkpt lat="44.742935" lon="9.08755"><ele>642.5</ele><time>2026-04-11T13:47:52.04Z</time></trkpt><trkpt lat="44.742945" lon="9.0873833"><ele>640.0</ele><time>2026-04-11T13:47:53.04Z</time></trkpt><trkpt lat="44.74296" lon="9.0872267"><ele>637.6</ele><time>2026-04-11T13:47:54.04Z</time></trkpt><trkpt lat="44.7429817" lon="9.0870867"><ele>635.2</ele><time>2026-04-11T13:47:55.039Z</time></trkpt><trkpt lat="44.7430033" lon="9.0869783"><ele>632.8</ele><time>2026-04-11T13:47:56.04Z</time></trkpt><trkpt lat="44.7430883" lon="9.08685"><ele>630.4</ele><time>2026-04-11T13:47:58.04Z</time></trkpt><trkpt lat="44.7431617" lon="9.0868117"><ele>628.0</ele><time>2026-04-11T13:47:59.039Z</time></trkpt><trkpt lat="44.7432433" lon="9.086785"><ele>628.0</ele><time>2026-04-11T13:48:00.04Z</time></trkpt><trkpt lat="44.743325" lon="9.08676"><ele>628.0</ele><time>2026-04-11T13:48:01.039Z</time></trkpt><trkpt lat="44.7434117" lon="9.08674"><ele>628.0</ele><time>2026-04-11T13:48:02.04Z</time></trkpt><trkpt lat="44.7434967" lon="9.0867167"><ele>628.0</ele><time>2026-04-11T13:48:03.039Z</time></trkpt><trkpt lat="44.743575" lon="9.0866717"><ele>628.0</ele><time>2026-04-11T13:48:04.04Z</time></trkpt><trkpt lat="44.7436417" lon="9.0865967"><ele>628.0</ele><time>2026-04-11T13:48:05.04Z</time></trkpt><trkpt lat="44.7436917" lon="9.0864933"><ele>627.4</ele><time>2026-04-11T13:48:06.04Z</time></trkpt><trkpt lat="44.7437083" lon="9.0863633"><ele>626.8</ele><time>2026-04-11T13:48:07.04Z</time></trkpt><trkpt lat="44.7437067" lon="9.0862083"><ele>626.2</ele><time>2026-04-11T13:48:08.04Z</time></trkpt><trkpt lat="44.74369" lon="9.0860517"><ele>625.6</ele><time>2026-04-11T13:48:09.04Z</time></trkpt><trkpt lat="44.7436683" lon="9.0858917"><ele>625.0</ele><time>2026-04-11T13:48:10.04Z</time></trkpt><trkpt lat="44.7436483" lon="9.085725"><ele>623.2</ele><time>2026-04-11T13:48:11.04Z</time></trkpt><trkpt lat="44.7436333" lon="9.0855567"><ele>621.4</ele><time>2026-04-11T13:48:12.04Z</time></trkpt><trkpt lat="44.7436133" lon="9.085395"><ele>619.6</ele><time>2026-04-11T13:48:13.04Z</time></trkpt><trkpt lat="44.74361" lon="9.0852517"><ele>617.8</ele><time>2026-04-11T13:48:14.04Z</time></trkpt><trkpt lat="44.7436167" lon="9.0851183"><ele>616.0</ele><time>2026-04-11T13:48:15.04Z</time></trkpt><trkpt lat="44.7436367" lon="9.0849883"><ele>614.6</ele><time>2026-04-11T13:48:16.04Z</time></trkpt><trkpt lat="44.7436733" lon="9.0848717"><ele>613.2</ele><time>2026-04-11T13:48:17.04Z</time></trkpt><trkpt lat="44.74373" lon="9.0847433"><ele>611.8</ele><time>2026-04-11T13:48:18.04Z</time></trkpt><trkpt lat="44.743795" lon="9.08461"><ele>610.4</ele><time>2026-04-11T13:48:19.04Z</time></trkpt><trkpt lat="44.7438583" lon="9.0844683"><ele>609.0</ele><time>2026-04-11T13:48:20.039Z</time></trkpt><trkpt lat="44.7439117" lon="9.0843583"><ele>609.0</ele><time>2026-04-11T13:48:21.04Z</time></trkpt><trkpt lat="44.7439567" lon="9.08427"><ele>609.0</ele><time>2026-04-11T13:48:22.04Z</time></trkpt><trkpt lat="44.7439883" lon="9.08419"><ele>609.0</ele><time>2026-04-11T13:48:23.04Z</time></trkpt><trkpt lat="44.74399" lon="9.0840083"><ele>609.0</ele><time>2026-04-11T13:48:25.04Z</time></trkpt><trkpt lat="44.7439733" lon="9.0838917"><ele>609.0</ele><time>2026-04-11T13:48:26.04Z</time></trkpt><trkpt lat="44.7439433" lon="9.083765"><ele>607.4</ele><time>2026-04-11T13:48:27.04Z</time></trkpt><trkpt lat="44.7439083" lon="9.083625"><ele>605.8</ele><time>2026-04-11T13:48:28.04Z</time></trkpt><trkpt lat="44.7438783" lon="9.0834783"><ele>604.2</ele><time>2026-04-11T13:48:29.04Z</time></trkpt><trkpt lat="44.74385" lon="9.083345"><ele>602.6</ele><time>2026-04-11T13:48:30.04Z</time></trkpt><trkpt lat="44.743825" lon="9.0832283"><ele>601.0</ele><time>2026-04-11T13:48:31.04Z</time></trkpt><trkpt lat="44.74381" lon="9.08313"><ele>599.5</ele><time>2026-04-11T13:48:32.04Z</time></trkpt><trkpt lat="44.7438033" lon="9.08304"><ele>598.0</ele><time>2026-04-11T13:48:33.04Z</time></trkpt><trkpt lat="44.7437917" lon="9.0829483"><ele>596.5</ele><time>2026-04-11T13:48:34.04Z</time></trkpt><trkpt lat="44.743765" lon="9.0828267"><ele>595.0</ele><time>2026-04-11T13:48:36.039Z</time></trkpt><trkpt lat="44.7437333" lon="9.08272"><ele>593.5</ele><time>2026-04-11T13:48:39.039Z</time></trkpt><trkpt lat="44.7436667" lon="9.0826833"><ele>592.0</ele><time>2026-04-11T13:48:41.04Z</time></trkpt><trkpt lat="44.743565" lon="9.08269"><ele>592.0</ele><time>2026-04-11T13:48:43.039Z</time></trkpt><trkpt lat="44.7434567" lon="9.0827133"><ele>592.0</ele><time>2026-04-11T13:48:45.04Z</time></trkpt><trkpt lat="44.743355" lon="9.0827217"><ele>592.0</ele><time>2026-04-11T13:48:47.039Z</time></trkpt><trkpt lat="44.743275" lon="9.0826567"><ele>592.0</ele><time>2026-04-11T13:48:49.04Z</time></trkpt><trkpt lat="44.7432133" lon="9.082525"><ele>592.0</ele><time>2026-04-11T13:48:51.04Z</time></trkpt><trkpt lat="44.74318" lon="9.0824483"><ele>589.8333333333334</ele><time>2026-04-11T13:48:52.04Z</time></trkpt><trkpt lat="44.7431433" lon="9.0823583"><ele>587.6666666666667</ele><time>2026-04-11T13:48:53.04Z</time></trkpt><trkpt lat="44.7431067" lon="9.082275"><ele>585.5</ele><time>2026-04-11T13:48:54.039Z</time></trkpt><trkpt lat="44.7430633" lon="9.0821917"><ele>583.3333333333334</ele><time>2026-04-11T13:48:55.04Z</time></trkpt><trkpt lat="44.7430117" lon="9.0821067"><ele>581.1666666666666</ele><time>2026-04-11T13:48:56.04Z</time></trkpt><trkpt lat="44.7429467" lon="9.08204"><ele>579.0</ele><time>2026-04-11T13:48:57.04Z</time></trkpt><trkpt lat="44.7428667" lon="9.08198"><ele>579.0</ele><time>2026-04-11T13:48:58.04Z</time></trkpt><trkpt lat="44.7427717" lon="9.0819267"><ele>579.0</ele><time>2026-04-11T13:48:59.04Z</time></trkpt><trkpt lat="44.7426717" lon="9.0818683"><ele>579.0</ele><time>2026-04-11T13:49:00.04Z</time></trkpt><trkpt lat="44.742565" lon="9.0817967"><ele>579.0</ele><time>2026-04-11T13:49:01.04Z</time></trkpt><trkpt lat="44.7424617" lon="9.0817233"><ele>579.0</ele><time>2026-04-11T13:49:02.039Z</time></trkpt><trkpt lat="44.7423567" lon="9.0816467"><ele>575.4</ele><time>2026-04-11T13:49:03.039Z</time></trkpt><trkpt lat="44.7422467" lon="9.0815667"><ele>571.8</ele><time>2026-04-11T13:49:04.039Z</time></trkpt><trkpt lat="44.7421433" lon="9.0814917"><ele>568.2</ele><time>2026-04-11T13:49:05.039Z</time></trkpt><trkpt lat="44.74206" lon="9.08143"><ele>564.6</ele><time>2026-04-11T13:49:06.039Z</time></trkpt><trkpt lat="44.74199" lon="9.0813767"><ele>561.0</ele><time>2026-04-11T13:49:07.039Z</time></trkpt><trkpt lat="44.74194" lon="9.0813083"><ele>561.0</ele><time>2026-04-11T13:49:08.039Z</time></trkpt><trkpt lat="44.741885" lon="9.0812433"><ele>561.0</ele><time>2026-04-11T13:49:09.039Z</time></trkpt><trkpt lat="44.7418367" lon="9.0811617"><ele>561.0</ele><time>2026-04-11T13:49:10.039Z</time></trkpt><trkpt lat="44.7418083" lon="9.0810733"><ele>561.0</ele><time>2026-04-11T13:49:11.039Z</time></trkpt><trkpt lat="44.7418117" lon="9.0809233"><ele>561.0</ele><time>2026-04-11T13:49:13.039Z</time></trkpt><trkpt lat="44.74189" lon="9.0808383"><ele>561.0</ele><time>2026-04-11T13:49:15.039Z</time></trkpt><trkpt lat="44.7420083" lon="9.0808567"><ele>561.0</ele><time>2026-04-11T13:49:17.039Z</time></trkpt><trkpt lat="44.7421183" lon="9.08089"><ele>561.0</ele><time>2026-04-11T13:49:19.039Z</time></trkpt><trkpt lat="44.7422" lon="9.0808383"><ele>561.0</ele><time>2026-04-11T13:49:21.039Z</time></trkpt><trkpt lat="44.7422017" lon="9.0806683"><ele>561.0</ele><time>2026-04-11T13:49:23.039Z</time></trkpt><trkpt lat="44.7421683" lon="9.080575"><ele>561.0</ele><time>2026-04-11T13:49:24.039Z</time></trkpt><trkpt lat="44.742115" lon="9.080485"><ele>558.8</ele><time>2026-04-11T13:49:25.039Z</time></trkpt><trkpt lat="44.74205" lon="9.0803917"><ele>556.6</ele><time>2026-04-11T13:49:26.039Z</time></trkpt><trkpt lat="44.7419833" lon="9.0802883"><ele>554.4</ele><time>2026-04-11T13:49:27.039Z</time></trkpt><trkpt lat="44.74191" lon="9.080185"><ele>552.2</ele><time>2026-04-11T13:49:28.039Z</time></trkpt><trkpt lat="44.7418433" lon="9.0800967"><ele>550.0</ele><time>2026-04-11T13:49:29.038Z</time></trkpt><trkpt lat="44.7417783" lon="9.0800433"><ele>549.6666666666667</ele><time>2026-04-11T13:49:30.038Z</time></trkpt><trkpt lat="44.7417083" lon="9.0800217"><ele>549.3333333333334</ele><time>2026-04-11T13:49:31.039Z</time></trkpt><trkpt lat="44.7416283" lon="9.0800233"><ele>549.0</ele><time>2026-04-11T13:49:32.039Z</time></trkpt><trkpt lat="44.74154" lon="9.0800533"><ele>548.6666666666666</ele><time>2026-04-11T13:49:33.039Z</time></trkpt><trkpt lat="44.7414533" lon="9.08012"><ele>548.3333333333333</ele><time>2026-04-11T13:49:34.039Z</time></trkpt><trkpt lat="44.7413733" lon="9.0802167"><ele>548.0</ele><time>2026-04-11T13:49:35.039Z</time></trkpt><trkpt lat="44.7412917" lon="9.0803183"><ele>548.0</ele><time>2026-04-11T13:49:36.039Z</time></trkpt><trkpt lat="44.7412217" lon="9.08041"><ele>548.0</ele><time>2026-04-11T13:49:37.039Z</time></trkpt><trkpt lat="44.7411617" lon="9.0804833"><ele>548.0</ele><time>2026-04-11T13:49:38.038Z</time></trkpt><trkpt lat="44.7410667" lon="9.0805533"><ele>548.0</ele><time>2026-04-11T13:49:40.039Z</time></trkpt><trkpt lat="44.7409783" lon="9.0804883"><ele>548.0</ele><time>2026-04-11T13:49:42.039Z</time></trkpt><trkpt lat="44.7409367" lon="9.0803083"><ele>546.1666666666666</ele><time>2026-04-11T13:49:44.039Z</time></trkpt><trkpt lat="44.7409267" lon="9.0802"><ele>544.3333333333333</ele><time>2026-04-11T13:49:45.039Z</time></trkpt><trkpt lat="44.7409167" lon="9.080075"><ele>542.5</ele><time>2026-04-11T13:49:46.039Z</time></trkpt><trkpt lat="44.7409067" lon="9.0799483"><ele>540.6666666666666</ele><time>2026-04-11T13:49:47.038Z</time></trkpt><trkpt lat="44.7409033" lon="9.0798267"><ele>538.8333333333334</ele><time>2026-04-11T13:49:48.039Z</time></trkpt><trkpt lat="44.740895" lon="9.0796967"><ele>537.0</ele><time>2026-04-11T13:49:49.039Z</time></trkpt><trkpt lat="44.7408883" lon="9.0795633"><ele>536.4</ele><time>2026-04-11T13:49:50.039Z</time></trkpt><trkpt lat="44.7408733" lon="9.0794267"><ele>535.8000000000001</ele><time>2026-04-11T13:49:51.038Z</time></trkpt><trkpt lat="44.7408567" lon="9.0792917"><ele>535.2</ele><time>2026-04-11T13:49:52.039Z</time></trkpt><trkpt lat="44.740845" lon="9.0791433"><ele>534.6</ele><time>2026-04-11T13:49:53.039Z</time></trkpt><trkpt lat="44.7408417" lon="9.079005"><ele>534.0</ele><time>2026-04-11T13:49:54.039Z</time></trkpt><trkpt lat="44.7408367" lon="9.07889"><ele>533.0</ele><time>2026-04-11T13:49:55.039Z</time></trkpt><trkpt lat="44.7408183" lon="9.078785"><ele>532.0</ele><time>2026-04-11T13:49:56.039Z</time></trkpt><trkpt lat="44.7407817" lon="9.0786983"><ele>531.0</ele><time>2026-04-11T13:49:57.038Z</time></trkpt><trkpt lat="44.7406933" lon="9.07859"><ele>530.0</ele><time>2026-04-11T13:49:59.039Z</time></trkpt><trkpt lat="44.7406133" lon="9.0784333"><ele>529.0</ele><time>2026-04-11T13:50:01.039Z</time></trkpt><trkpt lat="44.7406067" lon="9.0783283"><ele>526.8333333333334</ele><time>2026-04-11T13:50:02.039Z</time></trkpt><trkpt lat="44.7406317" lon="9.078225"><ele>524.6666666666667</ele><time>2026-04-11T13:50:03.039Z</time></trkpt><trkpt lat="44.7406717" lon="9.078135"><ele>522.5</ele><time>2026-04-11T13:50:04.038Z</time></trkpt><trkpt lat="44.7407217" lon="9.07808"><ele>520.3333333333334</ele><time>2026-04-11T13:50:05.039Z</time></trkpt><trkpt lat="44.7408517" lon="9.0780217"><ele>518.1666666666666</ele><time>2026-04-11T13:50:07.039Z</time></trkpt><trkpt lat="44.740925" lon="9.0779983"><ele>516.0</ele><time>2026-04-11T13:50:08.039Z</time></trkpt><trkpt lat="44.740995" lon="9.0779783"><ele>516.0</ele><time>2026-04-11T13:50:09.038Z</time></trkpt><trkpt lat="44.74107" lon="9.0779483"><ele>516.0</ele><time>2026-04-11T13:50:10.039Z</time></trkpt><trkpt lat="44.7411467" lon="9.0778667"><ele>516.0</ele><time>2026-04-11T13:50:12.039Z</time></trkpt><trkpt lat="44.7411717" lon="9.0777633"><ele>516.0</ele><time>2026-04-11T13:50:14.039Z</time></trkpt><trkpt lat="44.7410767" lon="9.0777483"><ele>516.0</ele><time>2026-04-11T13:50:17.039Z</time></trkpt><trkpt lat="44.7410083" lon="9.0777633"><ele>516.0</ele><time>2026-04-11T13:50:18.039Z</time></trkpt><trkpt lat="44.74092" lon="9.077775"><ele>516.0</ele><time>2026-04-11T13:50:19.038Z</time></trkpt><trkpt lat="44.74082" lon="9.077755"><ele>516.0</ele><time>2026-04-11T13:50:20.039Z</time></trkpt><trkpt lat="44.7407183" lon="9.0777183"><ele>516.0</ele><time>2026-04-11T13:50:21.039Z</time></trkpt><trkpt lat="44.74063" lon="9.077685"><ele>516.0</ele><time>2026-04-11T13:50:22.038Z</time></trkpt><trkpt lat="44.7405383" lon="9.0776667"><ele>516.0</ele><time>2026-04-11T13:50:23.039Z</time></trkpt><trkpt lat="44.7404467" lon="9.0776683"><ele>516.0</ele><time>2026-04-11T13:50:24.039Z</time></trkpt><trkpt lat="44.7403567" lon="9.0776917"><ele>516.0</ele><time>2026-04-11T13:50:25.039Z</time></trkpt><trkpt lat="44.740285" lon="9.0777167"><ele>516.0</ele><time>2026-04-11T13:50:26.039Z</time></trkpt><trkpt lat="44.74022" lon="9.0777117"><ele>516.0</ele><time>2026-04-11T13:50:27.039Z</time></trkpt><trkpt lat="44.74013" lon="9.077645"><ele>516.0</ele><time>2026-04-11T13:50:29.039Z</time></trkpt><trkpt lat="44.7401383" lon="9.077555"><ele>516.0</ele><time>2026-04-11T13:50:31.039Z</time></trkpt><trkpt lat="44.7402267" lon="9.0775067"><ele>516.0</ele><time>2026-04-11T13:50:33.039Z</time></trkpt><trkpt lat="44.7402983" lon="9.0774883"><ele>516.0</ele><time>2026-04-11T13:50:34.039Z</time></trkpt><trkpt lat="44.7403767" lon="9.077465"><ele>516.0</ele><time>2026-04-11T13:50:35.039Z</time></trkpt><trkpt lat="44.7404567" lon="9.0774317"><ele>516.0</ele><time>2026-04-11T13:50:36.039Z</time></trkpt><trkpt lat="44.7405367" lon="9.07739"><ele>516.0</ele><time>2026-04-11T13:50:37.039Z</time></trkpt><trkpt lat="44.7406333" lon="9.0773183"><ele>516.0</ele><time>2026-04-11T13:50:39.039Z</time></trkpt><trkpt lat="44.7406717" lon="9.07719"><ele>516.3333333333334</ele><time>2026-04-11T13:50:41.039Z</time></trkpt><trkpt lat="44.7406617" lon="9.0771017"><ele>516.6666666666666</ele><time>2026-04-11T13:50:42.039Z</time></trkpt><trkpt lat="44.7406233" lon="9.0770133"><ele>517.0</ele><time>2026-04-11T13:50:43.039Z</time></trkpt><trkpt lat="44.7405867" lon="9.076925"><ele>517.3333333333333</ele><time>2026-04-11T13:50:44.038Z</time></trkpt><trkpt lat="44.7405533" lon="9.07682"><ele>517.6666666666666</ele><time>2026-04-11T13:50:45.039Z</time></trkpt><trkpt lat="44.7405183" lon="9.07671"><ele>518.0</ele><time>2026-04-11T13:50:46.038Z</time></trkpt><trkpt lat="44.7404833" lon="9.0765967"><ele>518.0</ele><time>2026-04-11T13:50:47.039Z</time></trkpt><trkpt lat="44.74044" lon="9.0764667"><ele>518.0</ele><time>2026-04-11T13:50:48.039Z</time></trkpt><trkpt lat="44.7404017" lon="9.076335"><ele>518.0</ele><time>2026-04-11T13:50:49.039Z</time></trkpt><trkpt lat="44.7403667" lon="9.0762067"><ele>518.0</ele><time>2026-04-11T13:50:50.039Z</time></trkpt><trkpt lat="44.740325" lon="9.0760817"><ele>518.0</ele><time>2026-04-11T13:50:51.039Z</time></trkpt><trkpt lat="44.7402783" lon="9.0759667"><ele>518.0</ele><time>2026-04-11T13:50:52.039Z</time></trkpt><trkpt lat="44.7402217" lon="9.07588"><ele>518.0</ele><time>2026-04-11T13:50:53.039Z</time></trkpt><trkpt lat="44.7401717" lon="9.0758217"><ele>518.0</ele><time>2026-04-11T13:50:54.038Z</time></trkpt><trkpt lat="44.7401067" lon="9.0757567"><ele>518.0</ele><time>2026-04-11T13:50:56.038Z</time></trkpt><trkpt lat="44.740025" lon="9.07567"><ele>518.0</ele><time>2026-04-11T13:50:59.038Z</time></trkpt><trkpt lat="44.7399667" lon="9.07553"><ele>518.0</ele><time>2026-04-11T13:51:01.039Z</time></trkpt><trkpt lat="44.739955" lon="9.07544"><ele>515.0</ele><time>2026-04-11T13:51:02.038Z</time></trkpt><trkpt lat="44.7399633" lon="9.075325"><ele>511.99999999999994</ele><time>2026-04-11T13:51:03.039Z</time></trkpt><trkpt lat="44.73998" lon="9.0751983"><ele>508.99999999999994</ele><time>2026-04-11T13:51:04.039Z</time></trkpt><trkpt lat="44.74" lon="9.075055"><ele>506.0</ele><time>2026-04-11T13:51:05.038Z</time></trkpt><trkpt lat="44.7400217" lon="9.0749167"><ele>503.0</ele><time>2026-04-11T13:51:06.039Z</time></trkpt><trkpt lat="44.74005" lon="9.074775"><ele>502.3333333333333</ele><time>2026-04-11T13:51:07.039Z</time></trkpt><trkpt lat="44.74007" lon="9.07465"><ele>501.66666666666663</ele><time>2026-04-11T13:51:08.039Z</time></trkpt><trkpt lat="44.7400933" lon="9.0745583"><ele>501.0</ele><time>2026-04-11T13:51:09.039Z</time></trkpt><trkpt lat="44.74013" lon="9.07448"><ele>500.33333333333337</ele><time>2026-04-11T13:51:10.038Z</time></trkpt><trkpt lat="44.740185" lon="9.0744067"><ele>499.6666666666667</ele><time>2026-04-11T13:51:11.039Z</time></trkpt><trkpt lat="44.7402433" lon="9.07434"><ele>499.0</ele><time>2026-04-11T13:51:12.039Z</time></trkpt><trkpt lat="44.7403117" lon="9.0742717"><ele>499.6</ele><time>2026-04-11T13:51:13.039Z</time></trkpt><trkpt lat="44.7403817" lon="9.074195"><ele>500.2</ele><time>2026-04-11T13:51:14.039Z</time></trkpt><trkpt lat="44.7404567" lon="9.0741183"><ele>500.80000000000007</ele><time>2026-04-11T13:51:15.039Z</time></trkpt><trkpt lat="44.7405333" lon="9.0740317"><ele>501.40000000000003</ele><time>2026-04-11T13:51:16.038Z</time></trkpt><trkpt lat="44.74062" lon="9.0739367"><ele>502.0</ele><time>2026-04-11T13:51:17.038Z</time></trkpt><trkpt lat="44.74069" lon="9.07385"><ele>502.0</ele><time>2026-04-11T13:51:18.038Z</time></trkpt><trkpt lat="44.740775" lon="9.0737383"><ele>502.00000000000006</ele><time>2026-04-11T13:51:19.038Z</time></trkpt><trkpt lat="44.7408533" lon="9.0736217"><ele>502.00000000000006</ele><time>2026-04-11T13:51:20.039Z</time></trkpt><trkpt lat="44.7409083" lon="9.0735"><ele>502.0</ele><time>2026-04-11T13:51:21.039Z</time></trkpt><trkpt lat="44.7409567" lon="9.0733817"><ele>502.0</ele><time>2026-04-11T13:51:22.039Z</time></trkpt><trkpt lat="44.7410033" lon="9.0732683"><ele>501.50000000000006</ele><time>2026-04-11T13:51:23.039Z</time></trkpt><trkpt lat="44.7410433" lon="9.0731517"><ele>501.0</ele><time>2026-04-11T13:51:24.039Z</time></trkpt><trkpt lat="44.741085" lon="9.07305"><ele>500.5</ele><time>2026-04-11T13:51:25.039Z</time></trkpt><trkpt lat="44.7410933" lon="9.0729317"><ele>500.0</ele><time>2026-04-11T13:51:26.039Z</time></trkpt><trkpt lat="44.7410917" lon="9.07282"><ele>499.50000000000006</ele><time>2026-04-11T13:51:27.039Z</time></trkpt><trkpt lat="44.7410633" lon="9.0727233"><ele>499.0</ele><time>2026-04-11T13:51:28.039Z</time></trkpt><trkpt lat="44.7410217" lon="9.0726517"><ele>499.00000000000006</ele><time>2026-04-11T13:51:29.038Z</time></trkpt><trkpt lat="44.7409583" lon="9.0726"><ele>499.0</ele><time>2026-04-11T13:51:30.039Z</time></trkpt><trkpt lat="44.7408867" lon="9.0725633"><ele>499.0</ele><time>2026-04-11T13:51:31.039Z</time></trkpt><trkpt lat="44.7408017" lon="9.0725217"><ele>499.0</ele><time>2026-04-11T13:51:32.038Z</time></trkpt><trkpt lat="44.7407217" lon="9.072485"><ele>499.00000000000006</ele><time>2026-04-11T13:51:33.039Z</time></trkpt><trkpt lat="44.7406517" lon="9.072405"><ele>499.0</ele><time>2026-04-11T13:51:35.039Z</time></trkpt><trkpt lat="44.7406733" lon="9.0723017"><ele>500.00000000000006</ele><time>2026-04-11T13:51:38.039Z</time></trkpt><trkpt lat="44.740745" lon="9.0722517"><ele>501.0</ele><time>2026-04-11T13:51:40.039Z</time></trkpt><trkpt lat="44.7408333" lon="9.0722033"><ele>502.0</ele><time>2026-04-11T13:51:42.038Z</time></trkpt><trkpt lat="44.7409367" lon="9.0721533"><ele>503.0</ele><time>2026-04-11T13:51:44.038Z</time></trkpt><trkpt lat="44.7410033" lon="9.072125"><ele>504.00000000000006</ele><time>2026-04-11T13:51:45.039Z</time></trkpt><trkpt lat="44.7410733" lon="9.0720917"><ele>505.0</ele><time>2026-04-11T13:51:46.039Z</time></trkpt><trkpt lat="44.74114" lon="9.0720517"><ele>508.0</ele><time>2026-04-11T13:51:47.039Z</time></trkpt><trkpt lat="44.74121" lon="9.0720067"><ele>511.0</ele><time>2026-04-11T13:51:48.038Z</time></trkpt><trkpt lat="44.741275" lon="9.0719483"><ele>514.0</ele><time>2026-04-11T13:51:49.039Z</time></trkpt><trkpt lat="44.7413233" lon="9.0718"><ele>517.0</ele><time>2026-04-11T13:51:51.039Z</time></trkpt><trkpt lat="44.7412767" lon="9.07165"><ele>520.0</ele><time>2026-04-11T13:51:53.039Z</time></trkpt><trkpt lat="44.7412333" lon="9.0715767"><ele>521.5</ele><time>2026-04-11T13:51:54.039Z</time></trkpt><trkpt lat="44.7411817" lon="9.0714983"><ele>523.0</ele><time>2026-04-11T13:51:55.038Z</time></trkpt><trkpt lat="44.741135" lon="9.0714133"><ele>524.5</ele><time>2026-04-11T13:51:56.039Z</time></trkpt><trkpt lat="44.74109" lon="9.0713183"><ele>526.0</ele><time>2026-04-11T13:51:57.039Z</time></trkpt><trkpt lat="44.7410533" lon="9.0712083"><ele>527.5</ele><time>2026-04-11T13:51:58.038Z</time></trkpt><trkpt lat="44.7410233" lon="9.0710767"><ele>529.0</ele><time>2026-04-11T13:51:59.039Z</time></trkpt><trkpt lat="44.7409983" lon="9.0709383"><ele>526.8</ele><time>2026-04-11T13:52:00.039Z</time></trkpt><trkpt lat="44.74097" lon="9.070795"><ele>524.5999999999999</ele><time>2026-04-11T13:52:01.039Z</time></trkpt><trkpt lat="44.74094" lon="9.0706533"><ele>522.4</ele><time>2026-04-11T13:52:02.039Z</time></trkpt><trkpt lat="44.7409133" lon="9.0705117"><ele>520.1999999999999</ele><time>2026-04-11T13:52:03.039Z</time></trkpt><trkpt lat="44.74088" lon="9.07036"><ele>518.0</ele><time>2026-04-11T13:52:04.038Z</time></trkpt><trkpt lat="44.7408517" lon="9.0702167"><ele>518.0</ele><time>2026-04-11T13:52:05.039Z</time></trkpt><trkpt lat="44.7408267" lon="9.0700817"><ele>518.0</ele><time>2026-04-11T13:52:06.039Z</time></trkpt><trkpt lat="44.7408033" lon="9.0699483"><ele>518.0</ele><time>2026-04-11T13:52:07.039Z</time></trkpt><trkpt lat="44.7407783" lon="9.0698217"><ele>518.0</ele><time>2026-04-11T13:52:08.038Z</time></trkpt><trkpt lat="44.7407667" lon="9.0696917"><ele>518.0</ele><time>2026-04-11T13:52:09.039Z</time></trkpt><trkpt lat="44.74076" lon="9.069555"><ele>519.4</ele><time>2026-04-11T13:52:10.039Z</time></trkpt><trkpt lat="44.7407767" lon="9.06941"><ele>520.8</ele><time>2026-04-11T13:52:11.039Z</time></trkpt><trkpt lat="44.7408167" lon="9.069265"><ele>522.2</ele><time>2026-04-11T13:52:12.039Z</time></trkpt><trkpt lat="44.7408617" lon="9.0691217"><ele>523.6</ele><time>2026-04-11T13:52:13.039Z</time></trkpt><trkpt lat="44.740915" lon="9.068985"><ele>525.0</ele><time>2026-04-11T13:52:14.039Z</time></trkpt><trkpt lat="44.7409667" lon="9.068845"><ele>525.8</ele><time>2026-04-11T13:52:15.039Z</time></trkpt><trkpt lat="44.7410233" lon="9.0687217"><ele>526.6</ele><time>2026-04-11T13:52:16.039Z</time></trkpt><trkpt lat="44.7410483" lon="9.0685767"><ele>527.4</ele><time>2026-04-11T13:52:17.039Z</time></trkpt><trkpt lat="44.741045" lon="9.06845"><ele>528.2</ele><time>2026-04-11T13:52:18.039Z</time></trkpt><trkpt lat="44.741015" lon="9.0683433"><ele>529.0</ele><time>2026-04-11T13:52:19.039Z</time></trkpt><trkpt lat="44.740955" lon="9.0682467"><ele>530.0</ele><time>2026-04-11T13:52:20.039Z</time></trkpt><trkpt lat="44.7409017" lon="9.0681483"><ele>531.0</ele><time>2026-04-11T13:52:21.039Z</time></trkpt><trkpt lat="44.7408617" lon="9.068025"><ele>532.0</ele><time>2026-04-11T13:52:22.038Z</time></trkpt><trkpt lat="44.7408367" lon="9.0678967"><ele>533.0</ele><time>2026-04-11T13:52:23.039Z</time></trkpt><trkpt lat="44.7408267" lon="9.0677567"><ele>534.0</ele><time>2026-04-11T13:52:24.039Z</time></trkpt><trkpt lat="44.7408233" lon="9.0676"><ele>533.8</ele><time>2026-04-11T13:52:25.039Z</time></trkpt><trkpt lat="44.740825" lon="9.0674417"><ele>533.5999999999999</ele><time>2026-04-11T13:52:26.039Z</time></trkpt><trkpt lat="44.74082" lon="9.0672833"><ele>533.4</ele><time>2026-04-11T13:52:27.038Z</time></trkpt><trkpt lat="44.740825" lon="9.0671283"><ele>533.1999999999999</ele><time>2026-04-11T13:52:28.039Z</time></trkpt><trkpt lat="44.7408267" lon="9.0669833"><ele>533.0</ele><time>2026-04-11T13:52:29.039Z</time></trkpt><trkpt lat="44.740845" lon="9.0668633"><ele>533.0</ele><time>2026-04-11T13:52:30.039Z</time></trkpt><trkpt lat="44.74087" lon="9.0667683"><ele>533.0</ele><time>2026-04-11T13:52:31.039Z</time></trkpt><trkpt lat="44.7409517" lon="9.0666867"><ele>533.0</ele><time>2026-04-11T13:52:33.039Z</time></trkpt><trkpt lat="44.7410533" lon="9.066765"><ele>533.0</ele><time>2026-04-11T13:52:35.039Z</time></trkpt><trkpt lat="44.7410983" lon="9.0668467"><ele>533.0</ele><time>2026-04-11T13:52:36.039Z</time></trkpt><trkpt lat="44.74113" lon="9.0669483"><ele>533.0</ele><time>2026-04-11T13:52:37.038Z</time></trkpt><trkpt lat="44.741125" lon="9.06706"><ele>536.5</ele><time>2026-04-11T13:52:38.038Z</time></trkpt><trkpt lat="44.7411083" lon="9.067165"><ele>540.0</ele><time>2026-04-11T13:52:39.039Z</time></trkpt><trkpt lat="44.74109" lon="9.0672633"><ele>543.5</ele><time>2026-04-11T13:52:40.039Z</time></trkpt><trkpt lat="44.7410733" lon="9.06735"><ele>547.0</ele><time>2026-04-11T13:52:41.039Z</time></trkpt><trkpt lat="44.7410833" lon="9.0674717"><ele>550.5</ele><time>2026-04-11T13:52:43.038Z</time></trkpt><trkpt lat="44.741135" lon="9.0675983"><ele>554.0</ele><time>2026-04-11T13:52:45.039Z</time></trkpt><trkpt lat="44.741175" lon="9.0676683"><ele>554.6666666666666</ele><time>2026-04-11T13:52:46.039Z</time></trkpt><trkpt lat="44.7412317" lon="9.06774"><ele>555.3333333333333</ele><time>2026-04-11T13:52:47.039Z</time></trkpt><trkpt lat="44.741295" lon="9.0678167"><ele>556.0</ele><time>2026-04-11T13:52:48.039Z</time></trkpt><trkpt lat="44.7413633" lon="9.0678883"><ele>556.6666666666666</ele><time>2026-04-11T13:52:49.039Z</time></trkpt><trkpt lat="44.741435" lon="9.0679667"><ele>557.3333333333334</ele><time>2026-04-11T13:52:50.039Z</time></trkpt><trkpt lat="44.7414967" lon="9.068025"><ele>558.0</ele><time>2026-04-11T13:52:51.039Z</time></trkpt><trkpt lat="44.7415917" lon="9.0680333"><ele>558.0</ele><time>2026-04-11T13:52:53.039Z</time></trkpt><trkpt lat="44.7416083" lon="9.06794"><ele>558.0</ele><time>2026-04-11T13:52:55.039Z</time></trkpt><trkpt lat="44.7415467" lon="9.067805"><ele>558.0</ele><time>2026-04-11T13:52:57.039Z</time></trkpt><trkpt lat="44.7415" lon="9.067725"><ele>558.0</ele><time>2026-04-11T13:52:58.039Z</time></trkpt><trkpt lat="44.7414533" lon="9.0676383"><ele>558.0</ele><time>2026-04-11T13:52:59.038Z</time></trkpt><trkpt lat="44.74142" lon="9.0675567"><ele>558.0</ele><time>2026-04-11T13:53:00.039Z</time></trkpt><trkpt lat="44.7413967" lon="9.0674633"><ele>557.4285714285713</ele><time>2026-04-11T13:53:01.039Z</time></trkpt><trkpt lat="44.7413883" lon="9.0673633"><ele>556.8571428571429</ele><time>2026-04-11T13:53:02.039Z</time></trkpt><trkpt lat="44.7413933" lon="9.0672667"><ele>556.2857142857142</ele><time>2026-04-11T13:53:03.039Z</time></trkpt><trkpt lat="44.7414133" lon="9.0671717"><ele>555.7142857142857</ele><time>2026-04-11T13:53:04.039Z</time></trkpt><trkpt lat="44.741455" lon="9.0670967"><ele>555.1428571428571</ele><time>2026-04-11T13:53:05.039Z</time></trkpt><trkpt lat="44.7415067" lon="9.06704"><ele>554.5714285714286</ele><time>2026-04-11T13:53:06.039Z</time></trkpt><trkpt lat="44.7415667" lon="9.0670117"><ele>554.0</ele><time>2026-04-11T13:53:07.038Z</time></trkpt><trkpt lat="44.74169" lon="9.0669917"><ele>554.0</ele><time>2026-04-11T13:53:09.039Z</time></trkpt><trkpt lat="44.741795" lon="9.06699"><ele>554.0</ele><time>2026-04-11T13:53:11.039Z</time></trkpt><trkpt lat="44.7418683" lon="9.067015"><ele>554.0</ele><time>2026-04-11T13:53:12.039Z</time></trkpt><trkpt lat="44.7419883" lon="9.06707"><ele>554.0</ele><time>2026-04-11T13:53:14.039Z</time></trkpt><trkpt lat="44.7420367" lon="9.0671283"><ele>554.0</ele><time>2026-04-11T13:53:15.038Z</time></trkpt><trkpt lat="44.7420833" lon="9.0671983"><ele>554.0</ele><time>2026-04-11T13:53:16.039Z</time></trkpt><trkpt lat="44.7421283" lon="9.0672783"><ele>553.2857142857142</ele><time>2026-04-11T13:53:17.039Z</time></trkpt><trkpt lat="44.74217" lon="9.0673567"><ele>552.5714285714286</ele><time>2026-04-11T13:53:18.039Z</time></trkpt><trkpt lat="44.742215" lon="9.0674317"><ele>551.8571428571429</ele><time>2026-04-11T13:53:19.039Z</time></trkpt><trkpt lat="44.74226" lon="9.0675017"><ele>551.1428571428571</ele><time>2026-04-11T13:53:20.039Z</time></trkpt><trkpt lat="44.7423083" lon="9.0675783"><ele>550.4285714285714</ele><time>2026-04-11T13:53:21.039Z</time></trkpt><trkpt lat="44.742345" lon="9.0676583"><ele>549.7142857142857</ele><time>2026-04-11T13:53:22.039Z</time></trkpt><trkpt lat="44.7423817" lon="9.0677467"><ele>549.0</ele><time>2026-04-11T13:53:23.039Z</time></trkpt><trkpt lat="44.742435" lon="9.0678517"><ele>552.0</ele><time>2026-04-11T13:53:24.039Z</time></trkpt><trkpt lat="44.7424933" lon="9.0679617"><ele>555.0</ele><time>2026-04-11T13:53:25.039Z</time></trkpt><trkpt lat="44.7425467" lon="9.068065"><ele>558.0</ele><time>2026-04-11T13:53:26.039Z</time></trkpt><trkpt lat="44.7426067" lon="9.0681783"><ele>561.0</ele><time>2026-04-11T13:53:27.039Z</time></trkpt><trkpt lat="44.74267" lon="9.0682917"><ele>564.0</ele><time>2026-04-11T13:53:28.038Z</time></trkpt><trkpt lat="44.74274" lon="9.0683983"><ele>566.5</ele><time>2026-04-11T13:53:29.039Z</time></trkpt><trkpt lat="44.7428183" lon="9.0684717"><ele>569.0</ele><time>2026-04-11T13:53:30.039Z</time></trkpt><trkpt lat="44.7428983" lon="9.0685267"><ele>571.5</ele><time>2026-04-11T13:53:31.039Z</time></trkpt><trkpt lat="44.7429767" lon="9.0685417"><ele>574.0</ele><time>2026-04-11T13:53:32.039Z</time></trkpt><trkpt lat="44.7430633" lon="9.0685317"><ele>576.5</ele><time>2026-04-11T13:53:33.039Z</time></trkpt><trkpt lat="44.743155" lon="9.0685117"><ele>579.0</ele><time>2026-04-11T13:53:34.039Z</time></trkpt><trkpt lat="44.74325" lon="9.0684683"><ele>579.0</ele><time>2026-04-11T13:53:35.039Z</time></trkpt><trkpt lat="44.7433417" lon="9.0683917"><ele>579.0</ele><time>2026-04-11T13:53:36.038Z</time></trkpt><trkpt lat="44.74343" lon="9.0682917"><ele>579.0</ele><time>2026-04-11T13:53:37.038Z</time></trkpt><trkpt lat="44.7435033" lon="9.0681833"><ele>579.0</ele><time>2026-04-11T13:53:38.039Z</time></trkpt><trkpt lat="44.7435767" lon="9.0681"><ele>579.0</ele><time>2026-04-11T13:53:39.039Z</time></trkpt><trkpt lat="44.7436433" lon="9.06805"><ele>579.0</ele><time>2026-04-11T13:53:40.039Z</time></trkpt><trkpt lat="44.7437367" lon="9.068045"><ele>579.0</ele><time>2026-04-11T13:53:42.039Z</time></trkpt><trkpt lat="44.7437833" lon="9.06815"><ele>579.0</ele><time>2026-04-11T13:53:44.038Z</time></trkpt><trkpt lat="44.7437717" lon="9.06834"><ele>579.0</ele><time>2026-04-11T13:53:46.039Z</time></trkpt><trkpt lat="44.7437617" lon="9.0684417"><ele>579.0</ele><time>2026-04-11T13:53:47.038Z</time></trkpt><trkpt lat="44.7437583" lon="9.068555"><ele>578.9999999999999</ele><time>2026-04-11T13:53:48.039Z</time></trkpt><trkpt lat="44.7437583" lon="9.0686583"><ele>579.0</ele><time>2026-04-11T13:53:49.039Z</time></trkpt><trkpt lat="44.74376" lon="9.0687517"><ele>579.0</ele><time>2026-04-11T13:53:50.039Z</time></trkpt><trkpt lat="44.7437683" lon="9.06885"><ele>579.0</ele><time>2026-04-11T13:53:51.039Z</time></trkpt><trkpt lat="44.743785" lon="9.06895"><ele>579.0</ele><time>2026-04-11T13:53:52.039Z</time></trkpt><trkpt lat="44.743805" lon="9.0690583"><ele>578.9999999999999</ele><time>2026-04-11T13:53:53.039Z</time></trkpt><trkpt lat="44.743835" lon="9.06917"><ele>579.0</ele><time>2026-04-11T13:53:54.038Z</time></trkpt><trkpt lat="44.7438733" lon="9.0692783"><ele>582.0</ele><time>2026-04-11T13:53:55.039Z</time></trkpt><trkpt lat="44.7439183" lon="9.0693933"><ele>585.0</ele><time>2026-04-11T13:53:56.039Z</time></trkpt><trkpt lat="44.7439767" lon="9.0694917"><ele>588.0</ele><time>2026-04-11T13:53:57.039Z</time></trkpt><trkpt lat="44.74404" lon="9.0695983"><ele>591.0</ele><time>2026-04-11T13:53:58.039Z</time></trkpt><trkpt lat="44.7441067" lon="9.0696967"><ele>594.0</ele><time>2026-04-11T13:53:59.039Z</time></trkpt><trkpt lat="44.7441767" lon="9.0697833"><ele>594.0</ele><time>2026-04-11T13:54:00.039Z</time></trkpt><trkpt lat="44.744255" lon="9.069865"><ele>594.0</ele><time>2026-04-11T13:54:01.038Z</time></trkpt><trkpt lat="44.7443417" lon="9.06993"><ele>594.0</ele><time>2026-04-11T13:54:02.039Z</time></trkpt><trkpt lat="44.744435" lon="9.069985"><ele>594.0</ele><time>2026-04-11T13:54:03.039Z</time></trkpt><trkpt lat="44.74453" lon="9.0700533"><ele>594.0</ele><time>2026-04-11T13:54:04.039Z</time></trkpt><trkpt lat="44.74462" lon="9.0701533"><ele>595.0</ele><time>2026-04-11T13:54:05.039Z</time></trkpt><trkpt lat="44.7447017" lon="9.070275"><ele>596.0</ele><time>2026-04-11T13:54:06.039Z</time></trkpt><trkpt lat="44.7447817" lon="9.0704067"><ele>597.0</ele><time>2026-04-11T13:54:07.039Z</time></trkpt><trkpt lat="44.74486" lon="9.0705367"><ele>598.0</ele><time>2026-04-11T13:54:08.039Z</time></trkpt><trkpt lat="44.7449367" lon="9.0706533"><ele>598.0</ele><time>2026-04-11T13:54:09.039Z</time></trkpt><trkpt lat="44.7450033" lon="9.0707583"><ele>598.0</ele><time>2026-04-11T13:54:10.039Z</time></trkpt><trkpt lat="44.7450683" lon="9.0708283"><ele>598.0</ele><time>2026-04-11T13:54:11.039Z</time></trkpt><trkpt lat="44.74513" lon="9.070885"><ele>598.0</ele><time>2026-04-11T13:54:12.039Z</time></trkpt><trkpt lat="44.7451933" lon="9.0709183"><ele>598.0</ele><time>2026-04-11T13:54:13.039Z</time></trkpt><trkpt lat="44.7453267" lon="9.0709017"><ele>599.1999999999999</ele><time>2026-04-11T13:54:15.039Z</time></trkpt><trkpt lat="44.7454067" lon="9.0708683"><ele>600.4</ele><time>2026-04-11T13:54:16.039Z</time></trkpt><trkpt lat="44.7454917" lon="9.070805"><ele>601.5999999999999</ele><time>2026-04-11T13:54:17.038Z</time></trkpt><trkpt lat="44.74558" lon="9.0707383"><ele>602.8</ele><time>2026-04-11T13:54:18.038Z</time></trkpt><trkpt lat="44.7456717" lon="9.070665"><ele>604.0</ele><time>2026-04-11T13:54:19.039Z</time></trkpt><trkpt lat="44.7457617" lon="9.0705833"><ele>604.0</ele><time>2026-04-11T13:54:20.039Z</time></trkpt><trkpt lat="44.7458517" lon="9.0704967"><ele>604.0</ele><time>2026-04-11T13:54:21.039Z</time></trkpt><trkpt lat="44.7459433" lon="9.070415"><ele>604.0</ele><time>2026-04-11T13:54:22.039Z</time></trkpt><trkpt lat="44.7460417" lon="9.0703267"><ele>604.0</ele><time>2026-04-11T13:54:23.039Z</time></trkpt><trkpt lat="44.7461567" lon="9.0702317"><ele>604.5</ele><time>2026-04-11T13:54:24.039Z</time></trkpt><trkpt lat="44.7462733" lon="9.0701333"><ele>605.0</ele><time>2026-04-11T13:54:25.039Z</time></trkpt><trkpt lat="44.7463817" lon="9.070035"><ele>605.5</ele><time>2026-04-11T13:54:26.039Z</time></trkpt><trkpt lat="44.74648" lon="9.0699183"><ele>606.0</ele><time>2026-04-11T13:54:27.039Z</time></trkpt><trkpt lat="44.7465783" lon="9.0698117"><ele>606.0</ele><time>2026-04-11T13:54:28.038Z</time></trkpt><trkpt lat="44.746675" lon="9.0697133"><ele>606.0</ele><time>2026-04-11T13:54:29.039Z</time></trkpt><trkpt lat="44.7467633" lon="9.069625"><ele>606.0</ele><time>2026-04-11T13:54:30.039Z</time></trkpt><trkpt lat="44.7468417" lon="9.0695367"><ele>606.0</ele><time>2026-04-11T13:54:31.039Z</time></trkpt><trkpt lat="44.7469233" lon="9.0694483"><ele>606.0</ele><time>2026-04-11T13:54:32.039Z</time></trkpt><trkpt lat="44.7470217" lon="9.0693533"><ele>607.0</ele><time>2026-04-11T13:54:33.038Z</time></trkpt><trkpt lat="44.7471233" lon="9.0692567"><ele>608.0</ele><time>2026-04-11T13:54:34.039Z</time></trkpt><trkpt lat="44.7472167" lon="9.06916"><ele>609.0</ele><time>2026-04-11T13:54:35.039Z</time></trkpt><trkpt lat="44.74731" lon="9.0690617"><ele>610.0</ele><time>2026-04-11T13:54:36.039Z</time></trkpt><trkpt lat="44.7474017" lon="9.068945"><ele>610.0</ele><time>2026-04-11T13:54:37.038Z</time></trkpt><trkpt lat="44.7474883" lon="9.0688133"><ele>610.0</ele><time>2026-04-11T13:54:38.039Z</time></trkpt><trkpt lat="44.7475567" lon="9.0686867"><ele>610.0</ele><time>2026-04-11T13:54:39.039Z</time></trkpt><trkpt lat="44.74762" lon="9.0685583"><ele>610.0</ele><time>2026-04-11T13:54:40.039Z</time></trkpt><trkpt lat="44.74768" lon="9.068445"><ele>610.0</ele><time>2026-04-11T13:54:41.039Z</time></trkpt><trkpt lat="44.7477467" lon="9.0683517"><ele>610.0</ele><time>2026-04-11T13:54:42.039Z</time></trkpt><trkpt lat="44.7478283" lon="9.0682667"><ele>610.0</ele><time>2026-04-11T13:54:43.039Z</time></trkpt><trkpt lat="44.7479167" lon="9.0681983"><ele>610.0</ele><time>2026-04-11T13:54:44.039Z</time></trkpt><trkpt lat="44.74802" lon="9.0681383"><ele>610.0</ele><time>2026-04-11T13:54:45.038Z</time></trkpt><trkpt lat="44.748125" lon="9.0680817"><ele>610.0</ele><time>2026-04-11T13:54:46.039Z</time></trkpt><trkpt lat="44.7482283" lon="9.06802"><ele>610.0</ele><time>2026-04-11T13:54:47.038Z</time></trkpt><trkpt lat="44.7483267" lon="9.06795"><ele>610.0</ele><time>2026-04-11T13:54:48.039Z</time></trkpt><trkpt lat="44.7484133" lon="9.06786"><ele>610.0</ele><time>2026-04-11T13:54:49.039Z</time></trkpt><trkpt lat="44.7484983" lon="9.06776"><ele>610.0</ele><time>2026-04-11T13:54:50.039Z</time></trkpt><trkpt lat="44.7485817" lon="9.0676533"><ele>609.8</ele><time>2026-04-11T13:54:51.039Z</time></trkpt><trkpt lat="44.7486667" lon="9.0675433"><ele>609.6</ele><time>2026-04-11T13:54:52.039Z</time></trkpt><trkpt lat="44.7487367" lon="9.06743"><ele>609.4</ele><time>2026-04-11T13:54:53.039Z</time></trkpt><trkpt lat="44.7488" lon="9.067315"><ele>609.2</ele><time>2026-04-11T13:54:54.038Z</time></trkpt><trkpt lat="44.748865" lon="9.0672017"><ele>609.0</ele><time>2026-04-11T13:54:55.039Z</time></trkpt><trkpt lat="44.7489283" lon="9.0670833"><ele>609.5</ele><time>2026-04-11T13:54:56.039Z</time></trkpt><trkpt lat="44.7489983" lon="9.0669617"><ele>610.0</ele><time>2026-04-11T13:54:57.039Z</time></trkpt><trkpt lat="44.7490767" lon="9.0668417"><ele>610.5</ele><time>2026-04-11T13:54:58.039Z</time></trkpt><trkpt lat="44.749165" lon="9.066725"><ele>611.0</ele><time>2026-04-11T13:54:59.039Z</time></trkpt><trkpt lat="44.7492517" lon="9.0666117"><ele>610.25</ele><time>2026-04-11T13:55:00.039Z</time></trkpt><trkpt lat="44.7493267" lon="9.0664983"><ele>609.5</ele><time>2026-04-11T13:55:01.039Z</time></trkpt><trkpt lat="44.749385" lon="9.06637"><ele>608.75</ele><time>2026-04-11T13:55:02.039Z</time></trkpt><trkpt lat="44.7494417" lon="9.06623"><ele>608.0</ele><time>2026-04-11T13:55:03.038Z</time></trkpt><trkpt lat="44.74949" lon="9.0660767"><ele>607.5</ele><time>2026-04-11T13:55:04.038Z</time></trkpt><trkpt lat="44.7495183" lon="9.0659317"><ele>607.0</ele><time>2026-04-11T13:55:05.039Z</time></trkpt><trkpt lat="44.7495433" lon="9.0657783"><ele>606.5</ele><time>2026-04-11T13:55:06.038Z</time></trkpt><trkpt lat="44.749565" lon="9.0656183"><ele>606.0</ele><time>2026-04-11T13:55:07.039Z</time></trkpt><trkpt lat="44.7495783" lon="9.065455"><ele>606.0</ele><time>2026-04-11T13:55:08.039Z</time></trkpt><trkpt lat="44.7496" lon="9.0652917"><ele>606.0</ele><time>2026-04-11T13:55:09.039Z</time></trkpt><trkpt lat="44.749615" lon="9.0651333"><ele>606.0</ele><time>2026-04-11T13:55:10.039Z</time></trkpt><trkpt lat="44.749635" lon="9.0649767"><ele>606.0</ele><time>2026-04-11T13:55:11.039Z</time></trkpt><trkpt lat="44.7496583" lon="9.0648333"><ele>606.0</ele><time>2026-04-11T13:55:12.038Z</time></trkpt><trkpt lat="44.7496983" lon="9.064695"><ele>606.4</ele><time>2026-04-11T13:55:13.039Z</time></trkpt><trkpt lat="44.749745" lon="9.0645567"><ele>606.8</ele><time>2026-04-11T13:55:14.039Z</time></trkpt><trkpt lat="44.7497917" lon="9.06442"><ele>607.1999999999999</ele><time>2026-04-11T13:55:15.039Z</time></trkpt><trkpt lat="44.74984" lon="9.0642833"><ele>607.6</ele><time>2026-04-11T13:55:16.039Z</time></trkpt><trkpt lat="44.7498917" lon="9.0641483"><ele>608.0</ele><time>2026-04-11T13:55:17.039Z</time></trkpt><trkpt lat="44.7499417" lon="9.0640033"><ele>606.0</ele><time>2026-04-11T13:55:18.039Z</time></trkpt><trkpt lat="44.7499983" lon="9.063865"><ele>604.0</ele><time>2026-04-11T13:55:19.039Z</time></trkpt><trkpt lat="44.7500567" lon="9.0637283"><ele>602.0</ele><time>2026-04-11T13:55:20.039Z</time></trkpt><trkpt lat="44.7501067" lon="9.0636217"><ele>600.0</ele><time>2026-04-11T13:55:21.039Z</time></trkpt><trkpt lat="44.750155" lon="9.063535"><ele>598.0</ele><time>2026-04-11T13:55:22.039Z</time></trkpt><trkpt lat="44.7502017" lon="9.0634667"><ele>598.1666666666667</ele><time>2026-04-11T13:55:23.039Z</time></trkpt><trkpt lat="44.7502467" lon="9.0634"><ele>598.3333333333334</ele><time>2026-04-11T13:55:24.039Z</time></trkpt><trkpt lat="44.7502967" lon="9.0633283"><ele>598.5</ele><time>2026-04-11T13:55:25.039Z</time></trkpt><trkpt lat="44.75036" lon="9.0632517"><ele>598.6666666666666</ele><time>2026-04-11T13:55:26.039Z</time></trkpt><trkpt lat="44.7504133" lon="9.06315"><ele>598.8333333333333</ele><time>2026-04-11T13:55:27.038Z</time></trkpt><trkpt lat="44.7504567" lon="9.0630367"><ele>599.0</ele><time>2026-04-11T13:55:28.039Z</time></trkpt><trkpt lat="44.7505033" lon="9.0629183"><ele>598.4</ele><time>2026-04-11T13:55:29.039Z</time></trkpt><trkpt lat="44.750545" lon="9.062805"><ele>597.8</ele><time>2026-04-11T13:55:30.039Z</time></trkpt><trkpt lat="44.750605" lon="9.0626967"><ele>597.2</ele><time>2026-04-11T13:55:31.038Z</time></trkpt><trkpt lat="44.7506783" lon="9.0626167"><ele>596.6</ele><time>2026-04-11T13:55:32.039Z</time></trkpt><trkpt lat="44.7507617" lon="9.0625517"><ele>596.0</ele><time>2026-04-11T13:55:33.039Z</time></trkpt><trkpt lat="44.7508417" lon="9.0624817"><ele>595.5</ele><time>2026-04-11T13:55:34.039Z</time></trkpt><trkpt lat="44.7509217" lon="9.0623867"><ele>595.0</ele><time>2026-04-11T13:55:35.039Z</time></trkpt><trkpt lat="44.751" lon="9.0622617"><ele>594.5</ele><time>2026-04-11T13:55:36.039Z</time></trkpt><trkpt lat="44.7510833" lon="9.062135"><ele>594.0</ele><time>2026-04-11T13:55:37.039Z</time></trkpt><trkpt lat="44.7511633" lon="9.0620017"><ele>592.0</ele><time>2026-04-11T13:55:38.039Z</time></trkpt><trkpt lat="44.751245" lon="9.0618733"><ele>590.0</ele><time>2026-04-11T13:55:39.039Z</time></trkpt><trkpt lat="44.7513233" lon="9.0617433"><ele>588.0</ele><time>2026-04-11T13:55:40.039Z</time></trkpt><trkpt lat="44.751395" lon="9.0616083"><ele>586.0</ele><time>2026-04-11T13:55:41.038Z</time></trkpt><trkpt lat="44.7514483" lon="9.0614633"><ele>586.0</ele><time>2026-04-11T13:55:42.039Z</time></trkpt><trkpt lat="44.7515017" lon="9.0613333"><ele>586.0</ele><time>2026-04-11T13:55:43.039Z</time></trkpt><trkpt lat="44.751565" lon="9.0612067"><ele>586.0</ele><time>2026-04-11T13:55:44.039Z</time></trkpt><trkpt lat="44.7516417" lon="9.06111"><ele>586.0</ele><time>2026-04-11T13:55:45.039Z</time></trkpt><trkpt lat="44.7517333" lon="9.0610267"><ele>586.0</ele><time>2026-04-11T13:55:46.038Z</time></trkpt><trkpt lat="44.7518367" lon="9.0609717"><ele>585.2</ele><time>2026-04-11T13:55:47.039Z</time></trkpt><trkpt lat="44.75194" lon="9.0609317"><ele>584.4000000000001</ele><time>2026-04-11T13:55:48.038Z</time></trkpt><trkpt lat="44.7520333" lon="9.0608867"><ele>583.6</ele><time>2026-04-11T13:55:49.038Z</time></trkpt><trkpt lat="44.7521217" lon="9.0608267"><ele>582.8000000000001</ele><time>2026-04-11T13:55:50.038Z</time></trkpt><trkpt lat="44.7522033" lon="9.0607617"><ele>582.0</ele><time>2026-04-11T13:55:51.038Z</time></trkpt><trkpt lat="44.75227" lon="9.06069"><ele>581.2</ele><time>2026-04-11T13:55:52.037Z</time></trkpt><trkpt lat="44.75233" lon="9.0606167"><ele>580.4000000000001</ele><time>2026-04-11T13:55:53.038Z</time></trkpt><trkpt lat="44.7524" lon="9.0605383"><ele>579.5999999999999</ele><time>2026-04-11T13:55:54.038Z</time></trkpt><trkpt lat="44.75248" lon="9.0604767"><ele>578.8</ele><time>2026-04-11T13:55:55.038Z</time></trkpt><trkpt lat="44.752565" lon="9.060445"><ele>578.0</ele><time>2026-04-11T13:55:56.038Z</time></trkpt><trkpt lat="44.75267" lon="9.060435"><ele>578.1999999999999</ele><time>2026-04-11T13:55:57.038Z</time></trkpt><trkpt lat="44.7527717" lon="9.0604317"><ele>578.4</ele><time>2026-04-11T13:55:58.038Z</time></trkpt><trkpt lat="44.75288" lon="9.0604217"><ele>578.5999999999999</ele><time>2026-04-11T13:55:59.038Z</time></trkpt><trkpt lat="44.752985" lon="9.0603933"><ele>578.8</ele><time>2026-04-11T13:56:00.037Z</time></trkpt><trkpt lat="44.7531" lon="9.0603583"><ele>579.0</ele><time>2026-04-11T13:56:01.038Z</time></trkpt><trkpt lat="44.753215" lon="9.0603267"><ele>579.0</ele><time>2026-04-11T13:56:02.038Z</time></trkpt><trkpt lat="44.7533333" lon="9.06029"><ele>579.0</ele><time>2026-04-11T13:56:03.037Z</time></trkpt><trkpt lat="44.7534583" lon="9.0602467"><ele>579.0</ele><time>2026-04-11T13:56:04.038Z</time></trkpt><trkpt lat="44.75357" lon="9.0601917"><ele>579.0</ele><time>2026-04-11T13:56:05.038Z</time></trkpt><trkpt lat="44.7536783" lon="9.060135"><ele>579.6</ele><time>2026-04-11T13:56:06.038Z</time></trkpt><trkpt lat="44.7537817" lon="9.0600717"><ele>580.2</ele><time>2026-04-11T13:56:07.038Z</time></trkpt><trkpt lat="44.7538883" lon="9.0600033"><ele>580.8000000000001</ele><time>2026-04-11T13:56:08.038Z</time></trkpt><trkpt lat="44.753985" lon="9.0599333"><ele>581.4</ele><time>2026-04-11T13:56:09.038Z</time></trkpt><trkpt lat="44.754075" lon="9.05987"><ele>582.0</ele><time>2026-04-11T13:56:10.038Z</time></trkpt><trkpt lat="44.75416" lon="9.0598083"><ele>582.0</ele><time>2026-04-11T13:56:11.038Z</time></trkpt><trkpt lat="44.7542233" lon="9.0597517"><ele>582.0</ele><time>2026-04-11T13:56:12.038Z</time></trkpt><trkpt lat="44.7543167" lon="9.0596617"><ele>582.0</ele><time>2026-04-11T13:56:14.038Z</time></trkpt><trkpt lat="44.75438" lon="9.059535"><ele>582.0</ele><time>2026-04-11T13:56:16.038Z</time></trkpt><trkpt lat="44.7544033" lon="9.0594467"><ele>582.0</ele><time>2026-04-11T13:56:17.038Z</time></trkpt><trkpt lat="44.7544267" lon="9.0593417"><ele>582.0</ele><time>2026-04-11T13:56:18.038Z</time></trkpt><trkpt lat="44.7544533" lon="9.0592267"><ele>582.0</ele><time>2026-04-11T13:56:19.038Z</time></trkpt><trkpt lat="44.7544817" lon="9.0591017"><ele>582.0</ele><time>2026-04-11T13:56:20.038Z</time></trkpt><trkpt lat="44.7545133" lon="9.0589767"><ele>582.0</ele><time>2026-04-11T13:56:21.038Z</time></trkpt><trkpt lat="44.7545517" lon="9.058845"><ele>582.0</ele><time>2026-04-11T13:56:22.038Z</time></trkpt><trkpt lat="44.7546017" lon="9.058715"><ele>582.0</ele><time>2026-04-11T13:56:23.038Z</time></trkpt><trkpt lat="44.75467" lon="9.05859"><ele>582.0</ele><time>2026-04-11T13:56:24.038Z</time></trkpt><trkpt lat="44.7547417" lon="9.0584633"><ele>582.0</ele><time>2026-04-11T13:56:25.037Z</time></trkpt><trkpt lat="44.7548217" lon="9.058335"><ele>582.0</ele><time>2026-04-11T13:56:26.038Z</time></trkpt><trkpt lat="44.754915" lon="9.058205"><ele>582.0</ele><time>2026-04-11T13:56:27.038Z</time></trkpt><trkpt lat="44.7550033" lon="9.058075"><ele>581.75</ele><time>2026-04-11T13:56:28.038Z</time></trkpt><trkpt lat="44.7550933" lon="9.0579383"><ele>581.5</ele><time>2026-04-11T13:56:29.038Z</time></trkpt><trkpt lat="44.7551783" lon="9.0577933"><ele>581.25</ele><time>2026-04-11T13:56:30.038Z</time></trkpt><trkpt lat="44.755255" lon="9.05765"><ele>581.0</ele><time>2026-04-11T13:56:31.038Z</time></trkpt><trkpt lat="44.7553283" lon="9.0575117"><ele>581.4</ele><time>2026-04-11T13:56:32.037Z</time></trkpt><trkpt lat="44.755395" lon="9.057385"><ele>581.8</ele><time>2026-04-11T13:56:33.038Z</time></trkpt><trkpt lat="44.7554583" lon="9.05728"><ele>582.1999999999999</ele><time>2026-04-11T13:56:34.038Z</time></trkpt><trkpt lat="44.7555233" lon="9.057195"><ele>582.6</ele><time>2026-04-11T13:56:35.038Z</time></trkpt><trkpt lat="44.75559" lon="9.057125"><ele>583.0</ele><time>2026-04-11T13:56:36.038Z</time></trkpt><trkpt lat="44.7556483" lon="9.0570717"><ele>583.0</ele><time>2026-04-11T13:56:37.038Z</time></trkpt><trkpt lat="44.755705" lon="9.0570233"><ele>583.0</ele><time>2026-04-11T13:56:38.038Z</time></trkpt><trkpt lat="44.755765" lon="9.056975"><ele>583.0</ele><time>2026-04-11T13:56:39.038Z</time></trkpt><trkpt lat="44.75583" lon="9.0569283"><ele>583.0</ele><time>2026-04-11T13:56:40.038Z</time></trkpt><trkpt lat="44.7558983" lon="9.0568817"><ele>583.0</ele><time>2026-04-11T13:56:41.038Z</time></trkpt><trkpt lat="44.7559683" lon="9.056835"><ele>583.0</ele><time>2026-04-11T13:56:42.037Z</time></trkpt><trkpt lat="44.7560533" lon="9.056785"><ele>583.6</ele><time>2026-04-11T13:56:43.037Z</time></trkpt><trkpt lat="44.7561383" lon="9.056735"><ele>584.1999999999999</ele><time>2026-04-11T13:56:44.038Z</time></trkpt><trkpt lat="44.7562267" lon="9.056685"><ele>584.8</ele><time>2026-04-11T13:56:45.038Z</time></trkpt><trkpt lat="44.7563183" lon="9.056635"><ele>585.4</ele><time>2026-04-11T13:56:46.038Z</time></trkpt><trkpt lat="44.756405" lon="9.0565833"><ele>586.0</ele><time>2026-04-11T13:56:47.038Z</time></trkpt><trkpt lat="44.756495" lon="9.056515"><ele>586.0</ele><time>2026-04-11T13:56:48.038Z</time></trkpt><trkpt lat="44.7565783" lon="9.0564367"><ele>586.0</ele><time>2026-04-11T13:56:49.038Z</time></trkpt><trkpt lat="44.756655" lon="9.05634"><ele>586.0</ele><time>2026-04-11T13:56:50.038Z</time></trkpt><trkpt lat="44.756715" lon="9.0562383"><ele>586.0</ele><time>2026-04-11T13:56:51.038Z</time></trkpt><trkpt lat="44.7567767" lon="9.0561283"><ele>586.0</ele><time>2026-04-11T13:56:52.038Z</time></trkpt><trkpt lat="44.7568433" lon="9.0560217"><ele>586.6</ele><time>2026-04-11T13:56:53.038Z</time></trkpt><trkpt lat="44.7569017" lon="9.0559117"><ele>587.2</ele><time>2026-04-11T13:56:54.038Z</time></trkpt><trkpt lat="44.7569667" lon="9.05581"><ele>587.8</ele><time>2026-04-11T13:56:55.038Z</time></trkpt><trkpt lat="44.7570283" lon="9.0557067"><ele>588.4</ele><time>2026-04-11T13:56:56.038Z</time></trkpt><trkpt lat="44.757095" lon="9.055605"><ele>589.0</ele><time>2026-04-11T13:56:57.038Z</time></trkpt><trkpt lat="44.757165" lon="9.0554933"><ele>589.0</ele><time>2026-04-11T13:56:58.037Z</time></trkpt><trkpt lat="44.7572283" lon="9.0553667"><ele>589.0</ele><time>2026-04-11T13:56:59.038Z</time></trkpt><trkpt lat="44.7573" lon="9.05525"><ele>589.0</ele><time>2026-04-11T13:57:00.038Z</time></trkpt><trkpt lat="44.7573683" lon="9.0551483"><ele>589.0</ele><time>2026-04-11T13:57:01.038Z</time></trkpt><trkpt lat="44.7574517" lon="9.05506"><ele>589.0</ele><time>2026-04-11T13:57:02.038Z</time></trkpt><trkpt lat="44.7575483" lon="9.054985"><ele>589.0</ele><time>2026-04-11T13:57:03.038Z</time></trkpt><trkpt lat="44.7576367" lon="9.05492"><ele>589.0</ele><time>2026-04-11T13:57:04.038Z</time></trkpt><trkpt lat="44.7577117" lon="9.05484"><ele>589.0</ele><time>2026-04-11T13:57:05.038Z</time></trkpt><trkpt lat="44.75778" lon="9.05475"><ele>589.0</ele><time>2026-04-11T13:57:06.037Z</time></trkpt><trkpt lat="44.757845" lon="9.0546617"><ele>589.0</ele><time>2026-04-11T13:57:07.037Z</time></trkpt><trkpt lat="44.7579183" lon="9.0545733"><ele>589.0</ele><time>2026-04-11T13:57:08.038Z</time></trkpt><trkpt lat="44.7579933" lon="9.0544817"><ele>589.0</ele><time>2026-04-11T13:57:09.038Z</time></trkpt><trkpt lat="44.7580667" lon="9.0544033"><ele>589.0</ele><time>2026-04-11T13:57:10.038Z</time></trkpt><trkpt lat="44.758155" lon="9.0543383"><ele>589.0</ele><time>2026-04-11T13:57:11.038Z</time></trkpt><trkpt lat="44.7582417" lon="9.0542767"><ele>589.0</ele><time>2026-04-11T13:57:12.038Z</time></trkpt><trkpt lat="44.7583433" lon="9.0542283"><ele>589.0</ele><time>2026-04-11T13:57:13.038Z</time></trkpt><trkpt lat="44.7584467" lon="9.0541783"><ele>589.0</ele><time>2026-04-11T13:57:14.038Z</time></trkpt><trkpt lat="44.7585567" lon="9.0541167"><ele>589.0</ele><time>2026-04-11T13:57:15.038Z</time></trkpt><trkpt lat="44.7586633" lon="9.0540667"><ele>589.0</ele><time>2026-04-11T13:57:16.038Z</time></trkpt><trkpt lat="44.7587717" lon="9.05402"><ele>588.25</ele><time>2026-04-11T13:57:17.038Z</time></trkpt><trkpt lat="44.7588783" lon="9.05398"><ele>587.5</ele><time>2026-04-11T13:57:18.038Z</time></trkpt><trkpt lat="44.7589917" lon="9.05395"><ele>586.75</ele><time>2026-04-11T13:57:19.038Z</time></trkpt><trkpt lat="44.7590983" lon="9.0539067"><ele>586.0</ele><time>2026-04-11T13:57:20.038Z</time></trkpt><trkpt lat="44.7592033" lon="9.0538417"><ele>586.0</ele><time>2026-04-11T13:57:21.038Z</time></trkpt><trkpt lat="44.7592933" lon="9.0537817"><ele>586.0</ele><time>2026-04-11T13:57:22.038Z</time></trkpt><trkpt lat="44.7593733" lon="9.053705"><ele>586.0</ele><time>2026-04-11T13:57:23.038Z</time></trkpt><trkpt lat="44.7594467" lon="9.0536183"><ele>586.0</ele><time>2026-04-11T13:57:24.038Z</time></trkpt><trkpt lat="44.759525" lon="9.05352"><ele>586.0</ele><time>2026-04-11T13:57:25.038Z</time></trkpt><trkpt lat="44.7595917" lon="9.05341"><ele>587.6</ele><time>2026-04-11T13:57:26.038Z</time></trkpt><trkpt lat="44.7596617" lon="9.0533"><ele>589.2</ele><time>2026-04-11T13:57:27.038Z</time></trkpt><trkpt lat="44.75973" lon="9.0531833"><ele>590.8</ele><time>2026-04-11T13:57:28.038Z</time></trkpt><trkpt lat="44.7597983" lon="9.053075"><ele>592.4</ele><time>2026-04-11T13:57:29.038Z</time></trkpt><trkpt lat="44.7598667" lon="9.0529567"><ele>594.0</ele><time>2026-04-11T13:57:30.037Z</time></trkpt><trkpt lat="44.7599433" lon="9.0528517"><ele>594.0</ele><time>2026-04-11T13:57:31.038Z</time></trkpt><trkpt lat="44.7600167" lon="9.0527567"><ele>594.0</ele><time>2026-04-11T13:57:32.037Z</time></trkpt><trkpt lat="44.7600983" lon="9.0526817"><ele>594.0</ele><time>2026-04-11T13:57:33.037Z</time></trkpt><trkpt lat="44.7601733" lon="9.05263"><ele>594.0</ele><time>2026-04-11T13:57:34.038Z</time></trkpt><trkpt lat="44.760235" lon="9.0525983"><ele>594.0</ele><time>2026-04-11T13:57:35.037Z</time></trkpt><trkpt lat="44.76032" lon="9.0525267"><ele>594.0</ele><time>2026-04-11T13:57:37.038Z</time></trkpt><trkpt lat="44.7603967" lon="9.05241"><ele>596.1666666666666</ele><time>2026-04-11T13:57:39.038Z</time></trkpt><trkpt lat="44.7604483" lon="9.0523333"><ele>598.3333333333334</ele><time>2026-04-11T13:57:40.038Z</time></trkpt><trkpt lat="44.7605033" lon="9.0522417"><ele>600.5</ele><time>2026-04-11T13:57:41.037Z</time></trkpt><trkpt lat="44.7605683" lon="9.052135"><ele>602.6666666666667</ele><time>2026-04-11T13:57:42.037Z</time></trkpt><trkpt lat="44.760635" lon="9.0520267"><ele>604.8333333333334</ele><time>2026-04-11T13:57:43.037Z</time></trkpt><trkpt lat="44.7606817" lon="9.05193"><ele>607.0</ele><time>2026-04-11T13:57:44.038Z</time></trkpt><trkpt lat="44.7607033" lon="9.051825"><ele>607.0</ele><time>2026-04-11T13:57:45.038Z</time></trkpt><trkpt lat="44.7607083" lon="9.0517117"><ele>607.0</ele><time>2026-04-11T13:57:46.038Z</time></trkpt><trkpt lat="44.7607033" lon="9.0515917"><ele>607.0</ele><time>2026-04-11T13:57:47.038Z</time></trkpt><trkpt lat="44.76069" lon="9.0514683"><ele>607.0</ele><time>2026-04-11T13:57:48.038Z</time></trkpt><trkpt lat="44.7606633" lon="9.051355"><ele>607.0</ele><time>2026-04-11T13:57:49.038Z</time></trkpt><trkpt lat="44.760615" lon="9.0512433"><ele>607.0</ele><time>2026-04-11T13:57:50.037Z</time></trkpt><trkpt lat="44.7605517" lon="9.0511367"><ele>606.6</ele><time>2026-04-11T13:57:51.038Z</time></trkpt><trkpt lat="44.76048" lon="9.051025"><ele>606.2</ele><time>2026-04-11T13:57:52.038Z</time></trkpt><trkpt lat="44.7604167" lon="9.050915"><ele>605.8</ele><time>2026-04-11T13:57:53.038Z</time></trkpt><trkpt lat="44.7603583" lon="9.0508083"><ele>605.4</ele><time>2026-04-11T13:57:54.038Z</time></trkpt><trkpt lat="44.76031" lon="9.050715"><ele>605.0</ele><time>2026-04-11T13:57:55.038Z</time></trkpt><trkpt lat="44.76026" lon="9.0506433"><ele>605.6666666666666</ele><time>2026-04-11T13:57:56.038Z</time></trkpt><trkpt lat="44.7602" lon="9.0505867"><ele>606.3333333333333</ele><time>2026-04-11T13:57:57.038Z</time></trkpt><trkpt lat="44.7601367" lon="9.0505283"><ele>607.0</ele><time>2026-04-11T13:57:58.038Z</time></trkpt><trkpt lat="44.7600617" lon="9.0504467"><ele>607.6666666666666</ele><time>2026-04-11T13:57:59.038Z</time></trkpt><trkpt lat="44.7599933" lon="9.0503517"><ele>608.3333333333334</ele><time>2026-04-11T13:58:00.038Z</time></trkpt><trkpt lat="44.75993" lon="9.0502483"><ele>609.0</ele><time>2026-04-11T13:58:01.038Z</time></trkpt><trkpt lat="44.75987" lon="9.050145"><ele>608.3333333333334</ele><time>2026-04-11T13:58:02.038Z</time></trkpt><trkpt lat="44.759805" lon="9.050045"><ele>607.6666666666666</ele><time>2026-04-11T13:58:03.037Z</time></trkpt><trkpt lat="44.7597433" lon="9.04997"><ele>607.0</ele><time>2026-04-11T13:58:04.038Z</time></trkpt><trkpt lat="44.7596833" lon="9.049895"><ele>606.3333333333333</ele><time>2026-04-11T13:58:05.038Z</time></trkpt><trkpt lat="44.7596133" lon="9.049815"><ele>605.6666666666666</ele><time>2026-04-11T13:58:06.038Z</time></trkpt><trkpt lat="44.75955" lon="9.049745"><ele>605.0</ele><time>2026-04-11T13:58:07.038Z</time></trkpt><trkpt lat="44.7594867" lon="9.0496867"><ele>605.0</ele><time>2026-04-11T13:58:08.038Z</time></trkpt><trkpt lat="44.7594267" lon="9.049635"><ele>605.0</ele><time>2026-04-11T13:58:09.037Z</time></trkpt><trkpt lat="44.75936" lon="9.0495783"><ele>605.0</ele><time>2026-04-11T13:58:10.038Z</time></trkpt><trkpt lat="44.75929" lon="9.0495267"><ele>605.0</ele><time>2026-04-11T13:58:11.038Z</time></trkpt><trkpt lat="44.7592317" lon="9.0494717"><ele>605.0</ele><time>2026-04-11T13:58:12.038Z</time></trkpt><trkpt lat="44.7591717" lon="9.0494133"><ele>605.0</ele><time>2026-04-11T13:58:13.038Z</time></trkpt><trkpt lat="44.7591017" lon="9.0493683"><ele>605.0</ele><time>2026-04-11T13:58:14.038Z</time></trkpt><trkpt lat="44.7590367" lon="9.0493333"><ele>602.3333333333333</ele><time>2026-04-11T13:58:15.038Z</time></trkpt><trkpt lat="44.758975" lon="9.0492983"><ele>599.6666666666666</ele><time>2026-04-11T13:58:16.038Z</time></trkpt><trkpt lat="44.7588967" lon="9.049245"><ele>597.0</ele><time>2026-04-11T13:58:18.038Z</time></trkpt><trkpt lat="44.7588433" lon="9.0491333"><ele>594.3333333333334</ele><time>2026-04-11T13:58:20.038Z</time></trkpt><trkpt lat="44.758815" lon="9.049045"><ele>591.6666666666667</ele><time>2026-04-11T13:58:21.038Z</time></trkpt><trkpt lat="44.7587867" lon="9.048935"><ele>589.0</ele><time>2026-04-11T13:58:22.038Z</time></trkpt><trkpt lat="44.75876" lon="9.0488117"><ele>589.0</ele><time>2026-04-11T13:58:23.038Z</time></trkpt><trkpt lat="44.7587333" lon="9.04868"><ele>589.0</ele><time>2026-04-11T13:58:24.038Z</time></trkpt><trkpt lat="44.7587033" lon="9.0485367"><ele>589.0</ele><time>2026-04-11T13:58:25.037Z</time></trkpt><trkpt lat="44.7586667" lon="9.0483717"><ele>589.0</ele><time>2026-04-11T13:58:26.037Z</time></trkpt><trkpt lat="44.7586267" lon="9.04821"><ele>589.0</ele><time>2026-04-11T13:58:27.038Z</time></trkpt><trkpt lat="44.758585" lon="9.0480367"><ele>589.0</ele><time>2026-04-11T13:58:28.038Z</time></trkpt><trkpt lat="44.7585483" lon="9.0478717"><ele>589.0</ele><time>2026-04-11T13:58:29.037Z</time></trkpt><trkpt lat="44.7585167" lon="9.0477167"><ele>589.0</ele><time>2026-04-11T13:58:30.037Z</time></trkpt><trkpt lat="44.75848" lon="9.047555"><ele>589.0</ele><time>2026-04-11T13:58:31.038Z</time></trkpt><trkpt lat="44.75846" lon="9.0474267"><ele>587.3333333333334</ele><time>2026-04-11T13:58:32.038Z</time></trkpt><trkpt lat="44.7584333" lon="9.0473117"><ele>585.6666666666667</ele><time>2026-04-11T13:58:33.037Z</time></trkpt><trkpt lat="44.7584033" lon="9.0472117"><ele>584.0</ele><time>2026-04-11T13:58:34.037Z</time></trkpt><trkpt lat="44.7583633" lon="9.047125"><ele>582.3333333333334</ele><time>2026-04-11T13:58:35.038Z</time></trkpt><trkpt lat="44.75829" lon="9.0469917"><ele>580.6666666666666</ele><time>2026-04-11T13:58:37.038Z</time></trkpt><trkpt lat="44.75824" lon="9.0469333"><ele>579.0</ele><time>2026-04-11T13:58:38.038Z</time></trkpt><trkpt lat="44.758155" lon="9.046835"><ele>579.0</ele><time>2026-04-11T13:58:40.038Z</time></trkpt><trkpt lat="44.7580767" lon="9.0466983"><ele>579.0</ele><time>2026-04-11T13:58:42.038Z</time></trkpt><trkpt lat="44.7580067" lon="9.0465783"><ele>579.0</ele><time>2026-04-11T13:58:44.038Z</time></trkpt><trkpt lat="44.75794" lon="9.0464933"><ele>579.0</ele><time>2026-04-11T13:58:45.038Z</time></trkpt><trkpt lat="44.7578667" lon="9.0464083"><ele>579.0</ele><time>2026-04-11T13:58:46.037Z</time></trkpt><trkpt lat="44.7577917" lon="9.046335"><ele>579.0</ele><time>2026-04-11T13:58:47.038Z</time></trkpt><trkpt lat="44.757715" lon="9.0462683"><ele>579.0</ele><time>2026-04-11T13:58:48.038Z</time></trkpt><trkpt lat="44.757635" lon="9.046195"><ele>579.0</ele><time>2026-04-11T13:58:49.037Z</time></trkpt><trkpt lat="44.7575517" lon="9.0461167"><ele>579.0</ele><time>2026-04-11T13:58:50.038Z</time></trkpt><trkpt lat="44.7574717" lon="9.0460433"><ele>579.0</ele><time>2026-04-11T13:58:51.037Z</time></trkpt><trkpt lat="44.7574033" lon="9.0459683"><ele>579.0</ele><time>2026-04-11T13:58:52.038Z</time></trkpt><trkpt lat="44.7573333" lon="9.045895"><ele>579.0</ele><time>2026-04-11T13:58:53.038Z</time></trkpt><trkpt lat="44.7572817" lon="9.045825"><ele>579.0</ele><time>2026-04-11T13:58:54.038Z</time></trkpt><trkpt lat="44.7572333" lon="9.0457483"><ele>579.0</ele><time>2026-04-11T13:58:55.037Z</time></trkpt><trkpt lat="44.7571767" lon="9.04564"><ele>579.0</ele><time>2026-04-11T13:58:57.038Z</time></trkpt><trkpt lat="44.757155" lon="9.0455233"><ele>579.0</ele><time>2026-04-11T13:58:59.038Z</time></trkpt><trkpt lat="44.7571217" lon="9.0453933"><ele>577.8</ele><time>2026-04-11T13:59:01.038Z</time></trkpt><trkpt lat="44.7570317" lon="9.0452583"><ele>576.5999999999999</ele><time>2026-04-11T13:59:03.038Z</time></trkpt><trkpt lat="44.7569683" lon="9.045185"><ele>575.4</ele><time>2026-04-11T13:59:04.037Z</time></trkpt><trkpt lat="44.7569" lon="9.0450883"><ele>574.1999999999999</ele><time>2026-04-11T13:59:05.038Z</time></trkpt><trkpt lat="44.75685" lon="9.0449967"><ele>573.0</ele><time>2026-04-11T13:59:06.038Z</time></trkpt><trkpt lat="44.7568067" lon="9.0448867"><ele>573.0</ele><time>2026-04-11T13:59:07.038Z</time></trkpt><trkpt lat="44.756785" lon="9.0447567"><ele>573.0</ele><time>2026-04-11T13:59:08.038Z</time></trkpt><trkpt lat="44.7567767" lon="9.04463"><ele>573.0</ele><time>2026-04-11T13:59:09.038Z</time></trkpt><trkpt lat="44.75679" lon="9.0444967"><ele>573.0</ele><time>2026-04-11T13:59:10.038Z</time></trkpt><trkpt lat="44.7568117" lon="9.0443517"><ele>573.0</ele><time>2026-04-11T13:59:11.038Z</time></trkpt><trkpt lat="44.7568433" lon="9.0441967"><ele>579.0</ele><time>2026-04-11T13:59:12.038Z</time></trkpt><trkpt lat="44.7568817" lon="9.0440233"><ele>585.0</ele><time>2026-04-11T13:59:13.038Z</time></trkpt><trkpt lat="44.7569317" lon="9.0438433"><ele>591.0</ele><time>2026-04-11T13:59:14.038Z</time></trkpt><trkpt lat="44.75698" lon="9.04366"><ele>597.0</ele><time>2026-04-11T13:59:15.038Z</time></trkpt><trkpt lat="44.7570267" lon="9.04349"><ele>597.0</ele><time>2026-04-11T13:59:16.038Z</time></trkpt><trkpt lat="44.7570733" lon="9.0433167"><ele>597.0</ele><time>2026-04-11T13:59:17.038Z</time></trkpt><trkpt lat="44.7571217" lon="9.0431383"><ele>597.0</ele><time>2026-04-11T13:59:18.038Z</time></trkpt><trkpt lat="44.7571567" lon="9.0429667"><ele>597.0</ele><time>2026-04-11T13:59:19.038Z</time></trkpt><trkpt lat="44.7572" lon="9.0428133"><ele>596.1666666666666</ele><time>2026-04-11T13:59:20.038Z</time></trkpt><trkpt lat="44.757235" lon="9.0426933"><ele>595.3333333333334</ele><time>2026-04-11T13:59:21.038Z</time></trkpt><trkpt lat="44.7572583" lon="9.0426083"><ele>594.5</ele><time>2026-04-11T13:59:22.038Z</time></trkpt><trkpt lat="44.7572833" lon="9.0424967"><ele>593.6666666666667</ele><time>2026-04-11T13:59:24.038Z</time></trkpt><trkpt lat="44.7572983" lon="9.042365"><ele>592.8333333333334</ele><time>2026-04-11T13:59:26.038Z</time></trkpt><trkpt lat="44.7573417" lon="9.042225"><ele>592.0</ele><time>2026-04-11T13:59:28.038Z</time></trkpt><trkpt lat="44.7573933" lon="9.042165"><ele>592.0</ele><time>2026-04-11T13:59:29.038Z</time></trkpt><trkpt lat="44.7574517" lon="9.04212"><ele>592.0</ele><time>2026-04-11T13:59:30.038Z</time></trkpt><trkpt lat="44.7575167" lon="9.042095"><ele>592.0</ele><time>2026-04-11T13:59:31.038Z</time></trkpt><trkpt lat="44.7575933" lon="9.0420867"><ele>592.0</ele><time>2026-04-11T13:59:32.038Z</time></trkpt><trkpt lat="44.7576667" lon="9.0420917"><ele>592.0</ele><time>2026-04-11T13:59:33.038Z</time></trkpt><trkpt lat="44.7577383" lon="9.0420967"><ele>592.0</ele><time>2026-04-11T13:59:35.038Z</time></trkpt><trkpt lat="44.7577117" lon="9.042005"><ele>592.0</ele><time>2026-04-11T13:59:39.038Z</time></trkpt><trkpt lat="44.7576083" lon="9.04199"><ele>592.0</ele><time>2026-04-11T13:59:41.038Z</time></trkpt><trkpt lat="44.75754" lon="9.0419967"><ele>592.0</ele><time>2026-04-11T13:59:42.038Z</time></trkpt><trkpt lat="44.7574683" lon="9.041995"><ele>592.0</ele><time>2026-04-11T13:59:43.038Z</time></trkpt><trkpt lat="44.75739" lon="9.04199"><ele>592.0</ele><time>2026-04-11T13:59:44.038Z</time></trkpt><trkpt lat="44.7573233" lon="9.0419583"><ele>592.0</ele><time>2026-04-11T13:59:45.037Z</time></trkpt><trkpt lat="44.75727" lon="9.0418783"><ele>592.0</ele><time>2026-04-11T13:59:46.038Z</time></trkpt><trkpt lat="44.7572333" lon="9.0417767"><ele>592.0</ele><time>2026-04-11T13:59:47.038Z</time></trkpt><trkpt lat="44.7571917" lon="9.0416733"><ele>592.0</ele><time>2026-04-11T13:59:48.037Z</time></trkpt><trkpt lat="44.7571533" lon="9.0415683"><ele>592.0</ele><time>2026-04-11T13:59:49.038Z</time></trkpt><trkpt lat="44.7571" lon="9.0414617"><ele>592.0</ele><time>2026-04-11T13:59:50.038Z</time></trkpt><trkpt lat="44.7570467" lon="9.0413483"><ele>592.0</ele><time>2026-04-11T13:59:51.038Z</time></trkpt><trkpt lat="44.75699" lon="9.0412333"><ele>592.0</ele><time>2026-04-11T13:59:52.038Z</time></trkpt><trkpt lat="44.7569367" lon="9.0411133"><ele>592.0</ele><time>2026-04-11T13:59:53.038Z</time></trkpt><trkpt lat="44.7568917" lon="9.0409867"><ele>592.0</ele><time>2026-04-11T13:59:54.038Z</time></trkpt><trkpt lat="44.7568383" lon="9.0408467"><ele>592.0</ele><time>2026-04-11T13:59:55.038Z</time></trkpt><trkpt lat="44.756795" lon="9.0407017"><ele>592.0</ele><time>2026-04-11T13:59:56.038Z</time></trkpt><trkpt lat="44.7567317" lon="9.040575"><ele>592.0</ele><time>2026-04-11T13:59:57.038Z</time></trkpt><trkpt lat="44.7566617" lon="9.0404483"><ele>592.25</ele><time>2026-04-11T13:59:58.038Z</time></trkpt><trkpt lat="44.756585" lon="9.040315"><ele>592.5</ele><time>2026-04-11T13:59:59.038Z</time></trkpt><trkpt lat="44.7565233" lon="9.0401917"><ele>592.75</ele><time>2026-04-11T14:00:00.038Z</time></trkpt><trkpt lat="44.7564633" lon="9.0400567"><ele>593.0</ele><time>2026-04-11T14:00:01.037Z</time></trkpt><trkpt lat="44.7563883" lon="9.039925"><ele>590.5</ele><time>2026-04-11T14:00:02.037Z</time></trkpt><trkpt lat="44.756315" lon="9.0397817"><ele>588.0</ele><time>2026-04-11T14:00:03.038Z</time></trkpt><trkpt lat="44.7562583" lon="9.0396333"><ele>585.5</ele><time>2026-04-11T14:00:04.038Z</time></trkpt><trkpt lat="44.7561933" lon="9.0394867"><ele>583.0</ele><time>2026-04-11T14:00:05.038Z</time></trkpt><trkpt lat="44.7561267" lon="9.0393467"><ele>583.0</ele><time>2026-04-11T14:00:06.038Z</time></trkpt><trkpt lat="44.75606" lon="9.03923"><ele>583.0</ele><time>2026-04-11T14:00:07.038Z</time></trkpt><trkpt lat="44.7559883" lon="9.0391333"><ele>583.0</ele><time>2026-04-11T14:00:08.038Z</time></trkpt><trkpt lat="44.7559283" lon="9.0390517"><ele>583.0</ele><time>2026-04-11T14:00:09.038Z</time></trkpt><trkpt lat="44.7558767" lon="9.038945"><ele>583.0</ele><time>2026-04-11T14:00:10.038Z</time></trkpt><trkpt lat="44.7558267" lon="9.0388583"><ele>584.6</ele><time>2026-04-11T14:00:11.038Z</time></trkpt><trkpt lat="44.7557783" lon="9.038765"><ele>586.1999999999999</ele><time>2026-04-11T14:00:12.038Z</time></trkpt><trkpt lat="44.7557133" lon="9.03867"><ele>587.8</ele><time>2026-04-11T14:00:13.037Z</time></trkpt><trkpt lat="44.75563" lon="9.0385933"><ele>589.4</ele><time>2026-04-11T14:00:14.037Z</time></trkpt><trkpt lat="44.7555417" lon="9.038545"><ele>591.0</ele><time>2026-04-11T14:00:15.038Z</time></trkpt><trkpt lat="44.75544" lon="9.0385083"><ele>591.0</ele><time>2026-04-11T14:00:16.038Z</time></trkpt><trkpt lat="44.75534" lon="9.0384783"><ele>591.0</ele><time>2026-04-11T14:00:17.037Z</time></trkpt><trkpt lat="44.7552267" lon="9.038445"><ele>591.0</ele><time>2026-04-11T14:00:18.038Z</time></trkpt><trkpt lat="44.7551183" lon="9.0383967"><ele>591.0</ele><time>2026-04-11T14:00:19.038Z</time></trkpt><trkpt lat="44.7550083" lon="9.038325"><ele>587.75</ele><time>2026-04-11T14:00:20.038Z</time></trkpt><trkpt lat="44.754915" lon="9.0382483"><ele>584.5</ele><time>2026-04-11T14:00:21.038Z</time></trkpt><trkpt lat="44.7548133" lon="9.03814"><ele>581.25</ele><time>2026-04-11T14:00:22.038Z</time></trkpt><trkpt lat="44.75472" lon="9.03803"><ele>578.0</ele><time>2026-04-11T14:00:23.038Z</time></trkpt><trkpt lat="44.754645" lon="9.0379067"><ele>578.0</ele><time>2026-04-11T14:00:24.037Z</time></trkpt><trkpt lat="44.75458" lon="9.03778"><ele>578.0</ele><time>2026-04-11T14:00:25.038Z</time></trkpt><trkpt lat="44.7545267" lon="9.0376467"><ele>578.0</ele><time>2026-04-11T14:00:26.038Z</time></trkpt><trkpt lat="44.75447" lon="9.0374933"><ele>578.0</ele><time>2026-04-11T14:00:27.038Z</time></trkpt><trkpt lat="44.7544183" lon="9.03734"><ele>579.0</ele><time>2026-04-11T14:00:28.038Z</time></trkpt><trkpt lat="44.7543667" lon="9.0372017"><ele>580.0</ele><time>2026-04-11T14:00:29.037Z</time></trkpt><trkpt lat="44.7543117" lon="9.0370767"><ele>581.0</ele><time>2026-04-11T14:00:30.038Z</time></trkpt><trkpt lat="44.7542517" lon="9.0369683"><ele>582.0</ele><time>2026-04-11T14:00:31.038Z</time></trkpt><trkpt lat="44.7541767" lon="9.0368617"><ele>583.0</ele><time>2026-04-11T14:00:32.038Z</time></trkpt><trkpt lat="44.7540933" lon="9.0367617"><ele>583.0</ele><time>2026-04-11T14:00:33.038Z</time></trkpt><trkpt lat="44.753995" lon="9.0366867"><ele>583.0</ele><time>2026-04-11T14:00:34.038Z</time></trkpt><trkpt lat="44.7539" lon="9.0366117"><ele>583.0</ele><time>2026-04-11T14:00:35.038Z</time></trkpt><trkpt lat="44.7538017" lon="9.03653"><ele>583.0</ele><time>2026-04-11T14:00:36.038Z</time></trkpt><trkpt lat="44.753715" lon="9.0364367"><ele>583.0</ele><time>2026-04-11T14:00:37.038Z</time></trkpt><trkpt lat="44.7536317" lon="9.0363317"><ele>584.8</ele><time>2026-04-11T14:00:38.038Z</time></trkpt><trkpt lat="44.753565" lon="9.0362167"><ele>586.5999999999999</ele><time>2026-04-11T14:00:39.038Z</time></trkpt><trkpt lat="44.7535183" lon="9.0360883"><ele>588.4000000000001</ele><time>2026-04-11T14:00:40.038Z</time></trkpt><trkpt lat="44.753475" lon="9.0359483"><ele>590.2</ele><time>2026-04-11T14:00:41.038Z</time></trkpt><trkpt lat="44.753435" lon="9.0358067"><ele>592.0</ele><time>2026-04-11T14:00:42.038Z</time></trkpt><trkpt lat="44.7533967" lon="9.0356633"><ele>592.0</ele><time>2026-04-11T14:00:43.038Z</time></trkpt><trkpt lat="44.7533617" lon="9.0355333"><ele>592.0</ele><time>2026-04-11T14:00:44.038Z</time></trkpt><trkpt lat="44.753315" lon="9.0353883"><ele>592.0</ele><time>2026-04-11T14:00:45.038Z</time></trkpt><trkpt lat="44.7532633" lon="9.0352567"><ele>592.0</ele><time>2026-04-11T14:00:46.038Z</time></trkpt><trkpt lat="44.7532067" lon="9.0351533"><ele>592.0</ele><time>2026-04-11T14:00:47.037Z</time></trkpt><trkpt lat="44.7531483" lon="9.03507"><ele>592.0</ele><time>2026-04-11T14:00:48.038Z</time></trkpt><trkpt lat="44.7530933" lon="9.0349983"><ele>592.0</ele><time>2026-04-11T14:00:49.038Z</time></trkpt><trkpt lat="44.7530283" lon="9.0349367"><ele>592.0</ele><time>2026-04-11T14:00:50.038Z</time></trkpt><trkpt lat="44.7529683" lon="9.0348667"><ele>592.0</ele><time>2026-04-11T14:00:51.038Z</time></trkpt><trkpt lat="44.75291" lon="9.0347867"><ele>592.0</ele><time>2026-04-11T14:00:52.038Z</time></trkpt><trkpt lat="44.7528417" lon="9.0346883"><ele>592.0</ele><time>2026-04-11T14:00:53.038Z</time></trkpt><trkpt lat="44.7527767" lon="9.0345767"><ele>593.0</ele><time>2026-04-11T14:00:54.038Z</time></trkpt><trkpt lat="44.7527167" lon="9.0344733"><ele>594.0</ele><time>2026-04-11T14:00:55.038Z</time></trkpt><trkpt lat="44.7526633" lon="9.034385"><ele>595.0</ele><time>2026-04-11T14:00:56.038Z</time></trkpt><trkpt lat="44.75261" lon="9.0343267"><ele>596.0</ele><time>2026-04-11T14:00:57.037Z</time></trkpt><trkpt lat="44.752535" lon="9.0342933"><ele>597.0</ele><time>2026-04-11T14:00:58.038Z</time></trkpt><trkpt lat="44.7524533" lon="9.0342633"><ele>598.0</ele><time>2026-04-11T14:00:59.038Z</time></trkpt><trkpt lat="44.75236" lon="9.03425"><ele>598.0</ele><time>2026-04-11T14:01:00.037Z</time></trkpt><trkpt lat="44.75227" lon="9.0342183"><ele>598.0</ele><time>2026-04-11T14:01:01.038Z</time></trkpt><trkpt lat="44.7521883" lon="9.0341483"><ele>598.0</ele><time>2026-04-11T14:01:02.038Z</time></trkpt><trkpt lat="44.7521133" lon="9.0340517"><ele>598.0</ele><time>2026-04-11T14:01:03.038Z</time></trkpt><trkpt lat="44.7520683" lon="9.0339317"><ele>598.0</ele><time>2026-04-11T14:01:04.038Z</time></trkpt><trkpt lat="44.75202" lon="9.0338217"><ele>596.0</ele><time>2026-04-11T14:01:05.038Z</time></trkpt><trkpt lat="44.7519817" lon="9.0337367"><ele>594.0</ele><time>2026-04-11T14:01:06.037Z</time></trkpt><trkpt lat="44.7518783" lon="9.0336617"><ele>592.0</ele><time>2026-04-11T14:01:08.038Z</time></trkpt><trkpt lat="44.751795" lon="9.033645"><ele>590.0</ele><time>2026-04-11T14:01:09.038Z</time></trkpt><trkpt lat="44.7517083" lon="9.0336283"><ele>588.0</ele><time>2026-04-11T14:01:10.037Z</time></trkpt><trkpt lat="44.7516183" lon="9.0335983"><ele>588.0</ele><time>2026-04-11T14:01:11.038Z</time></trkpt><trkpt lat="44.75152" lon="9.0335483"><ele>588.0</ele><time>2026-04-11T14:01:12.038Z</time></trkpt><trkpt lat="44.7514017" lon="9.0334817"><ele>588.0</ele><time>2026-04-11T14:01:13.038Z</time></trkpt><trkpt lat="44.7512683" lon="9.033415"><ele>588.0</ele><time>2026-04-11T14:01:14.038Z</time></trkpt><trkpt lat="44.7511233" lon="9.03338"><ele>588.75</ele><time>2026-04-11T14:01:15.038Z</time></trkpt><trkpt lat="44.750985" lon="9.0333583"><ele>589.5</ele><time>2026-04-11T14:01:16.037Z</time></trkpt><trkpt lat="44.7508617" lon="9.0333417"><ele>590.25</ele><time>2026-04-11T14:01:17.038Z</time></trkpt><trkpt lat="44.750755" lon="9.0333083"><ele>591.0</ele><time>2026-04-11T14:01:18.038Z</time></trkpt><trkpt lat="44.7506633" lon="9.0332483"><ele>589.3333333333334</ele><time>2026-04-11T14:01:19.038Z</time></trkpt><trkpt lat="44.75058" lon="9.0331633"><ele>587.6666666666666</ele><time>2026-04-11T14:01:20.038Z</time></trkpt><trkpt lat="44.7505067" lon="9.0330633"><ele>586.0</ele><time>2026-04-11T14:01:21.038Z</time></trkpt><trkpt lat="44.750445" lon="9.03297"><ele>584.3333333333333</ele><time>2026-04-11T14:01:22.038Z</time></trkpt><trkpt lat="44.7503967" lon="9.032875"><ele>582.6666666666666</ele><time>2026-04-11T14:01:23.038Z</time></trkpt><trkpt lat="44.7503683" lon="9.0327883"><ele>581.0</ele><time>2026-04-11T14:01:24.038Z</time></trkpt><trkpt lat="44.750385" lon="9.0326367"><ele>582.4</ele><time>2026-04-11T14:01:26.038Z</time></trkpt><trkpt lat="44.750445" lon="9.0324667"><ele>583.8</ele><time>2026-04-11T14:01:28.038Z</time></trkpt><trkpt lat="44.75049" lon="9.03237"><ele>585.1999999999999</ele><time>2026-04-11T14:01:29.038Z</time></trkpt><trkpt lat="44.750555" lon="9.032265"><ele>586.6</ele><time>2026-04-11T14:01:30.038Z</time></trkpt><trkpt lat="44.7506233" lon="9.03217"><ele>588.0</ele><time>2026-04-11T14:01:31.037Z</time></trkpt><trkpt lat="44.7506983" lon="9.03209"><ele>588.0</ele><time>2026-04-11T14:01:32.038Z</time></trkpt><trkpt lat="44.75078" lon="9.0320167"><ele>588.0</ele><time>2026-04-11T14:01:33.037Z</time></trkpt><trkpt lat="44.750855" lon="9.03196"><ele>588.0</ele><time>2026-04-11T14:01:34.038Z</time></trkpt><trkpt lat="44.7509217" lon="9.0319083"><ele>588.0</ele><time>2026-04-11T14:01:35.038Z</time></trkpt><trkpt lat="44.750975" lon="9.0318533"><ele>588.0</ele><time>2026-04-11T14:01:36.038Z</time></trkpt><trkpt lat="44.7510233" lon="9.0317833"><ele>588.0</ele><time>2026-04-11T14:01:37.038Z</time></trkpt><trkpt lat="44.7510467" lon="9.0316917"><ele>586.4</ele><time>2026-04-11T14:01:38.037Z</time></trkpt><trkpt lat="44.750995" lon="9.0315217"><ele>584.8</ele><time>2026-04-11T14:01:40.038Z</time></trkpt><trkpt lat="44.7509567" lon="9.031435"><ele>583.2</ele><time>2026-04-11T14:01:41.038Z</time></trkpt><trkpt lat="44.7509283" lon="9.0313283"><ele>581.6</ele><time>2026-04-11T14:01:42.038Z</time></trkpt><trkpt lat="44.75092" lon="9.0312117"><ele>580.0</ele><time>2026-04-11T14:01:43.038Z</time></trkpt><trkpt lat="44.7509283" lon="9.0310867"><ele>580.0</ele><time>2026-04-11T14:01:44.038Z</time></trkpt><trkpt lat="44.7509617" lon="9.03097"><ele>580.0</ele><time>2026-04-11T14:01:45.038Z</time></trkpt><trkpt lat="44.7509983" lon="9.0308367"><ele>580.0</ele><time>2026-04-11T14:01:46.038Z</time></trkpt><trkpt lat="44.751045" lon="9.0307033"><ele>580.0</ele><time>2026-04-11T14:01:47.038Z</time></trkpt><trkpt lat="44.75111" lon="9.030565"><ele>580.0</ele><time>2026-04-11T14:01:48.038Z</time></trkpt><trkpt lat="44.7511767" lon="9.03043"><ele>577.0</ele><time>2026-04-11T14:01:49.038Z</time></trkpt><trkpt lat="44.7512283" lon="9.0303117"><ele>574.0</ele><time>2026-04-11T14:01:50.038Z</time></trkpt><trkpt lat="44.7512633" lon="9.0302183"><ele>571.0</ele><time>2026-04-11T14:01:51.037Z</time></trkpt><trkpt lat="44.751305" lon="9.0300683"><ele>568.0</ele><time>2026-04-11T14:01:53.037Z</time></trkpt><trkpt lat="44.7513333" lon="9.0299367"><ele>565.0</ele><time>2026-04-11T14:01:55.037Z</time></trkpt><trkpt lat="44.751365" lon="9.0297783"><ele>565.0</ele><time>2026-04-11T14:01:57.036Z</time></trkpt><trkpt lat="44.7513867" lon="9.02968"><ele>565.0</ele><time>2026-04-11T14:01:58.037Z</time></trkpt><trkpt lat="44.7514033" lon="9.0295783"><ele>565.0</ele><time>2026-04-11T14:01:59.037Z</time></trkpt><trkpt lat="44.7514283" lon="9.029465"><ele>565.0</ele><time>2026-04-11T14:02:00.037Z</time></trkpt><trkpt lat="44.7514517" lon="9.0293417"><ele>565.0</ele><time>2026-04-11T14:02:01.037Z</time></trkpt><trkpt lat="44.7514667" lon="9.0292083"><ele>565.0</ele><time>2026-04-11T14:02:02.037Z</time></trkpt><trkpt lat="44.7514767" lon="9.0290717"><ele>564.6666666666667</ele><time>2026-04-11T14:02:03.037Z</time></trkpt><trkpt lat="44.751495" lon="9.0289567"><ele>564.3333333333334</ele><time>2026-04-11T14:02:04.036Z</time></trkpt><trkpt lat="44.7515183" lon="9.02884"><ele>564.0</ele><time>2026-04-11T14:02:05.037Z</time></trkpt><trkpt lat="44.7515567" lon="9.028745"><ele>563.6666666666666</ele><time>2026-04-11T14:02:06.037Z</time></trkpt><trkpt lat="44.7516167" lon="9.0286683"><ele>563.3333333333333</ele><time>2026-04-11T14:02:07.037Z</time></trkpt><trkpt lat="44.7516833" lon="9.0286067"><ele>563.0</ele><time>2026-04-11T14:02:08.037Z</time></trkpt><trkpt lat="44.7517717" lon="9.0285533"><ele>563.0</ele><time>2026-04-11T14:02:09.037Z</time></trkpt><trkpt lat="44.7518617" lon="9.028505"><ele>563.0</ele><time>2026-04-11T14:02:10.037Z</time></trkpt><trkpt lat="44.7519567" lon="9.028455"><ele>563.0</ele><time>2026-04-11T14:02:11.037Z</time></trkpt><trkpt lat="44.7520433" lon="9.0283983"><ele>563.0</ele><time>2026-04-11T14:02:12.036Z</time></trkpt><trkpt lat="44.752135" lon="9.028325"><ele>563.0</ele><time>2026-04-11T14:02:13.037Z</time></trkpt><trkpt lat="44.752235" lon="9.0282517"><ele>565.75</ele><time>2026-04-11T14:02:14.036Z</time></trkpt><trkpt lat="44.752335" lon="9.0281667"><ele>568.5</ele><time>2026-04-11T14:02:15.037Z</time></trkpt><trkpt lat="44.7524233" lon="9.0280783"><ele>571.25</ele><time>2026-04-11T14:02:16.037Z</time></trkpt><trkpt lat="44.75251" lon="9.0279617"><ele>574.0</ele><time>2026-04-11T14:02:17.037Z</time></trkpt><trkpt lat="44.7525883" lon="9.027845"><ele>574.0</ele><time>2026-04-11T14:02:18.037Z</time></trkpt><trkpt lat="44.7526667" lon="9.02773"><ele>574.0</ele><time>2026-04-11T14:02:19.037Z</time></trkpt><trkpt lat="44.7527417" lon="9.02762"><ele>574.0</ele><time>2026-04-11T14:02:20.037Z</time></trkpt><trkpt lat="44.7528133" lon="9.0275067"><ele>574.0</ele><time>2026-04-11T14:02:21.037Z</time></trkpt><trkpt lat="44.75288" lon="9.0273867"><ele>574.0</ele><time>2026-04-11T14:02:22.037Z</time></trkpt><trkpt lat="44.7529467" lon="9.0272667"><ele>577.8</ele><time>2026-04-11T14:02:23.037Z</time></trkpt><trkpt lat="44.753015" lon="9.027145"><ele>581.5999999999999</ele><time>2026-04-11T14:02:24.037Z</time></trkpt><trkpt lat="44.7530867" lon="9.02702"><ele>585.4</ele><time>2026-04-11T14:02:25.036Z</time></trkpt><trkpt lat="44.7531617" lon="9.026905"><ele>589.1999999999999</ele><time>2026-04-11T14:02:26.037Z</time></trkpt><trkpt lat="44.7532267" lon="9.0267983"><ele>593.0</ele><time>2026-04-11T14:02:27.037Z</time></trkpt><trkpt lat="44.75329" lon="9.0267167"><ele>593.0</ele><time>2026-04-11T14:02:28.036Z</time></trkpt><trkpt lat="44.7533483" lon="9.0266733"><ele>593.0</ele><time>2026-04-11T14:02:29.036Z</time></trkpt><trkpt lat="44.7534167" lon="9.0266667"><ele>593.0</ele><time>2026-04-11T14:02:30.037Z</time></trkpt><trkpt lat="44.753525" lon="9.0267367"><ele>593.0</ele><time>2026-04-11T14:02:32.037Z</time></trkpt><trkpt lat="44.7535767" lon="9.0268283"><ele>593.0</ele><time>2026-04-11T14:02:33.036Z</time></trkpt><trkpt lat="44.75362" lon="9.026955"><ele>593.0</ele><time>2026-04-11T14:02:34.036Z</time></trkpt><trkpt lat="44.7536583" lon="9.0270733"><ele>596.6</ele><time>2026-04-11T14:02:35.037Z</time></trkpt><trkpt lat="44.753705" lon="9.0271883"><ele>600.1999999999999</ele><time>2026-04-11T14:02:36.036Z</time></trkpt><trkpt lat="44.7537567" lon="9.0272983"><ele>603.8</ele><time>2026-04-11T14:02:37.037Z</time></trkpt><trkpt lat="44.7538233" lon="9.0273867"><ele>607.4</ele><time>2026-04-11T14:02:38.037Z</time></trkpt><trkpt lat="44.753895" lon="9.027455"><ele>611.0</ele><time>2026-04-11T14:02:39.037Z</time></trkpt><trkpt lat="44.7539767" lon="9.0274817"><ele>611.0</ele><time>2026-04-11T14:02:40.037Z</time></trkpt><trkpt lat="44.7540633" lon="9.0274833"><ele>611.0</ele><time>2026-04-11T14:02:41.036Z</time></trkpt><trkpt lat="44.7541333" lon="9.0274667"><ele>611.0</ele><time>2026-04-11T14:02:42.037Z</time></trkpt><trkpt lat="44.75419" lon="9.027425"><ele>611.0</ele><time>2026-04-11T14:02:43.037Z</time></trkpt><trkpt lat="44.75424" lon="9.0272833"><ele>611.0</ele><time>2026-04-11T14:02:45.037Z</time></trkpt><trkpt lat="44.7542433" lon="9.0271933"><ele>611.0</ele><time>2026-04-11T14:02:46.037Z</time></trkpt><trkpt lat="44.75424" lon="9.0271033"><ele>612.1666666666666</ele><time>2026-04-11T14:02:47.037Z</time></trkpt><trkpt lat="44.7542367" lon="9.0270083"><ele>613.3333333333333</ele><time>2026-04-11T14:02:48.037Z</time></trkpt><trkpt lat="44.754235" lon="9.02691"><ele>614.5</ele><time>2026-04-11T14:02:49.036Z</time></trkpt><trkpt lat="44.75423" lon="9.0268033"><ele>615.6666666666666</ele><time>2026-04-11T14:02:50.037Z</time></trkpt><trkpt lat="44.7542217" lon="9.0266867"><ele>616.8333333333334</ele><time>2026-04-11T14:02:51.036Z</time></trkpt><trkpt lat="44.7542033" lon="9.02657"><ele>618.0</ele><time>2026-04-11T14:02:52.037Z</time></trkpt><trkpt lat="44.754175" lon="9.0264567"><ele>621.0</ele><time>2026-04-11T14:02:53.037Z</time></trkpt><trkpt lat="44.754155" lon="9.0263367"><ele>624.0</ele><time>2026-04-11T14:02:54.036Z</time></trkpt><trkpt lat="44.75413" lon="9.0262117"><ele>627.0</ele><time>2026-04-11T14:02:55.037Z</time></trkpt><trkpt lat="44.7541" lon="9.0260817"><ele>630.0</ele><time>2026-04-11T14:02:56.036Z</time></trkpt><trkpt lat="44.7540783" lon="9.0259483"><ele>633.0</ele><time>2026-04-11T14:02:57.037Z</time></trkpt><trkpt lat="44.7540417" lon="9.025825"><ele>636.2</ele><time>2026-04-11T14:02:58.037Z</time></trkpt><trkpt lat="44.7539833" lon="9.0257017"><ele>639.4</ele><time>2026-04-11T14:02:59.037Z</time></trkpt><trkpt lat="44.7539117" lon="9.0255983"><ele>642.6</ele><time>2026-04-11T14:03:00.037Z</time></trkpt><trkpt lat="44.7538283" lon="9.0255"><ele>645.8000000000001</ele><time>2026-04-11T14:03:01.037Z</time></trkpt><trkpt lat="44.7537483" lon="9.025405"><ele>649.0</ele><time>2026-04-11T14:03:02.037Z</time></trkpt><trkpt lat="44.753665" lon="9.025305"><ele>649.0</ele><time>2026-04-11T14:03:03.037Z</time></trkpt><trkpt lat="44.75359" lon="9.0252067"><ele>649.0</ele><time>2026-04-11T14:03:04.037Z</time></trkpt><trkpt lat="44.7535367" lon="9.0251"><ele>649.0</ele><time>2026-04-11T14:03:05.037Z</time></trkpt><trkpt lat="44.753495" lon="9.0250017"><ele>649.0</ele><time>2026-04-11T14:03:06.036Z</time></trkpt><trkpt lat="44.7534717" lon="9.0249"><ele>649.0</ele><time>2026-04-11T14:03:07.037Z</time></trkpt><trkpt lat="44.75347" lon="9.0247933"><ele>649.0</ele><time>2026-04-11T14:03:08.037Z</time></trkpt><trkpt lat="44.7534767" lon="9.0246733"><ele>646.0</ele><time>2026-04-11T14:03:09.037Z</time></trkpt><trkpt lat="44.7534767" lon="9.024545"><ele>643.0</ele><time>2026-04-11T14:03:10.037Z</time></trkpt><trkpt lat="44.7534683" lon="9.024415"><ele>640.0</ele><time>2026-04-11T14:03:11.037Z</time></trkpt><trkpt lat="44.7534517" lon="9.0242817"><ele>637.0</ele><time>2026-04-11T14:03:12.037Z</time></trkpt><trkpt lat="44.7534283" lon="9.024155"><ele>634.0</ele><time>2026-04-11T14:03:13.037Z</time></trkpt><trkpt lat="44.7533917" lon="9.0240367"><ele>634.0</ele><time>2026-04-11T14:03:14.037Z</time></trkpt><trkpt lat="44.7533467" lon="9.0239133"><ele>634.0</ele><time>2026-04-11T14:03:15.037Z</time></trkpt><trkpt lat="44.75329" lon="9.0237917"><ele>634.0</ele><time>2026-04-11T14:03:16.036Z</time></trkpt><trkpt lat="44.7532417" lon="9.0236617"><ele>634.0</ele><time>2026-04-11T14:03:17.037Z</time></trkpt><trkpt lat="44.7531917" lon="9.0235267"><ele>634.0</ele><time>2026-04-11T14:03:18.037Z</time></trkpt><trkpt lat="44.7531383" lon="9.0234133"><ele>631.8</ele><time>2026-04-11T14:03:19.037Z</time></trkpt><trkpt lat="44.7530717" lon="9.02329"><ele>629.5999999999999</ele><time>2026-04-11T14:03:20.037Z</time></trkpt><trkpt lat="44.7530033" lon="9.0231733"><ele>627.4</ele><time>2026-04-11T14:03:21.037Z</time></trkpt><trkpt lat="44.7529317" lon="9.023075"><ele>625.1999999999999</ele><time>2026-04-11T14:03:22.036Z</time></trkpt><trkpt lat="44.75288" lon="9.0230017"><ele>623.0</ele><time>2026-04-11T14:03:23.037Z</time></trkpt><trkpt lat="44.7528267" lon="9.02289"><ele>623.0</ele><time>2026-04-11T14:03:25.037Z</time></trkpt><trkpt lat="44.7528633" lon="9.022805"><ele>623.0</ele><time>2026-04-11T14:03:28.037Z</time></trkpt><trkpt lat="44.752935" lon="9.0228183"><ele>623.0</ele><time>2026-04-11T14:03:30.037Z</time></trkpt><trkpt lat="44.7530467" lon="9.0228983"><ele>623.0</ele><time>2026-04-11T14:03:32.037Z</time></trkpt><trkpt lat="44.7531083" lon="9.0229483"><ele>623.0</ele><time>2026-04-11T14:03:33.037Z</time></trkpt><trkpt lat="44.7531733" lon="9.0229983"><ele>623.0</ele><time>2026-04-11T14:03:34.037Z</time></trkpt><trkpt lat="44.753245" lon="9.023045"><ele>623.0</ele><time>2026-04-11T14:03:35.037Z</time></trkpt><trkpt lat="44.75332" lon="9.0230917"><ele>623.0</ele><time>2026-04-11T14:03:36.037Z</time></trkpt><trkpt lat="44.7534067" lon="9.0231333"><ele>623.0</ele><time>2026-04-11T14:03:37.037Z</time></trkpt><trkpt lat="44.7534983" lon="9.0231683"><ele>623.0</ele><time>2026-04-11T14:03:38.037Z</time></trkpt><trkpt lat="44.7535883" lon="9.023205"><ele>623.0</ele><time>2026-04-11T14:03:39.037Z</time></trkpt><trkpt lat="44.7536833" lon="9.0232417"><ele>621.8</ele><time>2026-04-11T14:03:40.037Z</time></trkpt><trkpt lat="44.7537817" lon="9.0232767"><ele>620.5999999999999</ele><time>2026-04-11T14:03:41.036Z</time></trkpt><trkpt lat="44.75388" lon="9.023315"><ele>619.4000000000001</ele><time>2026-04-11T14:03:42.037Z</time></trkpt><trkpt lat="44.7539883" lon="9.0233617"><ele>618.2</ele><time>2026-04-11T14:03:43.037Z</time></trkpt><trkpt lat="44.7540983" lon="9.0234133"><ele>617.0</ele><time>2026-04-11T14:03:44.037Z</time></trkpt><trkpt lat="44.75422" lon="9.02347"><ele>622.5</ele><time>2026-04-11T14:03:45.036Z</time></trkpt><trkpt lat="44.7543433" lon="9.0235233"><ele>628.0</ele><time>2026-04-11T14:03:46.036Z</time></trkpt><trkpt lat="44.7544817" lon="9.02356"><ele>633.5</ele><time>2026-04-11T14:03:47.037Z</time></trkpt><trkpt lat="44.7546217" lon="9.0235817"><ele>639.0</ele><time>2026-04-11T14:03:48.037Z</time></trkpt><trkpt lat="44.7547633" lon="9.0236"><ele>639.0</ele><time>2026-04-11T14:03:49.037Z</time></trkpt><trkpt lat="44.754905" lon="9.023625"><ele>639.0</ele><time>2026-04-11T14:03:50.037Z</time></trkpt><trkpt lat="44.7550483" lon="9.0236567"><ele>639.0</ele><time>2026-04-11T14:03:51.037Z</time></trkpt><trkpt lat="44.7551783" lon="9.02371"><ele>639.0</ele><time>2026-04-11T14:03:52.036Z</time></trkpt><trkpt lat="44.7553167" lon="9.02376"><ele>638.0</ele><time>2026-04-11T14:03:53.037Z</time></trkpt><trkpt lat="44.7554467" lon="9.0237867"><ele>637.0</ele><time>2026-04-11T14:03:54.037Z</time></trkpt><trkpt lat="44.7555717" lon="9.0237983"><ele>636.0</ele><time>2026-04-11T14:03:55.037Z</time></trkpt><trkpt lat="44.755705" lon="9.02381"><ele>635.0</ele><time>2026-04-11T14:03:56.036Z</time></trkpt><trkpt lat="44.7558367" lon="9.0238383"><ele>635.0</ele><time>2026-04-11T14:03:57.036Z</time></trkpt><trkpt lat="44.7559683" lon="9.0238617"><ele>635.0</ele><time>2026-04-11T14:03:58.037Z</time></trkpt><trkpt lat="44.7561" lon="9.0238967"><ele>635.0</ele><time>2026-04-11T14:03:59.037Z</time></trkpt><trkpt lat="44.7562217" lon="9.0239467"><ele>635.0</ele><time>2026-04-11T14:04:00.037Z</time></trkpt><trkpt lat="44.7563383" lon="9.0240083"><ele>633.0</ele><time>2026-04-11T14:04:01.037Z</time></trkpt><trkpt lat="44.7564633" lon="9.0240717"><ele>631.0</ele><time>2026-04-11T14:04:02.037Z</time></trkpt><trkpt lat="44.756595" lon="9.02415"><ele>629.0</ele><time>2026-04-11T14:04:03.036Z</time></trkpt><trkpt lat="44.7567333" lon="9.024225"><ele>627.0</ele><time>2026-04-11T14:04:04.037Z</time></trkpt><trkpt lat="44.7568683" lon="9.0243083"><ele>630.0</ele><time>2026-04-11T14:04:05.037Z</time></trkpt><trkpt lat="44.757005" lon="9.0243983"><ele>633.0</ele><time>2026-04-11T14:04:06.036Z</time></trkpt><trkpt lat="44.75712" lon="9.0244933"><ele>636.0</ele><time>2026-04-11T14:04:07.037Z</time></trkpt><trkpt lat="44.757235" lon="9.024595"><ele>639.0</ele><time>2026-04-11T14:04:08.036Z</time></trkpt><trkpt lat="44.757355" lon="9.0246917"><ele>639.0</ele><time>2026-04-11T14:04:09.037Z</time></trkpt><trkpt lat="44.75743" lon="9.024805"><ele>639.0</ele><time>2026-04-11T14:04:10.037Z</time></trkpt><trkpt lat="44.757515" lon="9.0249217"><ele>639.0</ele><time>2026-04-11T14:04:11.037Z</time></trkpt><trkpt lat="44.7575933" lon="9.0250533"><ele>639.0</ele><time>2026-04-11T14:04:12.037Z</time></trkpt><trkpt lat="44.75768" lon="9.025185"><ele>640.5</ele><time>2026-04-11T14:04:13.037Z</time></trkpt><trkpt lat="44.7577617" lon="9.0253117"><ele>642.0</ele><time>2026-04-11T14:04:14.036Z</time></trkpt><trkpt lat="44.7578433" lon="9.0254367"><ele>643.5</ele><time>2026-04-11T14:04:15.037Z</time></trkpt><trkpt lat="44.7579167" lon="9.0255583"><ele>645.0</ele><time>2026-04-11T14:04:16.037Z</time></trkpt><trkpt lat="44.7579833" lon="9.0256767"><ele>645.0</ele><time>2026-04-11T14:04:17.037Z</time></trkpt><trkpt lat="44.7580433" lon="9.0258017"><ele>645.0</ele><time>2026-04-11T14:04:18.037Z</time></trkpt><trkpt lat="44.7581" lon="9.0259383"><ele>645.0</ele><time>2026-04-11T14:04:19.037Z</time></trkpt><trkpt lat="44.7581483" lon="9.0260933"><ele>645.0</ele><time>2026-04-11T14:04:20.037Z</time></trkpt><trkpt lat="44.758195" lon="9.02625"><ele>648.75</ele><time>2026-04-11T14:04:21.037Z</time></trkpt><trkpt lat="44.7582483" lon="9.0264"><ele>652.5</ele><time>2026-04-11T14:04:22.037Z</time></trkpt><trkpt lat="44.7583017" lon="9.0265483"><ele>656.25</ele><time>2026-04-11T14:04:23.036Z</time></trkpt><trkpt lat="44.7583583" lon="9.026705"><ele>660.0</ele><time>2026-04-11T14:04:24.037Z</time></trkpt><trkpt lat="44.758415" lon="9.0268367"><ele>661.2</ele><time>2026-04-11T14:04:25.037Z</time></trkpt><trkpt lat="44.7584717" lon="9.0269517"><ele>662.4</ele><time>2026-04-11T14:04:26.036Z</time></trkpt><trkpt lat="44.758545" lon="9.0270383"><ele>663.5999999999999</ele><time>2026-04-11T14:04:27.037Z</time></trkpt><trkpt lat="44.7586333" lon="9.0271267"><ele>664.8</ele><time>2026-04-11T14:04:28.037Z</time></trkpt><trkpt lat="44.7587233" lon="9.027205"><ele>666.0</ele><time>2026-04-11T14:04:29.037Z</time></trkpt><trkpt lat="44.7588183" lon="9.0272683"><ele>666.0</ele><time>2026-04-11T14:04:30.037Z</time></trkpt><trkpt lat="44.7589167" lon="9.0273"><ele>666.0</ele><time>2026-04-11T14:04:31.037Z</time></trkpt><trkpt lat="44.759025" lon="9.02731"><ele>666.0</ele><time>2026-04-11T14:04:32.037Z</time></trkpt><trkpt lat="44.7591367" lon="9.0273183"><ele>666.0</ele><time>2026-04-11T14:04:33.037Z</time></trkpt><trkpt lat="44.759245" lon="9.0273183"><ele>666.0</ele><time>2026-04-11T14:04:34.037Z</time></trkpt><trkpt lat="44.7593483" lon="9.0273"><ele>666.25</ele><time>2026-04-11T14:04:35.037Z</time></trkpt><trkpt lat="44.75945" lon="9.02727"><ele>666.5</ele><time>2026-04-11T14:04:36.037Z</time></trkpt><trkpt lat="44.7595567" lon="9.0272183"><ele>666.75</ele><time>2026-04-11T14:04:37.037Z</time></trkpt><trkpt lat="44.7596717" lon="9.027155"><ele>667.0</ele><time>2026-04-11T14:04:38.037Z</time></trkpt><trkpt lat="44.7597767" lon="9.0270917"><ele>667.0</ele><time>2026-04-11T14:04:39.037Z</time></trkpt><trkpt lat="44.75987" lon="9.0270367"><ele>667.0</ele><time>2026-04-11T14:04:40.037Z</time></trkpt><trkpt lat="44.7599633" lon="9.0270117"><ele>667.0</ele><time>2026-04-11T14:04:41.037Z</time></trkpt><trkpt lat="44.7600667" lon="9.0270233"><ele>667.0</ele><time>2026-04-11T14:04:43.037Z</time></trkpt><trkpt lat="44.76013" lon="9.0271467"><ele>667.0</ele><time>2026-04-11T14:04:45.036Z</time></trkpt><trkpt lat="44.7601683" lon="9.0272183"><ele>667.1666666666667</ele><time>2026-04-11T14:04:46.036Z</time></trkpt><trkpt lat="44.7602" lon="9.0272983"><ele>667.3333333333334</ele><time>2026-04-11T14:04:47.037Z</time></trkpt><trkpt lat="44.7602333" lon="9.0273833"><ele>667.5</ele><time>2026-04-11T14:04:48.037Z</time></trkpt><trkpt lat="44.7602683" lon="9.0274783"><ele>667.6666666666666</ele><time>2026-04-11T14:04:49.037Z</time></trkpt><trkpt lat="44.76031" lon="9.02758"><ele>667.8333333333333</ele><time>2026-04-11T14:04:50.037Z</time></trkpt><trkpt lat="44.7603567" lon="9.0276867"><ele>668.0</ele><time>2026-04-11T14:04:51.037Z</time></trkpt><trkpt lat="44.7604117" lon="9.0277933"><ele>668.0</ele><time>2026-04-11T14:04:52.037Z</time></trkpt><trkpt lat="44.7604717" lon="9.0278983"><ele>668.0</ele><time>2026-04-11T14:04:53.036Z</time></trkpt><trkpt lat="44.7605383" lon="9.0280083"><ele>668.0</ele><time>2026-04-11T14:04:54.037Z</time></trkpt><trkpt lat="44.7606083" lon="9.02811"><ele>668.0</ele><time>2026-04-11T14:04:55.037Z</time></trkpt><trkpt lat="44.7606917" lon="9.0281867"><ele>668.0</ele><time>2026-04-11T14:04:56.037Z</time></trkpt><trkpt lat="44.7607733" lon="9.028235"><ele>668.0</ele><time>2026-04-11T14:04:57.036Z</time></trkpt><trkpt lat="44.7608583" lon="9.02826"><ele>668.0</ele><time>2026-04-11T14:04:58.037Z</time></trkpt><trkpt lat="44.7609483" lon="9.028265"><ele>668.0</ele><time>2026-04-11T14:04:59.037Z</time></trkpt><trkpt lat="44.7610467" lon="9.0282617"><ele>668.0</ele><time>2026-04-11T14:05:00.037Z</time></trkpt><trkpt lat="44.7611567" lon="9.0282533"><ele>668.0</ele><time>2026-04-11T14:05:01.037Z</time></trkpt><trkpt lat="44.76127" lon="9.0282433"><ele>667.5</ele><time>2026-04-11T14:05:02.036Z</time></trkpt><trkpt lat="44.761375" lon="9.0282283"><ele>667.0</ele><time>2026-04-11T14:05:03.037Z</time></trkpt><trkpt lat="44.7614883" lon="9.0282183"><ele>666.5</ele><time>2026-04-11T14:05:04.037Z</time></trkpt><trkpt lat="44.7616033" lon="9.028205"><ele>666.0</ele><time>2026-04-11T14:05:05.037Z</time></trkpt><trkpt lat="44.761725" lon="9.028185"><ele>666.0</ele><time>2026-04-11T14:05:06.036Z</time></trkpt><trkpt lat="44.7618317" lon="9.0281717"><ele>666.0</ele><time>2026-04-11T14:05:07.037Z</time></trkpt><trkpt lat="44.7619283" lon="9.02814"><ele>666.0</ele><time>2026-04-11T14:05:08.037Z</time></trkpt><trkpt lat="44.76201" lon="9.028095"><ele>666.0</ele><time>2026-04-11T14:05:09.037Z</time></trkpt><trkpt lat="44.7620883" lon="9.0280383"><ele>666.0</ele><time>2026-04-11T14:05:10.037Z</time></trkpt><trkpt lat="44.7621617" lon="9.0279633"><ele>668.8</ele><time>2026-04-11T14:05:11.036Z</time></trkpt><trkpt lat="44.7622333" lon="9.0278667"><ele>671.5999999999999</ele><time>2026-04-11T14:05:12.037Z</time></trkpt><trkpt lat="44.7623083" lon="9.0277717"><ele>674.4</ele><time>2026-04-11T14:05:13.036Z</time></trkpt><trkpt lat="44.76238" lon="9.0276683"><ele>677.2</ele><time>2026-04-11T14:05:14.037Z</time></trkpt><trkpt lat="44.7624367" lon="9.02756"><ele>680.0</ele><time>2026-04-11T14:05:15.037Z</time></trkpt><trkpt lat="44.76247" lon="9.0274433"><ele>680.0</ele><time>2026-04-11T14:05:16.036Z</time></trkpt><trkpt lat="44.7624933" lon="9.0273283"><ele>680.0</ele><time>2026-04-11T14:05:17.037Z</time></trkpt><trkpt lat="44.7624967" lon="9.02721"><ele>680.0</ele><time>2026-04-11T14:05:18.037Z</time></trkpt><trkpt lat="44.7624883" lon="9.02709"><ele>680.0</ele><time>2026-04-11T14:05:19.037Z</time></trkpt><trkpt lat="44.7624667" lon="9.0269783"><ele>680.0</ele><time>2026-04-11T14:05:20.036Z</time></trkpt><trkpt lat="44.7624317" lon="9.026865"><ele>680.0</ele><time>2026-04-11T14:05:21.037Z</time></trkpt><trkpt lat="44.7623917" lon="9.0267583"><ele>680.0</ele><time>2026-04-11T14:05:22.037Z</time></trkpt><trkpt lat="44.7623433" lon="9.0266567"><ele>680.0</ele><time>2026-04-11T14:05:23.037Z</time></trkpt><trkpt lat="44.7622917" lon="9.0265567"><ele>680.0</ele><time>2026-04-11T14:05:24.037Z</time></trkpt><trkpt lat="44.762245" lon="9.0264583"><ele>680.0</ele><time>2026-04-11T14:05:25.037Z</time></trkpt><trkpt lat="44.762195" lon="9.0263567"><ele>680.0</ele><time>2026-04-11T14:05:26.036Z</time></trkpt><trkpt lat="44.7621483" lon="9.026245"><ele>680.0</ele><time>2026-04-11T14:05:27.037Z</time></trkpt><trkpt lat="44.7621" lon="9.0261183"><ele>676.5</ele><time>2026-04-11T14:05:28.037Z</time></trkpt><trkpt lat="44.7620483" lon="9.025975"><ele>673.0</ele><time>2026-04-11T14:05:29.037Z</time></trkpt><trkpt lat="44.7620083" lon="9.0258233"><ele>669.5</ele><time>2026-04-11T14:05:30.037Z</time></trkpt><trkpt lat="44.7619767" lon="9.0256617"><ele>666.0</ele><time>2026-04-11T14:05:31.037Z</time></trkpt><trkpt lat="44.7619433" lon="9.0255067"><ele>664.1666666666666</ele><time>2026-04-11T14:05:32.037Z</time></trkpt><trkpt lat="44.7619033" lon="9.0253683"><ele>662.3333333333334</ele><time>2026-04-11T14:05:33.036Z</time></trkpt><trkpt lat="44.7618733" lon="9.02527"><ele>660.5</ele><time>2026-04-11T14:05:34.037Z</time></trkpt><trkpt lat="44.761855" lon="9.0251233"><ele>658.6666666666667</ele><time>2026-04-11T14:05:36.037Z</time></trkpt><trkpt lat="44.7618967" lon="9.025035"><ele>656.8333333333334</ele><time>2026-04-11T14:05:38.037Z</time></trkpt><trkpt lat="44.7619733" lon="9.025"><ele>655.0</ele><time>2026-04-11T14:05:40.037Z</time></trkpt><trkpt lat="44.762115" lon="9.0250083"><ele>654.6</ele><time>2026-04-11T14:05:42.037Z</time></trkpt><trkpt lat="44.7622417" lon="9.02499"><ele>654.2</ele><time>2026-04-11T14:05:44.037Z</time></trkpt><trkpt lat="44.7623133" lon="9.0249983"><ele>653.8</ele><time>2026-04-11T14:05:45.037Z</time></trkpt><trkpt lat="44.7624083" lon="9.02506"><ele>653.4</ele><time>2026-04-11T14:05:47.037Z</time></trkpt><trkpt lat="44.7624533" lon="9.02516"><ele>653.0</ele><time>2026-04-11T14:05:49.037Z</time></trkpt><trkpt lat="44.7624917" lon="9.025305"><ele>653.0</ele><time>2026-04-11T14:05:51.037Z</time></trkpt><trkpt lat="44.762595" lon="9.0253833"><ele>653.0</ele><time>2026-04-11T14:05:53.037Z</time></trkpt><trkpt lat="44.76267" lon="9.02539"><ele>653.0</ele><time>2026-04-11T14:05:54.037Z</time></trkpt><trkpt lat="44.7627583" lon="9.025395"><ele>653.0</ele><time>2026-04-11T14:05:55.037Z</time></trkpt><trkpt lat="44.7628433" lon="9.0253917"><ele>653.0</ele><time>2026-04-11T14:05:56.037Z</time></trkpt><trkpt lat="44.7629467" lon="9.0253817"><ele>650.8</ele><time>2026-04-11T14:05:57.037Z</time></trkpt><trkpt lat="44.7630533" lon="9.0253683"><ele>648.5999999999999</ele><time>2026-04-11T14:05:58.037Z</time></trkpt><trkpt lat="44.7631617" lon="9.0253567"><ele>646.4000000000001</ele><time>2026-04-11T14:05:59.037Z</time></trkpt><trkpt lat="44.763275" lon="9.0253467"><ele>644.2</ele><time>2026-04-11T14:06:00.037Z</time></trkpt><trkpt lat="44.763375" lon="9.0253517"><ele>642.0</ele><time>2026-04-11T14:06:01.037Z</time></trkpt><trkpt lat="44.7634567" lon="9.0253717"><ele>642.0</ele><time>2026-04-11T14:06:02.037Z</time></trkpt><trkpt lat="44.76353" lon="9.02542"><ele>642.0</ele><time>2026-04-11T14:06:03.037Z</time></trkpt><trkpt lat="44.7635917" lon="9.0255"><ele>642.0</ele><time>2026-04-11T14:06:04.036Z</time></trkpt><trkpt lat="44.763655" lon="9.025605"><ele>642.0</ele><time>2026-04-11T14:06:05.037Z</time></trkpt><trkpt lat="44.7637233" lon="9.0257167"><ele>642.0</ele><time>2026-04-11T14:06:06.036Z</time></trkpt><trkpt lat="44.7638" lon="9.0258283"><ele>640.0</ele><time>2026-04-11T14:06:07.037Z</time></trkpt><trkpt lat="44.7638817" lon="9.0259383"><ele>638.0</ele><time>2026-04-11T14:06:08.037Z</time></trkpt><trkpt lat="44.763965" lon="9.026045"><ele>636.0</ele><time>2026-04-11T14:06:09.037Z</time></trkpt><trkpt lat="44.764055" lon="9.0261633"><ele>634.0</ele><time>2026-04-11T14:06:10.037Z</time></trkpt><trkpt lat="44.7641517" lon="9.0262767"><ele>634.0</ele><time>2026-04-11T14:06:11.037Z</time></trkpt><trkpt lat="44.7642533" lon="9.0263783"><ele>634.0</ele><time>2026-04-11T14:06:12.037Z</time></trkpt><trkpt lat="44.7643483" lon="9.0264717"><ele>634.0</ele><time>2026-04-11T14:06:13.037Z</time></trkpt><trkpt lat="44.7644333" lon="9.026555"><ele>634.0</ele><time>2026-04-11T14:06:14.037Z</time></trkpt><trkpt lat="44.76451" lon="9.0266583"><ele>629.6</ele><time>2026-04-11T14:06:15.037Z</time></trkpt><trkpt lat="44.764575" lon="9.0267817"><ele>625.2</ele><time>2026-04-11T14:06:16.037Z</time></trkpt><trkpt lat="44.764635" lon="9.0269167"><ele>620.8000000000001</ele><time>2026-04-11T14:06:17.036Z</time></trkpt><trkpt lat="44.7646867" lon="9.02705"><ele>616.4</ele><time>2026-04-11T14:06:18.037Z</time></trkpt><trkpt lat="44.764715" lon="9.027185"><ele>612.0</ele><time>2026-04-11T14:06:19.037Z</time></trkpt><trkpt lat="44.7647567" lon="9.0273333"><ele>614.0</ele><time>2026-04-11T14:06:20.037Z</time></trkpt><trkpt lat="44.76479" lon="9.0274967"><ele>616.0</ele><time>2026-04-11T14:06:21.037Z</time></trkpt><trkpt lat="44.7648133" lon="9.02764"><ele>618.0</ele><time>2026-04-11T14:06:22.037Z</time></trkpt><trkpt lat="44.76482" lon="9.02777"><ele>620.0</ele><time>2026-04-11T14:06:23.037Z</time></trkpt><trkpt lat="44.7648133" lon="9.0278933"><ele>622.0</ele><time>2026-04-11T14:06:24.037Z</time></trkpt><trkpt lat="44.7647983" lon="9.028025"><ele>622.0</ele><time>2026-04-11T14:06:25.037Z</time></trkpt><trkpt lat="44.7647817" lon="9.02816"><ele>622.0</ele><time>2026-04-11T14:06:26.036Z</time></trkpt><trkpt lat="44.76477" lon="9.02829"><ele>622.0</ele><time>2026-04-11T14:06:27.037Z</time></trkpt><trkpt lat="44.7647583" lon="9.0284283"><ele>622.0</ele><time>2026-04-11T14:06:28.037Z</time></trkpt><trkpt lat="44.76475" lon="9.0285733"><ele>622.0</ele><time>2026-04-11T14:06:29.036Z</time></trkpt><trkpt lat="44.7647417" lon="9.0287117"><ele>622.1666666666667</ele><time>2026-04-11T14:06:30.037Z</time></trkpt><trkpt lat="44.7647367" lon="9.0288333"><ele>622.3333333333334</ele><time>2026-04-11T14:06:31.037Z</time></trkpt><trkpt lat="44.764745" lon="9.028935"><ele>622.5</ele><time>2026-04-11T14:06:32.037Z</time></trkpt><trkpt lat="44.7647633" lon="9.0290233"><ele>622.6666666666666</ele><time>2026-04-11T14:06:33.036Z</time></trkpt><trkpt lat="44.7648533" lon="9.02914"><ele>622.8333333333333</ele><time>2026-04-11T14:06:35.037Z</time></trkpt><trkpt lat="44.7649133" lon="9.0291783"><ele>623.0</ele><time>2026-04-11T14:06:36.037Z</time></trkpt><trkpt lat="44.765005" lon="9.0292167"><ele>623.0</ele><time>2026-04-11T14:06:37.037Z</time></trkpt><trkpt lat="44.7651117" lon="9.02925"><ele>623.0</ele><time>2026-04-11T14:06:38.036Z</time></trkpt><trkpt lat="44.7652283" lon="9.0292983"><ele>623.0</ele><time>2026-04-11T14:06:39.037Z</time></trkpt><trkpt lat="44.7653367" lon="9.0293233"><ele>623.0</ele><time>2026-04-11T14:06:40.037Z</time></trkpt><trkpt lat="44.7654383" lon="9.0293333"><ele>623.0</ele><time>2026-04-11T14:06:41.037Z</time></trkpt><trkpt lat="44.7655483" lon="9.029345"><ele>619.5</ele><time>2026-04-11T14:06:42.037Z</time></trkpt><trkpt lat="44.7656233" lon="9.0293633"><ele>616.0</ele><time>2026-04-11T14:06:43.037Z</time></trkpt><trkpt lat="44.7657167" lon="9.0294483"><ele>612.5</ele><time>2026-04-11T14:06:45.037Z</time></trkpt><trkpt lat="44.7657667" lon="9.02951"><ele>609.0</ele><time>2026-04-11T14:06:46.036Z</time></trkpt><trkpt lat="44.7658083" lon="9.0295917"><ele>605.5</ele><time>2026-04-11T14:06:47.037Z</time></trkpt><trkpt lat="44.7658533" lon="9.02967"><ele>602.0</ele><time>2026-04-11T14:06:48.037Z</time></trkpt><trkpt lat="44.7658983" lon="9.0297467"><ele>602.0</ele><time>2026-04-11T14:06:49.037Z</time></trkpt><trkpt lat="44.7659533" lon="9.029815"><ele>602.0</ele><time>2026-04-11T14:06:50.037Z</time></trkpt><trkpt lat="44.7660117" lon="9.0298733"><ele>602.0</ele><time>2026-04-11T14:06:51.036Z</time></trkpt><trkpt lat="44.766085" lon="9.029925"><ele>602.0</ele><time>2026-04-11T14:06:52.037Z</time></trkpt><trkpt lat="44.7661717" lon="9.0299717"><ele>602.0</ele><time>2026-04-11T14:06:53.037Z</time></trkpt><trkpt lat="44.7662583" lon="9.0300167"><ele>602.0</ele><time>2026-04-11T14:06:54.037Z</time></trkpt><trkpt lat="44.7663383" lon="9.0300583"><ele>600.8333333333333</ele><time>2026-04-11T14:06:55.037Z</time></trkpt><trkpt lat="44.7664083" lon="9.0300833"><ele>599.6666666666666</ele><time>2026-04-11T14:06:56.037Z</time></trkpt><trkpt lat="44.7664783" lon="9.030105"><ele>598.5</ele><time>2026-04-11T14:06:57.037Z</time></trkpt><trkpt lat="44.7665783" lon="9.0300917"><ele>597.3333333333334</ele><time>2026-04-11T14:06:59.036Z</time></trkpt><trkpt lat="44.76656" lon="9.0299967"><ele>596.1666666666667</ele><time>2026-04-11T14:07:02.037Z</time></trkpt><trkpt lat="44.7665" lon="9.0299417"><ele>595.0</ele><time>2026-04-11T14:07:04.037Z</time></trkpt><trkpt lat="44.7664217" lon="9.0298767"><ele>591.4</ele><time>2026-04-11T14:07:06.037Z</time></trkpt><trkpt lat="44.7663117" lon="9.0297567"><ele>587.8</ele><time>2026-04-11T14:07:08.037Z</time></trkpt><trkpt lat="44.7662483" lon="9.0296683"><ele>584.2</ele><time>2026-04-11T14:07:09.037Z</time></trkpt><trkpt lat="44.7661867" lon="9.0295533"><ele>580.6</ele><time>2026-04-11T14:07:10.037Z</time></trkpt><trkpt lat="44.766135" lon="9.0294217"><ele>577.0</ele><time>2026-04-11T14:07:11.037Z</time></trkpt><trkpt lat="44.7661" lon="9.0292833"><ele>577.0</ele><time>2026-04-11T14:07:12.037Z</time></trkpt><trkpt lat="44.7660733" lon="9.0291567"><ele>577.0</ele><time>2026-04-11T14:07:13.037Z</time></trkpt><trkpt lat="44.76604" lon="9.029025"><ele>577.0</ele><time>2026-04-11T14:07:14.036Z</time></trkpt><trkpt lat="44.766005" lon="9.0289017"><ele>577.0</ele><time>2026-04-11T14:07:15.036Z</time></trkpt><trkpt lat="44.7659567" lon="9.0287833"><ele>577.0</ele><time>2026-04-11T14:07:16.036Z</time></trkpt><trkpt lat="44.7658983" lon="9.0286683"><ele>578.4</ele><time>2026-04-11T14:07:17.036Z</time></trkpt><trkpt lat="44.7658483" lon="9.02855"><ele>579.8000000000001</ele><time>2026-04-11T14:07:18.036Z</time></trkpt><trkpt lat="44.7658067" lon="9.0284183"><ele>581.2</ele><time>2026-04-11T14:07:19.036Z</time></trkpt><trkpt lat="44.76577" lon="9.028285"><ele>582.6</ele><time>2026-04-11T14:07:20.036Z</time></trkpt><trkpt lat="44.7657367" lon="9.0281517"><ele>584.0</ele><time>2026-04-11T14:07:21.036Z</time></trkpt><trkpt lat="44.7657183" lon="9.0280083"><ele>584.0</ele><time>2026-04-11T14:07:22.036Z</time></trkpt><trkpt lat="44.7657083" lon="9.0278583"><ele>584.0</ele><time>2026-04-11T14:07:23.036Z</time></trkpt><trkpt lat="44.7656967" lon="9.0277217"><ele>584.0</ele><time>2026-04-11T14:07:24.036Z</time></trkpt><trkpt lat="44.765685" lon="9.0275933"><ele>584.0</ele><time>2026-04-11T14:07:25.036Z</time></trkpt><trkpt lat="44.7656567" lon="9.0274833"><ele>584.0</ele><time>2026-04-11T14:07:26.036Z</time></trkpt><trkpt lat="44.7656117" lon="9.02736"><ele>581.4</ele><time>2026-04-11T14:07:27.036Z</time></trkpt><trkpt lat="44.765555" lon="9.0272433"><ele>578.8</ele><time>2026-04-11T14:07:28.036Z</time></trkpt><trkpt lat="44.7654917" lon="9.027135"><ele>576.2</ele><time>2026-04-11T14:07:29.036Z</time></trkpt><trkpt lat="44.7654367" lon="9.0270283"><ele>573.6</ele><time>2026-04-11T14:07:30.036Z</time></trkpt><trkpt lat="44.7653867" lon="9.0269167"><ele>571.0</ele><time>2026-04-11T14:07:31.036Z</time></trkpt><trkpt lat="44.7653467" lon="9.02677"><ele>566.75</ele><time>2026-04-11T14:07:32.035Z</time></trkpt><trkpt lat="44.7653267" lon="9.0266067"><ele>562.5</ele><time>2026-04-11T14:07:33.036Z</time></trkpt><trkpt lat="44.7653117" lon="9.0264383"><ele>558.25</ele><time>2026-04-11T14:07:34.036Z</time></trkpt><trkpt lat="44.765295" lon="9.0262767"><ele>554.0</ele><time>2026-04-11T14:07:35.036Z</time></trkpt><trkpt lat="44.7652733" lon="9.02612"><ele>554.0</ele><time>2026-04-11T14:07:36.036Z</time></trkpt><trkpt lat="44.765245" lon="9.0259733"><ele>554.0</ele><time>2026-04-11T14:07:37.036Z</time></trkpt><trkpt lat="44.7652033" lon="9.02581"><ele>554.0</ele><time>2026-04-11T14:07:38.036Z</time></trkpt><trkpt lat="44.76515" lon="9.0256333"><ele>554.0</ele><time>2026-04-11T14:07:39.036Z</time></trkpt><trkpt lat="44.7650817" lon="9.0254733"><ele>561.25</ele><time>2026-04-11T14:07:40.036Z</time></trkpt><trkpt lat="44.765035" lon="9.025295"><ele>568.5</ele><time>2026-04-11T14:07:41.036Z</time></trkpt><trkpt lat="44.765" lon="9.0251117"><ele>575.75</ele><time>2026-04-11T14:07:42.036Z</time></trkpt><trkpt lat="44.7649733" lon="9.0249333"><ele>583.0</ele><time>2026-04-11T14:07:43.036Z</time></trkpt><trkpt lat="44.7649517" lon="9.02478"><ele>583.0</ele><time>2026-04-11T14:07:44.036Z</time></trkpt><trkpt lat="44.764945" lon="9.02464"><ele>583.0</ele><time>2026-04-11T14:07:45.036Z</time></trkpt><trkpt lat="44.7649567" lon="9.0245017"><ele>583.0</ele><time>2026-04-11T14:07:46.035Z</time></trkpt><trkpt lat="44.7649817" lon="9.02437"><ele>583.0</ele><time>2026-04-11T14:07:47.036Z</time></trkpt><trkpt lat="44.7650267" lon="9.0242417"><ele>583.0</ele><time>2026-04-11T14:07:48.036Z</time></trkpt><trkpt lat="44.7650967" lon="9.0241217"><ele>575.75</ele><time>2026-04-11T14:07:49.036Z</time></trkpt><trkpt lat="44.7651983" lon="9.024035"><ele>568.5</ele><time>2026-04-11T14:07:50.036Z</time></trkpt><trkpt lat="44.7653167" lon="9.02396"><ele>561.25</ele><time>2026-04-11T14:07:51.036Z</time></trkpt><trkpt lat="44.76542" lon="9.0239083"><ele>554.0</ele><time>2026-04-11T14:07:52.036Z</time></trkpt><trkpt lat="44.76553" lon="9.02386"><ele>554.0</ele><time>2026-04-11T14:07:53.036Z</time></trkpt><trkpt lat="44.7656367" lon="9.0238067"><ele>554.0</ele><time>2026-04-11T14:07:54.036Z</time></trkpt><trkpt lat="44.76572" lon="9.02375"><ele>554.0</ele><time>2026-04-11T14:07:55.036Z</time></trkpt><trkpt lat="44.765795" lon="9.02368"><ele>554.0</ele><time>2026-04-11T14:07:56.036Z</time></trkpt><trkpt lat="44.7658533" lon="9.0235867"><ele>554.0</ele><time>2026-04-11T14:07:57.036Z</time></trkpt><trkpt lat="44.76591" lon="9.0234717"><ele>554.0</ele><time>2026-04-11T14:07:58.036Z</time></trkpt><trkpt lat="44.765945" lon="9.0233467"><ele>554.0</ele><time>2026-04-11T14:07:59.036Z</time></trkpt><trkpt lat="44.7659767" lon="9.0232167"><ele>554.0</ele><time>2026-04-11T14:08:00.036Z</time></trkpt><trkpt lat="44.7660017" lon="9.02307"><ele>554.0</ele><time>2026-04-11T14:08:01.036Z</time></trkpt><trkpt lat="44.76601" lon="9.0229417"><ele>554.0</ele><time>2026-04-11T14:08:02.036Z</time></trkpt><trkpt lat="44.7660217" lon="9.0228333"><ele>552.5</ele><time>2026-04-11T14:08:03.035Z</time></trkpt><trkpt lat="44.766025" lon="9.0227283"><ele>551.0</ele><time>2026-04-11T14:08:04.036Z</time></trkpt><trkpt lat="44.76602" lon="9.0226067"><ele>549.5</ele><time>2026-04-11T14:08:05.036Z</time></trkpt><trkpt lat="44.7659933" lon="9.02251"><ele>548.0</ele><time>2026-04-11T14:08:06.036Z</time></trkpt><trkpt lat="44.765935" lon="9.0224517"><ele>546.5</ele><time>2026-04-11T14:08:07.036Z</time></trkpt><trkpt lat="44.7658767" lon="9.02237"><ele>545.0</ele><time>2026-04-11T14:08:08.035Z</time></trkpt><trkpt lat="44.76581" lon="9.0222883"><ele>541.0</ele><time>2026-04-11T14:08:09.035Z</time></trkpt><trkpt lat="44.76572" lon="9.0222033"><ele>537.0</ele><time>2026-04-11T14:08:10.036Z</time></trkpt><trkpt lat="44.7656467" lon="9.0220867"><ele>533.0</ele><time>2026-04-11T14:08:11.036Z</time></trkpt><trkpt lat="44.7655867" lon="9.0219483"><ele>529.0</ele><time>2026-04-11T14:08:12.036Z</time></trkpt><trkpt lat="44.765535" lon="9.0217833"><ele>526.75</ele><time>2026-04-11T14:08:13.036Z</time></trkpt><trkpt lat="44.7654817" lon="9.0216067"><ele>524.5</ele><time>2026-04-11T14:08:14.036Z</time></trkpt><trkpt lat="44.7654517" lon="9.0214433"><ele>522.25</ele><time>2026-04-11T14:08:15.036Z</time></trkpt><trkpt lat="44.765435" lon="9.021285"><ele>520.0</ele><time>2026-04-11T14:08:16.036Z</time></trkpt><trkpt lat="44.7654117" lon="9.0211433"><ele>520.0</ele><time>2026-04-11T14:08:17.035Z</time></trkpt><trkpt lat="44.76538" lon="9.0210117"><ele>520.0</ele><time>2026-04-11T14:08:18.036Z</time></trkpt><trkpt lat="44.7653367" lon="9.0209"><ele>520.0</ele><time>2026-04-11T14:08:19.036Z</time></trkpt><trkpt lat="44.7652867" lon="9.02079"><ele>520.0</ele><time>2026-04-11T14:08:20.036Z</time></trkpt><trkpt lat="44.765225" lon="9.0206817"><ele>520.0</ele><time>2026-04-11T14:08:21.036Z</time></trkpt><trkpt lat="44.7651533" lon="9.0205667"><ele>521.0</ele><time>2026-04-11T14:08:22.036Z</time></trkpt><trkpt lat="44.7650767" lon="9.0204483"><ele>522.0</ele><time>2026-04-11T14:08:23.036Z</time></trkpt><trkpt lat="44.7650067" lon="9.02034"><ele>523.0</ele><time>2026-04-11T14:08:24.036Z</time></trkpt><trkpt lat="44.76493" lon="9.02021"><ele>524.0</ele><time>2026-04-11T14:08:25.036Z</time></trkpt><trkpt lat="44.7648633" lon="9.0200567"><ele>520.5</ele><time>2026-04-11T14:08:26.036Z</time></trkpt><trkpt lat="44.7648033" lon="9.0199"><ele>517.0</ele><time>2026-04-11T14:08:27.036Z</time></trkpt><trkpt lat="44.764735" lon="9.0197533"><ele>513.5</ele><time>2026-04-11T14:08:28.036Z</time></trkpt><trkpt lat="44.7646767" lon="9.0196267"><ele>510.0</ele><time>2026-04-11T14:08:29.036Z</time></trkpt><trkpt lat="44.7646117" lon="9.0195067"><ele>510.0</ele><time>2026-04-11T14:08:30.036Z</time></trkpt><trkpt lat="44.764535" lon="9.019405"><ele>510.0</ele><time>2026-04-11T14:08:31.035Z</time></trkpt><trkpt lat="44.7644567" lon="9.0193117"><ele>510.0</ele><time>2026-04-11T14:08:32.035Z</time></trkpt><trkpt lat="44.76439" lon="9.01922"><ele>510.0</ele><time>2026-04-11T14:08:33.036Z</time></trkpt><trkpt lat="44.7643233" lon="9.0191417"><ele>510.0</ele><time>2026-04-11T14:08:34.036Z</time></trkpt><trkpt lat="44.7642567" lon="9.019055"><ele>511.8</ele><time>2026-04-11T14:08:35.036Z</time></trkpt><trkpt lat="44.7641933" lon="9.01894"><ele>513.6</ele><time>2026-04-11T14:08:36.036Z</time></trkpt><trkpt lat="44.7641417" lon="9.0188183"><ele>515.4</ele><time>2026-04-11T14:08:37.036Z</time></trkpt><trkpt lat="44.7641" lon="9.01869"><ele>517.2</ele><time>2026-04-11T14:08:38.036Z</time></trkpt><trkpt lat="44.7640683" lon="9.018555"><ele>519.0</ele><time>2026-04-11T14:08:39.035Z</time></trkpt><trkpt lat="44.76405" lon="9.0184167"><ele>515.0</ele><time>2026-04-11T14:08:40.036Z</time></trkpt><trkpt lat="44.76404" lon="9.0182833"><ele>511.0</ele><time>2026-04-11T14:08:41.035Z</time></trkpt><trkpt lat="44.7640267" lon="9.018155"><ele>507.0</ele><time>2026-04-11T14:08:42.036Z</time></trkpt><trkpt lat="44.7640083" lon="9.018045"><ele>503.0</ele><time>2026-04-11T14:08:43.036Z</time></trkpt><trkpt lat="44.7639233" lon="9.0179017"><ele>499.0</ele><time>2026-04-11T14:08:45.036Z</time></trkpt><trkpt lat="44.763845" lon="9.0178567"><ele>499.00000000000006</ele><time>2026-04-11T14:08:46.036Z</time></trkpt><trkpt lat="44.7637567" lon="9.01782"><ele>499.0</ele><time>2026-04-11T14:08:47.036Z</time></trkpt><trkpt lat="44.7636583" lon="9.0178167"><ele>499.0</ele><time>2026-04-11T14:08:48.036Z</time></trkpt><trkpt lat="44.763575" lon="9.017815"><ele>499.0</ele><time>2026-04-11T14:08:49.036Z</time></trkpt><trkpt lat="44.7635117" lon="9.0177867"><ele>499.00000000000006</ele><time>2026-04-11T14:08:50.036Z</time></trkpt><trkpt lat="44.7634533" lon="9.0176767"><ele>499.0</ele><time>2026-04-11T14:08:52.036Z</time></trkpt><trkpt lat="44.7634983" lon="9.0175833"><ele>499.0</ele><time>2026-04-11T14:08:54.036Z</time></trkpt><trkpt lat="44.7635867" lon="9.0175567"><ele>499.0</ele><time>2026-04-11T14:08:56.035Z</time></trkpt><trkpt lat="44.7636633" lon="9.0175667"><ele>499.0</ele><time>2026-04-11T14:08:58.036Z</time></trkpt><trkpt lat="44.76375" lon="9.017555"><ele>499.0</ele><time>2026-04-11T14:09:02.036Z</time></trkpt><trkpt lat="44.763845" lon="9.017545"><ele>499.0</ele><time>2026-04-11T14:09:04.035Z</time></trkpt><trkpt lat="44.763975" lon="9.0175417"><ele>499.00000000000006</ele><time>2026-04-11T14:09:06.036Z</time></trkpt><trkpt lat="44.7640533" lon="9.0175567"><ele>499.0</ele><time>2026-04-11T14:09:07.036Z</time></trkpt><trkpt lat="44.7641417" lon="9.0176"><ele>499.0</ele><time>2026-04-11T14:09:08.035Z</time></trkpt><trkpt lat="44.7642117" lon="9.017665"><ele>499.0</ele><time>2026-04-11T14:09:09.036Z</time></trkpt><trkpt lat="44.764275" lon="9.01775"><ele>499.00000000000006</ele><time>2026-04-11T14:09:10.036Z</time></trkpt><trkpt lat="44.764335" lon="9.01785"><ele>499.0</ele><time>2026-04-11T14:09:11.036Z</time></trkpt><trkpt lat="44.7643883" lon="9.0179533"><ele>498.6</ele><time>2026-04-11T14:09:12.036Z</time></trkpt><trkpt lat="44.7644533" lon="9.0180467"><ele>498.2</ele><time>2026-04-11T14:09:13.035Z</time></trkpt><trkpt lat="44.7645283" lon="9.0181367"><ele>497.80000000000007</ele><time>2026-04-11T14:09:14.036Z</time></trkpt><trkpt lat="44.76462" lon="9.018215"><ele>497.40000000000003</ele><time>2026-04-11T14:09:15.036Z</time></trkpt><trkpt lat="44.7647117" lon="9.0183017"><ele>497.0</ele><time>2026-04-11T14:09:16.036Z</time></trkpt><trkpt lat="44.76481" lon="9.0183783"><ele>497.0</ele><time>2026-04-11T14:09:17.036Z</time></trkpt><trkpt lat="44.7648983" lon="9.0184183"><ele>497.0</ele><time>2026-04-11T14:09:18.036Z</time></trkpt><trkpt lat="44.7649733" lon="9.0184383"><ele>497.0</ele><time>2026-04-11T14:09:19.036Z</time></trkpt><trkpt lat="44.76505" lon="9.0184567"><ele>497.0</ele><time>2026-04-11T14:09:20.036Z</time></trkpt><trkpt lat="44.7651183" lon="9.0184617"><ele>497.0</ele><time>2026-04-11T14:09:21.036Z</time></trkpt><trkpt lat="44.765185" lon="9.01845"><ele>497.0</ele><time>2026-04-11T14:09:22.035Z</time></trkpt><trkpt lat="44.765245" lon="9.018415"><ele>497.0</ele><time>2026-04-11T14:09:23.035Z</time></trkpt><trkpt lat="44.76531" lon="9.0183633"><ele>494.40000000000003</ele><time>2026-04-11T14:09:24.036Z</time></trkpt><trkpt lat="44.7653733" lon="9.018305"><ele>491.80000000000007</ele><time>2026-04-11T14:09:25.036Z</time></trkpt><trkpt lat="44.7654817" lon="9.0182417"><ele>489.2</ele><time>2026-04-11T14:09:27.036Z</time></trkpt><trkpt lat="44.7655633" lon="9.018215"><ele>486.6</ele><time>2026-04-11T14:09:29.035Z</time></trkpt><trkpt lat="44.7656817" lon="9.01827"><ele>484.0</ele><time>2026-04-11T14:09:31.036Z</time></trkpt><trkpt lat="44.7657583" lon="9.0183283"><ele>484.00000000000006</ele><time>2026-04-11T14:09:32.036Z</time></trkpt><trkpt lat="44.7658417" lon="9.0184"><ele>484.0</ele><time>2026-04-11T14:09:33.035Z</time></trkpt><trkpt lat="44.7659183" lon="9.0184733"><ele>484.0</ele><time>2026-04-11T14:09:34.036Z</time></trkpt><trkpt lat="44.7659933" lon="9.0185367"><ele>484.0</ele><time>2026-04-11T14:09:35.036Z</time></trkpt><trkpt lat="44.766065" lon="9.01857"><ele>484.00000000000006</ele><time>2026-04-11T14:09:36.036Z</time></trkpt><trkpt lat="44.76614" lon="9.0185867"><ele>484.0</ele><time>2026-04-11T14:09:37.036Z</time></trkpt><trkpt lat="44.7662267" lon="9.0185817"><ele>482.6666666666667</ele><time>2026-04-11T14:09:38.036Z</time></trkpt><trkpt lat="44.7663117" lon="9.01855"><ele>481.33333333333337</ele><time>2026-04-11T14:09:39.036Z</time></trkpt><trkpt lat="44.7663883" lon="9.0184967"><ele>480.0</ele><time>2026-04-11T14:09:40.036Z</time></trkpt><trkpt lat="44.7664617" lon="9.0184367"><ele>478.66666666666663</ele><time>2026-04-11T14:09:41.036Z</time></trkpt><trkpt lat="44.7665317" lon="9.018405"><ele>477.3333333333333</ele><time>2026-04-11T14:09:42.036Z</time></trkpt><trkpt lat="44.7666083" lon="9.0183917"><ele>476.0</ele><time>2026-04-11T14:09:43.035Z</time></trkpt><trkpt lat="44.7666733" lon="9.0183883"><ele>476.0</ele><time>2026-04-11T14:09:44.036Z</time></trkpt><trkpt lat="44.7667683" lon="9.0183667"><ele>476.0</ele><time>2026-04-11T14:09:46.036Z</time></trkpt><trkpt lat="44.76678" lon="9.0182767"><ele>476.0</ele><time>2026-04-11T14:09:48.036Z</time></trkpt><trkpt lat="44.76672" lon="9.0181633"><ele>476.0</ele><time>2026-04-11T14:09:50.035Z</time></trkpt><trkpt lat="44.766615" lon="9.018065"><ele>476.0</ele><time>2026-04-11T14:09:52.036Z</time></trkpt><trkpt lat="44.7665467" lon="9.018015"><ele>472.8333333333333</ele><time>2026-04-11T14:09:53.036Z</time></trkpt><trkpt lat="44.766475" lon="9.017955"><ele>469.66666666666663</ele><time>2026-04-11T14:09:54.036Z</time></trkpt><trkpt lat="44.7664067" lon="9.017885"><ele>466.5</ele><time>2026-04-11T14:09:55.036Z</time></trkpt><trkpt lat="44.7663417" lon="9.0177917"><ele>463.33333333333337</ele><time>2026-04-11T14:09:56.036Z</time></trkpt><trkpt lat="44.7663033" lon="9.0176867"><ele>460.1666666666667</ele><time>2026-04-11T14:09:57.036Z</time></trkpt><trkpt lat="44.7662783" lon="9.017565"><ele>457.0</ele><time>2026-04-11T14:09:58.036Z</time></trkpt><trkpt lat="44.7662633" lon="9.0174517"><ele>454.33333333333337</ele><time>2026-04-11T14:09:59.035Z</time></trkpt><trkpt lat="44.7662567" lon="9.0173583"><ele>451.6666666666667</ele><time>2026-04-11T14:10:00.036Z</time></trkpt><trkpt lat="44.7662517" lon="9.0172533"><ele>449.0</ele><time>2026-04-11T14:10:01.036Z</time></trkpt><trkpt lat="44.766245" lon="9.0171533"><ele>446.33333333333337</ele><time>2026-04-11T14:10:02.036Z</time></trkpt><trkpt lat="44.7662133" lon="9.0170383"><ele>443.6666666666667</ele><time>2026-04-11T14:10:03.036Z</time></trkpt><trkpt lat="44.7661783" lon="9.0169283"><ele>441.0</ele><time>2026-04-11T14:10:04.035Z</time></trkpt><trkpt lat="44.7661283" lon="9.0168267"><ele>441.0</ele><time>2026-04-11T14:10:05.036Z</time></trkpt><trkpt lat="44.766065" lon="9.016725"><ele>441.0</ele><time>2026-04-11T14:10:06.036Z</time></trkpt><trkpt lat="44.766" lon="9.016625"><ele>441.0</ele><time>2026-04-11T14:10:07.036Z</time></trkpt><trkpt lat="44.76593" lon="9.01653"><ele>441.0</ele><time>2026-04-11T14:10:08.036Z</time></trkpt><trkpt lat="44.7658567" lon="9.016435"><ele>441.0</ele><time>2026-04-11T14:10:09.036Z</time></trkpt><trkpt lat="44.7657783" lon="9.0163383"><ele>439.6666666666667</ele><time>2026-04-11T14:10:10.036Z</time></trkpt><trkpt lat="44.76571" lon="9.01625"><ele>438.33333333333337</ele><time>2026-04-11T14:10:11.036Z</time></trkpt><trkpt lat="44.7656517" lon="9.0161817"><ele>437.0</ele><time>2026-04-11T14:10:12.036Z</time></trkpt><trkpt lat="44.7655933" lon="9.0160683"><ele>435.6666666666667</ele><time>2026-04-11T14:10:14.036Z</time></trkpt><trkpt lat="44.7656033" lon="9.0159733"><ele>434.33333333333337</ele><time>2026-04-11T14:10:16.035Z</time></trkpt><trkpt lat="44.7656883" lon="9.0158967"><ele>433.0</ele><time>2026-04-11T14:10:18.036Z</time></trkpt><trkpt lat="44.76582" lon="9.0158633"><ele>433.00000000000006</ele><time>2026-04-11T14:10:20.036Z</time></trkpt><trkpt lat="44.7659117" lon="9.0158683"><ele>433.0</ele><time>2026-04-11T14:10:21.035Z</time></trkpt><trkpt lat="44.7660067" lon="9.0158867"><ele>433.0</ele><time>2026-04-11T14:10:22.035Z</time></trkpt><trkpt lat="44.7660883" lon="9.0159283"><ele>433.0</ele><time>2026-04-11T14:10:23.036Z</time></trkpt><trkpt lat="44.7661583" lon="9.0159767"><ele>433.00000000000006</ele><time>2026-04-11T14:10:24.035Z</time></trkpt><trkpt lat="44.7662267" lon="9.0160317"><ele>433.0</ele><time>2026-04-11T14:10:25.035Z</time></trkpt><trkpt lat="44.7662883" lon="9.0160817"><ele>430.50000000000006</ele><time>2026-04-11T14:10:26.036Z</time></trkpt><trkpt lat="44.7663767" lon="9.0161267"><ele>428.0</ele><time>2026-04-11T14:10:28.036Z</time></trkpt><trkpt lat="44.76644" lon="9.0161017"><ele>425.5</ele><time>2026-04-11T14:10:30.036Z</time></trkpt><trkpt lat="44.7664417" lon="9.015985"><ele>423.0</ele><time>2026-04-11T14:10:32.036Z</time></trkpt><trkpt lat="44.766415" lon="9.0159033"><ele>420.50000000000006</ele><time>2026-04-11T14:10:33.036Z</time></trkpt><trkpt lat="44.76639" lon="9.0158217"><ele>418.0</ele><time>2026-04-11T14:10:34.036Z</time></trkpt><trkpt lat="44.7663433" lon="9.01572"><ele>413.75</ele><time>2026-04-11T14:10:35.036Z</time></trkpt><trkpt lat="44.7662783" lon="9.0156083"><ele>409.5</ele><time>2026-04-11T14:10:36.036Z</time></trkpt><trkpt lat="44.766205" lon="9.0155"><ele>405.25</ele><time>2026-04-11T14:10:37.036Z</time></trkpt><trkpt lat="44.766125" lon="9.0153783"><ele>401.0</ele><time>2026-04-11T14:10:38.036Z</time></trkpt><trkpt lat="44.7660417" lon="9.015245"><ele>398.25</ele><time>2026-04-11T14:10:39.036Z</time></trkpt><trkpt lat="44.7659483" lon="9.0151217"><ele>395.5</ele><time>2026-04-11T14:10:40.036Z</time></trkpt><trkpt lat="44.7658383" lon="9.0150067"><ele>392.75</ele><time>2026-04-11T14:10:41.036Z</time></trkpt><trkpt lat="44.765735" lon="9.0149333"><ele>390.0</ele><time>2026-04-11T14:10:42.036Z</time></trkpt><trkpt lat="44.7656367" lon="9.0148917"><ele>390.0</ele><time>2026-04-11T14:10:43.036Z</time></trkpt><trkpt lat="44.7655483" lon="9.014825"><ele>390.0</ele><time>2026-04-11T14:10:44.036Z</time></trkpt><trkpt lat="44.7654667" lon="9.0147767"><ele>390.0</ele><time>2026-04-11T14:10:45.036Z</time></trkpt><trkpt lat="44.7653983" lon="9.01475"><ele>390.0</ele><time>2026-04-11T14:10:46.036Z</time></trkpt><trkpt lat="44.7652767" lon="9.0147867"><ele>390.0</ele><time>2026-04-11T14:10:48.036Z</time></trkpt><trkpt lat="44.765215" lon="9.014825"><ele>390.0</ele><time>2026-04-11T14:10:49.036Z</time></trkpt><trkpt lat="44.7651533" lon="9.0148783"><ele>390.0</ele><time>2026-04-11T14:10:50.036Z</time></trkpt><trkpt lat="44.7651033" lon="9.0149517"><ele>390.0</ele><time>2026-04-11T14:10:51.036Z</time></trkpt><trkpt lat="44.7650633" lon="9.015025"><ele>390.0</ele><time>2026-04-11T14:10:52.036Z</time></trkpt><trkpt lat="44.7649917" lon="9.0151367"><ele>390.0</ele><time>2026-04-11T14:10:54.036Z</time></trkpt><trkpt lat="44.7649167" lon="9.0150867"><ele>390.0</ele><time>2026-04-11T14:10:57.035Z</time></trkpt><trkpt lat="44.7648717" lon="9.0149817"><ele>390.0</ele><time>2026-04-11T14:10:58.036Z</time></trkpt><trkpt lat="44.7648383" lon="9.014845"><ele>390.0</ele><time>2026-04-11T14:10:59.036Z</time></trkpt><trkpt lat="44.7648" lon="9.0147"><ele>390.0</ele><time>2026-04-11T14:11:00.035Z</time></trkpt><trkpt lat="44.7647633" lon="9.014545"><ele>390.0</ele><time>2026-04-11T14:11:01.036Z</time></trkpt><trkpt lat="44.7647283" lon="9.014405"><ele>390.0</ele><time>2026-04-11T14:11:02.036Z</time></trkpt><trkpt lat="44.7646967" lon="9.0142667"><ele>387.4</ele><time>2026-04-11T14:11:03.036Z</time></trkpt><trkpt lat="44.7646567" lon="9.0141433"><ele>384.8</ele><time>2026-04-11T14:11:04.036Z</time></trkpt><trkpt lat="44.7646217" lon="9.0140267"><ele>382.20000000000005</ele><time>2026-04-11T14:11:05.036Z</time></trkpt><trkpt lat="44.76457" lon="9.0139083"><ele>379.6</ele><time>2026-04-11T14:11:06.036Z</time></trkpt><trkpt lat="44.76452" lon="9.013775"><ele>377.0</ele><time>2026-04-11T14:11:07.036Z</time></trkpt><trkpt lat="44.7644667" lon="9.0136433"><ele>377.0</ele><time>2026-04-11T14:11:08.036Z</time></trkpt><trkpt lat="44.7644067" lon="9.0135083"><ele>377.0</ele><time>2026-04-11T14:11:09.035Z</time></trkpt><trkpt lat="44.7643333" lon="9.0133767"><ele>377.0</ele><time>2026-04-11T14:11:10.036Z</time></trkpt><trkpt lat="44.7642617" lon="9.0132583"><ele>377.0</ele><time>2026-04-11T14:11:11.035Z</time></trkpt><trkpt lat="44.7642" lon="9.0131583"><ele>377.0</ele><time>2026-04-11T14:11:12.035Z</time></trkpt><trkpt lat="44.7641533" lon="9.0130683"><ele>377.8</ele><time>2026-04-11T14:11:13.035Z</time></trkpt><trkpt lat="44.7641183" lon="9.0129383"><ele>378.6</ele><time>2026-04-11T14:11:15.036Z</time></trkpt><trkpt lat="44.764175" lon="9.012865"><ele>379.40000000000003</ele><time>2026-04-11T14:11:17.036Z</time></trkpt><trkpt lat="44.7642917" lon="9.0128483"><ele>380.20000000000005</ele><time>2026-04-11T14:11:19.036Z</time></trkpt><trkpt lat="44.764385" lon="9.0128767"><ele>381.0</ele><time>2026-04-11T14:11:20.036Z</time></trkpt><trkpt lat="44.76449" lon="9.0129167"><ele>379.4</ele><time>2026-04-11T14:11:21.036Z</time></trkpt><trkpt lat="44.764615" lon="9.0129433"><ele>377.8</ele><time>2026-04-11T14:11:22.035Z</time></trkpt><trkpt lat="44.76473" lon="9.0129567"><ele>376.2</ele><time>2026-04-11T14:11:23.036Z</time></trkpt><trkpt lat="44.76483" lon="9.0129567"><ele>374.59999999999997</ele><time>2026-04-11T14:11:24.036Z</time></trkpt><trkpt lat="44.7649167" lon="9.0129267"><ele>373.0</ele><time>2026-04-11T14:11:25.035Z</time></trkpt><trkpt lat="44.764995" lon="9.0128767"><ele>373.0</ele><time>2026-04-11T14:11:26.036Z</time></trkpt><trkpt lat="44.7650633" lon="9.012815"><ele>373.0</ele><time>2026-04-11T14:11:27.036Z</time></trkpt><trkpt lat="44.7651267" lon="9.0127517"><ele>373.0</ele><time>2026-04-11T14:11:28.036Z</time></trkpt><trkpt lat="44.7651783" lon="9.0126967"><ele>373.0</ele><time>2026-04-11T14:11:29.036Z</time></trkpt><trkpt lat="44.76523" lon="9.0126367"><ele>373.0</ele><time>2026-04-11T14:11:30.036Z</time></trkpt><trkpt lat="44.76535" lon="9.012575"><ele>373.0</ele><time>2026-04-11T14:11:32.036Z</time></trkpt><trkpt lat="44.7654183" lon="9.0125633"><ele>372.0</ele><time>2026-04-11T14:11:33.036Z</time></trkpt><trkpt lat="44.76549" lon="9.0125683"><ele>371.0</ele><time>2026-04-11T14:11:34.036Z</time></trkpt><trkpt lat="44.765565" lon="9.012605"><ele>370.0</ele><time>2026-04-11T14:11:35.036Z</time></trkpt><trkpt lat="44.76564" lon="9.0126633"><ele>369.0</ele><time>2026-04-11T14:11:36.036Z</time></trkpt><trkpt lat="44.76571" lon="9.0127017"><ele>368.0</ele><time>2026-04-11T14:11:37.036Z</time></trkpt><trkpt lat="44.7657783" lon="9.0127233"><ele>367.0</ele><time>2026-04-11T14:11:38.035Z</time></trkpt><trkpt lat="44.7658533" lon="9.0127417"><ele>367.0</ele><time>2026-04-11T14:11:39.036Z</time></trkpt><trkpt lat="44.7659433" lon="9.0127417"><ele>367.0</ele><time>2026-04-11T14:11:40.036Z</time></trkpt><trkpt lat="44.7660417" lon="9.0127267"><ele>367.0</ele><time>2026-04-11T14:11:41.036Z</time></trkpt><trkpt lat="44.7661433" lon="9.0127167"><ele>367.0</ele><time>2026-04-11T14:11:42.035Z</time></trkpt><trkpt lat="44.76625" lon="9.0127117"><ele>367.0</ele><time>2026-04-11T14:11:43.036Z</time></trkpt><trkpt lat="44.766355" lon="9.0127217"><ele>368.20000000000005</ele><time>2026-04-11T14:11:44.035Z</time></trkpt><trkpt lat="44.7664633" lon="9.012765"><ele>369.4</ele><time>2026-04-11T14:11:45.036Z</time></trkpt><trkpt lat="44.766555" lon="9.0128133"><ele>370.6</ele><time>2026-04-11T14:11:46.036Z</time></trkpt><trkpt lat="44.766655" lon="9.0128733"><ele>371.79999999999995</ele><time>2026-04-11T14:11:47.036Z</time></trkpt><trkpt lat="44.766755" lon="9.0129333"><ele>373.0</ele><time>2026-04-11T14:11:48.036Z</time></trkpt><trkpt lat="44.7668567" lon="9.01299"><ele>373.79999999999995</ele><time>2026-04-11T14:11:49.035Z</time></trkpt><trkpt lat="44.7669567" lon="9.0130533"><ele>374.6</ele><time>2026-04-11T14:11:50.036Z</time></trkpt><trkpt lat="44.7670583" lon="9.0131"><ele>375.4</ele><time>2026-04-11T14:11:51.035Z</time></trkpt><trkpt lat="44.7671683" lon="9.0131317"><ele>376.20000000000005</ele><time>2026-04-11T14:11:52.036Z</time></trkpt><trkpt lat="44.7672733" lon="9.0131933"><ele>377.0</ele><time>2026-04-11T14:11:53.036Z</time></trkpt><trkpt lat="44.7673833" lon="9.0132517"><ele>377.0</ele><time>2026-04-11T14:11:54.036Z</time></trkpt><trkpt lat="44.7674967" lon="9.0133"><ele>377.0</ele><time>2026-04-11T14:11:55.035Z</time></trkpt><trkpt lat="44.76761" lon="9.01335"><ele>377.0</ele><time>2026-04-11T14:11:56.036Z</time></trkpt><trkpt lat="44.76773" lon="9.01341"><ele>377.0</ele><time>2026-04-11T14:11:57.036Z</time></trkpt><trkpt lat="44.7678533" lon="9.013455"><ele>370.75</ele><time>2026-04-11T14:11:58.036Z</time></trkpt><trkpt lat="44.7679767" lon="9.0134917"><ele>364.5</ele><time>2026-04-11T14:11:59.036Z</time></trkpt><trkpt lat="44.7681033" lon="9.0135183"><ele>358.25</ele><time>2026-04-11T14:12:00.036Z</time></trkpt><trkpt lat="44.76823" lon="9.0135483"><ele>352.0</ele><time>2026-04-11T14:12:01.036Z</time></trkpt><trkpt lat="44.7683533" lon="9.01357"><ele>352.0</ele><time>2026-04-11T14:12:02.036Z</time></trkpt><trkpt lat="44.7684617" lon="9.013575"><ele>352.0</ele><time>2026-04-11T14:12:03.036Z</time></trkpt><trkpt lat="44.7685783" lon="9.013555"><ele>352.0</ele><time>2026-04-11T14:12:04.035Z</time></trkpt><trkpt lat="44.768695" lon="9.0135383"><ele>352.0</ele><time>2026-04-11T14:12:05.036Z</time></trkpt><trkpt lat="44.7688133" lon="9.0135"><ele>351.0</ele><time>2026-04-11T14:12:06.036Z</time></trkpt><trkpt lat="44.76893" lon="9.0134517"><ele>350.0</ele><time>2026-04-11T14:12:07.036Z</time></trkpt><trkpt lat="44.7690433" lon="9.0133983"><ele>349.0</ele><time>2026-04-11T14:12:08.035Z</time></trkpt><trkpt lat="44.769155" lon="9.0133483"><ele>348.0</ele><time>2026-04-11T14:12:09.036Z</time></trkpt><trkpt lat="44.7692683" lon="9.01329"><ele>346.59999999999997</ele><time>2026-04-11T14:12:10.036Z</time></trkpt><trkpt lat="44.7693733" lon="9.01323"><ele>345.2</ele><time>2026-04-11T14:12:11.036Z</time></trkpt><trkpt lat="44.7694817" lon="9.013165"><ele>343.8</ele><time>2026-04-11T14:12:12.035Z</time></trkpt><trkpt lat="44.769575" lon="9.013095"><ele>342.4</ele><time>2026-04-11T14:12:13.036Z</time></trkpt><trkpt lat="44.7696617" lon="9.0130233"><ele>341.0</ele><time>2026-04-11T14:12:14.036Z</time></trkpt><trkpt lat="44.7697283" lon="9.0129483"><ele>341.0</ele><time>2026-04-11T14:12:15.036Z</time></trkpt><trkpt lat="44.7697783" lon="9.0128767"><ele>341.0</ele><time>2026-04-11T14:12:16.036Z</time></trkpt><trkpt lat="44.7698183" lon="9.012805"><ele>341.0</ele><time>2026-04-11T14:12:17.036Z</time></trkpt><trkpt lat="44.7698483" lon="9.0127167"><ele>341.0</ele><time>2026-04-11T14:12:18.036Z</time></trkpt><trkpt lat="44.769875" lon="9.0126133"><ele>341.0</ele><time>2026-04-11T14:12:19.036Z</time></trkpt><trkpt lat="44.7699" lon="9.01251"><ele>341.0</ele><time>2026-04-11T14:12:20.036Z</time></trkpt><trkpt lat="44.7699367" lon="9.0124017"><ele>341.0</ele><time>2026-04-11T14:12:21.036Z</time></trkpt><trkpt lat="44.7699867" lon="9.0122767"><ele>340.6</ele><time>2026-04-11T14:12:22.035Z</time></trkpt><trkpt lat="44.7700167" lon="9.01219"><ele>340.20000000000005</ele><time>2026-04-11T14:12:23.036Z</time></trkpt><trkpt lat="44.7700783" lon="9.0120517"><ele>339.79999999999995</ele><time>2026-04-11T14:12:24.036Z</time></trkpt><trkpt lat="44.7701417" lon="9.01191"><ele>339.4</ele><time>2026-04-11T14:12:25.035Z</time></trkpt><trkpt lat="44.7702033" lon="9.0117767"><ele>339.0</ele><time>2026-04-11T14:12:26.035Z</time></trkpt><trkpt lat="44.7702733" lon="9.0116433"><ele>339.0</ele><time>2026-04-11T14:12:27.035Z</time></trkpt><trkpt lat="44.7703533" lon="9.0115217"><ele>339.0</ele><time>2026-04-11T14:12:28.034Z</time></trkpt><trkpt lat="44.77043" lon="9.0113883"><ele>339.0</ele><time>2026-04-11T14:12:29.035Z</time></trkpt><trkpt lat="44.7704983" lon="9.01126"><ele>339.0</ele><time>2026-04-11T14:12:30.035Z</time></trkpt><trkpt lat="44.77057" lon="9.0111267"><ele>339.0</ele><time>2026-04-11T14:12:31.035Z</time></trkpt><trkpt lat="44.7706383" lon="9.0109933"><ele>339.0</ele><time>2026-04-11T14:12:32.034Z</time></trkpt><trkpt lat="44.7707117" lon="9.0108617"><ele>339.0</ele><time>2026-04-11T14:12:33.035Z</time></trkpt><trkpt lat="44.7707833" lon="9.0107267"><ele>339.0</ele><time>2026-04-11T14:12:34.035Z</time></trkpt><trkpt lat="44.7708567" lon="9.0105967"><ele>337.79999999999995</ele><time>2026-04-11T14:12:35.035Z</time></trkpt><trkpt lat="44.770925" lon="9.01047"><ele>336.59999999999997</ele><time>2026-04-11T14:12:36.035Z</time></trkpt><trkpt lat="44.770995" lon="9.0103417"><ele>335.4</ele><time>2026-04-11T14:12:37.035Z</time></trkpt><trkpt lat="44.7710683" lon="9.0102233"><ele>334.2</ele><time>2026-04-11T14:12:38.035Z</time></trkpt><trkpt lat="44.77114" lon="9.0101067"><ele>333.0</ele><time>2026-04-11T14:12:39.035Z</time></trkpt><trkpt lat="44.7712183" lon="9.0099883"><ele>331.79999999999995</ele><time>2026-04-11T14:12:40.035Z</time></trkpt><trkpt lat="44.7712967" lon="9.0098783"><ele>330.6</ele><time>2026-04-11T14:12:41.035Z</time></trkpt><trkpt lat="44.7713817" lon="9.0097783"><ele>329.4</ele><time>2026-04-11T14:12:42.035Z</time></trkpt><trkpt lat="44.771465" lon="9.0096883"><ele>328.20000000000005</ele><time>2026-04-11T14:12:43.035Z</time></trkpt><trkpt lat="44.7715467" lon="9.0096167"><ele>327.0</ele><time>2026-04-11T14:12:44.035Z</time></trkpt><trkpt lat="44.7716317" lon="9.00956"><ele>327.0</ele><time>2026-04-11T14:12:45.034Z</time></trkpt><trkpt lat="44.77171" lon="9.0095133"><ele>327.0</ele><time>2026-04-11T14:12:46.035Z</time></trkpt><trkpt lat="44.7717733" lon="9.009465"><ele>327.0</ele><time>2026-04-11T14:12:47.035Z</time></trkpt><trkpt lat="44.771815" lon="9.0093967"><ele>327.0</ele><time>2026-04-11T14:12:48.035Z</time></trkpt><trkpt lat="44.7718583" lon="9.0092783"><ele>327.0</ele><time>2026-04-11T14:12:50.035Z</time></trkpt><trkpt lat="44.771905" lon="9.0092"><ele>327.0</ele><time>2026-04-11T14:12:52.035Z</time></trkpt><trkpt lat="44.7720083" lon="9.00919"><ele>326.20000000000005</ele><time>2026-04-11T14:12:54.035Z</time></trkpt><trkpt lat="44.7720767" lon="9.0092"><ele>325.4</ele><time>2026-04-11T14:12:55.034Z</time></trkpt><trkpt lat="44.7721617" lon="9.0092133"><ele>324.6</ele><time>2026-04-11T14:12:56.035Z</time></trkpt><trkpt lat="44.7722517" lon="9.0092217"><ele>323.79999999999995</ele><time>2026-04-11T14:12:57.035Z</time></trkpt><trkpt lat="44.77235" lon="9.0092283"><ele>323.0</ele><time>2026-04-11T14:12:58.034Z</time></trkpt><trkpt lat="44.7724567" lon="9.0092383"><ele>323.0</ele><time>2026-04-11T14:12:59.035Z</time></trkpt><trkpt lat="44.7725717" lon="9.0092467"><ele>323.0</ele><time>2026-04-11T14:13:00.034Z</time></trkpt><trkpt lat="44.7726767" lon="9.00925"><ele>323.0</ele><time>2026-04-11T14:13:01.035Z</time></trkpt><trkpt lat="44.7727867" lon="9.0092717"><ele>323.0</ele><time>2026-04-11T14:13:02.035Z</time></trkpt><trkpt lat="44.7729017" lon="9.009315"><ele>323.75</ele><time>2026-04-11T14:13:03.035Z</time></trkpt><trkpt lat="44.7730283" lon="9.0093617"><ele>324.5</ele><time>2026-04-11T14:13:04.035Z</time></trkpt><trkpt lat="44.7731583" lon="9.0094"><ele>325.25</ele><time>2026-04-11T14:13:05.034Z</time></trkpt><trkpt lat="44.7732867" lon="9.0094483"><ele>326.0</ele><time>2026-04-11T14:13:06.035Z</time></trkpt><trkpt lat="44.7734167" lon="9.0095017"><ele>326.25</ele><time>2026-04-11T14:13:07.035Z</time></trkpt><trkpt lat="44.77355" lon="9.0095567"><ele>326.5</ele><time>2026-04-11T14:13:08.035Z</time></trkpt><trkpt lat="44.7736767" lon="9.0096217"><ele>326.75</ele><time>2026-04-11T14:13:09.035Z</time></trkpt><trkpt lat="44.7737933" lon="9.0096867"><ele>327.0</ele><time>2026-04-11T14:13:10.035Z</time></trkpt><trkpt lat="44.77392" lon="9.009775"><ele>327.0</ele><time>2026-04-11T14:13:11.035Z</time></trkpt><trkpt lat="44.7740417" lon="9.00988"><ele>327.0</ele><time>2026-04-11T14:13:12.035Z</time></trkpt><trkpt lat="44.774155" lon="9.01"><ele>327.0</ele><time>2026-04-11T14:13:13.035Z</time></trkpt><trkpt lat="44.7742683" lon="9.01012"><ele>327.0</ele><time>2026-04-11T14:13:14.035Z</time></trkpt><trkpt lat="44.774385" lon="9.010225"><ele>324.25</ele><time>2026-04-11T14:13:15.034Z</time></trkpt><trkpt lat="44.77451" lon="9.01031"><ele>321.5</ele><time>2026-04-11T14:13:16.034Z</time></trkpt><trkpt lat="44.7746367" lon="9.0103883"><ele>318.75</ele><time>2026-04-11T14:13:17.034Z</time></trkpt><trkpt lat="44.7747533" lon="9.01046"><ele>316.0</ele><time>2026-04-11T14:13:18.034Z</time></trkpt><trkpt lat="44.7748833" lon="9.0105117"><ele>316.0</ele><time>2026-04-11T14:13:19.035Z</time></trkpt><trkpt lat="44.7750017" lon="9.0105567"><ele>316.0</ele><time>2026-04-11T14:13:20.034Z</time></trkpt><trkpt lat="44.77513" lon="9.0106067"><ele>316.0</ele><time>2026-04-11T14:13:21.035Z</time></trkpt><trkpt lat="44.77524" lon="9.0106467"><ele>316.0</ele><time>2026-04-11T14:13:22.035Z</time></trkpt><trkpt lat="44.7753283" lon="9.01068"><ele>316.16666666666663</ele><time>2026-04-11T14:13:23.034Z</time></trkpt><trkpt lat="44.7754067" lon="9.0107067"><ele>316.3333333333333</ele><time>2026-04-11T14:13:24.035Z</time></trkpt><trkpt lat="44.7754717" lon="9.01072"><ele>316.5</ele><time>2026-04-11T14:13:25.035Z</time></trkpt><trkpt lat="44.775575" lon="9.0107367"><ele>316.6666666666667</ele><time>2026-04-11T14:13:27.035Z</time></trkpt><trkpt lat="44.7756483" lon="9.0107517"><ele>316.83333333333337</ele><time>2026-04-11T14:13:29.035Z</time></trkpt><trkpt lat="44.775735" lon="9.01077"><ele>317.0</ele><time>2026-04-11T14:13:31.034Z</time></trkpt><trkpt lat="44.7757983" lon="9.0107767"><ele>317.0</ele><time>2026-04-11T14:13:32.035Z</time></trkpt><trkpt lat="44.7758717" lon="9.01079"><ele>317.0</ele><time>2026-04-11T14:13:33.034Z</time></trkpt><trkpt lat="44.7759533" lon="9.0108083"><ele>317.0</ele><time>2026-04-11T14:13:34.035Z</time></trkpt><trkpt lat="44.77605" lon="9.01083"><ele>317.0</ele><time>2026-04-11T14:13:35.035Z</time></trkpt><trkpt lat="44.7761583" lon="9.010855"><ele>317.0</ele><time>2026-04-11T14:13:36.035Z</time></trkpt><trkpt lat="44.7762733" lon="9.0108733"><ele>315.0</ele><time>2026-04-11T14:13:37.035Z</time></trkpt><trkpt lat="44.7763933" lon="9.0108883"><ele>313.0</ele><time>2026-04-11T14:13:38.035Z</time></trkpt><trkpt lat="44.7765233" lon="9.0109"><ele>311.0</ele><time>2026-04-11T14:13:39.035Z</time></trkpt><trkpt lat="44.7766517" lon="9.0109217"><ele>309.0</ele><time>2026-04-11T14:13:40.035Z</time></trkpt><trkpt lat="44.77678" lon="9.0109583"><ele>307.75</ele><time>2026-04-11T14:13:41.035Z</time></trkpt><trkpt lat="44.77691" lon="9.011"><ele>306.5</ele><time>2026-04-11T14:13:42.035Z</time></trkpt><trkpt lat="44.777045" lon="9.0110567"><ele>305.25</ele><time>2026-04-11T14:13:43.035Z</time></trkpt><trkpt lat="44.77718" lon="9.0111117"><ele>304.0</ele><time>2026-04-11T14:13:44.035Z</time></trkpt><trkpt lat="44.7773217" lon="9.011155"><ele>304.0</ele><time>2026-04-11T14:13:45.035Z</time></trkpt><trkpt lat="44.7774533" lon="9.0111933"><ele>304.0</ele><time>2026-04-11T14:13:46.035Z</time></trkpt><trkpt lat="44.7775967" lon="9.01123"><ele>304.0</ele><time>2026-04-11T14:13:47.034Z</time></trkpt><trkpt lat="44.7777367" lon="9.0112683"><ele>304.0</ele><time>2026-04-11T14:13:48.035Z</time></trkpt><trkpt lat="44.7778667" lon="9.011315"><ele>304.25</ele><time>2026-04-11T14:13:49.035Z</time></trkpt><trkpt lat="44.7779983" lon="9.0113617"><ele>304.5</ele><time>2026-04-11T14:13:50.035Z</time></trkpt><trkpt lat="44.7781233" lon="9.0114117"><ele>304.75</ele><time>2026-04-11T14:13:51.035Z</time></trkpt><trkpt lat="44.77824" lon="9.0114833"><ele>305.0</ele><time>2026-04-11T14:13:52.035Z</time></trkpt><trkpt lat="44.77836" lon="9.0115633"><ele>305.0</ele><time>2026-04-11T14:13:53.035Z</time></trkpt><trkpt lat="44.7784833" lon="9.0116483"><ele>305.0</ele><time>2026-04-11T14:13:54.035Z</time></trkpt><trkpt lat="44.7785967" lon="9.01173"><ele>305.0</ele><time>2026-04-11T14:13:55.035Z</time></trkpt><trkpt lat="44.7787083" lon="9.0118033"><ele>305.0</ele><time>2026-04-11T14:13:56.034Z</time></trkpt><trkpt lat="44.7788317" lon="9.0118683"><ele>302.75</ele><time>2026-04-11T14:13:57.035Z</time></trkpt><trkpt lat="44.7789483" lon="9.0119317"><ele>300.5</ele><time>2026-04-11T14:13:58.034Z</time></trkpt><trkpt lat="44.7790717" lon="9.0120033"><ele>298.25</ele><time>2026-04-11T14:13:59.034Z</time></trkpt><trkpt lat="44.7791883" lon="9.0120783"><ele>296.0</ele><time>2026-04-11T14:14:00.035Z</time></trkpt><trkpt lat="44.7793233" lon="9.0121483"><ele>296.0</ele><time>2026-04-11T14:14:01.035Z</time></trkpt><trkpt lat="44.77945" lon="9.012205"><ele>296.0</ele><time>2026-04-11T14:14:02.035Z</time></trkpt><trkpt lat="44.77956" lon="9.0122733"><ele>296.0</ele><time>2026-04-11T14:14:03.035Z</time></trkpt><trkpt lat="44.77969" lon="9.0123233"><ele>296.0</ele><time>2026-04-11T14:14:04.035Z</time></trkpt><trkpt lat="44.7798117" lon="9.0123683"><ele>296.0</ele><time>2026-04-11T14:14:05.035Z</time></trkpt><trkpt lat="44.779935" lon="9.0124033"><ele>296.0</ele><time>2026-04-11T14:14:06.035Z</time></trkpt><trkpt lat="44.78006" lon="9.0124383"><ele>296.0</ele><time>2026-04-11T14:14:07.035Z</time></trkpt><trkpt lat="44.7801883" lon="9.01247"><ele>296.0</ele><time>2026-04-11T14:14:08.035Z</time></trkpt><trkpt lat="44.7803083" lon="9.0124917"><ele>295.6</ele><time>2026-04-11T14:14:09.035Z</time></trkpt><trkpt lat="44.78043" lon="9.0125083"><ele>295.20000000000005</ele><time>2026-04-11T14:14:10.035Z</time></trkpt><trkpt lat="44.780545" lon="9.0125083"><ele>294.79999999999995</ele><time>2026-04-11T14:14:11.035Z</time></trkpt><trkpt lat="44.7806467" lon="9.0124833"><ele>294.4</ele><time>2026-04-11T14:14:12.035Z</time></trkpt><trkpt lat="44.7807367" lon="9.012445"><ele>294.0</ele><time>2026-04-11T14:14:13.035Z</time></trkpt><trkpt lat="44.78081" lon="9.0124"><ele>294.0</ele><time>2026-04-11T14:14:14.035Z</time></trkpt><trkpt lat="44.780905" lon="9.01234"><ele>294.0</ele><time>2026-04-11T14:14:16.035Z</time></trkpt><trkpt lat="44.78097" lon="9.0123767"><ele>294.0</ele><time>2026-04-11T14:14:19.035Z</time></trkpt><trkpt lat="44.7810117" lon="9.0124933"><ele>294.0</ele><time>2026-04-11T14:14:22.035Z</time></trkpt><trkpt lat="44.7810467" lon="9.0125767"><ele>294.0</ele><time>2026-04-11T14:14:25.035Z</time></trkpt><trkpt lat="44.7811333" lon="9.012585"><ele>294.0</ele><time>2026-04-11T14:14:28.034Z</time></trkpt><trkpt lat="44.781245" lon="9.0125183"><ele>293.0</ele><time>2026-04-11T14:14:30.035Z</time></trkpt><trkpt lat="44.7813133" lon="9.0124617"><ele>292.0</ele><time>2026-04-11T14:14:31.034Z</time></trkpt><trkpt lat="44.781385" lon="9.0123983"><ele>291.0</ele><time>2026-04-11T14:14:32.035Z</time></trkpt><trkpt lat="44.7814667" lon="9.0123333"><ele>290.0</ele><time>2026-04-11T14:14:33.035Z</time></trkpt><trkpt lat="44.7815583" lon="9.0122567"><ele>289.0</ele><time>2026-04-11T14:14:34.035Z</time></trkpt><trkpt lat="44.781655" lon="9.01218"><ele>289.0</ele><time>2026-04-11T14:14:35.035Z</time></trkpt><trkpt lat="44.7817533" lon="9.0121067"><ele>289.0</ele><time>2026-04-11T14:14:36.035Z</time></trkpt><trkpt lat="44.78185" lon="9.0120217"><ele>289.0</ele><time>2026-04-11T14:14:37.034Z</time></trkpt><trkpt lat="44.7819517" lon="9.01193"><ele>289.0</ele><time>2026-04-11T14:14:38.035Z</time></trkpt><trkpt lat="44.7820583" lon="9.0118367"><ele>289.25</ele><time>2026-04-11T14:14:39.035Z</time></trkpt><trkpt lat="44.78217" lon="9.0117417"><ele>289.5</ele><time>2026-04-11T14:14:40.035Z</time></trkpt><trkpt lat="44.782275" lon="9.011645"><ele>289.75</ele><time>2026-04-11T14:14:41.035Z</time></trkpt><trkpt lat="44.7823817" lon="9.011555"><ele>290.0</ele><time>2026-04-11T14:14:42.035Z</time></trkpt><trkpt lat="44.7824667" lon="9.0114633"><ele>290.0</ele><time>2026-04-11T14:14:43.035Z</time></trkpt><trkpt lat="44.7825567" lon="9.011355"><ele>290.0</ele><time>2026-04-11T14:14:44.035Z</time></trkpt><trkpt lat="44.7826467" lon="9.01125"><ele>290.0</ele><time>2026-04-11T14:14:45.035Z</time></trkpt><trkpt lat="44.7827183" lon="9.01113"><ele>290.0</ele><time>2026-04-11T14:14:46.035Z</time></trkpt><trkpt lat="44.782795" lon="9.0110033"><ele>293.25</ele><time>2026-04-11T14:14:47.035Z</time></trkpt><trkpt lat="44.7828717" lon="9.01086"><ele>296.5</ele><time>2026-04-11T14:14:48.035Z</time></trkpt><trkpt lat="44.78293" lon="9.0107067"><ele>299.75</ele><time>2026-04-11T14:14:49.035Z</time></trkpt><trkpt lat="44.782985" lon="9.0105517"><ele>303.0</ele><time>2026-04-11T14:14:50.035Z</time></trkpt><trkpt lat="44.7830417" lon="9.010405"><ele>303.0</ele><time>2026-04-11T14:14:51.035Z</time></trkpt><trkpt lat="44.7830817" lon="9.0102583"><ele>303.0</ele><time>2026-04-11T14:14:52.035Z</time></trkpt><trkpt lat="44.7831517" lon="9.010145"><ele>303.0</ele><time>2026-04-11T14:14:53.035Z</time></trkpt><trkpt lat="44.7832083" lon="9.0099983"><ele>303.0</ele><time>2026-04-11T14:14:54.035Z</time></trkpt><trkpt lat="44.7832767" lon="9.0098583"><ele>299.75</ele><time>2026-04-11T14:14:55.035Z</time></trkpt><trkpt lat="44.78334" lon="9.0097083"><ele>296.5</ele><time>2026-04-11T14:14:56.035Z</time></trkpt><trkpt lat="44.7834133" lon="9.0095633"><ele>293.25</ele><time>2026-04-11T14:14:57.035Z</time></trkpt><trkpt lat="44.7834383" lon="9.0093717"><ele>290.0</ele><time>2026-04-11T14:14:58.035Z</time></trkpt><trkpt lat="44.7834433" lon="9.0091617"><ele>288.6666666666667</ele><time>2026-04-11T14:14:59.035Z</time></trkpt><trkpt lat="44.78342" lon="9.0089317"><ele>287.3333333333333</ele><time>2026-04-11T14:15:00.035Z</time></trkpt><trkpt lat="44.78341" lon="9.008715"><ele>286.0</ele><time>2026-04-11T14:15:01.034Z</time></trkpt><trkpt lat="44.7834217" lon="9.0085167"><ele>286.0</ele><time>2026-04-11T14:15:02.035Z</time></trkpt><trkpt lat="44.7834383" lon="9.00833"><ele>286.0</ele><time>2026-04-11T14:15:03.035Z</time></trkpt><trkpt lat="44.7834883" lon="9.0081433"><ele>286.0</ele><time>2026-04-11T14:15:04.035Z</time></trkpt><trkpt lat="44.7835433" lon="9.0079483"><ele>286.0</ele><time>2026-04-11T14:15:05.034Z</time></trkpt><trkpt lat="44.7836" lon="9.0077633"><ele>285.25</ele><time>2026-04-11T14:15:06.035Z</time></trkpt><trkpt lat="44.78366" lon="9.0075667"><ele>284.5</ele><time>2026-04-11T14:15:07.035Z</time></trkpt><trkpt lat="44.7837167" lon="9.00739"><ele>283.75</ele><time>2026-04-11T14:15:08.035Z</time></trkpt><trkpt lat="44.7837867" lon="9.0072217"><ele>283.0</ele><time>2026-04-11T14:15:09.035Z</time></trkpt><trkpt lat="44.783875" lon="9.0070783"><ele>283.0</ele><time>2026-04-11T14:15:10.035Z</time></trkpt><trkpt lat="44.783975" lon="9.00695"><ele>283.0</ele><time>2026-04-11T14:15:11.035Z</time></trkpt><trkpt lat="44.7840883" lon="9.006825"><ele>283.0</ele><time>2026-04-11T14:15:12.034Z</time></trkpt><trkpt lat="44.78421" lon="9.006695"><ele>283.0</ele><time>2026-04-11T14:15:13.035Z</time></trkpt><trkpt lat="44.784345" lon="9.0065717"><ele>281.3333333333333</ele><time>2026-04-11T14:15:14.035Z</time></trkpt><trkpt lat="44.7844633" lon="9.0064417"><ele>279.6666666666667</ele><time>2026-04-11T14:15:15.035Z</time></trkpt><trkpt lat="44.7845917" lon="9.0062983"><ele>278.0</ele><time>2026-04-11T14:15:16.035Z</time></trkpt><trkpt lat="44.7847133" lon="9.0061483"><ele>278.0</ele><time>2026-04-11T14:15:17.035Z</time></trkpt><trkpt lat="44.7848383" lon="9.0060017"><ele>278.0</ele><time>2026-04-11T14:15:18.035Z</time></trkpt><trkpt lat="44.7849583" lon="9.005855"><ele>278.0</ele><time>2026-04-11T14:15:19.034Z</time></trkpt><trkpt lat="44.7850667" lon="9.0057183"><ele>278.0</ele><time>2026-04-11T14:15:20.035Z</time></trkpt><trkpt lat="44.785155" lon="9.0055817"><ele>278.0</ele><time>2026-04-11T14:15:21.035Z</time></trkpt><trkpt lat="44.785255" lon="9.0054617"><ele>278.0</ele><time>2026-04-11T14:15:22.035Z</time></trkpt><trkpt lat="44.7853583" lon="9.0053517"><ele>278.0</ele><time>2026-04-11T14:15:23.035Z</time></trkpt><trkpt lat="44.78547" lon="9.0052683"><ele>278.0</ele><time>2026-04-11T14:15:24.035Z</time></trkpt><trkpt lat="44.7855717" lon="9.0051933"><ele>278.0</ele><time>2026-04-11T14:15:25.035Z</time></trkpt><trkpt lat="44.7856767" lon="9.005115"><ele>278.0</ele><time>2026-04-11T14:15:26.035Z</time></trkpt><trkpt lat="44.785785" lon="9.0050333"><ele>278.0</ele><time>2026-04-11T14:15:27.035Z</time></trkpt><trkpt lat="44.7858983" lon="9.0049583"><ele>279.0</ele><time>2026-04-11T14:15:28.035Z</time></trkpt><trkpt lat="44.78601" lon="9.0048933"><ele>280.0</ele><time>2026-04-11T14:15:29.035Z</time></trkpt><trkpt lat="44.7861167" lon="9.0048367"><ele>281.0</ele><time>2026-04-11T14:15:30.035Z</time></trkpt><trkpt lat="44.78622" lon="9.00478"><ele>282.0</ele><time>2026-04-11T14:15:31.035Z</time></trkpt><trkpt lat="44.786345" lon="9.0047183"><ele>279.5</ele><time>2026-04-11T14:15:32.035Z</time></trkpt><trkpt lat="44.7864617" lon="9.0046567"><ele>277.0</ele><time>2026-04-11T14:15:33.035Z</time></trkpt><trkpt lat="44.7865767" lon="9.004595"><ele>274.5</ele><time>2026-04-11T14:15:34.035Z</time></trkpt><trkpt lat="44.7866833" lon="9.0045333"><ele>272.0</ele><time>2026-04-11T14:15:35.035Z</time></trkpt><trkpt lat="44.7868" lon="9.00447"><ele>272.0</ele><time>2026-04-11T14:15:36.035Z</time></trkpt><trkpt lat="44.786905" lon="9.004415"><ele>272.0</ele><time>2026-04-11T14:15:37.035Z</time></trkpt><trkpt lat="44.787015" lon="9.0043533"><ele>272.0</ele><time>2026-04-11T14:15:38.035Z</time></trkpt><trkpt lat="44.7871217" lon="9.0042933"><ele>272.0</ele><time>2026-04-11T14:15:39.035Z</time></trkpt><trkpt lat="44.787225" lon="9.0042283"><ele>271.6666666666667</ele><time>2026-04-11T14:15:40.035Z</time></trkpt><trkpt lat="44.7873033" lon="9.0041617"><ele>271.33333333333337</ele><time>2026-04-11T14:15:41.035Z</time></trkpt><trkpt lat="44.7873633" lon="9.0040833"><ele>271.0</ele><time>2026-04-11T14:15:42.035Z</time></trkpt><trkpt lat="44.7874233" lon="9.0039983"><ele>270.6666666666667</ele><time>2026-04-11T14:15:43.034Z</time></trkpt><trkpt lat="44.787485" lon="9.00392"><ele>270.3333333333333</ele><time>2026-04-11T14:15:44.034Z</time></trkpt><trkpt lat="44.7875583" lon="9.0038417"><ele>270.0</ele><time>2026-04-11T14:15:45.035Z</time></trkpt><trkpt lat="44.7876317" lon="9.00378"><ele>269.6666666666667</ele><time>2026-04-11T14:15:46.035Z</time></trkpt><trkpt lat="44.787705" lon="9.00373"><ele>269.3333333333333</ele><time>2026-04-11T14:15:47.035Z</time></trkpt><trkpt lat="44.7877833" lon="9.003615"><ele>269.0</ele><time>2026-04-11T14:15:49.035Z</time></trkpt><trkpt lat="44.787785" lon="9.0035117"><ele>268.66666666666663</ele><time>2026-04-11T14:15:51.035Z</time></trkpt><trkpt lat="44.7877417" lon="9.0034167"><ele>268.3333333333333</ele><time>2026-04-11T14:15:53.035Z</time></trkpt><trkpt lat="44.7877067" lon="9.00331"><ele>268.0</ele><time>2026-04-11T14:15:55.035Z</time></trkpt><trkpt lat="44.787685" lon="9.0031783"><ele>268.0</ele><time>2026-04-11T14:15:57.035Z</time></trkpt><trkpt lat="44.7876667" lon="9.0030267"><ele>268.0</ele><time>2026-04-11T14:15:59.035Z</time></trkpt><trkpt lat="44.7876483" lon="9.0029017"><ele>268.0</ele><time>2026-04-11T14:16:01.035Z</time></trkpt><trkpt lat="44.7876767" lon="9.00282"><ele>268.0</ele><time>2026-04-11T14:16:03.035Z</time></trkpt><trkpt lat="44.7877533" lon="9.002785"><ele>268.0</ele><time>2026-04-11T14:16:05.035Z</time></trkpt><trkpt lat="44.7878683" lon="9.0027783"><ele>268.0</ele><time>2026-04-11T14:16:07.035Z</time></trkpt><trkpt lat="44.7879417" lon="9.0027767"><ele>268.0</ele><time>2026-04-11T14:16:08.035Z</time></trkpt><trkpt lat="44.7880267" lon="9.0027783"><ele>268.0</ele><time>2026-04-11T14:16:09.035Z</time></trkpt><trkpt lat="44.7881267" lon="9.0027783"><ele>268.0</ele><time>2026-04-11T14:16:10.035Z</time></trkpt><trkpt lat="44.788235" lon="9.0027817"><ele>268.0</ele><time>2026-04-11T14:16:11.035Z</time></trkpt><trkpt lat="44.7883533" lon="9.0027833"><ele>268.0</ele><time>2026-04-11T14:16:12.034Z</time></trkpt><trkpt lat="44.7884733" lon="9.00278"><ele>268.0</ele><time>2026-04-11T14:16:13.034Z</time></trkpt><trkpt lat="44.7885967" lon="9.0027767"><ele>268.0</ele><time>2026-04-11T14:16:14.034Z</time></trkpt><trkpt lat="44.7887167" lon="9.002765"><ele>268.0</ele><time>2026-04-11T14:16:15.034Z</time></trkpt><trkpt lat="44.7888517" lon="9.0027567"><ele>267.5</ele><time>2026-04-11T14:16:16.035Z</time></trkpt><trkpt lat="44.78899" lon="9.002745"><ele>267.0</ele><time>2026-04-11T14:16:17.035Z</time></trkpt><trkpt lat="44.789135" lon="9.0027367"><ele>266.5</ele><time>2026-04-11T14:16:18.035Z</time></trkpt><trkpt lat="44.7892817" lon="9.00274"><ele>266.0</ele><time>2026-04-11T14:16:19.035Z</time></trkpt><trkpt lat="44.7894217" lon="9.002735"><ele>266.0</ele><time>2026-04-11T14:16:20.035Z</time></trkpt><trkpt lat="44.789565" lon="9.0027333"><ele>266.0</ele><time>2026-04-11T14:16:21.035Z</time></trkpt><trkpt lat="44.789715" lon="9.0027117"><ele>266.0</ele><time>2026-04-11T14:16:22.035Z</time></trkpt><trkpt lat="44.7898633" lon="9.0026867"><ele>266.0</ele><time>2026-04-11T14:16:23.035Z</time></trkpt><trkpt lat="44.7900117" lon="9.002655"><ele>266.0</ele><time>2026-04-11T14:16:24.035Z</time></trkpt><trkpt lat="44.79016" lon="9.0026233"><ele>266.0</ele><time>2026-04-11T14:16:25.035Z</time></trkpt><trkpt lat="44.79031" lon="9.0025867"><ele>266.0</ele><time>2026-04-11T14:16:26.035Z</time></trkpt><trkpt lat="44.7904617" lon="9.002545"><ele>265.0</ele><time>2026-04-11T14:16:27.035Z</time></trkpt><trkpt lat="44.790625" lon="9.002505"><ele>264.0</ele><time>2026-04-11T14:16:28.034Z</time></trkpt><trkpt lat="44.7907767" lon="9.0024583"><ele>263.0</ele><time>2026-04-11T14:16:29.035Z</time></trkpt><trkpt lat="44.790935" lon="9.0024267"><ele>264.33333333333337</ele><time>2026-04-11T14:16:30.035Z</time></trkpt><trkpt lat="44.7910883" lon="9.0023933"><ele>265.6666666666667</ele><time>2026-04-11T14:16:31.035Z</time></trkpt><trkpt lat="44.7912467" lon="9.0023533"><ele>267.0</ele><time>2026-04-11T14:16:32.035Z</time></trkpt><trkpt lat="44.7914017" lon="9.0023067"><ele>267.0</ele><time>2026-04-11T14:16:33.035Z</time></trkpt><trkpt lat="44.7915467" lon="9.0022467"><ele>267.0</ele><time>2026-04-11T14:16:34.035Z</time></trkpt><trkpt lat="44.7916933" lon="9.002165"><ele>267.0</ele><time>2026-04-11T14:16:35.035Z</time></trkpt><trkpt lat="44.79184" lon="9.00206"><ele>264.0</ele><time>2026-04-11T14:16:36.035Z</time></trkpt><trkpt lat="44.7919883" lon="9.001945"><ele>261.0</ele><time>2026-04-11T14:16:37.035Z</time></trkpt><trkpt lat="44.7921417" lon="9.001835"><ele>258.0</ele><time>2026-04-11T14:16:38.034Z</time></trkpt><trkpt lat="44.79229" lon="9.0017317"><ele>257.3333333333333</ele><time>2026-04-11T14:16:39.035Z</time></trkpt><trkpt lat="44.7924333" lon="9.0016217"><ele>256.66666666666663</ele><time>2026-04-11T14:16:40.035Z</time></trkpt><trkpt lat="44.7925733" lon="9.0015217"><ele>256.0</ele><time>2026-04-11T14:16:41.035Z</time></trkpt><trkpt lat="44.7927183" lon="9.0014267"><ele>256.0</ele><time>2026-04-11T14:16:42.034Z</time></trkpt><trkpt lat="44.7928583" lon="9.0013217"><ele>256.0</ele><time>2026-04-11T14:16:43.035Z</time></trkpt><trkpt lat="44.79299" lon="9.0012183"><ele>256.0</ele><time>2026-04-11T14:16:44.035Z</time></trkpt><trkpt lat="44.79312" lon="9.0011167"><ele>256.0</ele><time>2026-04-11T14:16:45.035Z</time></trkpt><trkpt lat="44.793255" lon="9.0010133"><ele>256.0</ele><time>2026-04-11T14:16:46.035Z</time></trkpt><trkpt lat="44.7933933" lon="9.0009067"><ele>256.0</ele><time>2026-04-11T14:16:47.035Z</time></trkpt><trkpt lat="44.7935317" lon="9.0008"><ele>256.66666666666663</ele><time>2026-04-11T14:16:48.035Z</time></trkpt><trkpt lat="44.7936717" lon="9.0006933"><ele>257.3333333333333</ele><time>2026-04-11T14:16:49.035Z</time></trkpt><trkpt lat="44.793815" lon="9.0005733"><ele>258.0</ele><time>2026-04-11T14:16:50.035Z</time></trkpt><trkpt lat="44.79397" lon="9.0004467"><ele>258.0</ele><time>2026-04-11T14:16:51.035Z</time></trkpt><trkpt lat="44.7941083" lon="9.0003133"><ele>258.0</ele><time>2026-04-11T14:16:52.035Z</time></trkpt><trkpt lat="44.7942517" lon="9.0001683"><ele>258.0</ele><time>2026-04-11T14:16:53.035Z</time></trkpt><trkpt lat="44.794395" lon="9.00002"><ele>257.6666666666667</ele><time>2026-04-11T14:16:54.035Z</time></trkpt><trkpt lat="44.794545" lon="8.999875"><ele>257.33333333333337</ele><time>2026-04-11T14:16:55.035Z</time></trkpt><trkpt lat="44.7946983" lon="8.99972"><ele>257.0</ele><time>2026-04-11T14:16:56.035Z</time></trkpt><trkpt lat="44.7948583" lon="8.9995567"><ele>257.0</ele><time>2026-04-11T14:16:57.035Z</time></trkpt><trkpt lat="44.7950183" lon="8.9993933"><ele>257.0</ele><time>2026-04-11T14:16:58.035Z</time></trkpt><trkpt lat="44.7951817" lon="8.9992267"><ele>257.0</ele><time>2026-04-11T14:16:59.035Z</time></trkpt><trkpt lat="44.7953417" lon="8.9990683"><ele>255.33333333333334</ele><time>2026-04-11T14:17:00.035Z</time></trkpt><trkpt lat="44.7954983" lon="8.9989067"><ele>253.66666666666669</ele><time>2026-04-11T14:17:01.035Z</time></trkpt><trkpt lat="44.795655" lon="8.9987567"><ele>252.0</ele><time>2026-04-11T14:17:02.035Z</time></trkpt><trkpt lat="44.795825" lon="8.9986017"><ele>252.0</ele><time>2026-04-11T14:17:03.035Z</time></trkpt><trkpt lat="44.79598" lon="8.998455"><ele>252.0</ele><time>2026-04-11T14:17:04.035Z</time></trkpt><trkpt lat="44.7961283" lon="8.9983083"><ele>252.0</ele><time>2026-04-11T14:17:05.035Z</time></trkpt><trkpt lat="44.7962767" lon="8.9981533"><ele>252.33333333333331</ele><time>2026-04-11T14:17:06.035Z</time></trkpt><trkpt lat="44.796435" lon="8.9979967"><ele>252.66666666666666</ele><time>2026-04-11T14:17:07.035Z</time></trkpt><trkpt lat="44.7965983" lon="8.9978617"><ele>253.0</ele><time>2026-04-11T14:17:08.035Z</time></trkpt><trkpt lat="44.7967517" lon="8.9977467"><ele>252.66666666666666</ele><time>2026-04-11T14:17:09.035Z</time></trkpt><trkpt lat="44.7969133" lon="8.997655"><ele>252.33333333333331</ele><time>2026-04-11T14:17:10.034Z</time></trkpt><trkpt lat="44.79707" lon="8.9975767"><ele>252.0</ele><time>2026-04-11T14:17:11.035Z</time></trkpt><trkpt lat="44.7972233" lon="8.9974933"><ele>251.66666666666669</ele><time>2026-04-11T14:17:12.035Z</time></trkpt><trkpt lat="44.797365" lon="8.9974083"><ele>251.33333333333334</ele><time>2026-04-11T14:17:13.034Z</time></trkpt><trkpt lat="44.7975117" lon="8.99731"><ele>251.0</ele><time>2026-04-11T14:17:14.034Z</time></trkpt><trkpt lat="44.7976567" lon="8.9972067"><ele>250.33333333333334</ele><time>2026-04-11T14:17:15.034Z</time></trkpt><trkpt lat="44.7978083" lon="8.9970983"><ele>249.66666666666669</ele><time>2026-04-11T14:17:16.034Z</time></trkpt><trkpt lat="44.7979683" lon="8.99699"><ele>249.0</ele><time>2026-04-11T14:17:17.034Z</time></trkpt><trkpt lat="44.7981267" lon="8.9968817"><ele>249.0</ele><time>2026-04-11T14:17:18.033Z</time></trkpt><trkpt lat="44.798285" lon="8.9967817"><ele>249.0</ele><time>2026-04-11T14:17:19.034Z</time></trkpt><trkpt lat="44.7984333" lon="8.996685"><ele>249.0</ele><time>2026-04-11T14:17:20.034Z</time></trkpt><trkpt lat="44.79858" lon="8.9965783"><ele>249.0</ele><time>2026-04-11T14:17:21.034Z</time></trkpt><trkpt lat="44.798735" lon="8.9964683"><ele>249.0</ele><time>2026-04-11T14:17:22.033Z</time></trkpt><trkpt lat="44.79889" lon="8.99635"><ele>249.0</ele><time>2026-04-11T14:17:23.034Z</time></trkpt><trkpt lat="44.79905" lon="8.9962183"><ele>249.0</ele><time>2026-04-11T14:17:24.034Z</time></trkpt><trkpt lat="44.7992117" lon="8.99609"><ele>249.0</ele><time>2026-04-11T14:17:25.034Z</time></trkpt><trkpt lat="44.7993767" lon="8.9959567"><ele>249.0</ele><time>2026-04-11T14:17:26.034Z</time></trkpt><trkpt lat="44.79954" lon="8.9958233"><ele>247.66666666666669</ele><time>2026-04-11T14:17:27.034Z</time></trkpt><trkpt lat="44.799705" lon="8.9956883"><ele>246.33333333333334</ele><time>2026-04-11T14:17:28.034Z</time></trkpt><trkpt lat="44.7998767" lon="8.9955567"><ele>245.0</ele><time>2026-04-11T14:17:29.034Z</time></trkpt><trkpt lat="44.8000433" lon="8.9954233"><ele>245.66666666666669</ele><time>2026-04-11T14:17:30.034Z</time></trkpt><trkpt lat="44.8002067" lon="8.9952967"><ele>246.33333333333331</ele><time>2026-04-11T14:17:31.034Z</time></trkpt><trkpt lat="44.8003667" lon="8.9951683"><ele>247.0</ele><time>2026-04-11T14:17:32.034Z</time></trkpt><trkpt lat="44.80052" lon="8.995045"><ele>247.33333333333331</ele><time>2026-04-11T14:17:33.034Z</time></trkpt><trkpt lat="44.8006767" lon="8.994925"><ele>247.66666666666669</ele><time>2026-04-11T14:17:34.034Z</time></trkpt><trkpt lat="44.800835" lon="8.9948117"><ele>248.0</ele><time>2026-04-11T14:17:35.034Z</time></trkpt><trkpt lat="44.80098" lon="8.9946983"><ele>248.0</ele><time>2026-04-11T14:17:36.034Z</time></trkpt><trkpt lat="44.8011133" lon="8.9945917"><ele>248.0</ele><time>2026-04-11T14:17:37.034Z</time></trkpt><trkpt lat="44.8012383" lon="8.9944833"><ele>248.0</ele><time>2026-04-11T14:17:38.033Z</time></trkpt><trkpt lat="44.8013567" lon="8.9943883"><ele>248.0</ele><time>2026-04-11T14:17:39.034Z</time></trkpt><trkpt lat="44.801465" lon="8.99429"><ele>248.0</ele><time>2026-04-11T14:17:40.033Z</time></trkpt><trkpt lat="44.8015733" lon="8.9942017"><ele>248.0</ele><time>2026-04-11T14:17:41.034Z</time></trkpt><trkpt lat="44.8016833" lon="8.9941167"><ele>248.0</ele><time>2026-04-11T14:17:42.033Z</time></trkpt><trkpt lat="44.8017917" lon="8.9940267"><ele>248.0</ele><time>2026-04-11T14:17:43.034Z</time></trkpt><trkpt lat="44.8018983" lon="8.993945"><ele>247.75</ele><time>2026-04-11T14:17:44.034Z</time></trkpt><trkpt lat="44.8020067" lon="8.9938633"><ele>247.5</ele><time>2026-04-11T14:17:45.034Z</time></trkpt><trkpt lat="44.8021117" lon="8.9937683"><ele>247.25</ele><time>2026-04-11T14:17:46.034Z</time></trkpt><trkpt lat="44.8022267" lon="8.993675"><ele>247.0</ele><time>2026-04-11T14:17:47.034Z</time></trkpt><trkpt lat="44.80234" lon="8.9935717"><ele>247.0</ele><time>2026-04-11T14:17:48.033Z</time></trkpt><trkpt lat="44.8024667" lon="8.993475"><ele>247.0</ele><time>2026-04-11T14:17:49.034Z</time></trkpt><trkpt lat="44.8025833" lon="8.99337"><ele>247.0</ele><time>2026-04-11T14:17:50.034Z</time></trkpt><trkpt lat="44.8027033" lon="8.99328"><ele>247.0</ele><time>2026-04-11T14:17:51.034Z</time></trkpt><trkpt lat="44.8028233" lon="8.9931767"><ele>245.75</ele><time>2026-04-11T14:17:52.034Z</time></trkpt><trkpt lat="44.8029517" lon="8.9930833"><ele>244.5</ele><time>2026-04-11T14:17:53.034Z</time></trkpt><trkpt lat="44.8030717" lon="8.99299"><ele>243.25</ele><time>2026-04-11T14:17:54.034Z</time></trkpt><trkpt lat="44.8031917" lon="8.992895"><ele>242.0</ele><time>2026-04-11T14:17:55.034Z</time></trkpt><trkpt lat="44.8033283" lon="8.9927917"><ele>242.0</ele><time>2026-04-11T14:17:56.033Z</time></trkpt><trkpt lat="44.8034567" lon="8.9926867"><ele>242.0</ele><time>2026-04-11T14:17:57.033Z</time></trkpt><trkpt lat="44.8035917" lon="8.9925833"><ele>242.0</ele><time>2026-04-11T14:17:58.034Z</time></trkpt><trkpt lat="44.8037317" lon="8.9924717"><ele>241.33333333333334</ele><time>2026-04-11T14:17:59.034Z</time></trkpt><trkpt lat="44.8038767" lon="8.992355"><ele>240.66666666666669</ele><time>2026-04-11T14:18:00.034Z</time></trkpt><trkpt lat="44.8040183" lon="8.99224"><ele>240.0</ele><time>2026-04-11T14:18:01.034Z</time></trkpt><trkpt lat="44.8041567" lon="8.992125"><ele>240.0</ele><time>2026-04-11T14:18:02.034Z</time></trkpt><trkpt lat="44.8043033" lon="8.99201"><ele>240.0</ele><time>2026-04-11T14:18:03.034Z</time></trkpt><trkpt lat="44.80445" lon="8.9918983"><ele>240.0</ele><time>2026-04-11T14:18:04.034Z</time></trkpt><trkpt lat="44.80459" lon="8.9917867"><ele>240.0</ele><time>2026-04-11T14:18:05.034Z</time></trkpt><trkpt lat="44.8047317" lon="8.9916767"><ele>240.0</ele><time>2026-04-11T14:18:06.034Z</time></trkpt><trkpt lat="44.80487" lon="8.9915633"><ele>240.0</ele><time>2026-04-11T14:18:07.034Z</time></trkpt><trkpt lat="44.805005" lon="8.99145"><ele>240.0</ele><time>2026-04-11T14:18:08.034Z</time></trkpt><trkpt lat="44.8051383" lon="8.9913483"><ele>240.0</ele><time>2026-04-11T14:18:09.034Z</time></trkpt><trkpt lat="44.805265" lon="8.99125"><ele>240.0</ele><time>2026-04-11T14:18:10.034Z</time></trkpt><trkpt lat="44.8053967" lon="8.99115"><ele>240.0</ele><time>2026-04-11T14:18:11.034Z</time></trkpt><trkpt lat="44.805535" lon="8.9910433"><ele>240.33333333333331</ele><time>2026-04-11T14:18:12.034Z</time></trkpt><trkpt lat="44.8056633" lon="8.9909367"><ele>240.66666666666666</ele><time>2026-04-11T14:18:13.034Z</time></trkpt><trkpt lat="44.8057933" lon="8.9908383"><ele>241.0</ele><time>2026-04-11T14:18:14.034Z</time></trkpt><trkpt lat="44.8059333" lon="8.9907417"><ele>239.66666666666666</ele><time>2026-04-11T14:18:15.034Z</time></trkpt><trkpt lat="44.806065" lon="8.9906483"><ele>238.33333333333331</ele><time>2026-04-11T14:18:16.034Z</time></trkpt><trkpt lat="44.8062033" lon="8.990555"><ele>237.0</ele><time>2026-04-11T14:18:17.034Z</time></trkpt><trkpt lat="44.8063433" lon="8.9904583"><ele>237.0</ele><time>2026-04-11T14:18:18.034Z</time></trkpt><trkpt lat="44.8064867" lon="8.9903633"><ele>237.0</ele><time>2026-04-11T14:18:19.034Z</time></trkpt><trkpt lat="44.8066383" lon="8.99026"><ele>237.0</ele><time>2026-04-11T14:18:20.034Z</time></trkpt><trkpt lat="44.8067867" lon="8.99016"><ele>237.0</ele><time>2026-04-11T14:18:21.034Z</time></trkpt><trkpt lat="44.80694" lon="8.990055"><ele>237.0</ele><time>2026-04-11T14:18:22.034Z</time></trkpt><trkpt lat="44.8070917" lon="8.9899433"><ele>237.0</ele><time>2026-04-11T14:18:23.033Z</time></trkpt><trkpt lat="44.8072417" lon="8.9898217"><ele>237.66666666666669</ele><time>2026-04-11T14:18:24.034Z</time></trkpt><trkpt lat="44.80738" lon="8.989695"><ele>238.33333333333334</ele><time>2026-04-11T14:18:25.034Z</time></trkpt><trkpt lat="44.8075267" lon="8.9895567"><ele>239.0</ele><time>2026-04-11T14:18:26.034Z</time></trkpt><trkpt lat="44.8076717" lon="8.989425"><ele>237.66666666666669</ele><time>2026-04-11T14:18:27.034Z</time></trkpt><trkpt lat="44.8078133" lon="8.9892983"><ele>236.33333333333331</ele><time>2026-04-11T14:18:28.034Z</time></trkpt><trkpt lat="44.807945" lon="8.9891767"><ele>235.0</ele><time>2026-04-11T14:18:29.034Z</time></trkpt><trkpt lat="44.8080783" lon="8.9890467"><ele>235.0</ele><time>2026-04-11T14:18:30.034Z</time></trkpt><trkpt lat="44.808215" lon="8.9889133"><ele>235.0</ele><time>2026-04-11T14:18:31.034Z</time></trkpt><trkpt lat="44.8083533" lon="8.98877"><ele>235.0</ele><time>2026-04-11T14:18:32.034Z</time></trkpt><trkpt lat="44.8084833" lon="8.988625"><ele>234.66666666666666</ele><time>2026-04-11T14:18:33.033Z</time></trkpt><trkpt lat="44.8086217" lon="8.9884717"><ele>234.33333333333331</ele><time>2026-04-11T14:18:34.034Z</time></trkpt><trkpt lat="44.8087567" lon="8.9883217"><ele>234.0</ele><time>2026-04-11T14:18:35.034Z</time></trkpt><trkpt lat="44.808895" lon="8.9881667"><ele>234.0</ele><time>2026-04-11T14:18:36.034Z</time></trkpt><trkpt lat="44.8090417" lon="8.98802"><ele>234.0</ele><time>2026-04-11T14:18:37.034Z</time></trkpt><trkpt lat="44.8091883" lon="8.98787"><ele>234.0</ele><time>2026-04-11T14:18:38.033Z</time></trkpt><trkpt lat="44.8093367" lon="8.987725"><ele>232.33333333333331</ele><time>2026-04-11T14:18:39.033Z</time></trkpt><trkpt lat="44.8094833" lon="8.9875917"><ele>230.66666666666666</ele><time>2026-04-11T14:18:40.033Z</time></trkpt><trkpt lat="44.8096233" lon="8.9874617"><ele>229.0</ele><time>2026-04-11T14:18:41.034Z</time></trkpt><trkpt lat="44.8097617" lon="8.9873233"><ele>228.66666666666666</ele><time>2026-04-11T14:18:42.034Z</time></trkpt><trkpt lat="44.80989" lon="8.9871817"><ele>228.33333333333331</ele><time>2026-04-11T14:18:43.034Z</time></trkpt><trkpt lat="44.8100317" lon="8.9870433"><ele>228.0</ele><time>2026-04-11T14:18:44.033Z</time></trkpt><trkpt lat="44.810165" lon="8.9868983"><ele>228.0</ele><time>2026-04-11T14:18:45.033Z</time></trkpt><trkpt lat="44.8103083" lon="8.9867733"><ele>228.0</ele><time>2026-04-11T14:18:46.034Z</time></trkpt><trkpt lat="44.81045" lon="8.9866433"><ele>228.0</ele><time>2026-04-11T14:18:47.034Z</time></trkpt><trkpt lat="44.8105817" lon="8.9865117"><ele>228.0</ele><time>2026-04-11T14:18:48.034Z</time></trkpt><trkpt lat="44.8107117" lon="8.986385"><ele>228.0</ele><time>2026-04-11T14:18:49.034Z</time></trkpt><trkpt lat="44.810835" lon="8.9862633"><ele>228.0</ele><time>2026-04-11T14:18:50.034Z</time></trkpt><trkpt lat="44.8109583" lon="8.9861417"><ele>228.0</ele><time>2026-04-11T14:18:51.033Z</time></trkpt><trkpt lat="44.8110833" lon="8.9860217"><ele>228.0</ele><time>2026-04-11T14:18:52.034Z</time></trkpt><trkpt lat="44.8112133" lon="8.9859117"><ele>228.0</ele><time>2026-04-11T14:18:53.034Z</time></trkpt><trkpt lat="44.8113317" lon="8.9857967"><ele>228.0</ele><time>2026-04-11T14:18:54.033Z</time></trkpt><trkpt lat="44.8114433" lon="8.98568"><ele>228.0</ele><time>2026-04-11T14:18:55.034Z</time></trkpt><trkpt lat="44.81156" lon="8.985565"><ele>228.0</ele><time>2026-04-11T14:18:56.034Z</time></trkpt><trkpt lat="44.8116733" lon="8.9854483"><ele>228.0</ele><time>2026-04-11T14:18:57.034Z</time></trkpt><trkpt lat="44.8117917" lon="8.9853367"><ele>228.0</ele><time>2026-04-11T14:18:58.034Z</time></trkpt><trkpt lat="44.8119117" lon="8.9852217"><ele>227.75</ele><time>2026-04-11T14:18:59.034Z</time></trkpt><trkpt lat="44.8120283" lon="8.9851117"><ele>227.5</ele><time>2026-04-11T14:19:00.034Z</time></trkpt><trkpt lat="44.81214" lon="8.9850017"><ele>227.25</ele><time>2026-04-11T14:19:01.034Z</time></trkpt><trkpt lat="44.8122533" lon="8.9848867"><ele>227.0</ele><time>2026-04-11T14:19:02.034Z</time></trkpt><trkpt lat="44.812365" lon="8.984775"><ele>227.0</ele><time>2026-04-11T14:19:03.034Z</time></trkpt><trkpt lat="44.8124733" lon="8.9846717"><ele>227.0</ele><time>2026-04-11T14:19:04.034Z</time></trkpt><trkpt lat="44.812575" lon="8.9845633"><ele>227.0</ele><time>2026-04-11T14:19:05.034Z</time></trkpt><trkpt lat="44.81267" lon="8.9844633"><ele>227.0</ele><time>2026-04-11T14:19:06.034Z</time></trkpt><trkpt lat="44.8127633" lon="8.9843683"><ele>227.2</ele><time>2026-04-11T14:19:07.034Z</time></trkpt><trkpt lat="44.8128433" lon="8.9842917"><ele>227.39999999999998</ele><time>2026-04-11T14:19:08.034Z</time></trkpt><trkpt lat="44.8129067" lon="8.9842267"><ele>227.60000000000002</ele><time>2026-04-11T14:19:09.034Z</time></trkpt><trkpt lat="44.8130067" lon="8.9841417"><ele>227.8</ele><time>2026-04-11T14:19:11.034Z</time></trkpt><trkpt lat="44.81309" lon="8.984055"><ele>228.0</ele><time>2026-04-11T14:19:13.034Z</time></trkpt><trkpt lat="44.8130933" lon="8.983965"><ele>228.0</ele><time>2026-04-11T14:19:15.034Z</time></trkpt><trkpt lat="44.8130267" lon="8.9838767"><ele>228.0</ele><time>2026-04-11T14:19:17.034Z</time></trkpt><trkpt lat="44.812915" lon="8.9837633"><ele>228.0</ele><time>2026-04-11T14:19:19.033Z</time></trkpt><trkpt lat="44.8128467" lon="8.9836767"><ele>228.0</ele><time>2026-04-11T14:19:20.034Z</time></trkpt><trkpt lat="44.812775" lon="8.98357"><ele>228.0</ele><time>2026-04-11T14:19:21.034Z</time></trkpt><trkpt lat="44.8127033" lon="8.9834533"><ele>228.4</ele><time>2026-04-11T14:19:22.034Z</time></trkpt><trkpt lat="44.812645" lon="8.983325"><ele>228.8</ele><time>2026-04-11T14:19:23.034Z</time></trkpt><trkpt lat="44.8125983" lon="8.9831883"><ele>229.2</ele><time>2026-04-11T14:19:24.034Z</time></trkpt><trkpt lat="44.812565" lon="8.983035"><ele>229.6</ele><time>2026-04-11T14:19:25.034Z</time></trkpt><trkpt lat="44.812535" lon="8.982875"><ele>230.0</ele><time>2026-04-11T14:19:26.034Z</time></trkpt><trkpt lat="44.8125117" lon="8.982705"><ele>230.0</ele><time>2026-04-11T14:19:27.034Z</time></trkpt><trkpt lat="44.8124883" lon="8.9825317"><ele>230.0</ele><time>2026-04-11T14:19:28.034Z</time></trkpt><trkpt lat="44.8124617" lon="8.9823533"><ele>230.0</ele><time>2026-04-11T14:19:29.034Z</time></trkpt><trkpt lat="44.8124333" lon="8.9821717"><ele>230.0</ele><time>2026-04-11T14:19:30.034Z</time></trkpt><trkpt lat="44.8124083" lon="8.9819833"><ele>230.5</ele><time>2026-04-11T14:19:31.034Z</time></trkpt><trkpt lat="44.812395" lon="8.9817883"><ele>231.0</ele><time>2026-04-11T14:19:32.034Z</time></trkpt><trkpt lat="44.8123817" lon="8.9815867"><ele>231.5</ele><time>2026-04-11T14:19:33.033Z</time></trkpt><trkpt lat="44.81237" lon="8.9813717"><ele>232.0</ele><time>2026-04-11T14:19:34.033Z</time></trkpt><trkpt lat="44.8123567" lon="8.9811517"><ele>232.0</ele><time>2026-04-11T14:19:35.033Z</time></trkpt><trkpt lat="44.8123467" lon="8.9809333"><ele>232.0</ele><time>2026-04-11T14:19:36.034Z</time></trkpt><trkpt lat="44.8123383" lon="8.980715"><ele>232.0</ele><time>2026-04-11T14:19:37.034Z</time></trkpt><trkpt lat="44.8123333" lon="8.9804983"><ele>232.33333333333331</ele><time>2026-04-11T14:19:38.034Z</time></trkpt><trkpt lat="44.812325" lon="8.9802817"><ele>232.66666666666669</ele><time>2026-04-11T14:19:39.034Z</time></trkpt><trkpt lat="44.8123133" lon="8.9800567"><ele>233.0</ele><time>2026-04-11T14:19:40.034Z</time></trkpt><trkpt lat="44.8123" lon="8.9798333"><ele>234.0</ele><time>2026-04-11T14:19:41.034Z</time></trkpt><trkpt lat="44.81228" lon="8.9796083"><ele>235.0</ele><time>2026-04-11T14:19:42.034Z</time></trkpt><trkpt lat="44.8122567" lon="8.9793817"><ele>236.0</ele><time>2026-04-11T14:19:43.034Z</time></trkpt><trkpt lat="44.8122383" lon="8.979155"><ele>237.66666666666669</ele><time>2026-04-11T14:19:44.034Z</time></trkpt><trkpt lat="44.8122167" lon="8.978935"><ele>239.33333333333331</ele><time>2026-04-11T14:19:45.034Z</time></trkpt><trkpt lat="44.8121933" lon="8.978725"><ele>241.0</ele><time>2026-04-11T14:19:46.034Z</time></trkpt><trkpt lat="44.812175" lon="8.978525"><ele>241.75</ele><time>2026-04-11T14:19:47.034Z</time></trkpt><trkpt lat="44.8121617" lon="8.97834"><ele>242.5</ele><time>2026-04-11T14:19:48.034Z</time></trkpt><trkpt lat="44.8121417" lon="8.9781717"><ele>243.25</ele><time>2026-04-11T14:19:49.033Z</time></trkpt><trkpt lat="44.8121267" lon="8.9780133"><ele>244.0</ele><time>2026-04-11T14:19:50.034Z</time></trkpt><trkpt lat="44.8121133" lon="8.977855"><ele>244.0</ele><time>2026-04-11T14:19:51.034Z</time></trkpt><trkpt lat="44.8120933" lon="8.9776983"><ele>243.99999999999997</ele><time>2026-04-11T14:19:52.034Z</time></trkpt><trkpt lat="44.8120733" lon="8.9775517"><ele>243.99999999999997</ele><time>2026-04-11T14:19:53.034Z</time></trkpt><trkpt lat="44.8120383" lon="8.9774233"><ele>244.0</ele><time>2026-04-11T14:19:54.034Z</time></trkpt><trkpt lat="44.8119967" lon="8.977285"><ele>244.0</ele><time>2026-04-11T14:19:55.034Z</time></trkpt><trkpt lat="44.8119517" lon="8.9771483"><ele>244.75</ele><time>2026-04-11T14:19:56.034Z</time></trkpt><trkpt lat="44.8119067" lon="8.9770033"><ele>245.5</ele><time>2026-04-11T14:19:57.034Z</time></trkpt><trkpt lat="44.8118583" lon="8.97685"><ele>246.25</ele><time>2026-04-11T14:19:58.034Z</time></trkpt><trkpt lat="44.8118" lon="8.9766983"><ele>247.0</ele><time>2026-04-11T14:19:59.034Z</time></trkpt><trkpt lat="44.81174" lon="8.97653"><ele>247.0</ele><time>2026-04-11T14:20:00.033Z</time></trkpt><trkpt lat="44.8116783" lon="8.97636"><ele>247.0</ele><time>2026-04-11T14:20:01.034Z</time></trkpt><trkpt lat="44.81161" lon="8.9761767"><ele>247.0</ele><time>2026-04-11T14:20:02.034Z</time></trkpt><trkpt lat="44.81153" lon="8.9759967"><ele>247.0</ele><time>2026-04-11T14:20:03.034Z</time></trkpt><trkpt lat="44.8114567" lon="8.9758133"><ele>247.0</ele><time>2026-04-11T14:20:04.034Z</time></trkpt><trkpt lat="44.8113783" lon="8.9756317"><ele>247.0</ele><time>2026-04-11T14:20:05.034Z</time></trkpt><trkpt lat="44.8113067" lon="8.9754617"><ele>247.0</ele><time>2026-04-11T14:20:06.034Z</time></trkpt><trkpt lat="44.811245" lon="8.9753"><ele>247.0</ele><time>2026-04-11T14:20:07.034Z</time></trkpt><trkpt lat="44.8111967" lon="8.9751267"><ele>249.0</ele><time>2026-04-11T14:20:08.034Z</time></trkpt><trkpt lat="44.8111617" lon="8.9749583"><ele>251.0</ele><time>2026-04-11T14:20:09.034Z</time></trkpt><trkpt lat="44.811125" lon="8.9747683"><ele>253.0</ele><time>2026-04-11T14:20:10.033Z</time></trkpt><trkpt lat="44.8110783" lon="8.9745817"><ele>255.0</ele><time>2026-04-11T14:20:11.034Z</time></trkpt><trkpt lat="44.81103" lon="8.9743883"><ele>253.0</ele><time>2026-04-11T14:20:12.033Z</time></trkpt><trkpt lat="44.8109783" lon="8.974195"><ele>251.0</ele><time>2026-04-11T14:20:13.034Z</time></trkpt><trkpt lat="44.8109167" lon="8.97401"><ele>249.0</ele><time>2026-04-11T14:20:14.034Z</time></trkpt><trkpt lat="44.8108683" lon="8.9738283"><ele>247.0</ele><time>2026-04-11T14:20:15.034Z</time></trkpt><trkpt lat="44.810825" lon="8.9736367"><ele>247.0</ele><time>2026-04-11T14:20:16.034Z</time></trkpt><trkpt lat="44.8107883" lon="8.9734417"><ele>247.0</ele><time>2026-04-11T14:20:17.034Z</time></trkpt><trkpt lat="44.8107733" lon="8.9732467"><ele>247.0</ele><time>2026-04-11T14:20:18.034Z</time></trkpt><trkpt lat="44.8107667" lon="8.9730533"><ele>247.0</ele><time>2026-04-11T14:20:19.033Z</time></trkpt><trkpt lat="44.81076" lon="8.9728717"><ele>247.2</ele><time>2026-04-11T14:20:20.033Z</time></trkpt><trkpt lat="44.8107483" lon="8.9727083"><ele>247.39999999999998</ele><time>2026-04-11T14:20:21.034Z</time></trkpt><trkpt lat="44.8107183" lon="8.9725583"><ele>247.60000000000002</ele><time>2026-04-11T14:20:22.034Z</time></trkpt><trkpt lat="44.810685" lon="8.9724333"><ele>247.8</ele><time>2026-04-11T14:20:23.034Z</time></trkpt><trkpt lat="44.810645" lon="8.9723083"><ele>248.0</ele><time>2026-04-11T14:20:24.034Z</time></trkpt><trkpt lat="44.8105917" lon="8.9721817"><ele>248.60000000000002</ele><time>2026-04-11T14:20:25.034Z</time></trkpt><trkpt lat="44.810525" lon="8.9720667"><ele>249.20000000000002</ele><time>2026-04-11T14:20:26.034Z</time></trkpt><trkpt lat="44.810455" lon="8.9719417"><ele>249.8</ele><time>2026-04-11T14:20:27.034Z</time></trkpt><trkpt lat="44.8103833" lon="8.97183"><ele>250.4</ele><time>2026-04-11T14:20:28.033Z</time></trkpt><trkpt lat="44.8103067" lon="8.9716933"><ele>251.0</ele><time>2026-04-11T14:20:29.033Z</time></trkpt><trkpt lat="44.81024" lon="8.9715633"><ele>251.33333333333334</ele><time>2026-04-11T14:20:30.033Z</time></trkpt><trkpt lat="44.8101733" lon="8.971465"><ele>251.66666666666669</ele><time>2026-04-11T14:20:31.033Z</time></trkpt><trkpt lat="44.81011" lon="8.9714"><ele>252.0</ele><time>2026-04-11T14:20:32.033Z</time></trkpt><trkpt lat="44.810035" lon="8.97135"><ele>252.33333333333331</ele><time>2026-04-11T14:20:33.034Z</time></trkpt><trkpt lat="44.809965" lon="8.9713317"><ele>252.66666666666666</ele><time>2026-04-11T14:20:34.034Z</time></trkpt><trkpt lat="44.809895" lon="8.97135"><ele>253.0</ele><time>2026-04-11T14:20:35.034Z</time></trkpt><trkpt lat="44.809825" lon="8.9713817"><ele>252.99999999999997</ele><time>2026-04-11T14:20:36.034Z</time></trkpt><trkpt lat="44.809755" lon="8.9714217"><ele>253.0</ele><time>2026-04-11T14:20:37.034Z</time></trkpt><trkpt lat="44.80968" lon="8.9714883"><ele>253.0</ele><time>2026-04-11T14:20:38.034Z</time></trkpt><trkpt lat="44.809595" lon="8.9715467"><ele>253.0</ele><time>2026-04-11T14:20:39.034Z</time></trkpt><trkpt lat="44.8095117" lon="8.9715733"><ele>252.99999999999997</ele><time>2026-04-11T14:20:40.034Z</time></trkpt><trkpt lat="44.80944" lon="8.9715633"><ele>253.0</ele><time>2026-04-11T14:20:41.034Z</time></trkpt><trkpt lat="44.8093367" lon="8.9714633"><ele>253.00000000000003</ele><time>2026-04-11T14:20:43.034Z</time></trkpt><trkpt lat="44.8093183" lon="8.9713717"><ele>253.0</ele><time>2026-04-11T14:20:44.034Z</time></trkpt><trkpt lat="44.80932" lon="8.971275"><ele>253.00000000000003</ele><time>2026-04-11T14:20:45.034Z</time></trkpt><trkpt lat="44.8093333" lon="8.97117"><ele>253.00000000000003</ele><time>2026-04-11T14:20:46.034Z</time></trkpt><trkpt lat="44.809345" lon="8.9710683"><ele>253.0</ele><time>2026-04-11T14:20:47.034Z</time></trkpt><trkpt lat="44.8093567" lon="8.9709633"><ele>253.00000000000003</ele><time>2026-04-11T14:20:48.034Z</time></trkpt><trkpt lat="44.8093767" lon="8.970855"><ele>253.00000000000003</ele><time>2026-04-11T14:20:49.034Z</time></trkpt><trkpt lat="44.8093967" lon="8.970735"><ele>253.60000000000002</ele><time>2026-04-11T14:20:50.033Z</time></trkpt><trkpt lat="44.8094183" lon="8.9706067"><ele>254.20000000000002</ele><time>2026-04-11T14:20:51.034Z</time></trkpt><trkpt lat="44.8094367" lon="8.97048"><ele>254.8</ele><time>2026-04-11T14:20:52.034Z</time></trkpt><trkpt lat="44.8094617" lon="8.9703483"><ele>255.4</ele><time>2026-04-11T14:20:53.034Z</time></trkpt><trkpt lat="44.8094817" lon="8.970205"><ele>256.0</ele><time>2026-04-11T14:20:54.034Z</time></trkpt><trkpt lat="44.8095033" lon="8.9700633"><ele>256.6</ele><time>2026-04-11T14:20:55.034Z</time></trkpt><trkpt lat="44.8095217" lon="8.9699183"><ele>257.20000000000005</ele><time>2026-04-11T14:20:56.033Z</time></trkpt><trkpt lat="44.8095367" lon="8.96977"><ele>257.79999999999995</ele><time>2026-04-11T14:20:57.034Z</time></trkpt><trkpt lat="44.8095417" lon="8.9696317"><ele>258.4</ele><time>2026-04-11T14:20:58.034Z</time></trkpt><trkpt lat="44.809535" lon="8.9695167"><ele>259.0</ele><time>2026-04-11T14:20:59.034Z</time></trkpt><trkpt lat="44.80951" lon="8.96943"><ele>259.0</ele><time>2026-04-11T14:21:00.034Z</time></trkpt><trkpt lat="44.809435" lon="8.969345"><ele>259.0</ele><time>2026-04-11T14:21:02.034Z</time></trkpt><trkpt lat="44.8093533" lon="8.9694483"><ele>259.0</ele><time>2026-04-11T14:21:04.033Z</time></trkpt><trkpt lat="44.8093283" lon="8.9695467"><ele>259.0</ele><time>2026-04-11T14:21:05.034Z</time></trkpt><trkpt lat="44.809305" lon="8.96965"><ele>259.0</ele><time>2026-04-11T14:21:06.034Z</time></trkpt><trkpt lat="44.8092833" lon="8.9697583"><ele>259.0</ele><time>2026-04-11T14:21:07.034Z</time></trkpt><trkpt lat="44.80926" lon="8.969865"><ele>260.5</ele><time>2026-04-11T14:21:08.034Z</time></trkpt><trkpt lat="44.8092233" lon="8.96997"><ele>262.0</ele><time>2026-04-11T14:21:09.034Z</time></trkpt><trkpt lat="44.809185" lon="8.9700867"><ele>263.5</ele><time>2026-04-11T14:21:10.034Z</time></trkpt><trkpt lat="44.8091417" lon="8.9701967"><ele>265.0</ele><time>2026-04-11T14:21:11.034Z</time></trkpt><trkpt lat="44.809095" lon="8.9703167"><ele>266.5</ele><time>2026-04-11T14:21:12.034Z</time></trkpt><trkpt lat="44.8090483" lon="8.9704233"><ele>268.0</ele><time>2026-04-11T14:21:13.034Z</time></trkpt><trkpt lat="44.809005" lon="8.9705267"><ele>268.0</ele><time>2026-04-11T14:21:14.034Z</time></trkpt><trkpt lat="44.808965" lon="8.9706267"><ele>268.0</ele><time>2026-04-11T14:21:15.034Z</time></trkpt><trkpt lat="44.8088867" lon="8.9707117"><ele>268.0</ele><time>2026-04-11T14:21:17.034Z</time></trkpt><trkpt lat="44.8088217" lon="8.9706783"><ele>268.0</ele><time>2026-04-11T14:21:19.034Z</time></trkpt><trkpt lat="44.808795" lon="8.9705267"><ele>268.0</ele><time>2026-04-11T14:21:21.034Z</time></trkpt><trkpt lat="44.80879" lon="8.9704333"><ele>268.0</ele><time>2026-04-11T14:21:22.034Z</time></trkpt><trkpt lat="44.808805" lon="8.9703333"><ele>268.0</ele><time>2026-04-11T14:21:23.034Z</time></trkpt><trkpt lat="44.8088383" lon="8.9702183"><ele>268.0</ele><time>2026-04-11T14:21:24.034Z</time></trkpt><trkpt lat="44.808875" lon="8.9701067"><ele>268.0</ele><time>2026-04-11T14:21:25.033Z</time></trkpt><trkpt lat="44.8089083" lon="8.96999"><ele>268.0</ele><time>2026-04-11T14:21:26.034Z</time></trkpt><trkpt lat="44.8089367" lon="8.96987"><ele>268.0</ele><time>2026-04-11T14:21:27.034Z</time></trkpt><trkpt lat="44.808945" lon="8.969755"><ele>268.0</ele><time>2026-04-11T14:21:28.033Z</time></trkpt><trkpt lat="44.80893" lon="8.96966"><ele>269.4</ele><time>2026-04-11T14:21:29.034Z</time></trkpt><trkpt lat="44.8088433" lon="8.96955"><ele>270.8</ele><time>2026-04-11T14:21:31.034Z</time></trkpt><trkpt lat="44.808735" lon="8.969605"><ele>272.2</ele><time>2026-04-11T14:21:33.034Z</time></trkpt><trkpt lat="44.808705" lon="8.9697083"><ele>273.6</ele><time>2026-04-11T14:21:34.033Z</time></trkpt><trkpt lat="44.80869" lon="8.96984"><ele>275.0</ele><time>2026-04-11T14:21:35.034Z</time></trkpt><trkpt lat="44.8086817" lon="8.9699717"><ele>273.83333333333337</ele><time>2026-04-11T14:21:36.034Z</time></trkpt><trkpt lat="44.8086683" lon="8.9700833"><ele>272.6666666666667</ele><time>2026-04-11T14:21:37.034Z</time></trkpt><trkpt lat="44.8086433" lon="8.9702"><ele>271.5</ele><time>2026-04-11T14:21:38.034Z</time></trkpt><trkpt lat="44.8086083" lon="8.97031"><ele>270.3333333333333</ele><time>2026-04-11T14:21:39.034Z</time></trkpt><trkpt lat="44.808555" lon="8.9704067"><ele>269.16666666666663</ele><time>2026-04-11T14:21:40.033Z</time></trkpt><trkpt lat="44.808495" lon="8.9704917"><ele>268.0</ele><time>2026-04-11T14:21:41.034Z</time></trkpt><trkpt lat="44.8084233" lon="8.9705533"><ele>270.66666666666663</ele><time>2026-04-11T14:21:42.034Z</time></trkpt><trkpt lat="44.8083567" lon="8.9705967"><ele>273.3333333333333</ele><time>2026-04-11T14:21:43.034Z</time></trkpt><trkpt lat="44.8082917" lon="8.9706183"><ele>276.0</ele><time>2026-04-11T14:21:44.034Z</time></trkpt><trkpt lat="44.8082133" lon="8.970515"><ele>278.6666666666667</ele><time>2026-04-11T14:21:46.034Z</time></trkpt><trkpt lat="44.8082317" lon="8.9703517"><ele>281.33333333333337</ele><time>2026-04-11T14:21:48.034Z</time></trkpt><trkpt lat="44.8082817" lon="8.97029"><ele>284.0</ele><time>2026-04-11T14:21:49.034Z</time></trkpt><trkpt lat="44.8083417" lon="8.9702283"><ele>284.0</ele><time>2026-04-11T14:21:50.034Z</time></trkpt><trkpt lat="44.8083817" lon="8.970155"><ele>284.0</ele><time>2026-04-11T14:21:51.034Z</time></trkpt><trkpt lat="44.80841" lon="8.9700733"><ele>284.0</ele><time>2026-04-11T14:21:52.033Z</time></trkpt><trkpt lat="44.80837" lon="8.9699633"><ele>284.0</ele><time>2026-04-11T14:21:54.033Z</time></trkpt><trkpt lat="44.8082517" lon="8.96994"><ele>284.0</ele><time>2026-04-11T14:21:56.033Z</time></trkpt><trkpt lat="44.8081783" lon="8.96996"><ele>284.0</ele><time>2026-04-11T14:21:57.033Z</time></trkpt><trkpt lat="44.8081017" lon="8.9699933"><ele>284.0</ele><time>2026-04-11T14:21:58.033Z</time></trkpt><trkpt lat="44.8080233" lon="8.9700267"><ele>284.0</ele><time>2026-04-11T14:21:59.033Z</time></trkpt><trkpt lat="44.8079467" lon="8.9700567"><ele>284.0</ele><time>2026-04-11T14:22:00.033Z</time></trkpt><trkpt lat="44.8078683" lon="8.970085"><ele>284.0</ele><time>2026-04-11T14:22:01.033Z</time></trkpt><trkpt lat="44.8077883" lon="8.97012"><ele>284.0</ele><time>2026-04-11T14:22:02.033Z</time></trkpt><trkpt lat="44.8077133" lon="8.97015"><ele>284.0</ele><time>2026-04-11T14:22:03.033Z</time></trkpt><trkpt lat="44.80765" lon="8.97017"><ele>283.8</ele><time>2026-04-11T14:22:04.033Z</time></trkpt><trkpt lat="44.8075417" lon="8.9701117"><ele>283.59999999999997</ele><time>2026-04-11T14:22:06.033Z</time></trkpt><trkpt lat="44.8074833" lon="8.9699567"><ele>283.4</ele><time>2026-04-11T14:22:08.033Z</time></trkpt><trkpt lat="44.8074783" lon="8.9698467"><ele>283.2</ele><time>2026-04-11T14:22:09.033Z</time></trkpt><trkpt lat="44.8074683" lon="8.969725"><ele>283.0</ele><time>2026-04-11T14:22:10.033Z</time></trkpt><trkpt lat="44.80745" lon="8.96961"><ele>286.0</ele><time>2026-04-11T14:22:11.032Z</time></trkpt><trkpt lat="44.8074267" lon="8.9695067"><ele>289.0</ele><time>2026-04-11T14:22:12.033Z</time></trkpt><trkpt lat="44.8073783" lon="8.9694117"><ele>292.0</ele><time>2026-04-11T14:22:13.033Z</time></trkpt><trkpt lat="44.8073217" lon="8.9693117"><ele>295.0</ele><time>2026-04-11T14:22:14.033Z</time></trkpt><trkpt lat="44.8072583" lon="8.9692217"><ele>298.0</ele><time>2026-04-11T14:22:15.033Z</time></trkpt><trkpt lat="44.8071967" lon="8.96914"><ele>301.0</ele><time>2026-04-11T14:22:16.033Z</time></trkpt><trkpt lat="44.8071283" lon="8.9690333"><ele>303.6</ele><time>2026-04-11T14:22:17.033Z</time></trkpt><trkpt lat="44.8070517" lon="8.968935"><ele>306.20000000000005</ele><time>2026-04-11T14:22:18.033Z</time></trkpt><trkpt lat="44.80698" lon="8.96885"><ele>308.79999999999995</ele><time>2026-04-11T14:22:19.033Z</time></trkpt><trkpt lat="44.8069" lon="8.9687933"><ele>311.4</ele><time>2026-04-11T14:22:20.033Z</time></trkpt><trkpt lat="44.8068183" lon="8.9687567"><ele>314.0</ele><time>2026-04-11T14:22:21.033Z</time></trkpt><trkpt lat="44.8067383" lon="8.9687417"><ele>314.0</ele><time>2026-04-11T14:22:22.033Z</time></trkpt><trkpt lat="44.8066517" lon="8.9687367"><ele>314.0</ele><time>2026-04-11T14:22:23.033Z</time></trkpt><trkpt lat="44.8065633" lon="8.9687283"><ele>314.0</ele><time>2026-04-11T14:22:24.033Z</time></trkpt><trkpt lat="44.8064667" lon="8.9687417"><ele>314.0</ele><time>2026-04-11T14:22:25.033Z</time></trkpt><trkpt lat="44.8063617" lon="8.9687367"><ele>314.0</ele><time>2026-04-11T14:22:26.033Z</time></trkpt><trkpt lat="44.80627" lon="8.9687133"><ele>314.0</ele><time>2026-04-11T14:22:27.033Z</time></trkpt><trkpt lat="44.8061767" lon="8.9686883"><ele>314.0</ele><time>2026-04-11T14:22:28.033Z</time></trkpt><trkpt lat="44.8061083" lon="8.968645"><ele>314.0</ele><time>2026-04-11T14:22:29.033Z</time></trkpt><trkpt lat="44.8060633" lon="8.9685817"><ele>314.0</ele><time>2026-04-11T14:22:30.033Z</time></trkpt><trkpt lat="44.80604" lon="8.9684333"><ele>314.0</ele><time>2026-04-11T14:22:32.032Z</time></trkpt><trkpt lat="44.80613" lon="8.9683467"><ele>314.0</ele><time>2026-04-11T14:22:34.032Z</time></trkpt><trkpt lat="44.8062117" lon="8.9683433"><ele>314.0</ele><time>2026-04-11T14:22:35.033Z</time></trkpt><trkpt lat="44.8063" lon="8.968365"><ele>314.0</ele><time>2026-04-11T14:22:36.033Z</time></trkpt><trkpt lat="44.8063967" lon="8.9683917"><ele>314.0</ele><time>2026-04-11T14:22:37.033Z</time></trkpt><trkpt lat="44.806485" lon="8.9684183"><ele>314.0</ele><time>2026-04-11T14:22:38.033Z</time></trkpt><trkpt lat="44.8065633" lon="8.96842"><ele>314.0</ele><time>2026-04-11T14:22:39.033Z</time></trkpt><trkpt lat="44.806645" lon="8.9683883"><ele>314.83333333333337</ele><time>2026-04-11T14:22:40.033Z</time></trkpt><trkpt lat="44.80672" lon="8.9683417"><ele>315.6666666666667</ele><time>2026-04-11T14:22:41.033Z</time></trkpt><trkpt lat="44.8068" lon="8.9682783"><ele>316.5</ele><time>2026-04-11T14:22:42.033Z</time></trkpt><trkpt lat="44.8068717" lon="8.9682067"><ele>317.3333333333333</ele><time>2026-04-11T14:22:43.033Z</time></trkpt><trkpt lat="44.806925" lon="8.968125"><ele>318.16666666666663</ele><time>2026-04-11T14:22:44.033Z</time></trkpt><trkpt lat="44.8069683" lon="8.968035"><ele>319.0</ele><time>2026-04-11T14:22:45.033Z</time></trkpt><trkpt lat="44.8069817" lon="8.9679417"><ele>319.0</ele><time>2026-04-11T14:22:46.033Z</time></trkpt><trkpt lat="44.806925" lon="8.9678317"><ele>319.0</ele><time>2026-04-11T14:22:48.032Z</time></trkpt><trkpt lat="44.8068167" lon="8.9678117"><ele>319.0</ele><time>2026-04-11T14:22:50.033Z</time></trkpt><trkpt lat="44.8067583" lon="8.9678617"><ele>319.0</ele><time>2026-04-11T14:22:51.033Z</time></trkpt><trkpt lat="44.8066967" lon="8.9679333"><ele>319.0</ele><time>2026-04-11T14:22:52.033Z</time></trkpt><trkpt lat="44.8066283" lon="8.9679883"><ele>319.0</ele><time>2026-04-11T14:22:53.033Z</time></trkpt><trkpt lat="44.806555" lon="8.9680167"><ele>320.5</ele><time>2026-04-11T14:22:54.032Z</time></trkpt><trkpt lat="44.8064733" lon="8.9680367"><ele>322.0</ele><time>2026-04-11T14:22:55.033Z</time></trkpt><trkpt lat="44.8063867" lon="8.96803"><ele>323.5</ele><time>2026-04-11T14:22:56.032Z</time></trkpt><trkpt lat="44.8063033" lon="8.9680083"><ele>325.0</ele><time>2026-04-11T14:22:57.032Z</time></trkpt><trkpt lat="44.8062317" lon="8.9679683"><ele>326.5</ele><time>2026-04-11T14:22:58.033Z</time></trkpt><trkpt lat="44.8061733" lon="8.9679017"><ele>328.0</ele><time>2026-04-11T14:22:59.032Z</time></trkpt><trkpt lat="44.8061333" lon="8.9678317"><ele>328.0</ele><time>2026-04-11T14:23:00.033Z</time></trkpt><trkpt lat="44.8061217" lon="8.967675"><ele>328.0</ele><time>2026-04-11T14:23:02.033Z</time></trkpt><trkpt lat="44.8062233" lon="8.9675833"><ele>328.0</ele><time>2026-04-11T14:23:04.032Z</time></trkpt><trkpt lat="44.8063" lon="8.9675883"><ele>328.0</ele><time>2026-04-11T14:23:05.033Z</time></trkpt><trkpt lat="44.8063867" lon="8.9676167"><ele>328.0</ele><time>2026-04-11T14:23:06.033Z</time></trkpt><trkpt lat="44.806475" lon="8.9676317"><ele>328.0</ele><time>2026-04-11T14:23:07.033Z</time></trkpt><trkpt lat="44.8065567" lon="8.96762"><ele>328.0</ele><time>2026-04-11T14:23:08.033Z</time></trkpt><trkpt lat="44.8066283" lon="8.967565"><ele>328.0</ele><time>2026-04-11T14:23:09.033Z</time></trkpt><trkpt lat="44.806685" lon="8.9674833"><ele>328.0</ele><time>2026-04-11T14:23:10.033Z</time></trkpt><trkpt lat="44.8067317" lon="8.9673883"><ele>328.0</ele><time>2026-04-11T14:23:11.033Z</time></trkpt><trkpt lat="44.8067717" lon="8.967285"><ele>328.0</ele><time>2026-04-11T14:23:12.033Z</time></trkpt><trkpt lat="44.806785" lon="8.9671683"><ele>329.16666666666663</ele><time>2026-04-11T14:23:13.033Z</time></trkpt><trkpt lat="44.8067883" lon="8.9670333"><ele>330.3333333333333</ele><time>2026-04-11T14:23:14.032Z</time></trkpt><trkpt lat="44.8067783" lon="8.966895"><ele>331.5</ele><time>2026-04-11T14:23:15.033Z</time></trkpt><trkpt lat="44.8067717" lon="8.9667567"><ele>332.6666666666667</ele><time>2026-04-11T14:23:16.033Z</time></trkpt><trkpt lat="44.8067717" lon="8.96665"><ele>333.83333333333337</ele><time>2026-04-11T14:23:17.033Z</time></trkpt><trkpt lat="44.8067983" lon="8.9665583"><ele>335.0</ele><time>2026-04-11T14:23:18.033Z</time></trkpt><trkpt lat="44.8068483" lon="8.9664833"><ele>335.0</ele><time>2026-04-11T14:23:19.033Z</time></trkpt><trkpt lat="44.8069067" lon="8.96641"><ele>335.0</ele><time>2026-04-11T14:23:20.032Z</time></trkpt><trkpt lat="44.8069717" lon="8.9663367"><ele>335.0</ele><time>2026-04-11T14:23:21.033Z</time></trkpt><trkpt lat="44.80703" lon="8.9662517"><ele>335.0</ele><time>2026-04-11T14:23:22.033Z</time></trkpt><trkpt lat="44.8070683" lon="8.9661617"><ele>335.0</ele><time>2026-04-11T14:23:23.033Z</time></trkpt><trkpt lat="44.807075" lon="8.96602"><ele>335.0</ele><time>2026-04-11T14:23:25.032Z</time></trkpt><trkpt lat="44.8070083" lon="8.9659783"><ele>335.0</ele><time>2026-04-11T14:23:27.033Z</time></trkpt><trkpt lat="44.8068733" lon="8.9660083"><ele>335.0</ele><time>2026-04-11T14:23:29.033Z</time></trkpt><trkpt lat="44.8067883" lon="8.9660833"><ele>335.0</ele><time>2026-04-11T14:23:30.032Z</time></trkpt><trkpt lat="44.806705" lon="8.966155"><ele>335.0</ele><time>2026-04-11T14:23:31.033Z</time></trkpt><trkpt lat="44.80662" lon="8.9662283"><ele>335.0</ele><time>2026-04-11T14:23:32.033Z</time></trkpt><trkpt lat="44.80654" lon="8.9662883"><ele>338.4</ele><time>2026-04-11T14:23:33.033Z</time></trkpt><trkpt lat="44.8064633" lon="8.9663383"><ele>341.8</ele><time>2026-04-11T14:23:34.033Z</time></trkpt><trkpt lat="44.8063767" lon="8.9663783"><ele>345.20000000000005</ele><time>2026-04-11T14:23:35.033Z</time></trkpt><trkpt lat="44.8062817" lon="8.9663833"><ele>348.6</ele><time>2026-04-11T14:23:36.033Z</time></trkpt><trkpt lat="44.806185" lon="8.966365"><ele>352.0</ele><time>2026-04-11T14:23:37.033Z</time></trkpt><trkpt lat="44.8060833" lon="8.966335"><ele>352.0</ele><time>2026-04-11T14:23:38.033Z</time></trkpt><trkpt lat="44.8059767" lon="8.966295"><ele>352.0</ele><time>2026-04-11T14:23:39.033Z</time></trkpt><trkpt lat="44.8058733" lon="8.9662567"><ele>352.0</ele><time>2026-04-11T14:23:40.033Z</time></trkpt><trkpt lat="44.80576" lon="8.9662183"><ele>352.0</ele><time>2026-04-11T14:23:41.033Z</time></trkpt><trkpt lat="44.805645" lon="8.966195"><ele>352.0</ele><time>2026-04-11T14:23:42.033Z</time></trkpt><trkpt lat="44.8055283" lon="8.966155"><ele>352.0</ele><time>2026-04-11T14:23:43.033Z</time></trkpt><trkpt lat="44.805415" lon="8.9661217"><ele>352.0</ele><time>2026-04-11T14:23:44.033Z</time></trkpt><trkpt lat="44.8052967" lon="8.9660967"><ele>352.0</ele><time>2026-04-11T14:23:45.033Z</time></trkpt><trkpt lat="44.8051817" lon="8.9660833"><ele>352.20000000000005</ele><time>2026-04-11T14:23:46.033Z</time></trkpt><trkpt lat="44.80507" lon="8.96607"><ele>352.4</ele><time>2026-04-11T14:23:47.032Z</time></trkpt><trkpt lat="44.8049583" lon="8.9660717"><ele>352.6</ele><time>2026-04-11T14:23:48.033Z</time></trkpt><trkpt lat="44.80485" lon="8.966095"><ele>352.79999999999995</ele><time>2026-04-11T14:23:49.033Z</time></trkpt><trkpt lat="44.804745" lon="8.966125"><ele>353.0</ele><time>2026-04-11T14:23:50.032Z</time></trkpt><trkpt lat="44.8046417" lon="8.9661633"><ele>353.0</ele><time>2026-04-11T14:23:51.033Z</time></trkpt><trkpt lat="44.80455" lon="8.9661867"><ele>353.0</ele><time>2026-04-11T14:23:52.032Z</time></trkpt><trkpt lat="44.804455" lon="8.9662167"><ele>353.0</ele><time>2026-04-11T14:23:53.033Z</time></trkpt><trkpt lat="44.80434" lon="8.9662367"><ele>353.0</ele><time>2026-04-11T14:23:54.033Z</time></trkpt><trkpt lat="44.8042217" lon="8.966275"><ele>353.0</ele><time>2026-04-11T14:23:55.033Z</time></trkpt><trkpt lat="44.8041017" lon="8.9663183"><ele>357.0</ele><time>2026-04-11T14:23:56.033Z</time></trkpt><trkpt lat="44.80398" lon="8.966365"><ele>361.0</ele><time>2026-04-11T14:23:57.033Z</time></trkpt><trkpt lat="44.8038567" lon="8.9664017"><ele>365.0</ele><time>2026-04-11T14:23:58.033Z</time></trkpt><trkpt lat="44.8037283" lon="8.9664383"><ele>369.0</ele><time>2026-04-11T14:23:59.033Z</time></trkpt><trkpt lat="44.8036" lon="8.9664667"><ele>372.25</ele><time>2026-04-11T14:24:00.033Z</time></trkpt><trkpt lat="44.803475" lon="8.9664917"><ele>375.5</ele><time>2026-04-11T14:24:01.033Z</time></trkpt><trkpt lat="44.803345" lon="8.9665117"><ele>378.75</ele><time>2026-04-11T14:24:02.032Z</time></trkpt><trkpt lat="44.803215" lon="8.9665333"><ele>382.0</ele><time>2026-04-11T14:24:03.033Z</time></trkpt><trkpt lat="44.8030967" lon="8.9665633"><ele>382.0</ele><time>2026-04-11T14:24:04.033Z</time></trkpt><trkpt lat="44.8030067" lon="8.96659"><ele>382.0</ele><time>2026-04-11T14:24:05.032Z</time></trkpt><trkpt lat="44.8029333" lon="8.9665967"><ele>382.0</ele><time>2026-04-11T14:24:06.033Z</time></trkpt><trkpt lat="44.802865" lon="8.9665933"><ele>382.0</ele><time>2026-04-11T14:24:07.032Z</time></trkpt><trkpt lat="44.8027967" lon="8.9665083"><ele>382.0</ele><time>2026-04-11T14:24:09.033Z</time></trkpt><trkpt lat="44.8027783" lon="8.966375"><ele>382.0</ele><time>2026-04-11T14:24:11.032Z</time></trkpt><trkpt lat="44.8028817" lon="8.9662883"><ele>382.0</ele><time>2026-04-11T14:24:13.033Z</time></trkpt><trkpt lat="44.80296" lon="8.9662683"><ele>382.0</ele><time>2026-04-11T14:24:14.033Z</time></trkpt><trkpt lat="44.8030583" lon="8.9662783"><ele>382.0</ele><time>2026-04-11T14:24:15.033Z</time></trkpt><trkpt lat="44.8031667" lon="8.96628"><ele>382.0</ele><time>2026-04-11T14:24:16.032Z</time></trkpt><trkpt lat="44.80327" lon="8.9662683"><ele>382.0</ele><time>2026-04-11T14:24:17.033Z</time></trkpt><trkpt lat="44.8033567" lon="8.9662383"><ele>382.0</ele><time>2026-04-11T14:24:18.033Z</time></trkpt><trkpt lat="44.8034367" lon="8.96619"><ele>382.0</ele><time>2026-04-11T14:24:19.033Z</time></trkpt><trkpt lat="44.8035217" lon="8.96612"><ele>382.0</ele><time>2026-04-11T14:24:20.033Z</time></trkpt><trkpt lat="44.803605" lon="8.9660567"><ele>382.0</ele><time>2026-04-11T14:24:21.033Z</time></trkpt><trkpt lat="44.80369" lon="8.9659917"><ele>382.0</ele><time>2026-04-11T14:24:22.033Z</time></trkpt><trkpt lat="44.8037783" lon="8.9659117"><ele>384.20000000000005</ele><time>2026-04-11T14:24:23.032Z</time></trkpt><trkpt lat="44.803865" lon="8.965825"><ele>386.4</ele><time>2026-04-11T14:24:24.033Z</time></trkpt><trkpt lat="44.8039533" lon="8.965745"><ele>388.6</ele><time>2026-04-11T14:24:25.033Z</time></trkpt><trkpt lat="44.80405" lon="8.965675"><ele>390.79999999999995</ele><time>2026-04-11T14:24:26.033Z</time></trkpt><trkpt lat="44.8041483" lon="8.96561"><ele>393.0</ele><time>2026-04-11T14:24:27.033Z</time></trkpt><trkpt lat="44.8042417" lon="8.965555"><ele>393.0</ele><time>2026-04-11T14:24:28.033Z</time></trkpt><trkpt lat="44.804315" lon="8.965545"><ele>393.0</ele><time>2026-04-11T14:24:29.033Z</time></trkpt><trkpt lat="44.8043933" lon="8.965545"><ele>393.0</ele><time>2026-04-11T14:24:31.032Z</time></trkpt><trkpt lat="44.8044567" lon="8.965515"><ele>393.0</ele><time>2026-04-11T14:24:33.033Z</time></trkpt><trkpt lat="44.804535" lon="8.965425"><ele>393.0</ele><time>2026-04-11T14:24:35.033Z</time></trkpt><trkpt lat="44.8045733" lon="8.9652867"><ele>393.0</ele><time>2026-04-11T14:24:37.033Z</time></trkpt><trkpt lat="44.8045567" lon="8.9651583"><ele>393.0</ele><time>2026-04-11T14:24:39.033Z</time></trkpt><trkpt lat="44.8044617" lon="8.9651183"><ele>393.0</ele><time>2026-04-11T14:24:41.033Z</time></trkpt><trkpt lat="44.8043817" lon="8.96512"><ele>393.0</ele><time>2026-04-11T14:24:42.033Z</time></trkpt><trkpt lat="44.8042917" lon="8.9651533"><ele>393.0</ele><time>2026-04-11T14:24:43.033Z</time></trkpt><trkpt lat="44.804205" lon="8.9652083"><ele>393.0</ele><time>2026-04-11T14:24:44.033Z</time></trkpt><trkpt lat="44.8041283" lon="8.965255"><ele>393.0</ele><time>2026-04-11T14:24:45.033Z</time></trkpt><trkpt lat="44.8040683" lon="8.9653"><ele>393.0</ele><time>2026-04-11T14:24:46.032Z</time></trkpt><trkpt lat="44.803995" lon="8.9653467"><ele>393.0</ele><time>2026-04-11T14:24:48.033Z</time></trkpt><trkpt lat="44.8040083" lon="8.965255"><ele>393.0</ele><time>2026-04-11T14:24:52.033Z</time></trkpt><trkpt lat="44.80408" lon="8.9651517"><ele>393.0</ele><time>2026-04-11T14:24:54.033Z</time></trkpt><trkpt lat="44.8041367" lon="8.9650983"><ele>393.0</ele><time>2026-04-11T14:24:55.033Z</time></trkpt><trkpt lat="44.8042033" lon="8.96505"><ele>394.79999999999995</ele><time>2026-04-11T14:24:56.032Z</time></trkpt><trkpt lat="44.8042783" lon="8.965"><ele>396.6</ele><time>2026-04-11T14:24:57.032Z</time></trkpt><trkpt lat="44.8043617" lon="8.964955"><ele>398.4</ele><time>2026-04-11T14:24:58.033Z</time></trkpt><trkpt lat="44.804455" lon="8.96491"><ele>400.20000000000005</ele><time>2026-04-11T14:24:59.033Z</time></trkpt><trkpt lat="44.8045617" lon="8.96487"><ele>402.0</ele><time>2026-04-11T14:25:00.033Z</time></trkpt><trkpt lat="44.8046717" lon="8.964845"><ele>402.0</ele><time>2026-04-11T14:25:01.033Z</time></trkpt><trkpt lat="44.8047817" lon="8.9648317"><ele>402.0</ele><time>2026-04-11T14:25:02.033Z</time></trkpt><trkpt lat="44.804895" lon="8.9648133"><ele>402.0</ele><time>2026-04-11T14:25:03.033Z</time></trkpt><trkpt lat="44.8049983" lon="8.9647767"><ele>402.0</ele><time>2026-04-11T14:25:04.032Z</time></trkpt><trkpt lat="44.805105" lon="8.964735"><ele>402.0</ele><time>2026-04-11T14:25:05.033Z</time></trkpt><trkpt lat="44.8052" lon="8.9646917"><ele>401.0</ele><time>2026-04-11T14:25:06.033Z</time></trkpt><trkpt lat="44.8052983" lon="8.9646417"><ele>400.0</ele><time>2026-04-11T14:25:07.032Z</time></trkpt><trkpt lat="44.80539" lon="8.96458"><ele>399.0</ele><time>2026-04-11T14:25:08.033Z</time></trkpt><trkpt lat="44.8054767" lon="8.964505"><ele>398.0</ele><time>2026-04-11T14:25:09.033Z</time></trkpt><trkpt lat="44.8055533" lon="8.964415"><ele>397.0</ele><time>2026-04-11T14:25:10.033Z</time></trkpt><trkpt lat="44.805605" lon="8.9642967"><ele>399.40000000000003</ele><time>2026-04-11T14:25:11.032Z</time></trkpt><trkpt lat="44.8056467" lon="8.96417"><ele>401.8</ele><time>2026-04-11T14:25:12.033Z</time></trkpt><trkpt lat="44.805685" lon="8.9640333"><ele>404.2</ele><time>2026-04-11T14:25:13.033Z</time></trkpt><trkpt lat="44.80573" lon="8.96389"><ele>406.6</ele><time>2026-04-11T14:25:14.033Z</time></trkpt><trkpt lat="44.8057833" lon="8.9637433"><ele>409.0</ele><time>2026-04-11T14:25:15.033Z</time></trkpt><trkpt lat="44.8058383" lon="8.9635983"><ele>409.0</ele><time>2026-04-11T14:25:16.033Z</time></trkpt><trkpt lat="44.8059033" lon="8.9634617"><ele>409.0</ele><time>2026-04-11T14:25:17.032Z</time></trkpt><trkpt lat="44.8059683" lon="8.9633367"><ele>409.0</ele><time>2026-04-11T14:25:18.033Z</time></trkpt><trkpt lat="44.806035" lon="8.9632017"><ele>409.0</ele><time>2026-04-11T14:25:19.033Z</time></trkpt><trkpt lat="44.80608" lon="8.96306"><ele>406.6</ele><time>2026-04-11T14:25:20.033Z</time></trkpt><trkpt lat="44.806105" lon="8.9629017"><ele>404.2</ele><time>2026-04-11T14:25:21.033Z</time></trkpt><trkpt lat="44.8061267" lon="8.962755"><ele>401.8</ele><time>2026-04-11T14:25:22.033Z</time></trkpt><trkpt lat="44.8061667" lon="8.962615"><ele>399.40000000000003</ele><time>2026-04-11T14:25:23.033Z</time></trkpt><trkpt lat="44.8062117" lon="8.9624933"><ele>397.0</ele><time>2026-04-11T14:25:24.033Z</time></trkpt><trkpt lat="44.806275" lon="8.9623667"><ele>397.0</ele><time>2026-04-11T14:25:25.033Z</time></trkpt><trkpt lat="44.8063617" lon="8.9622633"><ele>397.0</ele><time>2026-04-11T14:25:26.033Z</time></trkpt><trkpt lat="44.80646" lon="8.9621583"><ele>397.0</ele><time>2026-04-11T14:25:27.033Z</time></trkpt><trkpt lat="44.8065683" lon="8.9620483"><ele>397.0</ele><time>2026-04-11T14:25:28.033Z</time></trkpt><trkpt lat="44.80669" lon="8.96193"><ele>397.0</ele><time>2026-04-11T14:25:29.033Z</time></trkpt><trkpt lat="44.8068117" lon="8.961805"><ele>397.0</ele><time>2026-04-11T14:25:30.032Z</time></trkpt><trkpt lat="44.8069367" lon="8.961685"><ele>397.0</ele><time>2026-04-11T14:25:31.033Z</time></trkpt><trkpt lat="44.8070633" lon="8.961565"><ele>394.75</ele><time>2026-04-11T14:25:32.033Z</time></trkpt><trkpt lat="44.807185" lon="8.9614417"><ele>392.5</ele><time>2026-04-11T14:25:33.033Z</time></trkpt><trkpt lat="44.8073" lon="8.96131"><ele>390.25</ele><time>2026-04-11T14:25:34.033Z</time></trkpt><trkpt lat="44.80742" lon="8.9611833"><ele>388.0</ele><time>2026-04-11T14:25:35.033Z</time></trkpt><trkpt lat="44.8075433" lon="8.9610533"><ele>388.0</ele><time>2026-04-11T14:25:36.033Z</time></trkpt><trkpt lat="44.8076517" lon="8.9609283"><ele>388.0</ele><time>2026-04-11T14:25:37.033Z</time></trkpt><trkpt lat="44.80774" lon="8.960815"><ele>388.0</ele><time>2026-04-11T14:25:38.033Z</time></trkpt><trkpt lat="44.8078083" lon="8.960715"><ele>388.0</ele><time>2026-04-11T14:25:39.032Z</time></trkpt><trkpt lat="44.8078583" lon="8.9606483"><ele>388.0</ele><time>2026-04-11T14:25:40.032Z</time></trkpt><trkpt lat="44.8079667" lon="8.960605"><ele>386.59999999999997</ele><time>2026-04-11T14:25:42.033Z</time></trkpt><trkpt lat="44.8080533" lon="8.9607033"><ele>385.2</ele><time>2026-04-11T14:25:44.033Z</time></trkpt><trkpt lat="44.8080617" lon="8.9608183"><ele>383.8</ele><time>2026-04-11T14:25:45.033Z</time></trkpt><trkpt lat="44.8080517" lon="8.96095"><ele>382.4</ele><time>2026-04-11T14:25:46.032Z</time></trkpt><trkpt lat="44.8080317" lon="8.9611033"><ele>381.0</ele><time>2026-04-11T14:25:47.033Z</time></trkpt><trkpt lat="44.808005" lon="8.96126"><ele>379.25</ele><time>2026-04-11T14:25:48.033Z</time></trkpt><trkpt lat="44.807975" lon="8.9614283"><ele>377.5</ele><time>2026-04-11T14:25:49.032Z</time></trkpt><trkpt lat="44.807945" lon="8.9616033"><ele>375.75</ele><time>2026-04-11T14:25:50.033Z</time></trkpt><trkpt lat="44.80792" lon="8.9617683"><ele>374.0</ele><time>2026-04-11T14:25:51.033Z</time></trkpt><trkpt lat="44.8078983" lon="8.9619217"><ele>372.79999999999995</ele><time>2026-04-11T14:25:52.032Z</time></trkpt><trkpt lat="44.8078783" lon="8.9620567"><ele>371.59999999999997</ele><time>2026-04-11T14:25:53.033Z</time></trkpt><trkpt lat="44.8078667" lon="8.9621683"><ele>370.4</ele><time>2026-04-11T14:25:54.032Z</time></trkpt><trkpt lat="44.8078667" lon="8.9623117"><ele>369.2</ele><time>2026-04-11T14:25:56.033Z</time></trkpt><trkpt lat="44.8079467" lon="8.9623833"><ele>368.0</ele><time>2026-04-11T14:25:58.033Z</time></trkpt><trkpt lat="44.8080617" lon="8.9623433"><ele>368.0</ele><time>2026-04-11T14:26:00.033Z</time></trkpt><trkpt lat="44.8081067" lon="8.962265"><ele>368.0</ele><time>2026-04-11T14:26:01.033Z</time></trkpt><trkpt lat="44.808145" lon="8.96215"><ele>368.0</ele><time>2026-04-11T14:26:02.033Z</time></trkpt><trkpt lat="44.8081817" lon="8.962025"><ele>368.0</ele><time>2026-04-11T14:26:03.033Z</time></trkpt><trkpt lat="44.8082317" lon="8.9618967"><ele>368.0</ele><time>2026-04-11T14:26:04.033Z</time></trkpt><trkpt lat="44.808285" lon="8.9617517"><ele>369.2</ele><time>2026-04-11T14:26:05.033Z</time></trkpt><trkpt lat="44.8083333" lon="8.961605"><ele>370.4</ele><time>2026-04-11T14:26:06.033Z</time></trkpt><trkpt lat="44.8083783" lon="8.9614617"><ele>371.59999999999997</ele><time>2026-04-11T14:26:07.032Z</time></trkpt><trkpt lat="44.8084133" lon="8.96135"><ele>372.79999999999995</ele><time>2026-04-11T14:26:08.033Z</time></trkpt><trkpt lat="44.8084517" lon="8.9612783"><ele>374.0</ele><time>2026-04-11T14:26:09.033Z</time></trkpt><trkpt lat="44.80853" lon="8.96122"><ele>370.6</ele><time>2026-04-11T14:26:11.033Z</time></trkpt><trkpt lat="44.8086" lon="8.9613017"><ele>367.2</ele><time>2026-04-11T14:26:13.033Z</time></trkpt><trkpt lat="44.8086167" lon="8.9614033"><ele>363.8</ele><time>2026-04-11T14:26:14.033Z</time></trkpt><trkpt lat="44.8085967" lon="8.961545"><ele>360.40000000000003</ele><time>2026-04-11T14:26:15.033Z</time></trkpt><trkpt lat="44.808565" lon="8.9616967"><ele>357.0</ele><time>2026-04-11T14:26:16.033Z</time></trkpt><trkpt lat="44.8085417" lon="8.96186"><ele>357.0</ele><time>2026-04-11T14:26:17.033Z</time></trkpt><trkpt lat="44.80852" lon="8.962025"><ele>357.0</ele><time>2026-04-11T14:26:18.033Z</time></trkpt><trkpt lat="44.8085033" lon="8.9621917"><ele>357.0</ele><time>2026-04-11T14:26:19.032Z</time></trkpt><trkpt lat="44.8085017" lon="8.962345"><ele>357.0</ele><time>2026-04-11T14:26:20.033Z</time></trkpt><trkpt lat="44.80851" lon="8.9624833"><ele>357.0</ele><time>2026-04-11T14:26:21.032Z</time></trkpt><trkpt lat="44.8085367" lon="8.9626067"><ele>356.0</ele><time>2026-04-11T14:26:22.032Z</time></trkpt><trkpt lat="44.808585" lon="8.9627133"><ele>355.0</ele><time>2026-04-11T14:26:23.032Z</time></trkpt><trkpt lat="44.80865" lon="8.9627983"><ele>354.0</ele><time>2026-04-11T14:26:24.032Z</time></trkpt><trkpt lat="44.8087467" lon="8.9628567"><ele>353.0</ele><time>2026-04-11T14:26:25.031Z</time></trkpt><trkpt lat="44.8088533" lon="8.9628867"><ele>352.0</ele><time>2026-04-11T14:26:26.032Z</time></trkpt><trkpt lat="44.8089583" lon="8.9629167"><ele>352.0</ele><time>2026-04-11T14:26:27.032Z</time></trkpt><trkpt lat="44.8090633" lon="8.962955"><ele>352.0</ele><time>2026-04-11T14:26:28.032Z</time></trkpt><trkpt lat="44.8091583" lon="8.9629867"><ele>352.0</ele><time>2026-04-11T14:26:29.031Z</time></trkpt><trkpt lat="44.809255" lon="8.963"><ele>352.0</ele><time>2026-04-11T14:26:30.032Z</time></trkpt><trkpt lat="44.8093567" lon="8.963"><ele>352.0</ele><time>2026-04-11T14:26:31.032Z</time></trkpt><trkpt lat="44.8094567" lon="8.9629917"><ele>351.75</ele><time>2026-04-11T14:26:32.032Z</time></trkpt><trkpt lat="44.8095633" lon="8.9629817"><ele>351.5</ele><time>2026-04-11T14:26:33.032Z</time></trkpt><trkpt lat="44.80967" lon="8.96298"><ele>351.25</ele><time>2026-04-11T14:26:34.032Z</time></trkpt><trkpt lat="44.8097883" lon="8.9629817"><ele>351.0</ele><time>2026-04-11T14:26:35.032Z</time></trkpt><trkpt lat="44.8099217" lon="8.962995"><ele>351.0</ele><time>2026-04-11T14:26:36.032Z</time></trkpt><trkpt lat="44.810065" lon="8.9630083"><ele>351.0</ele><time>2026-04-11T14:26:37.032Z</time></trkpt><trkpt lat="44.8102033" lon="8.9630267"><ele>351.0</ele><time>2026-04-11T14:26:38.032Z</time></trkpt><trkpt lat="44.81035" lon="8.9630417"><ele>351.0</ele><time>2026-04-11T14:26:39.032Z</time></trkpt><trkpt lat="44.8105067" lon="8.9630583"><ele>348.6666666666667</ele><time>2026-04-11T14:26:40.032Z</time></trkpt><trkpt lat="44.8106633" lon="8.9630733"><ele>346.33333333333337</ele><time>2026-04-11T14:26:41.032Z</time></trkpt><trkpt lat="44.810815" lon="8.963085"><ele>344.0</ele><time>2026-04-11T14:26:42.032Z</time></trkpt><trkpt lat="44.810965" lon="8.9630983"><ele>343.6666666666667</ele><time>2026-04-11T14:26:43.032Z</time></trkpt><trkpt lat="44.8111233" lon="8.963105"><ele>343.3333333333333</ele><time>2026-04-11T14:26:44.032Z</time></trkpt><trkpt lat="44.81129" lon="8.9631167"><ele>343.0</ele><time>2026-04-11T14:26:45.032Z</time></trkpt><trkpt lat="44.8114483" lon="8.963115"><ele>343.0</ele><time>2026-04-11T14:26:46.032Z</time></trkpt><trkpt lat="44.8115917" lon="8.9631333"><ele>343.0</ele><time>2026-04-11T14:26:47.031Z</time></trkpt><trkpt lat="44.81173" lon="8.96316"><ele>343.0</ele><time>2026-04-11T14:26:48.032Z</time></trkpt><trkpt lat="44.81185" lon="8.9632017"><ele>343.0</ele><time>2026-04-11T14:26:49.032Z</time></trkpt><trkpt lat="44.8119683" lon="8.96326"><ele>343.0</ele><time>2026-04-11T14:26:50.032Z</time></trkpt><trkpt lat="44.8120833" lon="8.96333"><ele>343.0</ele><time>2026-04-11T14:26:51.032Z</time></trkpt><trkpt lat="44.8122" lon="8.9634083"><ele>343.0</ele><time>2026-04-11T14:26:52.032Z</time></trkpt><trkpt lat="44.8123133" lon="8.9634867"><ele>343.0</ele><time>2026-04-11T14:26:53.032Z</time></trkpt><trkpt lat="44.8124217" lon="8.9635617"><ele>343.0</ele><time>2026-04-11T14:26:54.032Z</time></trkpt><trkpt lat="44.8125333" lon="8.96364"><ele>343.0</ele><time>2026-04-11T14:26:55.032Z</time></trkpt><trkpt lat="44.812625" lon="8.96372"><ele>343.0</ele><time>2026-04-11T14:26:56.032Z</time></trkpt><trkpt lat="44.8126833" lon="8.9638"><ele>343.0</ele><time>2026-04-11T14:26:57.032Z</time></trkpt><trkpt lat="44.8127083" lon="8.963905"><ele>343.0</ele><time>2026-04-11T14:26:58.032Z</time></trkpt><trkpt lat="44.8127117" lon="8.964025"><ele>342.42857142857144</ele><time>2026-04-11T14:26:59.032Z</time></trkpt><trkpt lat="44.8127117" lon="8.9641333"><ele>341.8571428571429</ele><time>2026-04-11T14:27:00.032Z</time></trkpt><trkpt lat="44.812725" lon="8.9642417"><ele>341.2857142857143</ele><time>2026-04-11T14:27:01.032Z</time></trkpt><trkpt lat="44.8127583" lon="8.9643267"><ele>340.7142857142857</ele><time>2026-04-11T14:27:02.031Z</time></trkpt><trkpt lat="44.81281" lon="8.9643917"><ele>340.14285714285717</ele><time>2026-04-11T14:27:03.032Z</time></trkpt><trkpt lat="44.812875" lon="8.964425"><ele>339.57142857142856</ele><time>2026-04-11T14:27:04.032Z</time></trkpt><trkpt lat="44.8129433" lon="8.9644233"><ele>339.0</ele><time>2026-04-11T14:27:05.032Z</time></trkpt><trkpt lat="44.8130117" lon="8.9643917"><ele>339.0</ele><time>2026-04-11T14:27:06.032Z</time></trkpt><trkpt lat="44.8130733" lon="8.9643333"><ele>339.0</ele><time>2026-04-11T14:27:07.032Z</time></trkpt><trkpt lat="44.81313" lon="8.9642633"><ele>339.0</ele><time>2026-04-11T14:27:08.032Z</time></trkpt><trkpt lat="44.8131917" lon="8.96419"><ele>339.0</ele><time>2026-04-11T14:27:09.031Z</time></trkpt><trkpt lat="44.813265" lon="8.9641183"><ele>339.0</ele><time>2026-04-11T14:27:10.032Z</time></trkpt><trkpt lat="44.8133467" lon="8.96407"><ele>339.0</ele><time>2026-04-11T14:27:11.032Z</time></trkpt><trkpt lat="44.8134333" lon="8.9640517"><ele>342.4</ele><time>2026-04-11T14:27:12.032Z</time></trkpt><trkpt lat="44.813525" lon="8.96406"><ele>345.79999999999995</ele><time>2026-04-11T14:27:13.032Z</time></trkpt><trkpt lat="44.8136267" lon="8.9641017"><ele>349.20000000000005</ele><time>2026-04-11T14:27:14.032Z</time></trkpt><trkpt lat="44.8137183" lon="8.9641633"><ele>352.6</ele><time>2026-04-11T14:27:15.032Z</time></trkpt><trkpt lat="44.81381" lon="8.96424"><ele>356.0</ele><time>2026-04-11T14:27:16.031Z</time></trkpt><trkpt lat="44.813905" lon="8.9643167"><ele>357.0</ele><time>2026-04-11T14:27:17.032Z</time></trkpt><trkpt lat="44.814" lon="8.964395"><ele>358.0</ele><time>2026-04-11T14:27:18.032Z</time></trkpt><trkpt lat="44.8140983" lon="8.9644783"><ele>359.0</ele><time>2026-04-11T14:27:19.031Z</time></trkpt><trkpt lat="44.8142" lon="8.9645433"><ele>360.0</ele><time>2026-04-11T14:27:20.032Z</time></trkpt><trkpt lat="44.81431" lon="8.9645983"><ele>363.5</ele><time>2026-04-11T14:27:21.032Z</time></trkpt><trkpt lat="44.814425" lon="8.964645"><ele>367.0</ele><time>2026-04-11T14:27:22.032Z</time></trkpt><trkpt lat="44.8145417" lon="8.9646817"><ele>370.5</ele><time>2026-04-11T14:27:23.032Z</time></trkpt><trkpt lat="44.814675" lon="8.9646983"><ele>374.0</ele><time>2026-04-11T14:27:24.032Z</time></trkpt><trkpt lat="44.8148217" lon="8.9647133"><ele>374.0</ele><time>2026-04-11T14:27:25.032Z</time></trkpt><trkpt lat="44.81496" lon="8.96471"><ele>374.0</ele><time>2026-04-11T14:27:26.031Z</time></trkpt><trkpt lat="44.8150983" lon="8.9646967"><ele>374.0</ele><time>2026-04-11T14:27:27.032Z</time></trkpt><trkpt lat="44.81523" lon="8.9646683"><ele>374.0</ele><time>2026-04-11T14:27:28.032Z</time></trkpt><trkpt lat="44.8153483" lon="8.9646217"><ele>372.0</ele><time>2026-04-11T14:27:29.031Z</time></trkpt><trkpt lat="44.8154417" lon="8.9645533"><ele>370.0</ele><time>2026-04-11T14:27:30.032Z</time></trkpt><trkpt lat="44.8155317" lon="8.964475"><ele>368.0</ele><time>2026-04-11T14:27:31.032Z</time></trkpt><trkpt lat="44.81561" lon="8.9643883"><ele>366.0</ele><time>2026-04-11T14:27:32.032Z</time></trkpt><trkpt lat="44.8156833" lon="8.9642883"><ele>364.0</ele><time>2026-04-11T14:27:33.031Z</time></trkpt><trkpt lat="44.8157533" lon="8.964165"><ele>364.0</ele><time>2026-04-11T14:27:34.032Z</time></trkpt><trkpt lat="44.8158183" lon="8.964035"><ele>364.0</ele><time>2026-04-11T14:27:35.032Z</time></trkpt><trkpt lat="44.8158883" lon="8.9639"><ele>364.0</ele><time>2026-04-11T14:27:36.032Z</time></trkpt><trkpt lat="44.8159417" lon="8.9637583"><ele>364.0</ele><time>2026-04-11T14:27:37.031Z</time></trkpt><trkpt lat="44.8159733" lon="8.963595"><ele>362.5</ele><time>2026-04-11T14:27:38.032Z</time></trkpt><trkpt lat="44.8159867" lon="8.9634417"><ele>361.0</ele><time>2026-04-11T14:27:39.032Z</time></trkpt><trkpt lat="44.8159917" lon="8.9632867"><ele>359.5</ele><time>2026-04-11T14:27:40.032Z</time></trkpt><trkpt lat="44.81599" lon="8.9631267"><ele>358.0</ele><time>2026-04-11T14:27:41.032Z</time></trkpt><trkpt lat="44.815995" lon="8.96296"><ele>358.0</ele><time>2026-04-11T14:27:42.032Z</time></trkpt><trkpt lat="44.815995" lon="8.962795"><ele>358.0</ele><time>2026-04-11T14:27:43.032Z</time></trkpt><trkpt lat="44.8160033" lon="8.962635"><ele>358.0</ele><time>2026-04-11T14:27:44.031Z</time></trkpt><trkpt lat="44.816025" lon="8.9624633"><ele>358.0</ele><time>2026-04-11T14:27:45.032Z</time></trkpt><trkpt lat="44.816035" lon="8.962285"><ele>357.5</ele><time>2026-04-11T14:27:46.032Z</time></trkpt><trkpt lat="44.81605" lon="8.96211"><ele>357.0</ele><time>2026-04-11T14:27:47.031Z</time></trkpt><trkpt lat="44.8160717" lon="8.9619467"><ele>356.5</ele><time>2026-04-11T14:27:48.031Z</time></trkpt><trkpt lat="44.8160967" lon="8.9617933"><ele>356.0</ele><time>2026-04-11T14:27:49.032Z</time></trkpt><trkpt lat="44.8161217" lon="8.9616533"><ele>355.8</ele><time>2026-04-11T14:27:50.031Z</time></trkpt><trkpt lat="44.8161533" lon="8.9615183"><ele>355.6</ele><time>2026-04-11T14:27:51.032Z</time></trkpt><trkpt lat="44.8162233" lon="8.9614267"><ele>355.4</ele><time>2026-04-11T14:27:52.031Z</time></trkpt><trkpt lat="44.8163033" lon="8.961365"><ele>355.2</ele><time>2026-04-11T14:27:53.032Z</time></trkpt><trkpt lat="44.8164017" lon="8.9613433"><ele>355.0</ele><time>2026-04-11T14:27:54.032Z</time></trkpt><trkpt lat="44.816525" lon="8.9613417"><ele>355.0</ele><time>2026-04-11T14:27:55.032Z</time></trkpt><trkpt lat="44.8166467" lon="8.9613217"><ele>355.0</ele><time>2026-04-11T14:27:56.032Z</time></trkpt><trkpt lat="44.8167583" lon="8.9612717"><ele>355.0</ele><time>2026-04-11T14:27:57.032Z</time></trkpt><trkpt lat="44.8168567" lon="8.9611817"><ele>355.0</ele><time>2026-04-11T14:27:58.031Z</time></trkpt><trkpt lat="44.816935" lon="8.96106"><ele>353.6</ele><time>2026-04-11T14:27:59.032Z</time></trkpt><trkpt lat="44.816995" lon="8.960935"><ele>352.2</ele><time>2026-04-11T14:28:00.032Z</time></trkpt><trkpt lat="44.8170567" lon="8.9608233"><ele>350.79999999999995</ele><time>2026-04-11T14:28:01.032Z</time></trkpt><trkpt lat="44.8171283" lon="8.9607233"><ele>349.4</ele><time>2026-04-11T14:28:02.032Z</time></trkpt><trkpt lat="44.81721" lon="8.9606217"><ele>348.0</ele><time>2026-04-11T14:28:03.031Z</time></trkpt><trkpt lat="44.817295" lon="8.9605267"><ele>348.0</ele><time>2026-04-11T14:28:04.032Z</time></trkpt><trkpt lat="44.8173767" lon="8.9604267"><ele>348.0</ele><time>2026-04-11T14:28:05.032Z</time></trkpt><trkpt lat="44.8174617" lon="8.9603267"><ele>348.0</ele><time>2026-04-11T14:28:06.032Z</time></trkpt><trkpt lat="44.8175483" lon="8.9602283"><ele>348.0</ele><time>2026-04-11T14:28:07.032Z</time></trkpt><trkpt lat="44.817635" lon="8.9601167"><ele>348.0</ele><time>2026-04-11T14:28:08.032Z</time></trkpt><trkpt lat="44.8177167" lon="8.9600017"><ele>346.75</ele><time>2026-04-11T14:28:09.032Z</time></trkpt><trkpt lat="44.817805" lon="8.9598817"><ele>345.5</ele><time>2026-04-11T14:28:10.031Z</time></trkpt><trkpt lat="44.8178933" lon="8.959755"><ele>344.25</ele><time>2026-04-11T14:28:11.032Z</time></trkpt><trkpt lat="44.8179867" lon="8.959625"><ele>343.0</ele><time>2026-04-11T14:28:12.032Z</time></trkpt><trkpt lat="44.8180783" lon="8.959505"><ele>343.0</ele><time>2026-04-11T14:28:13.032Z</time></trkpt><trkpt lat="44.8181617" lon="8.95937"><ele>343.0</ele><time>2026-04-11T14:28:14.032Z</time></trkpt><trkpt lat="44.81825" lon="8.959235"><ele>343.0</ele><time>2026-04-11T14:28:15.032Z</time></trkpt><trkpt lat="44.8183417" lon="8.9591117"><ele>343.0</ele><time>2026-04-11T14:28:16.032Z</time></trkpt><trkpt lat="44.8184283" lon="8.9589817"><ele>340.5</ele><time>2026-04-11T14:28:17.031Z</time></trkpt><trkpt lat="44.8185083" lon="8.958845"><ele>338.0</ele><time>2026-04-11T14:28:18.031Z</time></trkpt><trkpt lat="44.8185767" lon="8.9587067"><ele>335.5</ele><time>2026-04-11T14:28:19.032Z</time></trkpt><trkpt lat="44.8186583" lon="8.9585817"><ele>333.0</ele><time>2026-04-11T14:28:20.032Z</time></trkpt><trkpt lat="44.8187417" lon="8.9584617"><ele>334.0</ele><time>2026-04-11T14:28:21.032Z</time></trkpt><trkpt lat="44.818825" lon="8.9583467"><ele>335.0</ele><time>2026-04-11T14:28:22.031Z</time></trkpt><trkpt lat="44.8189183" lon="8.95824"><ele>336.0</ele><time>2026-04-11T14:28:23.032Z</time></trkpt><trkpt lat="44.8190117" lon="8.9581433"><ele>337.0</ele><time>2026-04-11T14:28:24.032Z</time></trkpt><trkpt lat="44.81911" lon="8.95805"><ele>337.0</ele><time>2026-04-11T14:28:25.032Z</time></trkpt><trkpt lat="44.8192067" lon="8.9579533"><ele>337.0</ele><time>2026-04-11T14:28:26.032Z</time></trkpt><trkpt lat="44.819305" lon="8.9578517"><ele>337.0</ele><time>2026-04-11T14:28:27.032Z</time></trkpt><trkpt lat="44.8194067" lon="8.957755"><ele>337.0</ele><time>2026-04-11T14:28:28.032Z</time></trkpt><trkpt lat="44.8195167" lon="8.95767"><ele>337.0</ele><time>2026-04-11T14:28:29.032Z</time></trkpt><trkpt lat="44.8196383" lon="8.957605"><ele>337.0</ele><time>2026-04-11T14:28:30.031Z</time></trkpt><trkpt lat="44.8197667" lon="8.9575567"><ele>337.0</ele><time>2026-04-11T14:28:31.032Z</time></trkpt><trkpt lat="44.8198917" lon="8.9575083"><ele>337.0</ele><time>2026-04-11T14:28:32.031Z</time></trkpt><trkpt lat="44.8200233" lon="8.9574717"><ele>335.25</ele><time>2026-04-11T14:28:33.032Z</time></trkpt><trkpt lat="44.8201533" lon="8.9574283"><ele>333.5</ele><time>2026-04-11T14:28:34.032Z</time></trkpt><trkpt lat="44.8202933" lon="8.95739"><ele>331.75</ele><time>2026-04-11T14:28:35.032Z</time></trkpt><trkpt lat="44.8204233" lon="8.9573433"><ele>330.0</ele><time>2026-04-11T14:28:36.031Z</time></trkpt><trkpt lat="44.8205683" lon="8.9572933"><ele>330.0</ele><time>2026-04-11T14:28:37.032Z</time></trkpt><trkpt lat="44.820705" lon="8.9572333"><ele>330.0</ele><time>2026-04-11T14:28:38.032Z</time></trkpt><trkpt lat="44.8208217" lon="8.9571783"><ele>330.0</ele><time>2026-04-11T14:28:39.032Z</time></trkpt><trkpt lat="44.8209333" lon="8.9571067"><ele>330.0</ele><time>2026-04-11T14:28:40.032Z</time></trkpt><trkpt lat="44.8210233" lon="8.9570083"><ele>329.0</ele><time>2026-04-11T14:28:41.032Z</time></trkpt><trkpt lat="44.82109" lon="8.956895"><ele>328.0</ele><time>2026-04-11T14:28:42.031Z</time></trkpt><trkpt lat="44.8211483" lon="8.95677"><ele>327.0</ele><time>2026-04-11T14:28:43.032Z</time></trkpt><trkpt lat="44.8212117" lon="8.9566433"><ele>326.0</ele><time>2026-04-11T14:28:44.031Z</time></trkpt><trkpt lat="44.8212767" lon="8.9565083"><ele>325.0</ele><time>2026-04-11T14:28:45.031Z</time></trkpt><trkpt lat="44.8213383" lon="8.956365"><ele>325.0</ele><time>2026-04-11T14:28:46.031Z</time></trkpt><trkpt lat="44.8214033" lon="8.9562167"><ele>325.0</ele><time>2026-04-11T14:28:47.032Z</time></trkpt><trkpt lat="44.8214767" lon="8.956055"><ele>325.0</ele><time>2026-04-11T14:28:48.032Z</time></trkpt><trkpt lat="44.8215567" lon="8.9558967"><ele>325.0</ele><time>2026-04-11T14:28:49.032Z</time></trkpt><trkpt lat="44.8216317" lon="8.9557367"><ele>325.0</ele><time>2026-04-11T14:28:50.031Z</time></trkpt><trkpt lat="44.8217167" lon="8.955575"><ele>325.0</ele><time>2026-04-11T14:28:51.031Z</time></trkpt><trkpt lat="44.821795" lon="8.9554017"><ele>325.0</ele><time>2026-04-11T14:28:52.032Z</time></trkpt><trkpt lat="44.8218733" lon="8.9552317"><ele>325.0</ele><time>2026-04-11T14:28:53.032Z</time></trkpt><trkpt lat="44.82195" lon="8.95506"><ele>326.25</ele><time>2026-04-11T14:28:54.032Z</time></trkpt><trkpt lat="44.8220283" lon="8.9548867"><ele>327.5</ele><time>2026-04-11T14:28:55.032Z</time></trkpt><trkpt lat="44.8220967" lon="8.9547233"><ele>328.75</ele><time>2026-04-11T14:28:56.031Z</time></trkpt><trkpt lat="44.82216" lon="8.9545583"><ele>330.0</ele><time>2026-04-11T14:28:57.032Z</time></trkpt><trkpt lat="44.8222133" lon="8.9544067"><ele>330.0</ele><time>2026-04-11T14:28:58.032Z</time></trkpt><trkpt lat="44.82227" lon="8.95427"><ele>330.0</ele><time>2026-04-11T14:28:59.031Z</time></trkpt><trkpt lat="44.8223133" lon="8.9541267"><ele>330.0</ele><time>2026-04-11T14:29:00.032Z</time></trkpt><trkpt lat="44.822345" lon="8.9539733"><ele>330.0</ele><time>2026-04-11T14:29:01.032Z</time></trkpt><trkpt lat="44.8223683" lon="8.9538033"><ele>328.5</ele><time>2026-04-11T14:29:02.032Z</time></trkpt><trkpt lat="44.8223833" lon="8.953635"><ele>327.0</ele><time>2026-04-11T14:29:03.032Z</time></trkpt><trkpt lat="44.8223917" lon="8.9534567"><ele>325.5</ele><time>2026-04-11T14:29:04.032Z</time></trkpt><trkpt lat="44.822395" lon="8.9532583"><ele>324.0</ele><time>2026-04-11T14:29:05.032Z</time></trkpt><trkpt lat="44.822395" lon="8.9530683"><ele>322.0</ele><time>2026-04-11T14:29:06.032Z</time></trkpt><trkpt lat="44.8223983" lon="8.95288"><ele>320.0</ele><time>2026-04-11T14:29:07.032Z</time></trkpt><trkpt lat="44.8224" lon="8.9527233"><ele>318.0</ele><time>2026-04-11T14:29:08.032Z</time></trkpt><trkpt lat="44.8224117" lon="8.9525867"><ele>316.0</ele><time>2026-04-11T14:29:09.031Z</time></trkpt><trkpt lat="44.82244" lon="8.952455"><ele>314.0</ele><time>2026-04-11T14:29:10.032Z</time></trkpt><trkpt lat="44.8224833" lon="8.952345"><ele>312.8</ele><time>2026-04-11T14:29:11.031Z</time></trkpt><trkpt lat="44.822555" lon="8.952245"><ele>311.59999999999997</ele><time>2026-04-11T14:29:12.032Z</time></trkpt><trkpt lat="44.8226467" lon="8.9521667"><ele>310.4</ele><time>2026-04-11T14:29:13.032Z</time></trkpt><trkpt lat="44.8227483" lon="8.9521033"><ele>309.2</ele><time>2026-04-11T14:29:14.032Z</time></trkpt><trkpt lat="44.8228683" lon="8.9520733"><ele>308.0</ele><time>2026-04-11T14:29:15.032Z</time></trkpt><trkpt lat="44.822995" lon="8.952075"><ele>307.5</ele><time>2026-04-11T14:29:16.032Z</time></trkpt><trkpt lat="44.8231167" lon="8.9520983"><ele>307.0</ele><time>2026-04-11T14:29:17.032Z</time></trkpt><trkpt lat="44.8232467" lon="8.9521283"><ele>306.5</ele><time>2026-04-11T14:29:18.032Z</time></trkpt><trkpt lat="44.8233717" lon="8.952145"><ele>306.0</ele><time>2026-04-11T14:29:19.032Z</time></trkpt><trkpt lat="44.8234967" lon="8.9521233"><ele>303.75</ele><time>2026-04-11T14:29:20.032Z</time></trkpt><trkpt lat="44.8236233" lon="8.952065"><ele>301.5</ele><time>2026-04-11T14:29:21.032Z</time></trkpt><trkpt lat="44.8237583" lon="8.9519967"><ele>299.25</ele><time>2026-04-11T14:29:22.032Z</time></trkpt><trkpt lat="44.823885" lon="8.9519217"><ele>297.0</ele><time>2026-04-11T14:29:23.032Z</time></trkpt><trkpt lat="44.8240117" lon="8.9518433"><ele>297.0</ele><time>2026-04-11T14:29:24.031Z</time></trkpt><trkpt lat="44.824135" lon="8.9517383"><ele>297.0</ele><time>2026-04-11T14:29:25.032Z</time></trkpt><trkpt lat="44.8242517" lon="8.9516267"><ele>297.0</ele><time>2026-04-11T14:29:26.031Z</time></trkpt><trkpt lat="44.8243483" lon="8.9514817"><ele>297.0</ele><time>2026-04-11T14:29:27.032Z</time></trkpt><trkpt lat="44.8244317" lon="8.9513133"><ele>293.75</ele><time>2026-04-11T14:29:28.032Z</time></trkpt><trkpt lat="44.8244917" lon="8.9511283"><ele>290.5</ele><time>2026-04-11T14:29:29.032Z</time></trkpt><trkpt lat="44.824535" lon="8.95094"><ele>287.25</ele><time>2026-04-11T14:29:30.032Z</time></trkpt><trkpt lat="44.8245833" lon="8.9507433"><ele>284.0</ele><time>2026-04-11T14:29:31.032Z</time></trkpt><trkpt lat="44.82464" lon="8.9505533"><ele>284.0</ele><time>2026-04-11T14:29:32.032Z</time></trkpt><trkpt lat="44.8246933" lon="8.9503583"><ele>284.0</ele><time>2026-04-11T14:29:33.032Z</time></trkpt><trkpt lat="44.82475" lon="8.950165"><ele>284.0</ele><time>2026-04-11T14:29:34.031Z</time></trkpt><trkpt lat="44.824815" lon="8.94997"><ele>284.0</ele><time>2026-04-11T14:29:35.031Z</time></trkpt><trkpt lat="44.8248767" lon="8.9497733"><ele>284.5</ele><time>2026-04-11T14:29:36.032Z</time></trkpt><trkpt lat="44.82494" lon="8.949585"><ele>285.0</ele><time>2026-04-11T14:29:37.032Z</time></trkpt><trkpt lat="44.8249983" lon="8.9494017"><ele>285.5</ele><time>2026-04-11T14:29:38.032Z</time></trkpt><trkpt lat="44.825055" lon="8.9492133"><ele>286.0</ele><time>2026-04-11T14:29:39.031Z</time></trkpt><trkpt lat="44.825115" lon="8.94904"><ele>285.75</ele><time>2026-04-11T14:29:40.032Z</time></trkpt><trkpt lat="44.8251717" lon="8.9488733"><ele>285.5</ele><time>2026-04-11T14:29:41.032Z</time></trkpt><trkpt lat="44.8252433" lon="8.9487133"><ele>285.25</ele><time>2026-04-11T14:29:42.032Z</time></trkpt><trkpt lat="44.8253217" lon="8.9485567"><ele>285.0</ele><time>2026-04-11T14:29:43.031Z</time></trkpt><trkpt lat="44.8253983" lon="8.9484217"><ele>286.6</ele><time>2026-04-11T14:29:44.031Z</time></trkpt><trkpt lat="44.8254733" lon="8.9482917"><ele>288.2</ele><time>2026-04-11T14:29:45.032Z</time></trkpt><trkpt lat="44.825535" lon="8.9481667"><ele>289.8</ele><time>2026-04-11T14:29:46.031Z</time></trkpt><trkpt lat="44.8256" lon="8.948055"><ele>291.4</ele><time>2026-04-11T14:29:47.032Z</time></trkpt><trkpt lat="44.82567" lon="8.9479533"><ele>293.0</ele><time>2026-04-11T14:29:48.032Z</time></trkpt><trkpt lat="44.8257567" lon="8.9478617"><ele>293.0</ele><time>2026-04-11T14:29:49.032Z</time></trkpt><trkpt lat="44.8258517" lon="8.947785"><ele>293.0</ele><time>2026-04-11T14:29:50.031Z</time></trkpt><trkpt lat="44.8259483" lon="8.94772"><ele>293.0</ele><time>2026-04-11T14:29:51.032Z</time></trkpt><trkpt lat="44.826055" lon="8.9476617"><ele>293.0</ele><time>2026-04-11T14:29:52.032Z</time></trkpt><trkpt lat="44.8261683" lon="8.9476"><ele>292.75</ele><time>2026-04-11T14:29:53.032Z</time></trkpt><trkpt lat="44.826295" lon="8.947535"><ele>292.5</ele><time>2026-04-11T14:29:54.032Z</time></trkpt><trkpt lat="44.8264283" lon="8.9474683"><ele>292.25</ele><time>2026-04-11T14:29:55.031Z</time></trkpt><trkpt lat="44.82657" lon="8.9473983"><ele>292.0</ele><time>2026-04-11T14:29:56.031Z</time></trkpt><trkpt lat="44.826715" lon="8.9473233"><ele>289.0</ele><time>2026-04-11T14:29:57.031Z</time></trkpt><trkpt lat="44.8268583" lon="8.9472467"><ele>286.0</ele><time>2026-04-11T14:29:58.031Z</time></trkpt><trkpt lat="44.82699" lon="8.9471667"><ele>283.0</ele><time>2026-04-11T14:29:59.032Z</time></trkpt><trkpt lat="44.827125" lon="8.94708"><ele>280.0</ele><time>2026-04-11T14:30:00.032Z</time></trkpt><trkpt lat="44.8272483" lon="8.9469733"><ele>280.0</ele><time>2026-04-11T14:30:01.032Z</time></trkpt><trkpt lat="44.82736" lon="8.946835"><ele>280.0</ele><time>2026-04-11T14:30:02.032Z</time></trkpt><trkpt lat="44.8274433" lon="8.9466683"><ele>280.0</ele><time>2026-04-11T14:30:03.032Z</time></trkpt><trkpt lat="44.827505" lon="8.9464983"><ele>280.0</ele><time>2026-04-11T14:30:04.032Z</time></trkpt><trkpt lat="44.8275683" lon="8.9463167"><ele>279.5</ele><time>2026-04-11T14:30:05.031Z</time></trkpt><trkpt lat="44.8276367" lon="8.94614"><ele>279.0</ele><time>2026-04-11T14:30:06.032Z</time></trkpt><trkpt lat="44.8277083" lon="8.9459667"><ele>278.5</ele><time>2026-04-11T14:30:07.032Z</time></trkpt><trkpt lat="44.8277867" lon="8.9457867"><ele>278.0</ele><time>2026-04-11T14:30:08.032Z</time></trkpt><trkpt lat="44.827875" lon="8.945605"><ele>278.0</ele><time>2026-04-11T14:30:09.031Z</time></trkpt><trkpt lat="44.8279583" lon="8.9454267"><ele>278.0</ele><time>2026-04-11T14:30:10.031Z</time></trkpt><trkpt lat="44.8280433" lon="8.9452733"><ele>278.0</ele><time>2026-04-11T14:30:11.032Z</time></trkpt><trkpt lat="44.8281333" lon="8.9451317"><ele>278.0</ele><time>2026-04-11T14:30:12.031Z</time></trkpt><trkpt lat="44.82824" lon="8.9450217"><ele>279.25</ele><time>2026-04-11T14:30:13.032Z</time></trkpt><trkpt lat="44.8283433" lon="8.9449367"><ele>280.5</ele><time>2026-04-11T14:30:14.032Z</time></trkpt><trkpt lat="44.8284533" lon="8.9448683"><ele>281.75</ele><time>2026-04-11T14:30:15.032Z</time></trkpt><trkpt lat="44.8285483" lon="8.9447933"><ele>283.0</ele><time>2026-04-11T14:30:16.032Z</time></trkpt><trkpt lat="44.8286233" lon="8.9446967"><ele>282.2</ele><time>2026-04-11T14:30:17.032Z</time></trkpt><trkpt lat="44.8286967" lon="8.9445683"><ele>281.4</ele><time>2026-04-11T14:30:18.032Z</time></trkpt><trkpt lat="44.828745" lon="8.94443"><ele>280.59999999999997</ele><time>2026-04-11T14:30:19.032Z</time></trkpt><trkpt lat="44.828785" lon="8.94429"><ele>279.8</ele><time>2026-04-11T14:30:20.032Z</time></trkpt><trkpt lat="44.8288183" lon="8.94414"><ele>279.0</ele><time>2026-04-11T14:30:21.031Z</time></trkpt><trkpt lat="44.828855" lon="8.94398"><ele>279.0</ele><time>2026-04-11T14:30:22.032Z</time></trkpt><trkpt lat="44.8289017" lon="8.94383"><ele>279.0</ele><time>2026-04-11T14:30:23.032Z</time></trkpt><trkpt lat="44.8289633" lon="8.94368"><ele>279.0</ele><time>2026-04-11T14:30:24.032Z</time></trkpt><trkpt lat="44.8290417" lon="8.94354"><ele>279.0</ele><time>2026-04-11T14:30:25.031Z</time></trkpt><trkpt lat="44.8291267" lon="8.9434133"><ele>279.75</ele><time>2026-04-11T14:30:26.032Z</time></trkpt><trkpt lat="44.8292233" lon="8.9432917"><ele>280.5</ele><time>2026-04-11T14:30:27.032Z</time></trkpt><trkpt lat="44.8293317" lon="8.943185"><ele>281.25</ele><time>2026-04-11T14:30:28.031Z</time></trkpt><trkpt lat="44.82944" lon="8.9430833"><ele>282.0</ele><time>2026-04-11T14:30:29.031Z</time></trkpt><trkpt lat="44.829555" lon="8.942995"><ele>279.75</ele><time>2026-04-11T14:30:30.032Z</time></trkpt><trkpt lat="44.8296683" lon="8.9429183"><ele>277.5</ele><time>2026-04-11T14:30:31.032Z</time></trkpt><trkpt lat="44.8297767" lon="8.9428467"><ele>275.25</ele><time>2026-04-11T14:30:32.031Z</time></trkpt><trkpt lat="44.82988" lon="8.94277"><ele>273.0</ele><time>2026-04-11T14:30:33.032Z</time></trkpt><trkpt lat="44.8299733" lon="8.9426933"><ele>273.0</ele><time>2026-04-11T14:30:34.032Z</time></trkpt><trkpt lat="44.8300583" lon="8.942645"><ele>273.0</ele><time>2026-04-11T14:30:35.032Z</time></trkpt><trkpt lat="44.830135" lon="8.9426267"><ele>273.0</ele><time>2026-04-11T14:30:36.032Z</time></trkpt><trkpt lat="44.830215" lon="8.942635"><ele>273.0</ele><time>2026-04-11T14:30:37.032Z</time></trkpt><trkpt lat="44.8303117" lon="8.9426433"><ele>273.0</ele><time>2026-04-11T14:30:38.032Z</time></trkpt><trkpt lat="44.8304" lon="8.9426733"><ele>273.0</ele><time>2026-04-11T14:30:39.032Z</time></trkpt><trkpt lat="44.8304833" lon="8.9427367"><ele>272.2</ele><time>2026-04-11T14:30:40.032Z</time></trkpt><trkpt lat="44.8305567" lon="8.94283"><ele>271.4</ele><time>2026-04-11T14:30:41.031Z</time></trkpt><trkpt lat="44.8306267" lon="8.9429333"><ele>270.59999999999997</ele><time>2026-04-11T14:30:42.032Z</time></trkpt><trkpt lat="44.830695" lon="8.943035"><ele>269.8</ele><time>2026-04-11T14:30:43.032Z</time></trkpt><trkpt lat="44.8307617" lon="8.9431117"><ele>269.0</ele><time>2026-04-11T14:30:44.032Z</time></trkpt><trkpt lat="44.8308467" lon="8.9431617"><ele>269.0</ele><time>2026-04-11T14:30:45.031Z</time></trkpt><trkpt lat="44.8309433" lon="8.943185"><ele>269.0</ele><time>2026-04-11T14:30:46.032Z</time></trkpt><trkpt lat="44.83104" lon="8.943185"><ele>269.0</ele><time>2026-04-11T14:30:47.032Z</time></trkpt><trkpt lat="44.83113" lon="8.94316"><ele>269.0</ele><time>2026-04-11T14:30:48.031Z</time></trkpt><trkpt lat="44.831195" lon="8.9431083"><ele>269.0</ele><time>2026-04-11T14:30:49.03Z</time></trkpt><trkpt lat="44.8312583" lon="8.9430183"><ele>268.2</ele><time>2026-04-11T14:30:50.031Z</time></trkpt><trkpt lat="44.83131" lon="8.9428917"><ele>267.4</ele><time>2026-04-11T14:30:51.031Z</time></trkpt><trkpt lat="44.8313583" lon="8.9427533"><ele>266.6</ele><time>2026-04-11T14:30:52.031Z</time></trkpt><trkpt lat="44.8314183" lon="8.9426133"><ele>265.8</ele><time>2026-04-11T14:30:53.031Z</time></trkpt><trkpt lat="44.8315017" lon="8.9424933"><ele>265.0</ele><time>2026-04-11T14:30:54.031Z</time></trkpt><trkpt lat="44.8315983" lon="8.9424017"><ele>265.0</ele><time>2026-04-11T14:30:55.031Z</time></trkpt><trkpt lat="44.8317183" lon="8.9423483"><ele>265.0</ele><time>2026-04-11T14:30:56.031Z</time></trkpt><trkpt lat="44.8318533" lon="8.9423283"><ele>265.0</ele><time>2026-04-11T14:30:57.031Z</time></trkpt><trkpt lat="44.8319917" lon="8.9423217"><ele>265.0</ele><time>2026-04-11T14:30:58.031Z</time></trkpt><trkpt lat="44.8321217" lon="8.9423117"><ele>263.5</ele><time>2026-04-11T14:30:59.031Z</time></trkpt><trkpt lat="44.8322467" lon="8.9423033"><ele>262.0</ele><time>2026-04-11T14:31:00.031Z</time></trkpt><trkpt lat="44.8323767" lon="8.9422783"><ele>260.5</ele><time>2026-04-11T14:31:01.031Z</time></trkpt><trkpt lat="44.832505" lon="8.9422567"><ele>259.0</ele><time>2026-04-11T14:31:02.031Z</time></trkpt><trkpt lat="44.83264" lon="8.9422233"><ele>257.5</ele><time>2026-04-11T14:31:03.031Z</time></trkpt><trkpt lat="44.832775" lon="8.94219"><ele>256.0</ele><time>2026-04-11T14:31:04.03Z</time></trkpt><trkpt lat="44.8329183" lon="8.9421383"><ele>254.5</ele><time>2026-04-11T14:31:05.031Z</time></trkpt><trkpt lat="44.8330667" lon="8.9420833"><ele>253.0</ele><time>2026-04-11T14:31:06.031Z</time></trkpt><trkpt lat="44.833215" lon="8.9420167"><ele>253.0</ele><time>2026-04-11T14:31:07.031Z</time></trkpt><trkpt lat="44.8333517" lon="8.9419417"><ele>253.0</ele><time>2026-04-11T14:31:08.031Z</time></trkpt><trkpt lat="44.8334817" lon="8.941855"><ele>253.0</ele><time>2026-04-11T14:31:09.031Z</time></trkpt><trkpt lat="44.8336117" lon="8.9417633"><ele>253.0</ele><time>2026-04-11T14:31:10.03Z</time></trkpt><trkpt lat="44.8337433" lon="8.9416733"><ele>250.66666666666666</ele><time>2026-04-11T14:31:11.031Z</time></trkpt><trkpt lat="44.8338767" lon="8.94158"><ele>248.33333333333331</ele><time>2026-04-11T14:31:12.03Z</time></trkpt><trkpt lat="44.834015" lon="8.941485"><ele>246.0</ele><time>2026-04-11T14:31:13.031Z</time></trkpt><trkpt lat="44.8341533" lon="8.9413867"><ele>246.0</ele><time>2026-04-11T14:31:14.031Z</time></trkpt><trkpt lat="44.8343" lon="8.9412817"><ele>246.0</ele><time>2026-04-11T14:31:15.031Z</time></trkpt><trkpt lat="44.8344467" lon="8.9411833"><ele>246.0</ele><time>2026-04-11T14:31:16.031Z</time></trkpt><trkpt lat="44.834595" lon="8.9410767"><ele>246.0</ele><time>2026-04-11T14:31:17.031Z</time></trkpt><trkpt lat="44.83474" lon="8.9409783"><ele>246.0</ele><time>2026-04-11T14:31:18.03Z</time></trkpt><trkpt lat="44.834885" lon="8.94088"><ele>246.0</ele><time>2026-04-11T14:31:19.031Z</time></trkpt><trkpt lat="44.8350233" lon="8.940785"><ele>243.66666666666669</ele><time>2026-04-11T14:31:20.031Z</time></trkpt><trkpt lat="44.8351617" lon="8.9406933"><ele>241.33333333333334</ele><time>2026-04-11T14:31:21.031Z</time></trkpt><trkpt lat="44.8353017" lon="8.9406033"><ele>239.0</ele><time>2026-04-11T14:31:22.03Z</time></trkpt><trkpt lat="44.8354417" lon="8.9405283"><ele>239.0</ele><time>2026-04-11T14:31:23.031Z</time></trkpt><trkpt lat="44.8355833" lon="8.9404567"><ele>239.0</ele><time>2026-04-11T14:31:24.031Z</time></trkpt><trkpt lat="44.8357167" lon="8.9403833"><ele>239.0</ele><time>2026-04-11T14:31:25.031Z</time></trkpt><trkpt lat="44.8358367" lon="8.94031"><ele>239.0</ele><time>2026-04-11T14:31:26.031Z</time></trkpt><trkpt lat="44.835945" lon="8.9402217"><ele>237.0</ele><time>2026-04-11T14:31:27.03Z</time></trkpt><trkpt lat="44.836045" lon="8.9401133"><ele>235.0</ele><time>2026-04-11T14:31:28.031Z</time></trkpt><trkpt lat="44.836145" lon="8.9399833"><ele>233.0</ele><time>2026-04-11T14:31:29.031Z</time></trkpt><trkpt lat="44.8362367" lon="8.9398283"><ele>231.0</ele><time>2026-04-11T14:31:30.031Z</time></trkpt><trkpt lat="44.83633" lon="8.9396583"><ele>231.0</ele><time>2026-04-11T14:31:31.03Z</time></trkpt><trkpt lat="44.8364167" lon="8.9394833"><ele>231.0</ele><time>2026-04-11T14:31:32.031Z</time></trkpt><trkpt lat="44.83651" lon="8.9393033"><ele>231.0</ele><time>2026-04-11T14:31:33.031Z</time></trkpt><trkpt lat="44.8366067" lon="8.9391333"><ele>231.66666666666669</ele><time>2026-04-11T14:31:34.031Z</time></trkpt><trkpt lat="44.8367083" lon="8.9389667"><ele>232.33333333333334</ele><time>2026-04-11T14:31:35.031Z</time></trkpt><trkpt lat="44.8368067" lon="8.9388017"><ele>233.0</ele><time>2026-04-11T14:31:36.031Z</time></trkpt><trkpt lat="44.8369067" lon="8.9386317"><ele>232.33333333333334</ele><time>2026-04-11T14:31:37.031Z</time></trkpt><trkpt lat="44.8370117" lon="8.9384683"><ele>231.66666666666669</ele><time>2026-04-11T14:31:38.03Z</time></trkpt><trkpt lat="44.8371117" lon="8.9383083"><ele>231.0</ele><time>2026-04-11T14:31:39.031Z</time></trkpt><trkpt lat="44.837215" lon="8.93814"><ele>231.0</ele><time>2026-04-11T14:31:40.031Z</time></trkpt><trkpt lat="44.8373117" lon="8.937975"><ele>231.0</ele><time>2026-04-11T14:31:41.031Z</time></trkpt><trkpt lat="44.83741" lon="8.937815"><ele>231.0</ele><time>2026-04-11T14:31:42.031Z</time></trkpt><trkpt lat="44.8375133" lon="8.9376467"><ele>230.66666666666669</ele><time>2026-04-11T14:31:43.031Z</time></trkpt><trkpt lat="44.83762" lon="8.9374833"><ele>230.33333333333334</ele><time>2026-04-11T14:31:44.03Z</time></trkpt><trkpt lat="44.837725" lon="8.9373317"><ele>230.0</ele><time>2026-04-11T14:31:45.031Z</time></trkpt><trkpt lat="44.8378233" lon="8.9371817"><ele>230.0</ele><time>2026-04-11T14:31:46.031Z</time></trkpt><trkpt lat="44.83792" lon="8.9370383"><ele>230.0</ele><time>2026-04-11T14:31:47.031Z</time></trkpt><trkpt lat="44.8380167" lon="8.9368917"><ele>230.0</ele><time>2026-04-11T14:31:48.031Z</time></trkpt><trkpt lat="44.838115" lon="8.9367433"><ele>230.0</ele><time>2026-04-11T14:31:49.031Z</time></trkpt><trkpt lat="44.8382167" lon="8.9365817"><ele>231.66666666666669</ele><time>2026-04-11T14:31:50.031Z</time></trkpt><trkpt lat="44.8383233" lon="8.9364267"><ele>233.33333333333331</ele><time>2026-04-11T14:31:51.031Z</time></trkpt><trkpt lat="44.83843" lon="8.9362717"><ele>235.0</ele><time>2026-04-11T14:31:52.031Z</time></trkpt><trkpt lat="44.8385433" lon="8.9361133"><ele>233.0</ele><time>2026-04-11T14:31:53.031Z</time></trkpt><trkpt lat="44.8386583" lon="8.93597"><ele>231.0</ele><time>2026-04-11T14:31:54.03Z</time></trkpt><trkpt lat="44.8387817" lon="8.9358333"><ele>229.0</ele><time>2026-04-11T14:31:55.031Z</time></trkpt><trkpt lat="44.8389083" lon="8.9357083"><ele>229.0</ele><time>2026-04-11T14:31:56.03Z</time></trkpt><trkpt lat="44.8390567" lon="8.9356067"><ele>229.0</ele><time>2026-04-11T14:31:57.031Z</time></trkpt><trkpt lat="44.8392" lon="8.9355017"><ele>229.0</ele><time>2026-04-11T14:31:58.031Z</time></trkpt><trkpt lat="44.8393467" lon="8.9354067"><ele>228.0</ele><time>2026-04-11T14:31:59.031Z</time></trkpt><trkpt lat="44.8394917" lon="8.9353033"><ele>227.0</ele><time>2026-04-11T14:32:00.031Z</time></trkpt><trkpt lat="44.83964" lon="8.935205"><ele>226.0</ele><time>2026-04-11T14:32:01.03Z</time></trkpt><trkpt lat="44.839785" lon="8.935115"><ele>227.0</ele><time>2026-04-11T14:32:02.031Z</time></trkpt><trkpt lat="44.83992" lon="8.9350167"><ele>228.0</ele><time>2026-04-11T14:32:03.031Z</time></trkpt><trkpt lat="44.84005" lon="8.9349333"><ele>229.0</ele><time>2026-04-11T14:32:04.031Z</time></trkpt><trkpt lat="44.8401783" lon="8.934845"><ele>230.0</ele><time>2026-04-11T14:32:05.031Z</time></trkpt><trkpt lat="44.8403083" lon="8.9347583"><ele>230.0</ele><time>2026-04-11T14:32:06.031Z</time></trkpt><trkpt lat="44.840435" lon="8.9346783"><ele>230.0</ele><time>2026-04-11T14:32:07.031Z</time></trkpt><trkpt lat="44.8405667" lon="8.93459"><ele>230.0</ele><time>2026-04-11T14:32:08.031Z</time></trkpt><trkpt lat="44.84069" lon="8.93449"><ele>230.0</ele><time>2026-04-11T14:32:09.03Z</time></trkpt><trkpt lat="44.8408067" lon="8.9343917"><ele>230.0</ele><time>2026-04-11T14:32:10.031Z</time></trkpt><trkpt lat="44.8409033" lon="8.9343067"><ele>230.0</ele><time>2026-04-11T14:32:11.03Z</time></trkpt><trkpt lat="44.8410067" lon="8.9342167"><ele>230.0</ele><time>2026-04-11T14:32:12.03Z</time></trkpt><trkpt lat="44.8411083" lon="8.934135"><ele>230.0</ele><time>2026-04-11T14:32:13.031Z</time></trkpt><trkpt lat="44.8412083" lon="8.93405"><ele>231.0</ele><time>2026-04-11T14:32:14.031Z</time></trkpt><trkpt lat="44.8412983" lon="8.9339633"><ele>232.0</ele><time>2026-04-11T14:32:15.031Z</time></trkpt><trkpt lat="44.8413867" lon="8.93388"><ele>233.0</ele><time>2026-04-11T14:32:16.031Z</time></trkpt><trkpt lat="44.841475" lon="8.9337933"><ele>234.0</ele><time>2026-04-11T14:32:17.031Z</time></trkpt><trkpt lat="44.84156" lon="8.93371"><ele>235.0</ele><time>2026-04-11T14:32:18.031Z</time></trkpt><trkpt lat="44.8416483" lon="8.9336267"><ele>235.0</ele><time>2026-04-11T14:32:19.031Z</time></trkpt><trkpt lat="44.8417367" lon="8.9335383"><ele>235.0</ele><time>2026-04-11T14:32:20.031Z</time></trkpt><trkpt lat="44.84183" lon="8.9334433"><ele>235.0</ele><time>2026-04-11T14:32:21.031Z</time></trkpt><trkpt lat="44.8419333" lon="8.9333533"><ele>235.0</ele><time>2026-04-11T14:32:22.03Z</time></trkpt><trkpt lat="44.84204" lon="8.9332583"><ele>235.25</ele><time>2026-04-11T14:32:23.031Z</time></trkpt><trkpt lat="44.842145" lon="8.9331683"><ele>235.5</ele><time>2026-04-11T14:32:24.031Z</time></trkpt><trkpt lat="44.8422517" lon="8.93309"><ele>235.75</ele><time>2026-04-11T14:32:25.031Z</time></trkpt><trkpt lat="44.8423733" lon="8.933025"><ele>236.0</ele><time>2026-04-11T14:32:26.031Z</time></trkpt><trkpt lat="44.84249" lon="8.9329567"><ele>236.0</ele><time>2026-04-11T14:32:27.031Z</time></trkpt><trkpt lat="44.8426083" lon="8.9328817"><ele>236.0</ele><time>2026-04-11T14:32:28.031Z</time></trkpt><trkpt lat="44.8427317" lon="8.9328"><ele>236.0</ele><time>2026-04-11T14:32:29.03Z</time></trkpt><trkpt lat="44.842865" lon="8.93273"><ele>236.0</ele><time>2026-04-11T14:32:30.031Z</time></trkpt><trkpt lat="44.843005" lon="8.93266"><ele>236.0</ele><time>2026-04-11T14:32:31.03Z</time></trkpt><trkpt lat="44.8431467" lon="8.9325867"><ele>236.0</ele><time>2026-04-11T14:32:32.03Z</time></trkpt><trkpt lat="44.8432767" lon="8.932515"><ele>236.0</ele><time>2026-04-11T14:32:33.031Z</time></trkpt><trkpt lat="44.8433933" lon="8.9324583"><ele>236.0</ele><time>2026-04-11T14:32:34.031Z</time></trkpt><trkpt lat="44.8434917" lon="8.93241"><ele>236.00000000000003</ele><time>2026-04-11T14:32:35.031Z</time></trkpt><trkpt lat="44.8435717" lon="8.9323683"><ele>236.0</ele><time>2026-04-11T14:32:36.03Z</time></trkpt><trkpt lat="44.8436567" lon="8.932335"><ele>236.0</ele><time>2026-04-11T14:32:37.031Z</time></trkpt><trkpt lat="44.843745" lon="8.9323067"><ele>236.0</ele><time>2026-04-11T14:32:38.031Z</time></trkpt><trkpt lat="44.8438267" lon="8.9322817"><ele>236.00000000000003</ele><time>2026-04-11T14:32:39.031Z</time></trkpt><trkpt lat="44.8439233" lon="8.93224"><ele>236.0</ele><time>2026-04-11T14:32:40.031Z</time></trkpt><trkpt lat="44.8440267" lon="8.9321883"><ele>236.0</ele><time>2026-04-11T14:32:41.031Z</time></trkpt><trkpt lat="44.844125" lon="8.9321333"><ele>236.0</ele><time>2026-04-11T14:32:42.031Z</time></trkpt><trkpt lat="44.8442333" lon="8.9320717"><ele>236.0</ele><time>2026-04-11T14:32:43.031Z</time></trkpt><trkpt lat="44.844345" lon="8.9320133"><ele>236.0</ele><time>2026-04-11T14:32:44.031Z</time></trkpt><trkpt lat="44.8444617" lon="8.93195"><ele>236.0</ele><time>2026-04-11T14:32:45.031Z</time></trkpt><trkpt lat="44.84458" lon="8.9318767"><ele>236.0</ele><time>2026-04-11T14:32:46.03Z</time></trkpt><trkpt lat="44.8447067" lon="8.9318"><ele>236.0</ele><time>2026-04-11T14:32:47.03Z</time></trkpt><trkpt lat="44.84483" lon="8.9317283"><ele>236.0</ele><time>2026-04-11T14:32:48.03Z</time></trkpt><trkpt lat="44.8449633" lon="8.9316483"><ele>236.0</ele><time>2026-04-11T14:32:49.03Z</time></trkpt><trkpt lat="44.8450933" lon="8.931565"><ele>236.0</ele><time>2026-04-11T14:32:50.031Z</time></trkpt><trkpt lat="44.8452233" lon="8.931485"><ele>236.0</ele><time>2026-04-11T14:32:51.031Z</time></trkpt><trkpt lat="44.8453633" lon="8.9313917"><ele>236.0</ele><time>2026-04-11T14:32:52.03Z</time></trkpt><trkpt lat="44.8455017" lon="8.931285"><ele>233.0</ele><time>2026-04-11T14:32:53.031Z</time></trkpt><trkpt lat="44.8456367" lon="8.931175"><ele>230.0</ele><time>2026-04-11T14:32:54.031Z</time></trkpt><trkpt lat="44.8457667" lon="8.9310583"><ele>227.0</ele><time>2026-04-11T14:32:55.031Z</time></trkpt><trkpt lat="44.8458933" lon="8.930945"><ele>228.0</ele><time>2026-04-11T14:32:56.031Z</time></trkpt><trkpt lat="44.84602" lon="8.93084"><ele>229.0</ele><time>2026-04-11T14:32:57.031Z</time></trkpt><trkpt lat="44.8461483" lon="8.9307367"><ele>230.0</ele><time>2026-04-11T14:32:58.031Z</time></trkpt><trkpt lat="44.8462783" lon="8.9306333"><ele>231.0</ele><time>2026-04-11T14:32:59.031Z</time></trkpt><trkpt lat="44.8464183" lon="8.9305333"><ele>231.0</ele><time>2026-04-11T14:33:00.031Z</time></trkpt><trkpt lat="44.8465533" lon="8.93044"><ele>231.0</ele><time>2026-04-11T14:33:01.031Z</time></trkpt><trkpt lat="44.8466917" lon="8.930355"><ele>231.0</ele><time>2026-04-11T14:33:02.031Z</time></trkpt><trkpt lat="44.8468217" lon="8.930275"><ele>231.0</ele><time>2026-04-11T14:33:03.031Z</time></trkpt><trkpt lat="44.8469433" lon="8.9301983"><ele>232.25</ele><time>2026-04-11T14:33:04.031Z</time></trkpt><trkpt lat="44.847065" lon="8.9301233"><ele>233.5</ele><time>2026-04-11T14:33:05.03Z</time></trkpt><trkpt lat="44.8471783" lon="8.930065"><ele>234.75</ele><time>2026-04-11T14:33:06.03Z</time></trkpt><trkpt lat="44.8473033" lon="8.930005"><ele>236.0</ele><time>2026-04-11T14:33:07.031Z</time></trkpt><trkpt lat="44.8474217" lon="8.9299367"><ele>236.0</ele><time>2026-04-11T14:33:08.031Z</time></trkpt><trkpt lat="44.8475417" lon="8.9298733"><ele>236.0</ele><time>2026-04-11T14:33:09.03Z</time></trkpt><trkpt lat="44.84765" lon="8.9298083"><ele>236.0</ele><time>2026-04-11T14:33:10.031Z</time></trkpt><trkpt lat="44.8477567" lon="8.929755"><ele>236.0</ele><time>2026-04-11T14:33:11.031Z</time></trkpt><trkpt lat="44.8478683" lon="8.9296983"><ele>236.0</ele><time>2026-04-11T14:33:12.031Z</time></trkpt><trkpt lat="44.84799" lon="8.9296383"><ele>236.0</ele><time>2026-04-11T14:33:13.031Z</time></trkpt><trkpt lat="44.84812" lon="8.9295733"><ele>236.0</ele><time>2026-04-11T14:33:14.031Z</time></trkpt><trkpt lat="44.8482433" lon="8.92951"><ele>236.0</ele><time>2026-04-11T14:33:15.031Z</time></trkpt><trkpt lat="44.8483733" lon="8.9294533"><ele>235.25</ele><time>2026-04-11T14:33:16.031Z</time></trkpt><trkpt lat="44.8485083" lon="8.9294"><ele>234.5</ele><time>2026-04-11T14:33:17.031Z</time></trkpt><trkpt lat="44.84865" lon="8.9293367"><ele>233.75</ele><time>2026-04-11T14:33:18.031Z</time></trkpt><trkpt lat="44.8487883" lon="8.9292717"><ele>233.0</ele><time>2026-04-11T14:33:19.031Z</time></trkpt><trkpt lat="44.8489283" lon="8.9291883"><ele>234.0</ele><time>2026-04-11T14:33:20.03Z</time></trkpt><trkpt lat="44.8490417" lon="8.9290733"><ele>235.0</ele><time>2026-04-11T14:33:21.031Z</time></trkpt><trkpt lat="44.8491567" lon="8.928945"><ele>236.0</ele><time>2026-04-11T14:33:22.031Z</time></trkpt><trkpt lat="44.8492683" lon="8.92879"><ele>237.0</ele><time>2026-04-11T14:33:23.031Z</time></trkpt><trkpt lat="44.8493667" lon="8.9286267"><ele>237.0</ele><time>2026-04-11T14:33:24.031Z</time></trkpt><trkpt lat="44.8494567" lon="8.9284683"><ele>237.0</ele><time>2026-04-11T14:33:25.031Z</time></trkpt><trkpt lat="44.8495433" lon="8.9282983"><ele>237.0</ele><time>2026-04-11T14:33:26.031Z</time></trkpt><trkpt lat="44.8496367" lon="8.9281383"><ele>237.0</ele><time>2026-04-11T14:33:27.031Z</time></trkpt><trkpt lat="44.8497233" lon="8.92798"><ele>239.0</ele><time>2026-04-11T14:33:28.03Z</time></trkpt><trkpt lat="44.8498083" lon="8.927815"><ele>241.0</ele><time>2026-04-11T14:33:29.03Z</time></trkpt><trkpt lat="44.8498967" lon="8.9276567"><ele>243.0</ele><time>2026-04-11T14:33:30.031Z</time></trkpt><trkpt lat="44.84998" lon="8.927495"><ele>245.0</ele><time>2026-04-11T14:33:31.031Z</time></trkpt><trkpt lat="44.8500567" lon="8.92734"><ele>245.0</ele><time>2026-04-11T14:33:32.031Z</time></trkpt><trkpt lat="44.85014" lon="8.9271867"><ele>245.0</ele><time>2026-04-11T14:33:33.031Z</time></trkpt><trkpt lat="44.8502167" lon="8.92703"><ele>245.0</ele><time>2026-04-11T14:33:34.031Z</time></trkpt><trkpt lat="44.8502867" lon="8.9268833"><ele>245.0</ele><time>2026-04-11T14:33:35.031Z</time></trkpt><trkpt lat="44.8503667" lon="8.9267217"><ele>246.5</ele><time>2026-04-11T14:33:36.03Z</time></trkpt><trkpt lat="44.850445" lon="8.9265583"><ele>248.0</ele><time>2026-04-11T14:33:37.031Z</time></trkpt><trkpt lat="44.8505283" lon="8.9263967"><ele>249.5</ele><time>2026-04-11T14:33:38.031Z</time></trkpt><trkpt lat="44.8506117" lon="8.92623"><ele>251.0</ele><time>2026-04-11T14:33:39.031Z</time></trkpt><trkpt lat="44.8506933" lon="8.926065"><ele>252.0</ele><time>2026-04-11T14:33:40.031Z</time></trkpt><trkpt lat="44.8507817" lon="8.92589"><ele>253.0</ele><time>2026-04-11T14:33:41.03Z</time></trkpt><trkpt lat="44.8508667" lon="8.925715"><ele>254.0</ele><time>2026-04-11T14:33:42.031Z</time></trkpt><trkpt lat="44.8509533" lon="8.9255367"><ele>253.33333333333334</ele><time>2026-04-11T14:33:43.03Z</time></trkpt><trkpt lat="44.851045" lon="8.9253567"><ele>252.66666666666669</ele><time>2026-04-11T14:33:44.03Z</time></trkpt><trkpt lat="44.85114" lon="8.92518"><ele>252.0</ele><time>2026-04-11T14:33:45.031Z</time></trkpt><trkpt lat="44.8512317" lon="8.92501"><ele>253.75</ele><time>2026-04-11T14:33:46.031Z</time></trkpt><trkpt lat="44.851325" lon="8.9248283"><ele>255.5</ele><time>2026-04-11T14:33:47.031Z</time></trkpt><trkpt lat="44.8514117" lon="8.9246567"><ele>257.25</ele><time>2026-04-11T14:33:48.031Z</time></trkpt><trkpt lat="44.851495" lon="8.9245033"><ele>259.0</ele><time>2026-04-11T14:33:49.03Z</time></trkpt><trkpt lat="44.851595" lon="8.924355"><ele>258.75</ele><time>2026-04-11T14:33:50.031Z</time></trkpt><trkpt lat="44.8516867" lon="8.9242167"><ele>258.5</ele><time>2026-04-11T14:33:51.031Z</time></trkpt><trkpt lat="44.8517983" lon="8.9240867"><ele>258.25</ele><time>2026-04-11T14:33:52.031Z</time></trkpt><trkpt lat="44.85192" lon="8.9239517"><ele>258.0</ele><time>2026-04-11T14:33:53.031Z</time></trkpt><trkpt lat="44.8520367" lon="8.9238017"><ele>257.3333333333333</ele><time>2026-04-11T14:33:54.031Z</time></trkpt><trkpt lat="44.85216" lon="8.9236467"><ele>256.66666666666663</ele><time>2026-04-11T14:33:55.031Z</time></trkpt><trkpt lat="44.8522817" lon="8.92348"><ele>256.0</ele><time>2026-04-11T14:33:56.031Z</time></trkpt><trkpt lat="44.8524" lon="8.9233217"><ele>256.0</ele><time>2026-04-11T14:33:57.03Z</time></trkpt><trkpt lat="44.85252" lon="8.9231683"><ele>256.0</ele><time>2026-04-11T14:33:58.031Z</time></trkpt><trkpt lat="44.8526367" lon="8.9230167"><ele>256.0</ele><time>2026-04-11T14:33:59.031Z</time></trkpt><trkpt lat="44.8527433" lon="8.922865"><ele>256.66666666666663</ele><time>2026-04-11T14:34:00.031Z</time></trkpt><trkpt lat="44.8528567" lon="8.92272"><ele>257.3333333333333</ele><time>2026-04-11T14:34:01.03Z</time></trkpt><trkpt lat="44.8529783" lon="8.9225767"><ele>258.0</ele><time>2026-04-11T14:34:02.031Z</time></trkpt><trkpt lat="44.8531067" lon="8.92245"><ele>258.0</ele><time>2026-04-11T14:34:03.031Z</time></trkpt><trkpt lat="44.8532433" lon="8.92233"><ele>258.0</ele><time>2026-04-11T14:34:04.031Z</time></trkpt><trkpt lat="44.8533717" lon="8.9222183"><ele>258.0</ele><time>2026-04-11T14:34:05.031Z</time></trkpt><trkpt lat="44.8535" lon="8.92211"><ele>257.0</ele><time>2026-04-11T14:34:06.031Z</time></trkpt><trkpt lat="44.8536283" lon="8.9219983"><ele>256.0</ele><time>2026-04-11T14:34:07.031Z</time></trkpt><trkpt lat="44.8537583" lon="8.9218967"><ele>255.0</ele><time>2026-04-11T14:34:08.03Z</time></trkpt><trkpt lat="44.8538833" lon="8.9217967"><ele>254.0</ele><time>2026-04-11T14:34:09.031Z</time></trkpt><trkpt lat="44.8540067" lon="8.9216967"><ele>254.75</ele><time>2026-04-11T14:34:10.031Z</time></trkpt><trkpt lat="44.8541267" lon="8.9215783"><ele>255.5</ele><time>2026-04-11T14:34:11.031Z</time></trkpt><trkpt lat="44.8542367" lon="8.92146"><ele>256.25</ele><time>2026-04-11T14:34:12.031Z</time></trkpt><trkpt lat="44.8543467" lon="8.9213383"><ele>257.0</ele><time>2026-04-11T14:34:13.03Z</time></trkpt><trkpt lat="44.8544467" lon="8.92122"><ele>257.0</ele><time>2026-04-11T14:34:14.031Z</time></trkpt><trkpt lat="44.8545617" lon="8.9210967"><ele>257.0</ele><time>2026-04-11T14:34:15.031Z</time></trkpt><trkpt lat="44.8546717" lon="8.92097"><ele>257.0</ele><time>2026-04-11T14:34:16.03Z</time></trkpt><trkpt lat="44.8547783" lon="8.9208433"><ele>257.0</ele><time>2026-04-11T14:34:17.031Z</time></trkpt><trkpt lat="44.8548817" lon="8.9207133"><ele>259.25</ele><time>2026-04-11T14:34:18.031Z</time></trkpt><trkpt lat="44.8549817" lon="8.920575"><ele>261.5</ele><time>2026-04-11T14:34:19.03Z</time></trkpt><trkpt lat="44.855085" lon="8.9204417"><ele>263.75</ele><time>2026-04-11T14:34:20.031Z</time></trkpt><trkpt lat="44.8551917" lon="8.92031"><ele>266.0</ele><time>2026-04-11T14:34:21.031Z</time></trkpt><trkpt lat="44.8552917" lon="8.920185"><ele>268.25</ele><time>2026-04-11T14:34:22.031Z</time></trkpt><trkpt lat="44.8553983" lon="8.92006"><ele>270.5</ele><time>2026-04-11T14:34:23.031Z</time></trkpt><trkpt lat="44.855505" lon="8.919945"><ele>272.75</ele><time>2026-04-11T14:34:24.031Z</time></trkpt><trkpt lat="44.855615" lon="8.9198167"><ele>275.0</ele><time>2026-04-11T14:34:25.03Z</time></trkpt><trkpt lat="44.855725" lon="8.9196967"><ele>275.0</ele><time>2026-04-11T14:34:26.031Z</time></trkpt><trkpt lat="44.85583" lon="8.9195683"><ele>275.0</ele><time>2026-04-11T14:34:27.03Z</time></trkpt><trkpt lat="44.8559417" lon="8.919445"><ele>275.0</ele><time>2026-04-11T14:34:28.031Z</time></trkpt><trkpt lat="44.85604" lon="8.9193333"><ele>275.0</ele><time>2026-04-11T14:34:29.031Z</time></trkpt><trkpt lat="44.85614" lon="8.9192233"><ele>275.75</ele><time>2026-04-11T14:34:30.03Z</time></trkpt><trkpt lat="44.8562317" lon="8.919105"><ele>276.5</ele><time>2026-04-11T14:34:31.031Z</time></trkpt><trkpt lat="44.8563167" lon="8.9189733"><ele>277.25</ele><time>2026-04-11T14:34:32.031Z</time></trkpt><trkpt lat="44.856405" lon="8.91883"><ele>278.0</ele><time>2026-04-11T14:34:33.031Z</time></trkpt><trkpt lat="44.8564917" lon="8.91868"><ele>278.0</ele><time>2026-04-11T14:34:34.031Z</time></trkpt><trkpt lat="44.8565867" lon="8.9185267"><ele>278.0</ele><time>2026-04-11T14:34:35.03Z</time></trkpt><trkpt lat="44.85669" lon="8.918375"><ele>278.0</ele><time>2026-04-11T14:34:36.031Z</time></trkpt><trkpt lat="44.85678" lon="8.9182233"><ele>278.0</ele><time>2026-04-11T14:34:37.031Z</time></trkpt><trkpt lat="44.856875" lon="8.918065"><ele>280.25</ele><time>2026-04-11T14:34:38.031Z</time></trkpt><trkpt lat="44.8569667" lon="8.9179033"><ele>282.5</ele><time>2026-04-11T14:34:39.03Z</time></trkpt><trkpt lat="44.85705" lon="8.917735"><ele>284.75</ele><time>2026-04-11T14:34:40.031Z</time></trkpt><trkpt lat="44.8571217" lon="8.9175583"><ele>287.0</ele><time>2026-04-11T14:34:41.031Z</time></trkpt><trkpt lat="44.8571933" lon="8.9173617"><ele>288.0</ele><time>2026-04-11T14:34:42.031Z</time></trkpt><trkpt lat="44.8572667" lon="8.9171717"><ele>289.0</ele><time>2026-04-11T14:34:43.031Z</time></trkpt><trkpt lat="44.85734" lon="8.9169733"><ele>290.0</ele><time>2026-04-11T14:34:44.031Z</time></trkpt><trkpt lat="44.8574017" lon="8.916775"><ele>291.25</ele><time>2026-04-11T14:34:45.031Z</time></trkpt><trkpt lat="44.8574683" lon="8.9165917"><ele>292.5</ele><time>2026-04-11T14:34:46.031Z</time></trkpt><trkpt lat="44.8575217" lon="8.9164133"><ele>293.75</ele><time>2026-04-11T14:34:47.031Z</time></trkpt><trkpt lat="44.8575817" lon="8.9162283"><ele>295.0</ele><time>2026-04-11T14:34:48.031Z</time></trkpt><trkpt lat="44.8576433" lon="8.9160667"><ele>301.0</ele><time>2026-04-11T14:34:49.031Z</time></trkpt><trkpt lat="44.8577067" lon="8.915925"><ele>307.0</ele><time>2026-04-11T14:34:50.03Z</time></trkpt><trkpt lat="44.8577633" lon="8.9157717"><ele>313.0</ele><time>2026-04-11T14:34:51.031Z</time></trkpt><trkpt lat="44.8578167" lon="8.9156217"><ele>319.0</ele><time>2026-04-11T14:34:52.03Z</time></trkpt><trkpt lat="44.85787" lon="8.9154633"><ele>319.0</ele><time>2026-04-11T14:34:53.031Z</time></trkpt><trkpt lat="44.85794" lon="8.9153283"><ele>319.0</ele><time>2026-04-11T14:34:54.031Z</time></trkpt><trkpt lat="44.8580083" lon="8.9151967"><ele>319.0</ele><time>2026-04-11T14:34:55.031Z</time></trkpt><trkpt lat="44.858085" lon="8.9150817"><ele>319.0</ele><time>2026-04-11T14:34:56.031Z</time></trkpt><trkpt lat="44.8581683" lon="8.91496"><ele>317.0</ele><time>2026-04-11T14:34:57.03Z</time></trkpt><trkpt lat="44.858255" lon="8.9148417"><ele>315.0</ele><time>2026-04-11T14:34:58.031Z</time></trkpt><trkpt lat="44.8583433" lon="8.9147233"><ele>313.0</ele><time>2026-04-11T14:34:59.031Z</time></trkpt><trkpt lat="44.8584383" lon="8.9146067"><ele>311.0</ele><time>2026-04-11T14:35:00.031Z</time></trkpt><trkpt lat="44.8585317" lon="8.91451"><ele>311.0</ele><time>2026-04-11T14:35:01.031Z</time></trkpt><trkpt lat="44.8586283" lon="8.91442"><ele>311.0</ele><time>2026-04-11T14:35:02.03Z</time></trkpt><trkpt lat="44.8587317" lon="8.9143283"><ele>311.0</ele><time>2026-04-11T14:35:03.031Z</time></trkpt><trkpt lat="44.858835" lon="8.9142533"><ele>311.0</ele><time>2026-04-11T14:35:04.031Z</time></trkpt><trkpt lat="44.858935" lon="8.9141917"><ele>310.25</ele><time>2026-04-11T14:35:05.031Z</time></trkpt><trkpt lat="44.8590383" lon="8.9141383"><ele>309.5</ele><time>2026-04-11T14:35:06.031Z</time></trkpt><trkpt lat="44.8591433" lon="8.9141083"><ele>308.75</ele><time>2026-04-11T14:35:07.031Z</time></trkpt><trkpt lat="44.85926" lon="8.9140867"><ele>308.0</ele><time>2026-04-11T14:35:08.031Z</time></trkpt><trkpt lat="44.8593783" lon="8.9140617"><ele>308.0</ele><time>2026-04-11T14:35:09.03Z</time></trkpt><trkpt lat="44.8594867" lon="8.9140567"><ele>308.0</ele><time>2026-04-11T14:35:10.029Z</time></trkpt><trkpt lat="44.8595883" lon="8.9140467"><ele>308.0</ele><time>2026-04-11T14:35:11.03Z</time></trkpt><trkpt lat="44.8596883" lon="8.914045"><ele>308.0</ele><time>2026-04-11T14:35:12.03Z</time></trkpt><trkpt lat="44.859795" lon="8.9140383"><ele>308.0</ele><time>2026-04-11T14:35:13.03Z</time></trkpt><trkpt lat="44.8599017" lon="8.91403"><ele>308.0</ele><time>2026-04-11T14:35:14.029Z</time></trkpt><trkpt lat="44.8600117" lon="8.914065"><ele>308.0</ele><time>2026-04-11T14:35:15.03Z</time></trkpt><trkpt lat="44.8601267" lon="8.914125"><ele>308.0</ele><time>2026-04-11T14:35:16.029Z</time></trkpt><trkpt lat="44.8602383" lon="8.9142133"><ele>308.0</ele><time>2026-04-11T14:35:17.029Z</time></trkpt><trkpt lat="44.8603483" lon="8.9143367"><ele>308.0</ele><time>2026-04-11T14:35:18.029Z</time></trkpt><trkpt lat="44.8604483" lon="8.9144733"><ele>308.0</ele><time>2026-04-11T14:35:19.03Z</time></trkpt><trkpt lat="44.8605617" lon="8.9146233"><ele>308.0</ele><time>2026-04-11T14:35:20.03Z</time></trkpt><trkpt lat="44.86067" lon="8.91476"><ele>308.0</ele><time>2026-04-11T14:35:21.029Z</time></trkpt><trkpt lat="44.8607733" lon="8.9149067"><ele>308.0</ele><time>2026-04-11T14:35:22.03Z</time></trkpt><trkpt lat="44.8608783" lon="8.915045"><ele>308.0</ele><time>2026-04-11T14:35:23.03Z</time></trkpt><trkpt lat="44.86098" lon="8.9151717"><ele>308.0</ele><time>2026-04-11T14:35:24.03Z</time></trkpt><trkpt lat="44.8610833" lon="8.9152733"><ele>308.0</ele><time>2026-04-11T14:35:25.03Z</time></trkpt><trkpt lat="44.8611933" lon="8.9153533"><ele>309.75</ele><time>2026-04-11T14:35:26.03Z</time></trkpt><trkpt lat="44.8613017" lon="8.91541"><ele>311.5</ele><time>2026-04-11T14:35:27.029Z</time></trkpt><trkpt lat="44.8614133" lon="8.91546"><ele>313.25</ele><time>2026-04-11T14:35:28.03Z</time></trkpt><trkpt lat="44.86153" lon="8.91548"><ele>315.0</ele><time>2026-04-11T14:35:29.029Z</time></trkpt><trkpt lat="44.8616467" lon="8.9155067"><ele>315.0</ele><time>2026-04-11T14:35:30.03Z</time></trkpt><trkpt lat="44.8617683" lon="8.9154967"><ele>315.0</ele><time>2026-04-11T14:35:31.03Z</time></trkpt><trkpt lat="44.8618633" lon="8.9154833"><ele>315.0</ele><time>2026-04-11T14:35:32.03Z</time></trkpt><trkpt lat="44.86196" lon="8.91542"><ele>315.0</ele><time>2026-04-11T14:35:33.029Z</time></trkpt><trkpt lat="44.86205" lon="8.915365"><ele>315.0</ele><time>2026-04-11T14:35:34.03Z</time></trkpt><trkpt lat="44.86214" lon="8.9153017"><ele>314.4</ele><time>2026-04-11T14:35:35.03Z</time></trkpt><trkpt lat="44.8622317" lon="8.915205"><ele>313.8</ele><time>2026-04-11T14:35:36.03Z</time></trkpt><trkpt lat="44.8623117" lon="8.9151317"><ele>313.2</ele><time>2026-04-11T14:35:37.03Z</time></trkpt><trkpt lat="44.8623867" lon="8.91503"><ele>312.6</ele><time>2026-04-11T14:35:38.03Z</time></trkpt><trkpt lat="44.86246" lon="8.9149083"><ele>312.0</ele><time>2026-04-11T14:35:39.03Z</time></trkpt><trkpt lat="44.8625333" lon="8.9147717"><ele>312.0</ele><time>2026-04-11T14:35:40.029Z</time></trkpt><trkpt lat="44.86261" lon="8.91462"><ele>312.0</ele><time>2026-04-11T14:35:41.03Z</time></trkpt><trkpt lat="44.8626883" lon="8.914455"><ele>312.0</ele><time>2026-04-11T14:35:42.03Z</time></trkpt><trkpt lat="44.8627717" lon="8.91428"><ele>312.0</ele><time>2026-04-11T14:35:43.03Z</time></trkpt><trkpt lat="44.8628617" lon="8.9140817"><ele>305.3333333333333</ele><time>2026-04-11T14:35:44.03Z</time></trkpt><trkpt lat="44.8629567" lon="8.9138933"><ele>298.66666666666663</ele><time>2026-04-11T14:35:45.03Z</time></trkpt><trkpt lat="44.863045" lon="8.91372"><ele>292.0</ele><time>2026-04-11T14:35:46.03Z</time></trkpt><trkpt lat="44.8631617" lon="8.9135617"><ele>292.0</ele><time>2026-04-11T14:35:47.03Z</time></trkpt><trkpt lat="44.8632633" lon="8.9134117"><ele>292.0</ele><time>2026-04-11T14:35:48.03Z</time></trkpt><trkpt lat="44.8633267" lon="8.9132817"><ele>292.0</ele><time>2026-04-11T14:35:49.03Z</time></trkpt><trkpt lat="44.863405" lon="8.9131483"><ele>292.0</ele><time>2026-04-11T14:35:50.03Z</time></trkpt><trkpt lat="44.863455" lon="8.9130233"><ele>291.0</ele><time>2026-04-11T14:35:51.03Z</time></trkpt><trkpt lat="44.8635017" lon="8.9128833"><ele>290.0</ele><time>2026-04-11T14:35:52.029Z</time></trkpt><trkpt lat="44.8635217" lon="8.9127233"><ele>289.0</ele><time>2026-04-11T14:35:53.03Z</time></trkpt><trkpt lat="44.8635167" lon="8.9125567"><ele>288.0</ele><time>2026-04-11T14:35:54.03Z</time></trkpt><trkpt lat="44.86349" lon="8.9123883"><ele>290.0</ele><time>2026-04-11T14:35:55.03Z</time></trkpt><trkpt lat="44.863455" lon="8.91221"><ele>292.0</ele><time>2026-04-11T14:35:56.03Z</time></trkpt><trkpt lat="44.8634067" lon="8.9120417"><ele>294.0</ele><time>2026-04-11T14:35:57.029Z</time></trkpt><trkpt lat="44.8633367" lon="8.9119033"><ele>296.0</ele><time>2026-04-11T14:35:58.03Z</time></trkpt><trkpt lat="44.8632717" lon="8.911765"><ele>296.8</ele><time>2026-04-11T14:35:59.03Z</time></trkpt><trkpt lat="44.863225" lon="8.9116283"><ele>297.6</ele><time>2026-04-11T14:36:00.03Z</time></trkpt><trkpt lat="44.8632117" lon="8.9114717"><ele>298.4</ele><time>2026-04-11T14:36:01.03Z</time></trkpt><trkpt lat="44.8632117" lon="8.911315"><ele>299.2</ele><time>2026-04-11T14:36:02.03Z</time></trkpt><trkpt lat="44.8632333" lon="8.9111533"><ele>300.0</ele><time>2026-04-11T14:36:03.03Z</time></trkpt><trkpt lat="44.8632717" lon="8.9109833"><ele>297.0</ele><time>2026-04-11T14:36:04.03Z</time></trkpt><trkpt lat="44.8633333" lon="8.9108267"><ele>294.0</ele><time>2026-04-11T14:36:05.029Z</time></trkpt><trkpt lat="44.86342" lon="8.910685"><ele>291.0</ele><time>2026-04-11T14:36:06.03Z</time></trkpt><trkpt lat="44.86352" lon="8.9105733"><ele>288.0</ele><time>2026-04-11T14:36:07.029Z</time></trkpt><trkpt lat="44.863625" lon="8.9104667"><ele>288.0</ele><time>2026-04-11T14:36:08.03Z</time></trkpt><trkpt lat="44.8637317" lon="8.9103517"><ele>288.0</ele><time>2026-04-11T14:36:09.03Z</time></trkpt><trkpt lat="44.8638483" lon="8.9102317"><ele>288.0</ele><time>2026-04-11T14:36:10.03Z</time></trkpt><trkpt lat="44.8639683" lon="8.9100967"><ele>288.0</ele><time>2026-04-11T14:36:11.03Z</time></trkpt><trkpt lat="44.864095" lon="8.9099583"><ele>285.3333333333333</ele><time>2026-04-11T14:36:12.03Z</time></trkpt><trkpt lat="44.864225" lon="8.909815"><ele>282.66666666666663</ele><time>2026-04-11T14:36:13.03Z</time></trkpt><trkpt lat="44.8643467" lon="8.90967"><ele>280.0</ele><time>2026-04-11T14:36:14.029Z</time></trkpt><trkpt lat="44.8644817" lon="8.9095233"><ele>280.0</ele><time>2026-04-11T14:36:15.029Z</time></trkpt><trkpt lat="44.8646183" lon="8.9093667"><ele>280.0</ele><time>2026-04-11T14:36:16.03Z</time></trkpt><trkpt lat="44.8647617" lon="8.9092117"><ele>280.0</ele><time>2026-04-11T14:36:17.03Z</time></trkpt><trkpt lat="44.864905" lon="8.9090583"><ele>276.3333333333333</ele><time>2026-04-11T14:36:18.03Z</time></trkpt><trkpt lat="44.86503" lon="8.9089217"><ele>272.6666666666667</ele><time>2026-04-11T14:36:19.03Z</time></trkpt><trkpt lat="44.8651617" lon="8.908795"><ele>269.0</ele><time>2026-04-11T14:36:20.03Z</time></trkpt><trkpt lat="44.865285" lon="8.90868"><ele>269.0</ele><time>2026-04-11T14:36:21.029Z</time></trkpt><trkpt lat="44.865415" lon="8.908585"><ele>269.0</ele><time>2026-04-11T14:36:22.03Z</time></trkpt><trkpt lat="44.8655333" lon="8.908515"><ele>269.0</ele><time>2026-04-11T14:36:23.03Z</time></trkpt><trkpt lat="44.86565" lon="8.9084767"><ele>269.0</ele><time>2026-04-11T14:36:24.029Z</time></trkpt><trkpt lat="44.8657683" lon="8.908445"><ele>269.0</ele><time>2026-04-11T14:36:25.03Z</time></trkpt><trkpt lat="44.8659" lon="8.90843"><ele>269.0</ele><time>2026-04-11T14:36:26.03Z</time></trkpt><trkpt lat="44.8660233" lon="8.90843"><ele>269.0</ele><time>2026-04-11T14:36:27.03Z</time></trkpt><trkpt lat="44.8661583" lon="8.9084533"><ele>269.0</ele><time>2026-04-11T14:36:28.03Z</time></trkpt><trkpt lat="44.8663017" lon="8.90848"><ele>265.6666666666667</ele><time>2026-04-11T14:36:29.03Z</time></trkpt><trkpt lat="44.8664517" lon="8.90853"><ele>262.3333333333333</ele><time>2026-04-11T14:36:30.03Z</time></trkpt><trkpt lat="44.8666167" lon="8.9085717"><ele>259.0</ele><time>2026-04-11T14:36:31.03Z</time></trkpt><trkpt lat="44.8667817" lon="8.9086233"><ele>256.66666666666663</ele><time>2026-04-11T14:36:32.03Z</time></trkpt><trkpt lat="44.8669567" lon="8.90867"><ele>254.33333333333331</ele><time>2026-04-11T14:36:33.029Z</time></trkpt><trkpt lat="44.8671283" lon="8.9087133"><ele>252.0</ele><time>2026-04-11T14:36:34.03Z</time></trkpt><trkpt lat="44.8672917" lon="8.908755"><ele>252.0</ele><time>2026-04-11T14:36:35.03Z</time></trkpt><trkpt lat="44.8674567" lon="8.908775"><ele>252.0</ele><time>2026-04-11T14:36:36.03Z</time></trkpt><trkpt lat="44.86762" lon="8.908785"><ele>252.0</ele><time>2026-04-11T14:36:37.029Z</time></trkpt><trkpt lat="44.8677717" lon="8.9087783"><ele>252.0</ele><time>2026-04-11T14:36:38.03Z</time></trkpt><trkpt lat="44.867925" lon="8.908765"><ele>252.0</ele><time>2026-04-11T14:36:39.03Z</time></trkpt><trkpt lat="44.86808" lon="8.9087417"><ele>252.0</ele><time>2026-04-11T14:36:40.03Z</time></trkpt><trkpt lat="44.8682283" lon="8.9087"><ele>252.0</ele><time>2026-04-11T14:36:41.029Z</time></trkpt><trkpt lat="44.868375" lon="8.908655"><ele>252.0</ele><time>2026-04-11T14:36:42.03Z</time></trkpt><trkpt lat="44.86853" lon="8.9086017"><ele>252.0</ele><time>2026-04-11T14:36:43.03Z</time></trkpt><trkpt lat="44.8686783" lon="8.908555"><ele>251.0</ele><time>2026-04-11T14:36:44.03Z</time></trkpt><trkpt lat="44.8688333" lon="8.908505"><ele>250.0</ele><time>2026-04-11T14:36:45.03Z</time></trkpt><trkpt lat="44.86898" lon="8.90846"><ele>249.0</ele><time>2026-04-11T14:36:46.029Z</time></trkpt><trkpt lat="44.8691317" lon="8.908415"><ele>247.33333333333331</ele><time>2026-04-11T14:36:47.03Z</time></trkpt><trkpt lat="44.8692817" lon="8.9083683"><ele>245.66666666666666</ele><time>2026-04-11T14:36:48.03Z</time></trkpt><trkpt lat="44.8694283" lon="8.90832"><ele>244.0</ele><time>2026-04-11T14:36:49.03Z</time></trkpt><trkpt lat="44.8695717" lon="8.9082767"><ele>244.0</ele><time>2026-04-11T14:36:50.029Z</time></trkpt><trkpt lat="44.8697133" lon="8.90823"><ele>244.0</ele><time>2026-04-11T14:36:51.03Z</time></trkpt><trkpt lat="44.8698517" lon="8.9081717"><ele>244.0</ele><time>2026-04-11T14:36:52.03Z</time></trkpt><trkpt lat="44.8699717" lon="8.9081117"><ele>244.0</ele><time>2026-04-11T14:36:53.029Z</time></trkpt><trkpt lat="44.8701033" lon="8.9080083"><ele>242.33333333333331</ele><time>2026-04-11T14:36:54.03Z</time></trkpt><trkpt lat="44.8702233" lon="8.9078883"><ele>240.66666666666669</ele><time>2026-04-11T14:36:55.03Z</time></trkpt><trkpt lat="44.8703467" lon="8.907765"><ele>239.0</ele><time>2026-04-11T14:36:56.03Z</time></trkpt><trkpt lat="44.8704717" lon="8.907635"><ele>238.5</ele><time>2026-04-11T14:36:57.03Z</time></trkpt><trkpt lat="44.8705883" lon="8.9075017"><ele>238.0</ele><time>2026-04-11T14:36:58.03Z</time></trkpt><trkpt lat="44.8707083" lon="8.9073733"><ele>237.5</ele><time>2026-04-11T14:36:59.03Z</time></trkpt><trkpt lat="44.870825" lon="8.907245"><ele>237.0</ele><time>2026-04-11T14:37:00.03Z</time></trkpt><trkpt lat="44.870945" lon="8.9071167"><ele>237.0</ele><time>2026-04-11T14:37:01.03Z</time></trkpt><trkpt lat="44.8710617" lon="8.9069817"><ele>237.0</ele><time>2026-04-11T14:37:02.03Z</time></trkpt><trkpt lat="44.871175" lon="8.9068483"><ele>237.0</ele><time>2026-04-11T14:37:03.03Z</time></trkpt><trkpt lat="44.871285" lon="8.9067083"><ele>237.0</ele><time>2026-04-11T14:37:04.03Z</time></trkpt><trkpt lat="44.8713917" lon="8.906565"><ele>239.33333333333331</ele><time>2026-04-11T14:37:05.03Z</time></trkpt><trkpt lat="44.8714967" lon="8.9064133"><ele>241.66666666666666</ele><time>2026-04-11T14:37:06.029Z</time></trkpt><trkpt lat="44.871615" lon="8.906265"><ele>244.0</ele><time>2026-04-11T14:37:07.03Z</time></trkpt><trkpt lat="44.87173" lon="8.9061283"><ele>243.33333333333331</ele><time>2026-04-11T14:37:08.03Z</time></trkpt><trkpt lat="44.8718467" lon="8.90599"><ele>242.66666666666669</ele><time>2026-04-11T14:37:09.029Z</time></trkpt><trkpt lat="44.8719733" lon="8.9058533"><ele>242.0</ele><time>2026-04-11T14:37:10.03Z</time></trkpt><trkpt lat="44.8721083" lon="8.9057283"><ele>242.0</ele><time>2026-04-11T14:37:11.03Z</time></trkpt><trkpt lat="44.8722417" lon="8.9056367"><ele>242.0</ele><time>2026-04-11T14:37:12.03Z</time></trkpt><trkpt lat="44.8723733" lon="8.9055617"><ele>242.0</ele><time>2026-04-11T14:37:13.029Z</time></trkpt><trkpt lat="44.8725133" lon="8.9054983"><ele>242.0</ele><time>2026-04-11T14:37:14.03Z</time></trkpt><trkpt lat="44.8726567" lon="8.9054583"><ele>241.0</ele><time>2026-04-11T14:37:15.03Z</time></trkpt><trkpt lat="44.87281" lon="8.905415"><ele>240.0</ele><time>2026-04-11T14:37:16.03Z</time></trkpt><trkpt lat="44.8729617" lon="8.9053733"><ele>239.0</ele><time>2026-04-11T14:37:17.03Z</time></trkpt><trkpt lat="44.873115" lon="8.9053383"><ele>239.0</ele><time>2026-04-11T14:37:18.03Z</time></trkpt><trkpt lat="44.8732667" lon="8.9053033"><ele>239.0</ele><time>2026-04-11T14:37:19.03Z</time></trkpt><trkpt lat="44.8734133" lon="8.905275"><ele>239.0</ele><time>2026-04-11T14:37:20.03Z</time></trkpt><trkpt lat="44.8735483" lon="8.9052317"><ele>239.0</ele><time>2026-04-11T14:37:21.03Z</time></trkpt><trkpt lat="44.8736783" lon="8.9051667"><ele>239.75</ele><time>2026-04-11T14:37:22.03Z</time></trkpt><trkpt lat="44.873805" lon="8.90507"><ele>240.5</ele><time>2026-04-11T14:37:23.03Z</time></trkpt><trkpt lat="44.8739183" lon="8.904965"><ele>241.25</ele><time>2026-04-11T14:37:24.03Z</time></trkpt><trkpt lat="44.874015" lon="8.90483"><ele>242.0</ele><time>2026-04-11T14:37:25.03Z</time></trkpt><trkpt lat="44.8741017" lon="8.9046767"><ele>242.0</ele><time>2026-04-11T14:37:26.03Z</time></trkpt><trkpt lat="44.874185" lon="8.9045217"><ele>242.0</ele><time>2026-04-11T14:37:27.03Z</time></trkpt><trkpt lat="44.8742683" lon="8.904365"><ele>242.0</ele><time>2026-04-11T14:37:28.03Z</time></trkpt><trkpt lat="44.8743567" lon="8.9042133"><ele>242.0</ele><time>2026-04-11T14:37:29.03Z</time></trkpt><trkpt lat="44.8744417" lon="8.90406"><ele>244.75</ele><time>2026-04-11T14:37:30.03Z</time></trkpt><trkpt lat="44.87453" lon="8.90391"><ele>247.5</ele><time>2026-04-11T14:37:31.03Z</time></trkpt><trkpt lat="44.87461" lon="8.90376"><ele>250.25</ele><time>2026-04-11T14:37:32.03Z</time></trkpt><trkpt lat="44.874695" lon="8.9036117"><ele>253.0</ele><time>2026-04-11T14:37:33.03Z</time></trkpt><trkpt lat="44.874785" lon="8.9034583"><ele>253.0</ele><time>2026-04-11T14:37:34.03Z</time></trkpt><trkpt lat="44.874875" lon="8.903305"><ele>253.0</ele><time>2026-04-11T14:37:35.03Z</time></trkpt><trkpt lat="44.874965" lon="8.903165"><ele>253.0</ele><time>2026-04-11T14:37:36.03Z</time></trkpt><trkpt lat="44.87506" lon="8.9030333"><ele>253.0</ele><time>2026-04-11T14:37:37.03Z</time></trkpt><trkpt lat="44.8751783" lon="8.9029133"><ele>253.0</ele><time>2026-04-11T14:37:38.03Z</time></trkpt><trkpt lat="44.8753" lon="8.9028267"><ele>253.0</ele><time>2026-04-11T14:37:39.03Z</time></trkpt><trkpt lat="44.875435" lon="8.902765"><ele>253.0</ele><time>2026-04-11T14:37:40.029Z</time></trkpt><trkpt lat="44.8755617" lon="8.9027233"><ele>253.0</ele><time>2026-04-11T14:37:41.03Z</time></trkpt><trkpt lat="44.8757" lon="8.902675"><ele>253.0</ele><time>2026-04-11T14:37:42.03Z</time></trkpt><trkpt lat="44.8758567" lon="8.9026283"><ele>253.0</ele><time>2026-04-11T14:37:43.03Z</time></trkpt><trkpt lat="44.8760117" lon="8.902575"><ele>253.0</ele><time>2026-04-11T14:37:44.03Z</time></trkpt><trkpt lat="44.87617" lon="8.9025083"><ele>251.0</ele><time>2026-04-11T14:37:45.03Z</time></trkpt><trkpt lat="44.8763233" lon="8.90245"><ele>249.0</ele><time>2026-04-11T14:37:46.03Z</time></trkpt><trkpt lat="44.8764817" lon="8.9024067"><ele>247.0</ele><time>2026-04-11T14:37:47.03Z</time></trkpt><trkpt lat="44.87665" lon="8.9023483"><ele>245.66666666666666</ele><time>2026-04-11T14:37:48.03Z</time></trkpt><trkpt lat="44.8768183" lon="8.9022867"><ele>244.33333333333331</ele><time>2026-04-11T14:37:49.03Z</time></trkpt><trkpt lat="44.8769917" lon="8.90222"><ele>243.0</ele><time>2026-04-11T14:37:50.03Z</time></trkpt><trkpt lat="44.8771667" lon="8.9021617"><ele>243.0</ele><time>2026-04-11T14:37:51.03Z</time></trkpt><trkpt lat="44.8773467" lon="8.9020983"><ele>243.0</ele><time>2026-04-11T14:37:52.03Z</time></trkpt><trkpt lat="44.877535" lon="8.9020267"><ele>243.0</ele><time>2026-04-11T14:37:53.03Z</time></trkpt><trkpt lat="44.87771" lon="8.90197"><ele>242.66666666666669</ele><time>2026-04-11T14:37:54.03Z</time></trkpt><trkpt lat="44.8778917" lon="8.9019017"><ele>242.33333333333334</ele><time>2026-04-11T14:37:55.03Z</time></trkpt><trkpt lat="44.8780633" lon="8.9018383"><ele>242.0</ele><time>2026-04-11T14:37:56.029Z</time></trkpt><trkpt lat="44.8782333" lon="8.901775"><ele>243.66666666666669</ele><time>2026-04-11T14:37:57.03Z</time></trkpt><trkpt lat="44.8784017" lon="8.9017233"><ele>245.33333333333331</ele><time>2026-04-11T14:37:58.029Z</time></trkpt><trkpt lat="44.8785667" lon="8.9016717"><ele>247.0</ele><time>2026-04-11T14:37:59.029Z</time></trkpt><trkpt lat="44.8787283" lon="8.9016183"><ele>247.0</ele><time>2026-04-11T14:38:00.03Z</time></trkpt><trkpt lat="44.87889" lon="8.9015633"><ele>247.0</ele><time>2026-04-11T14:38:01.03Z</time></trkpt><trkpt lat="44.8790417" lon="8.901505"><ele>247.0</ele><time>2026-04-11T14:38:02.03Z</time></trkpt><trkpt lat="44.8792017" lon="8.9014467"><ele>246.0</ele><time>2026-04-11T14:38:03.03Z</time></trkpt><trkpt lat="44.8793483" lon="8.9013933"><ele>245.0</ele><time>2026-04-11T14:38:04.03Z</time></trkpt><trkpt lat="44.8795067" lon="8.9013233"><ele>244.0</ele><time>2026-04-11T14:38:05.03Z</time></trkpt><trkpt lat="44.8796467" lon="8.901275"><ele>244.0</ele><time>2026-04-11T14:38:06.03Z</time></trkpt><trkpt lat="44.8798033" lon="8.9011983"><ele>244.0</ele><time>2026-04-11T14:38:07.03Z</time></trkpt><trkpt lat="44.8799383" lon="8.9011467"><ele>244.0</ele><time>2026-04-11T14:38:08.03Z</time></trkpt><trkpt lat="44.8800767" lon="8.9010883"><ele>244.33333333333331</ele><time>2026-04-11T14:38:09.03Z</time></trkpt><trkpt lat="44.8802317" lon="8.90102"><ele>244.66666666666669</ele><time>2026-04-11T14:38:10.03Z</time></trkpt><trkpt lat="44.8803833" lon="8.900945"><ele>245.0</ele><time>2026-04-11T14:38:11.03Z</time></trkpt><trkpt lat="44.88053" lon="8.900875"><ele>246.5</ele><time>2026-04-11T14:38:12.03Z</time></trkpt><trkpt lat="44.8806767" lon="8.900805"><ele>248.0</ele><time>2026-04-11T14:38:13.029Z</time></trkpt><trkpt lat="44.880815" lon="8.90075"><ele>249.5</ele><time>2026-04-11T14:38:14.03Z</time></trkpt><trkpt lat="44.8809583" lon="8.90069"><ele>251.0</ele><time>2026-04-11T14:38:15.03Z</time></trkpt><trkpt lat="44.8810983" lon="8.9006267"><ele>252.0</ele><time>2026-04-11T14:38:16.03Z</time></trkpt><trkpt lat="44.8812383" lon="8.9005683"><ele>253.0</ele><time>2026-04-11T14:38:17.03Z</time></trkpt><trkpt lat="44.8813783" lon="8.9005083"><ele>254.0</ele><time>2026-04-11T14:38:18.03Z</time></trkpt><trkpt lat="44.8815183" lon="8.9004417"><ele>255.0</ele><time>2026-04-11T14:38:19.03Z</time></trkpt><trkpt lat="44.881655" lon="8.9003817"><ele>253.75</ele><time>2026-04-11T14:38:20.03Z</time></trkpt><trkpt lat="44.88179" lon="8.9003217"><ele>252.5</ele><time>2026-04-11T14:38:21.03Z</time></trkpt><trkpt lat="44.8819183" lon="8.9002567"><ele>251.25</ele><time>2026-04-11T14:38:22.03Z</time></trkpt><trkpt lat="44.88205" lon="8.900195"><ele>250.0</ele><time>2026-04-11T14:38:23.029Z</time></trkpt><trkpt lat="44.8821817" lon="8.9001317"><ele>250.25</ele><time>2026-04-11T14:38:24.03Z</time></trkpt><trkpt lat="44.882305" lon="8.9000533"><ele>250.5</ele><time>2026-04-11T14:38:25.029Z</time></trkpt><trkpt lat="44.8824283" lon="8.8999483"><ele>250.75</ele><time>2026-04-11T14:38:26.03Z</time></trkpt><trkpt lat="44.8825383" lon="8.899825"><ele>251.0</ele><time>2026-04-11T14:38:27.03Z</time></trkpt><trkpt lat="44.8826283" lon="8.8996733"><ele>251.0</ele><time>2026-04-11T14:38:28.03Z</time></trkpt><trkpt lat="44.8827217" lon="8.8995"><ele>251.0</ele><time>2026-04-11T14:38:29.029Z</time></trkpt><trkpt lat="44.882785" lon="8.8993233"><ele>251.0</ele><time>2026-04-11T14:38:30.03Z</time></trkpt><trkpt lat="44.8828317" lon="8.8991467"><ele>251.0</ele><time>2026-04-11T14:38:31.029Z</time></trkpt><trkpt lat="44.88288" lon="8.8989667"><ele>251.75</ele><time>2026-04-11T14:38:32.03Z</time></trkpt><trkpt lat="44.88291" lon="8.8987667"><ele>252.5</ele><time>2026-04-11T14:38:33.029Z</time></trkpt><trkpt lat="44.8829333" lon="8.8985667"><ele>253.25</ele><time>2026-04-11T14:38:34.03Z</time></trkpt><trkpt lat="44.882945" lon="8.8983717"><ele>254.0</ele><time>2026-04-11T14:38:35.03Z</time></trkpt><trkpt lat="44.8829667" lon="8.8981683"><ele>254.0</ele><time>2026-04-11T14:38:36.03Z</time></trkpt><trkpt lat="44.8829817" lon="8.8979567"><ele>254.0</ele><time>2026-04-11T14:38:37.029Z</time></trkpt><trkpt lat="44.8830067" lon="8.8977367"><ele>254.0</ele><time>2026-04-11T14:38:38.03Z</time></trkpt><trkpt lat="44.8830167" lon="8.89751"><ele>252.33333333333334</ele><time>2026-04-11T14:38:39.029Z</time></trkpt><trkpt lat="44.8830417" lon="8.8972917"><ele>250.66666666666669</ele><time>2026-04-11T14:38:40.03Z</time></trkpt><trkpt lat="44.8830717" lon="8.8970667"><ele>249.0</ele><time>2026-04-11T14:38:41.03Z</time></trkpt><trkpt lat="44.8831017" lon="8.8968317"><ele>247.0</ele><time>2026-04-11T14:38:42.029Z</time></trkpt><trkpt lat="44.883125" lon="8.8966017"><ele>245.0</ele><time>2026-04-11T14:38:43.03Z</time></trkpt><trkpt lat="44.8831617" lon="8.8963633"><ele>243.0</ele><time>2026-04-11T14:38:44.03Z</time></trkpt><trkpt lat="44.8832017" lon="8.896125"><ele>241.33333333333331</ele><time>2026-04-11T14:38:45.03Z</time></trkpt><trkpt lat="44.8832267" lon="8.8958683"><ele>239.66666666666666</ele><time>2026-04-11T14:38:46.03Z</time></trkpt><trkpt lat="44.8832683" lon="8.89562"><ele>238.0</ele><time>2026-04-11T14:38:47.03Z</time></trkpt><trkpt lat="44.8833" lon="8.89538"><ele>238.0</ele><time>2026-04-11T14:38:48.03Z</time></trkpt><trkpt lat="44.8833333" lon="8.8951467"><ele>238.0</ele><time>2026-04-11T14:38:49.03Z</time></trkpt><trkpt lat="44.8833733" lon="8.8949"><ele>238.0</ele><time>2026-04-11T14:38:50.029Z</time></trkpt><trkpt lat="44.8833917" lon="8.8946667"><ele>237.0</ele><time>2026-04-11T14:38:51.03Z</time></trkpt><trkpt lat="44.88341" lon="8.89443"><ele>236.0</ele><time>2026-04-11T14:38:52.03Z</time></trkpt><trkpt lat="44.8834183" lon="8.894195"><ele>235.0</ele><time>2026-04-11T14:38:53.03Z</time></trkpt><trkpt lat="44.8834217" lon="8.8939667"><ele>233.0</ele><time>2026-04-11T14:38:54.03Z</time></trkpt><trkpt lat="44.8834317" lon="8.8937383"><ele>231.0</ele><time>2026-04-11T14:38:55.03Z</time></trkpt><trkpt lat="44.8834333" lon="8.8935133"><ele>229.0</ele><time>2026-04-11T14:38:56.03Z</time></trkpt><trkpt lat="44.8834483" lon="8.893275"><ele>228.66666666666666</ele><time>2026-04-11T14:38:57.029Z</time></trkpt><trkpt lat="44.8834617" lon="8.89305"><ele>228.33333333333331</ele><time>2026-04-11T14:38:58.03Z</time></trkpt><trkpt lat="44.88348" lon="8.8928367"><ele>228.0</ele><time>2026-04-11T14:38:59.029Z</time></trkpt><trkpt lat="44.8834883" lon="8.89263"><ele>227.0</ele><time>2026-04-11T14:39:00.03Z</time></trkpt><trkpt lat="44.8834967" lon="8.89244"><ele>226.0</ele><time>2026-04-11T14:39:01.03Z</time></trkpt><trkpt lat="44.88351" lon="8.89226"><ele>225.0</ele><time>2026-04-11T14:39:02.03Z</time></trkpt><trkpt lat="44.8835233" lon="8.8921"><ele>224.0</ele><time>2026-04-11T14:39:03.029Z</time></trkpt><trkpt lat="44.8835233" lon="8.8919633"><ele>224.00000000000003</ele><time>2026-04-11T14:39:04.03Z</time></trkpt><trkpt lat="44.8835167" lon="8.8918483"><ele>224.0</ele><time>2026-04-11T14:39:05.03Z</time></trkpt><trkpt lat="44.8834717" lon="8.8917317"><ele>224.0</ele><time>2026-04-11T14:39:07.03Z</time></trkpt><trkpt lat="44.883375" lon="8.891715"><ele>224.0</ele><time>2026-04-11T14:39:09.029Z</time></trkpt><trkpt lat="44.8833117" lon="8.891695"><ele>224.00000000000003</ele><time>2026-04-11T14:39:10.03Z</time></trkpt><trkpt lat="44.883235" lon="8.891665"><ele>224.0</ele><time>2026-04-11T14:39:11.03Z</time></trkpt><trkpt lat="44.88315" lon="8.891625"><ele>226.5</ele><time>2026-04-11T14:39:12.03Z</time></trkpt><trkpt lat="44.883045" lon="8.8915833"><ele>229.0</ele><time>2026-04-11T14:39:13.03Z</time></trkpt><trkpt lat="44.8829267" lon="8.891535"><ele>231.5</ele><time>2026-04-11T14:39:14.03Z</time></trkpt><trkpt lat="44.8828183" lon="8.891475"><ele>234.0</ele><time>2026-04-11T14:39:15.03Z</time></trkpt><trkpt lat="44.8827083" lon="8.89142"><ele>232.75</ele><time>2026-04-11T14:39:16.03Z</time></trkpt><trkpt lat="44.88259" lon="8.891345"><ele>231.5</ele><time>2026-04-11T14:39:17.03Z</time></trkpt><trkpt lat="44.8824717" lon="8.8912617"><ele>230.25</ele><time>2026-04-11T14:39:18.03Z</time></trkpt><trkpt lat="44.8823583" lon="8.8911883"><ele>229.0</ele><time>2026-04-11T14:39:19.03Z</time></trkpt><trkpt lat="44.8822383" lon="8.891145"><ele>229.0</ele><time>2026-04-11T14:39:20.029Z</time></trkpt><trkpt lat="44.882115" lon="8.8911017"><ele>229.0</ele><time>2026-04-11T14:39:21.03Z</time></trkpt><trkpt lat="44.882" lon="8.8910567"><ele>229.0</ele><time>2026-04-11T14:39:22.029Z</time></trkpt><trkpt lat="44.88188" lon="8.8910183"><ele>229.0</ele><time>2026-04-11T14:39:23.029Z</time></trkpt><trkpt lat="44.881765" lon="8.8909883"><ele>228.25</ele><time>2026-04-11T14:39:24.028Z</time></trkpt><trkpt lat="44.8816583" lon="8.8909433"><ele>227.5</ele><time>2026-04-11T14:39:25.029Z</time></trkpt><trkpt lat="44.8815467" lon="8.89089"><ele>226.75</ele><time>2026-04-11T14:39:26.029Z</time></trkpt><trkpt lat="44.8814317" lon="8.8908217"><ele>226.0</ele><time>2026-04-11T14:39:27.028Z</time></trkpt><trkpt lat="44.8813133" lon="8.8907517"><ele>226.75</ele><time>2026-04-11T14:39:28.029Z</time></trkpt><trkpt lat="44.8811833" lon="8.8906917"><ele>227.5</ele><time>2026-04-11T14:39:29.029Z</time></trkpt><trkpt lat="44.88106" lon="8.890635"><ele>228.25</ele><time>2026-04-11T14:39:30.029Z</time></trkpt><trkpt lat="44.8809333" lon="8.89057"><ele>229.0</ele><time>2026-04-11T14:39:31.029Z</time></trkpt><trkpt lat="44.88081" lon="8.8905083"><ele>229.0</ele><time>2026-04-11T14:39:32.029Z</time></trkpt><trkpt lat="44.880685" lon="8.8904583"><ele>229.0</ele><time>2026-04-11T14:39:33.029Z</time></trkpt><trkpt lat="44.8805633" lon="8.8904317"><ele>229.0</ele><time>2026-04-11T14:39:34.029Z</time></trkpt><trkpt lat="44.8804417" lon="8.8904267"><ele>229.0</ele><time>2026-04-11T14:39:35.029Z</time></trkpt><trkpt lat="44.880335" lon="8.890415"><ele>228.99999999999997</ele><time>2026-04-11T14:39:36.029Z</time></trkpt><trkpt lat="44.880245" lon="8.89041"><ele>229.0</ele><time>2026-04-11T14:39:37.029Z</time></trkpt><trkpt lat="44.8801683" lon="8.8904067"><ele>229.0</ele><time>2026-04-11T14:39:38.029Z</time></trkpt><trkpt lat="44.880085" lon="8.8903833"><ele>229.0</ele><time>2026-04-11T14:39:39.029Z</time></trkpt><trkpt lat="44.8800033" lon="8.8903533"><ele>228.99999999999997</ele><time>2026-04-11T14:39:40.029Z</time></trkpt><trkpt lat="44.8799167" lon="8.8903117"><ele>229.0</ele><time>2026-04-11T14:39:41.029Z</time></trkpt><trkpt lat="44.879835" lon="8.8902667"><ele>228.66666666666666</ele><time>2026-04-11T14:39:42.029Z</time></trkpt><trkpt lat="44.8797683" lon="8.890215"><ele>228.33333333333331</ele><time>2026-04-11T14:39:43.029Z</time></trkpt><trkpt lat="44.879705" lon="8.8901533"><ele>228.0</ele><time>2026-04-11T14:39:44.029Z</time></trkpt><trkpt lat="44.8796267" lon="8.8900233"><ele>227.66666666666669</ele><time>2026-04-11T14:39:46.029Z</time></trkpt><trkpt lat="44.879585" lon="8.88993"><ele>227.33333333333334</ele><time>2026-04-11T14:39:47.029Z</time></trkpt><trkpt lat="44.87955" lon="8.8898367"><ele>227.0</ele><time>2026-04-11T14:39:48.029Z</time></trkpt><trkpt lat="44.879505" lon="8.889745"><ele>227.39999999999998</ele><time>2026-04-11T14:39:49.028Z</time></trkpt><trkpt lat="44.87945" lon="8.8896683"><ele>227.79999999999998</ele><time>2026-04-11T14:39:50.028Z</time></trkpt><trkpt lat="44.8793733" lon="8.8895983"><ele>228.2</ele><time>2026-04-11T14:39:51.029Z</time></trkpt><trkpt lat="44.8792767" lon="8.8895383"><ele>228.6</ele><time>2026-04-11T14:39:52.029Z</time></trkpt><trkpt lat="44.8791717" lon="8.889475"><ele>229.0</ele><time>2026-04-11T14:39:53.029Z</time></trkpt><trkpt lat="44.8790617" lon="8.8894067"><ele>229.0</ele><time>2026-04-11T14:39:54.029Z</time></trkpt><trkpt lat="44.8789567" lon="8.8893433"><ele>228.99999999999997</ele><time>2026-04-11T14:39:55.029Z</time></trkpt><trkpt lat="44.8788567" lon="8.8892867"><ele>228.99999999999997</ele><time>2026-04-11T14:39:56.029Z</time></trkpt><trkpt lat="44.8787733" lon="8.8892333"><ele>229.0</ele><time>2026-04-11T14:39:57.029Z</time></trkpt><trkpt lat="44.8787" lon="8.8891917"><ele>229.0</ele><time>2026-04-11T14:39:58.029Z</time></trkpt><trkpt lat="44.8785867" lon="8.8891267"><ele>229.49999999999997</ele><time>2026-04-11T14:40:00.028Z</time></trkpt><trkpt lat="44.87851" lon="8.889085"><ele>230.0</ele><time>2026-04-11T14:40:02.029Z</time></trkpt><trkpt lat="44.8784417" lon="8.8891183"><ele>230.5</ele><time>2026-04-11T14:40:06.029Z</time></trkpt><trkpt lat="44.878405" lon="8.8892117"><ele>231.0</ele><time>2026-04-11T14:40:08.029Z</time></trkpt><trkpt lat="44.8783717" lon="8.8893"><ele>231.49999999999997</ele><time>2026-04-11T14:40:09.029Z</time></trkpt><trkpt lat="44.8783267" lon="8.8894167"><ele>232.0</ele><time>2026-04-11T14:40:10.029Z</time></trkpt><trkpt lat="44.8782733" lon="8.8895367"><ele>228.8</ele><time>2026-04-11T14:40:11.029Z</time></trkpt><trkpt lat="44.87822" lon="8.889655"><ele>225.6</ele><time>2026-04-11T14:40:12.029Z</time></trkpt><trkpt lat="44.87816" lon="8.8897667"><ele>222.40000000000003</ele><time>2026-04-11T14:40:13.029Z</time></trkpt><trkpt lat="44.8780983" lon="8.88988"><ele>219.20000000000002</ele><time>2026-04-11T14:40:14.029Z</time></trkpt><trkpt lat="44.878045" lon="8.8899883"><ele>216.0</ele><time>2026-04-11T14:40:15.029Z</time></trkpt><trkpt lat="44.8779917" lon="8.8901"><ele>214.83333333333334</ele><time>2026-04-11T14:40:16.029Z</time></trkpt><trkpt lat="44.8779433" lon="8.8901933"><ele>213.66666666666669</ele><time>2026-04-11T14:40:17.029Z</time></trkpt><trkpt lat="44.8779083" lon="8.8902883"><ele>212.5</ele><time>2026-04-11T14:40:18.028Z</time></trkpt><trkpt lat="44.8778733" lon="8.8903717"><ele>211.33333333333334</ele><time>2026-04-11T14:40:19.029Z</time></trkpt><trkpt lat="44.8778283" lon="8.89048"><ele>210.16666666666669</ele><time>2026-04-11T14:40:21.029Z</time></trkpt><trkpt lat="44.877795" lon="8.89056"><ele>209.0</ele><time>2026-04-11T14:40:23.029Z</time></trkpt><trkpt lat="44.8777167" lon="8.8906883"><ele>209.0</ele><time>2026-04-11T14:40:25.029Z</time></trkpt><trkpt lat="44.8776517" lon="8.8907667"><ele>209.0</ele><time>2026-04-11T14:40:26.029Z</time></trkpt><trkpt lat="44.8775717" lon="8.8908483"><ele>209.0</ele><time>2026-04-11T14:40:27.029Z</time></trkpt><trkpt lat="44.8774883" lon="8.8909233"><ele>209.0</ele><time>2026-04-11T14:40:28.029Z</time></trkpt><trkpt lat="44.8773967" lon="8.8909733"><ele>209.0</ele><time>2026-04-11T14:40:29.029Z</time></trkpt><trkpt lat="44.8773033" lon="8.8909983"><ele>204.0</ele><time>2026-04-11T14:40:30.029Z</time></trkpt><trkpt lat="44.8772033" lon="8.8910017"><ele>199.0</ele><time>2026-04-11T14:40:31.029Z</time></trkpt><trkpt lat="44.8770867" lon="8.890995"><ele>194.0</ele><time>2026-04-11T14:40:32.029Z</time></trkpt><trkpt lat="44.87697" lon="8.89099"><ele>189.0</ele><time>2026-04-11T14:40:33.028Z</time></trkpt><trkpt lat="44.8768533" lon="8.8909883"><ele>188.25</ele><time>2026-04-11T14:40:34.029Z</time></trkpt><trkpt lat="44.8767317" lon="8.890975"><ele>187.5</ele><time>2026-04-11T14:40:35.029Z</time></trkpt><trkpt lat="44.8766083" lon="8.8909517"><ele>186.75</ele><time>2026-04-11T14:40:36.028Z</time></trkpt><trkpt lat="44.8764867" lon="8.8909017"><ele>186.0</ele><time>2026-04-11T14:40:37.029Z</time></trkpt><trkpt lat="44.8763683" lon="8.8908383"><ele>186.0</ele><time>2026-04-11T14:40:38.028Z</time></trkpt><trkpt lat="44.8762383" lon="8.8907633"><ele>186.0</ele><time>2026-04-11T14:40:39.029Z</time></trkpt><trkpt lat="44.876105" lon="8.8906783"><ele>186.0</ele><time>2026-04-11T14:40:40.029Z</time></trkpt><trkpt lat="44.8759683" lon="8.8905867"><ele>186.0</ele><time>2026-04-11T14:40:41.029Z</time></trkpt><trkpt lat="44.875825" lon="8.890485"><ele>182.0</ele><time>2026-04-11T14:40:42.029Z</time></trkpt><trkpt lat="44.8756867" lon="8.8903933"><ele>178.0</ele><time>2026-04-11T14:40:43.029Z</time></trkpt><trkpt lat="44.87555" lon="8.8902933"><ele>174.0</ele><time>2026-04-11T14:40:44.029Z</time></trkpt><trkpt lat="44.8754167" lon="8.8901983"><ele>174.0</ele><time>2026-04-11T14:40:45.029Z</time></trkpt><trkpt lat="44.875285" lon="8.8900933"><ele>174.0</ele><time>2026-04-11T14:40:46.029Z</time></trkpt><trkpt lat="44.8751583" lon="8.8899967"><ele>174.0</ele><time>2026-04-11T14:40:47.029Z</time></trkpt><trkpt lat="44.875035" lon="8.8898983"><ele>174.0</ele><time>2026-04-11T14:40:48.029Z</time></trkpt><trkpt lat="44.874925" lon="8.8897983"><ele>173.0</ele><time>2026-04-11T14:40:49.029Z</time></trkpt><trkpt lat="44.8748267" lon="8.8897217"><ele>172.0</ele><time>2026-04-11T14:40:50.029Z</time></trkpt><trkpt lat="44.8747333" lon="8.8896383"><ele>171.0</ele><time>2026-04-11T14:40:51.029Z</time></trkpt><trkpt lat="44.8746533" lon="8.8895583"><ele>170.0</ele><time>2026-04-11T14:40:52.029Z</time></trkpt><trkpt lat="44.8745667" lon="8.8894483"><ele>169.0</ele><time>2026-04-11T14:40:53.029Z</time></trkpt><trkpt lat="44.8744917" lon="8.8893433"><ele>170.5</ele><time>2026-04-11T14:40:54.028Z</time></trkpt><trkpt lat="44.8744167" lon="8.8892283"><ele>172.0</ele><time>2026-04-11T14:40:55.029Z</time></trkpt><trkpt lat="44.8743433" lon="8.8891033"><ele>173.5</ele><time>2026-04-11T14:40:56.029Z</time></trkpt><trkpt lat="44.8742633" lon="8.88898"><ele>175.0</ele><time>2026-04-11T14:40:57.029Z</time></trkpt><trkpt lat="44.874175" lon="8.8888683"><ele>172.75</ele><time>2026-04-11T14:40:58.029Z</time></trkpt><trkpt lat="44.8740883" lon="8.888745"><ele>170.5</ele><time>2026-04-11T14:40:59.029Z</time></trkpt><trkpt lat="44.8740083" lon="8.8886117"><ele>168.25</ele><time>2026-04-11T14:41:00.029Z</time></trkpt><trkpt lat="44.8739283" lon="8.8884667"><ele>166.0</ele><time>2026-04-11T14:41:01.029Z</time></trkpt><trkpt lat="44.8738617" lon="8.8883117"><ele>166.0</ele><time>2026-04-11T14:41:02.029Z</time></trkpt><trkpt lat="44.8737983" lon="8.888145"><ele>166.0</ele><time>2026-04-11T14:41:03.029Z</time></trkpt><trkpt lat="44.873735" lon="8.887975"><ele>166.0</ele><time>2026-04-11T14:41:04.029Z</time></trkpt><trkpt lat="44.8736783" lon="8.8878133"><ele>166.0</ele><time>2026-04-11T14:41:05.029Z</time></trkpt><trkpt lat="44.8736233" lon="8.8876833"><ele>166.33333333333334</ele><time>2026-04-11T14:41:06.029Z</time></trkpt><trkpt lat="44.873575" lon="8.88758"><ele>166.66666666666669</ele><time>2026-04-11T14:41:07.028Z</time></trkpt><trkpt lat="44.873515" lon="8.88751"><ele>167.0</ele><time>2026-04-11T14:41:08.029Z</time></trkpt><trkpt lat="44.8734467" lon="8.8874767"><ele>167.33333333333334</ele><time>2026-04-11T14:41:09.029Z</time></trkpt><trkpt lat="44.8733717" lon="8.8874667"><ele>167.66666666666666</ele><time>2026-04-11T14:41:10.029Z</time></trkpt><trkpt lat="44.87329" lon="8.8874683"><ele>168.0</ele><time>2026-04-11T14:41:11.029Z</time></trkpt><trkpt lat="44.8732067" lon="8.8874833"><ele>165.66666666666666</ele><time>2026-04-11T14:41:12.028Z</time></trkpt><trkpt lat="44.8731233" lon="8.8875183"><ele>163.33333333333334</ele><time>2026-04-11T14:41:13.028Z</time></trkpt><trkpt lat="44.8730483" lon="8.887575"><ele>161.0</ele><time>2026-04-11T14:41:14.028Z</time></trkpt><trkpt lat="44.87297" lon="8.8876483"><ele>158.66666666666669</ele><time>2026-04-11T14:41:15.029Z</time></trkpt><trkpt lat="44.8729017" lon="8.8877083"><ele>156.33333333333334</ele><time>2026-04-11T14:41:16.029Z</time></trkpt><trkpt lat="44.8728367" lon="8.887745"><ele>154.0</ele><time>2026-04-11T14:41:17.029Z</time></trkpt><trkpt lat="44.8727733" lon="8.887745"><ele>154.0</ele><time>2026-04-11T14:41:18.029Z</time></trkpt><trkpt lat="44.872705" lon="8.8877183"><ele>154.0</ele><time>2026-04-11T14:41:19.029Z</time></trkpt><trkpt lat="44.8726283" lon="8.887675"><ele>154.0</ele><time>2026-04-11T14:41:20.029Z</time></trkpt><trkpt lat="44.8725483" lon="8.88761"><ele>154.0</ele><time>2026-04-11T14:41:21.029Z</time></trkpt><trkpt lat="44.8724783" lon="8.887535"><ele>154.0</ele><time>2026-04-11T14:41:22.029Z</time></trkpt><trkpt lat="44.872425" lon="8.8874467"><ele>154.0</ele><time>2026-04-11T14:41:23.029Z</time></trkpt><trkpt lat="44.8723767" lon="8.8873433"><ele>153.8</ele><time>2026-04-11T14:41:24.029Z</time></trkpt><trkpt lat="44.8723633" lon="8.8872233"><ele>153.60000000000002</ele><time>2026-04-11T14:41:25.029Z</time></trkpt><trkpt lat="44.872375" lon="8.8870883"><ele>153.4</ele><time>2026-04-11T14:41:26.029Z</time></trkpt><trkpt lat="44.8723933" lon="8.886945"><ele>153.20000000000002</ele><time>2026-04-11T14:41:27.029Z</time></trkpt><trkpt lat="44.872405" lon="8.88679"><ele>153.0</ele><time>2026-04-11T14:41:28.029Z</time></trkpt><trkpt lat="44.8724067" lon="8.8866383"><ele>152.75</ele><time>2026-04-11T14:41:29.029Z</time></trkpt><trkpt lat="44.8724117" lon="8.88648"><ele>152.5</ele><time>2026-04-11T14:41:30.029Z</time></trkpt><trkpt lat="44.87242" lon="8.886315"><ele>152.25</ele><time>2026-04-11T14:41:31.029Z</time></trkpt><trkpt lat="44.8724217" lon="8.88614"><ele>152.0</ele><time>2026-04-11T14:41:32.029Z</time></trkpt><trkpt lat="44.872415" lon="8.8859583"><ele>152.0</ele><time>2026-04-11T14:41:33.029Z</time></trkpt><trkpt lat="44.8723967" lon="8.8857783"><ele>152.0</ele><time>2026-04-11T14:41:34.029Z</time></trkpt><trkpt lat="44.87239" lon="8.8856033"><ele>152.0</ele><time>2026-04-11T14:41:35.028Z</time></trkpt><trkpt lat="44.8723983" lon="8.8854267"><ele>152.0</ele><time>2026-04-11T14:41:36.028Z</time></trkpt><trkpt lat="44.8724217" lon="8.8852467"><ele>152.0</ele><time>2026-04-11T14:41:37.029Z</time></trkpt><trkpt lat="44.8724517" lon="8.8850533"><ele>152.0</ele><time>2026-04-11T14:41:38.029Z</time></trkpt><trkpt lat="44.872485" lon="8.88487"><ele>152.0</ele><time>2026-04-11T14:41:39.029Z</time></trkpt><trkpt lat="44.8725183" lon="8.88468"><ele>152.0</ele><time>2026-04-11T14:41:40.029Z</time></trkpt><trkpt lat="44.8725533" lon="8.8845"><ele>152.0</ele><time>2026-04-11T14:41:41.028Z</time></trkpt><trkpt lat="44.8725867" lon="8.8843333"><ele>152.0</ele><time>2026-04-11T14:41:42.028Z</time></trkpt><trkpt lat="44.8726317" lon="8.88417"><ele>152.0</ele><time>2026-04-11T14:41:43.029Z</time></trkpt><trkpt lat="44.8726767" lon="8.8840167"><ele>152.0</ele><time>2026-04-11T14:41:44.029Z</time></trkpt><trkpt lat="44.8727317" lon="8.8838533"><ele>151.0</ele><time>2026-04-11T14:41:45.029Z</time></trkpt><trkpt lat="44.8727783" lon="8.883705"><ele>150.0</ele><time>2026-04-11T14:41:46.029Z</time></trkpt><trkpt lat="44.8728233" lon="8.8835567"><ele>149.0</ele><time>2026-04-11T14:41:47.028Z</time></trkpt><trkpt lat="44.8728517" lon="8.8833967"><ele>148.0</ele><time>2026-04-11T14:41:48.029Z</time></trkpt><trkpt lat="44.8728767" lon="8.8832333"><ele>148.0</ele><time>2026-04-11T14:41:49.029Z</time></trkpt><trkpt lat="44.8729" lon="8.8830767"><ele>148.0</ele><time>2026-04-11T14:41:50.029Z</time></trkpt><trkpt lat="44.8729317" lon="8.8829183"><ele>148.0</ele><time>2026-04-11T14:41:51.029Z</time></trkpt><trkpt lat="44.8729583" lon="8.8827517"><ele>148.0</ele><time>2026-04-11T14:41:52.029Z</time></trkpt><trkpt lat="44.8729783" lon="8.882595"><ele>148.0</ele><time>2026-04-11T14:41:53.029Z</time></trkpt><trkpt lat="44.8730033" lon="8.882435"><ele>148.0</ele><time>2026-04-11T14:41:54.029Z</time></trkpt><trkpt lat="44.87302" lon="8.8822817"><ele>148.0</ele><time>2026-04-11T14:41:55.029Z</time></trkpt><trkpt lat="44.8730217" lon="8.8821417"><ele>148.0</ele><time>2026-04-11T14:41:56.029Z</time></trkpt><trkpt lat="44.8730217" lon="8.8819933"><ele>148.0</ele><time>2026-04-11T14:41:57.029Z</time></trkpt><trkpt lat="44.8730167" lon="8.8818517"><ele>148.0</ele><time>2026-04-11T14:41:58.029Z</time></trkpt><trkpt lat="44.873015" lon="8.8817017"><ele>148.0</ele><time>2026-04-11T14:41:59.029Z</time></trkpt><trkpt lat="44.87301" lon="8.8815517"><ele>148.0</ele><time>2026-04-11T14:42:00.029Z</time></trkpt><trkpt lat="44.8730017" lon="8.8814083"><ele>148.0</ele><time>2026-04-11T14:42:01.029Z</time></trkpt><trkpt lat="44.87299" lon="8.8812483"><ele>148.0</ele><time>2026-04-11T14:42:02.029Z</time></trkpt><trkpt lat="44.8729783" lon="8.8810883"><ele>148.0</ele><time>2026-04-11T14:42:03.029Z</time></trkpt><trkpt lat="44.8729533" lon="8.8809383"><ele>148.0</ele><time>2026-04-11T14:42:04.029Z</time></trkpt><trkpt lat="44.8729417" lon="8.880795"><ele>148.0</ele><time>2026-04-11T14:42:05.029Z</time></trkpt><trkpt lat="44.8729283" lon="8.880645"><ele>148.0</ele><time>2026-04-11T14:42:06.029Z</time></trkpt><trkpt lat="44.8728983" lon="8.8805"><ele>148.0</ele><time>2026-04-11T14:42:07.029Z</time></trkpt><trkpt lat="44.8728633" lon="8.88035"><ele>147.8</ele><time>2026-04-11T14:42:08.029Z</time></trkpt><trkpt lat="44.8728333" lon="8.8802217"><ele>147.60000000000002</ele><time>2026-04-11T14:42:09.029Z</time></trkpt><trkpt lat="44.8728067" lon="8.8801067"><ele>147.39999999999998</ele><time>2026-04-11T14:42:10.029Z</time></trkpt><trkpt lat="44.8727783" lon="8.8799967"><ele>147.2</ele><time>2026-04-11T14:42:11.029Z</time></trkpt><trkpt lat="44.872745" lon="8.879875"><ele>147.0</ele><time>2026-04-11T14:42:12.028Z</time></trkpt><trkpt lat="44.8727183" lon="8.87974"><ele>146.75</ele><time>2026-04-11T14:42:13.029Z</time></trkpt><trkpt lat="44.8726933" lon="8.879585"><ele>146.5</ele><time>2026-04-11T14:42:14.029Z</time></trkpt><trkpt lat="44.872685" lon="8.8794167"><ele>146.25</ele><time>2026-04-11T14:42:15.028Z</time></trkpt><trkpt lat="44.8726817" lon="8.879245"><ele>146.0</ele><time>2026-04-11T14:42:16.029Z</time></trkpt><trkpt lat="44.8726967" lon="8.879065"><ele>145.25</ele><time>2026-04-11T14:42:17.029Z</time></trkpt><trkpt lat="44.8727133" lon="8.8788933"><ele>144.5</ele><time>2026-04-11T14:42:18.029Z</time></trkpt><trkpt lat="44.8727333" lon="8.8787417"><ele>143.75</ele><time>2026-04-11T14:42:19.029Z</time></trkpt><trkpt lat="44.872765" lon="8.87859"><ele>143.0</ele><time>2026-04-11T14:42:20.029Z</time></trkpt><trkpt lat="44.8728083" lon="8.8784483"><ele>143.0</ele><time>2026-04-11T14:42:21.029Z</time></trkpt><trkpt lat="44.8728567" lon="8.87831"><ele>143.0</ele><time>2026-04-11T14:42:22.029Z</time></trkpt><trkpt lat="44.8729" lon="8.878175"><ele>143.0</ele><time>2026-04-11T14:42:23.029Z</time></trkpt><trkpt lat="44.8729367" lon="8.8780417"><ele>143.0</ele><time>2026-04-11T14:42:24.029Z</time></trkpt><trkpt lat="44.87297" lon="8.87791"><ele>143.0</ele><time>2026-04-11T14:42:25.029Z</time></trkpt><trkpt lat="44.873005" lon="8.877775"><ele>143.0</ele><time>2026-04-11T14:42:26.029Z</time></trkpt><trkpt lat="44.8730467" lon="8.8776367"><ele>143.0</ele><time>2026-04-11T14:42:27.029Z</time></trkpt><trkpt lat="44.873085" lon="8.8774867"><ele>143.0</ele><time>2026-04-11T14:42:28.029Z</time></trkpt><trkpt lat="44.8731167" lon="8.8773367"><ele>143.0</ele><time>2026-04-11T14:42:29.029Z</time></trkpt><trkpt lat="44.8731483" lon="8.877195"><ele>143.0</ele><time>2026-04-11T14:42:30.029Z</time></trkpt><trkpt lat="44.8731833" lon="8.877045"><ele>143.20000000000002</ele><time>2026-04-11T14:42:31.029Z</time></trkpt><trkpt lat="44.8732167" lon="8.8768983"><ele>143.4</ele><time>2026-04-11T14:42:32.029Z</time></trkpt><trkpt lat="44.8732483" lon="8.8767517"><ele>143.60000000000002</ele><time>2026-04-11T14:42:33.029Z</time></trkpt><trkpt lat="44.8732933" lon="8.8766067"><ele>143.8</ele><time>2026-04-11T14:42:34.029Z</time></trkpt><trkpt lat="44.8733383" lon="8.876455"><ele>144.0</ele><time>2026-04-11T14:42:35.029Z</time></trkpt><trkpt lat="44.87338" lon="8.876305"><ele>144.0</ele><time>2026-04-11T14:42:36.029Z</time></trkpt><trkpt lat="44.8734167" lon="8.8761583"><ele>144.0</ele><time>2026-04-11T14:42:37.029Z</time></trkpt><trkpt lat="44.8734483" lon="8.8760017"><ele>144.0</ele><time>2026-04-11T14:42:38.029Z</time></trkpt><trkpt lat="44.8734717" lon="8.8758367"><ele>144.0</ele><time>2026-04-11T14:42:39.029Z</time></trkpt><trkpt lat="44.8734917" lon="8.8756633"><ele>143.25</ele><time>2026-04-11T14:42:40.029Z</time></trkpt><trkpt lat="44.8735033" lon="8.87549"><ele>142.5</ele><time>2026-04-11T14:42:41.029Z</time></trkpt><trkpt lat="44.8735083" lon="8.875315"><ele>141.75</ele><time>2026-04-11T14:42:42.029Z</time></trkpt><trkpt lat="44.873515" lon="8.8751483"><ele>141.0</ele><time>2026-04-11T14:42:43.029Z</time></trkpt><trkpt lat="44.8735" lon="8.8749817"><ele>141.0</ele><time>2026-04-11T14:42:44.029Z</time></trkpt><trkpt lat="44.8734883" lon="8.8748167"><ele>141.0</ele><time>2026-04-11T14:42:45.029Z</time></trkpt><trkpt lat="44.873475" lon="8.8746367"><ele>141.0</ele><time>2026-04-11T14:42:46.029Z</time></trkpt><trkpt lat="44.8734583" lon="8.8744633"><ele>141.0</ele><time>2026-04-11T14:42:47.029Z</time></trkpt><trkpt lat="44.87343" lon="8.874285"><ele>141.0</ele><time>2026-04-11T14:42:48.028Z</time></trkpt><trkpt lat="44.873395" lon="8.8741033"><ele>141.0</ele><time>2026-04-11T14:42:49.029Z</time></trkpt><trkpt lat="44.873355" lon="8.8739333"><ele>141.0</ele><time>2026-04-11T14:42:50.029Z</time></trkpt><trkpt lat="44.8733133" lon="8.873765"><ele>141.0</ele><time>2026-04-11T14:42:51.029Z</time></trkpt><trkpt lat="44.87328" lon="8.8735917"><ele>140.75</ele><time>2026-04-11T14:42:52.029Z</time></trkpt><trkpt lat="44.8732533" lon="8.873415"><ele>140.5</ele><time>2026-04-11T14:42:53.029Z</time></trkpt><trkpt lat="44.8732367" lon="8.87324"><ele>140.25</ele><time>2026-04-11T14:42:54.029Z</time></trkpt><trkpt lat="44.8732217" lon="8.8730567"><ele>140.0</ele><time>2026-04-11T14:42:55.029Z</time></trkpt><trkpt lat="44.8732133" lon="8.8728717"><ele>140.0</ele><time>2026-04-11T14:42:56.029Z</time></trkpt><trkpt lat="44.8732067" lon="8.8726917"><ele>140.0</ele><time>2026-04-11T14:42:57.029Z</time></trkpt><trkpt lat="44.8732067" lon="8.8725033"><ele>140.0</ele><time>2026-04-11T14:42:58.029Z</time></trkpt><trkpt lat="44.873215" lon="8.8723167"><ele>140.0</ele><time>2026-04-11T14:42:59.029Z</time></trkpt><trkpt lat="44.8732317" lon="8.8721333"><ele>140.0</ele><time>2026-04-11T14:43:00.029Z</time></trkpt><trkpt lat="44.8732533" lon="8.8719417"><ele>140.0</ele><time>2026-04-11T14:43:01.029Z</time></trkpt><trkpt lat="44.873285" lon="8.8717533"><ele>140.0</ele><time>2026-04-11T14:43:02.029Z</time></trkpt><trkpt lat="44.8733167" lon="8.8715667"><ele>140.0</ele><time>2026-04-11T14:43:03.028Z</time></trkpt><trkpt lat="44.87336" lon="8.8713883"><ele>140.0</ele><time>2026-04-11T14:43:04.029Z</time></trkpt><trkpt lat="44.8734033" lon="8.87122"><ele>140.0</ele><time>2026-04-11T14:43:05.029Z</time></trkpt><trkpt lat="44.873455" lon="8.871055"><ele>140.0</ele><time>2026-04-11T14:43:06.029Z</time></trkpt><trkpt lat="44.8735233" lon="8.8709133"><ele>140.0</ele><time>2026-04-11T14:43:07.029Z</time></trkpt><trkpt lat="44.8735967" lon="8.8707833"><ele>139.4</ele><time>2026-04-11T14:43:08.028Z</time></trkpt><trkpt lat="44.8736733" lon="8.870665"><ele>138.8</ele><time>2026-04-11T14:43:09.029Z</time></trkpt><trkpt lat="44.8737517" lon="8.87055"><ele>138.2</ele><time>2026-04-11T14:43:10.029Z</time></trkpt><trkpt lat="44.8738267" lon="8.8704433"><ele>137.6</ele><time>2026-04-11T14:43:11.029Z</time></trkpt><trkpt lat="44.8738933" lon="8.8703517"><ele>137.0</ele><time>2026-04-11T14:43:12.029Z</time></trkpt><trkpt lat="44.87394" lon="8.8702817"><ele>137.0</ele><time>2026-04-11T14:43:13.029Z</time></trkpt><trkpt lat="44.87399" lon="8.87019"><ele>137.0</ele><time>2026-04-11T14:43:15.029Z</time></trkpt><trkpt lat="44.873915" lon="8.8701283"><ele>137.0</ele><time>2026-04-11T14:43:18.029Z</time></trkpt><trkpt lat="44.87381" lon="8.870085"><ele>137.0</ele><time>2026-04-11T14:43:20.029Z</time></trkpt><trkpt lat="44.873745" lon="8.8700567"><ele>137.0</ele><time>2026-04-11T14:43:21.028Z</time></trkpt><trkpt lat="44.8736717" lon="8.8700167"><ele>137.0</ele><time>2026-04-11T14:43:22.029Z</time></trkpt><trkpt lat="44.8735917" lon="8.8699717"><ele>137.0</ele><time>2026-04-11T14:43:23.029Z</time></trkpt><trkpt lat="44.87351" lon="8.8699233"><ele>137.0</ele><time>2026-04-11T14:43:24.029Z</time></trkpt><trkpt lat="44.8734417" lon="8.8698817"><ele>137.0</ele><time>2026-04-11T14:43:25.029Z</time></trkpt><trkpt lat="44.8733283" lon="8.8698333"><ele>137.0</ele><time>2026-04-11T14:43:27.029Z</time></trkpt><trkpt lat="44.8732583" lon="8.8698117"><ele>137.0</ele><time>2026-04-11T14:43:28.029Z</time></trkpt><trkpt lat="44.87318" lon="8.869785"><ele>137.0</ele><time>2026-04-11T14:43:29.029Z</time></trkpt><trkpt lat="44.8730933" lon="8.869765"><ele>137.79999999999998</ele><time>2026-04-11T14:43:30.029Z</time></trkpt><trkpt lat="44.8729967" lon="8.8697367"><ele>138.6</ele><time>2026-04-11T14:43:31.029Z</time></trkpt><trkpt lat="44.8729" lon="8.8697167"><ele>139.39999999999998</ele><time>2026-04-11T14:43:32.027Z</time></trkpt><trkpt lat="44.872805" lon="8.8697083"><ele>140.2</ele><time>2026-04-11T14:43:33.028Z</time></trkpt><trkpt lat="44.87271" lon="8.8697183"><ele>141.0</ele><time>2026-04-11T14:43:34.028Z</time></trkpt><trkpt lat="44.8726067" lon="8.8697417"><ele>141.8</ele><time>2026-04-11T14:43:35.028Z</time></trkpt><trkpt lat="44.8725067" lon="8.8697817"><ele>142.6</ele><time>2026-04-11T14:43:36.028Z</time></trkpt><trkpt lat="44.8724083" lon="8.8698383"><ele>143.4</ele><time>2026-04-11T14:43:37.028Z</time></trkpt><trkpt lat="44.8722983" lon="8.8699"><ele>144.2</ele><time>2026-04-11T14:43:38.028Z</time></trkpt><trkpt lat="44.8721917" lon="8.869975"><ele>145.0</ele><time>2026-04-11T14:43:39.028Z</time></trkpt><trkpt lat="44.872085" lon="8.8700633"><ele>145.25</ele><time>2026-04-11T14:43:40.028Z</time></trkpt><trkpt lat="44.8719767" lon="8.87015"><ele>145.5</ele><time>2026-04-11T14:43:41.027Z</time></trkpt><trkpt lat="44.8718567" lon="8.870245"><ele>145.75</ele><time>2026-04-11T14:43:42.028Z</time></trkpt><trkpt lat="44.8717283" lon="8.87033"><ele>146.0</ele><time>2026-04-11T14:43:43.028Z</time></trkpt><trkpt lat="44.8716" lon="8.8704183"><ele>148.0</ele><time>2026-04-11T14:43:44.028Z</time></trkpt><trkpt lat="44.8714733" lon="8.870505"><ele>150.0</ele><time>2026-04-11T14:43:45.028Z</time></trkpt><trkpt lat="44.8713433" lon="8.8705933"><ele>152.0</ele><time>2026-04-11T14:43:46.028Z</time></trkpt><trkpt lat="44.8712233" lon="8.8706867"><ele>154.0</ele><time>2026-04-11T14:43:47.028Z</time></trkpt><trkpt lat="44.8711" lon="8.8707667"><ele>154.0</ele><time>2026-04-11T14:43:48.028Z</time></trkpt><trkpt lat="44.8709883" lon="8.8708183"><ele>154.0</ele><time>2026-04-11T14:43:49.028Z</time></trkpt><trkpt lat="44.870885" lon="8.8708533"><ele>154.0</ele><time>2026-04-11T14:43:50.028Z</time></trkpt><trkpt lat="44.8707767" lon="8.8708433"><ele>154.0</ele><time>2026-04-11T14:43:51.028Z</time></trkpt><trkpt lat="44.8706717" lon="8.8708033"><ele>154.0</ele><time>2026-04-11T14:43:52.028Z</time></trkpt><trkpt lat="44.8705533" lon="8.8707533"><ele>154.0</ele><time>2026-04-11T14:43:53.028Z</time></trkpt><trkpt lat="44.8704317" lon="8.8707133"><ele>154.0</ele><time>2026-04-11T14:43:54.028Z</time></trkpt><trkpt lat="44.87031" lon="8.8706683"><ele>154.0</ele><time>2026-04-11T14:43:55.028Z</time></trkpt><trkpt lat="44.8701933" lon="8.8706283"><ele>154.0</ele><time>2026-04-11T14:43:56.028Z</time></trkpt><trkpt lat="44.8700733" lon="8.870585"><ele>154.0</ele><time>2026-04-11T14:43:57.028Z</time></trkpt><trkpt lat="44.8699683" lon="8.8705517"><ele>154.0</ele><time>2026-04-11T14:43:58.027Z</time></trkpt><trkpt lat="44.8698667" lon="8.8705233"><ele>154.0</ele><time>2026-04-11T14:43:59.028Z</time></trkpt><trkpt lat="44.869775" lon="8.870505"><ele>154.0</ele><time>2026-04-11T14:44:00.027Z</time></trkpt><trkpt lat="44.8696983" lon="8.870495"><ele>154.0</ele><time>2026-04-11T14:44:01.028Z</time></trkpt><trkpt lat="44.8695967" lon="8.8704833"><ele>154.0</ele><time>2026-04-11T14:44:03.028Z</time></trkpt><trkpt lat="44.8695467" lon="8.8703917"><ele>154.0</ele><time>2026-04-11T14:44:06.028Z</time></trkpt><trkpt lat="44.8695733" lon="8.8702"><ele>154.0</ele><time>2026-04-11T14:44:08.028Z</time></trkpt><trkpt lat="44.8695983" lon="8.8700783"><ele>154.0</ele><time>2026-04-11T14:44:09.028Z</time></trkpt><trkpt lat="44.869615" lon="8.8699317"><ele>154.0</ele><time>2026-04-11T14:44:10.028Z</time></trkpt><trkpt lat="44.8696267" lon="8.86976"><ele>152.5</ele><time>2026-04-11T14:44:11.028Z</time></trkpt><trkpt lat="44.86963" lon="8.8695783"><ele>151.0</ele><time>2026-04-11T14:44:12.028Z</time></trkpt><trkpt lat="44.8696333" lon="8.8693817"><ele>149.5</ele><time>2026-04-11T14:44:13.028Z</time></trkpt><trkpt lat="44.869635" lon="8.8691767"><ele>148.0</ele><time>2026-04-11T14:44:14.028Z</time></trkpt><trkpt lat="44.86964" lon="8.8689683"><ele>146.66666666666669</ele><time>2026-04-11T14:44:15.028Z</time></trkpt><trkpt lat="44.869645" lon="8.86875"><ele>145.33333333333334</ele><time>2026-04-11T14:44:16.028Z</time></trkpt><trkpt lat="44.8696483" lon="8.868515"><ele>144.0</ele><time>2026-04-11T14:44:17.027Z</time></trkpt><trkpt lat="44.869655" lon="8.868275"><ele>144.0</ele><time>2026-04-11T14:44:18.027Z</time></trkpt><trkpt lat="44.86966" lon="8.8680483"><ele>144.0</ele><time>2026-04-11T14:44:19.027Z</time></trkpt><trkpt lat="44.8696667" lon="8.867825"><ele>144.0</ele><time>2026-04-11T14:44:20.028Z</time></trkpt><trkpt lat="44.86968" lon="8.8676083"><ele>143.75</ele><time>2026-04-11T14:44:21.027Z</time></trkpt><trkpt lat="44.8696983" lon="8.8674083"><ele>143.5</ele><time>2026-04-11T14:44:22.028Z</time></trkpt><trkpt lat="44.869725" lon="8.86724"><ele>143.25</ele><time>2026-04-11T14:44:23.028Z</time></trkpt><trkpt lat="44.8697533" lon="8.8670767"><ele>143.0</ele><time>2026-04-11T14:44:24.028Z</time></trkpt><trkpt lat="44.8697967" lon="8.8669117"><ele>143.0</ele><time>2026-04-11T14:44:25.028Z</time></trkpt><trkpt lat="44.869855" lon="8.8667533"><ele>143.0</ele><time>2026-04-11T14:44:26.028Z</time></trkpt><trkpt lat="44.86993" lon="8.8665933"><ele>143.0</ele><time>2026-04-11T14:44:27.028Z</time></trkpt><trkpt lat="44.8700183" lon="8.866435"><ele>143.0</ele><time>2026-04-11T14:44:28.027Z</time></trkpt><trkpt lat="44.870105" lon="8.8662667"><ele>143.0</ele><time>2026-04-11T14:44:29.028Z</time></trkpt><trkpt lat="44.8701967" lon="8.8660967"><ele>143.0</ele><time>2026-04-11T14:44:30.028Z</time></trkpt><trkpt lat="44.87029" lon="8.865925"><ele>143.0</ele><time>2026-04-11T14:44:31.028Z</time></trkpt><trkpt lat="44.870385" lon="8.8657467"><ele>142.0</ele><time>2026-04-11T14:44:32.028Z</time></trkpt><trkpt lat="44.870475" lon="8.86557"><ele>141.0</ele><time>2026-04-11T14:44:33.027Z</time></trkpt><trkpt lat="44.870565" lon="8.8653917"><ele>140.0</ele><time>2026-04-11T14:44:34.028Z</time></trkpt><trkpt lat="44.8706533" lon="8.8652267"><ele>139.75</ele><time>2026-04-11T14:44:35.028Z</time></trkpt><trkpt lat="44.8707433" lon="8.865055"><ele>139.5</ele><time>2026-04-11T14:44:36.028Z</time></trkpt><trkpt lat="44.87082" lon="8.8648867"><ele>139.25</ele><time>2026-04-11T14:44:37.028Z</time></trkpt><trkpt lat="44.8708933" lon="8.86471"><ele>139.0</ele><time>2026-04-11T14:44:38.028Z</time></trkpt><trkpt lat="44.8709533" lon="8.86452"><ele>138.0</ele><time>2026-04-11T14:44:39.027Z</time></trkpt><trkpt lat="44.8709983" lon="8.86431"><ele>137.0</ele><time>2026-04-11T14:44:40.028Z</time></trkpt><trkpt lat="44.8710217" lon="8.8641017"><ele>136.0</ele><time>2026-04-11T14:44:41.028Z</time></trkpt><trkpt lat="44.87102" lon="8.863885"><ele>135.33333333333334</ele><time>2026-04-11T14:44:42.028Z</time></trkpt><trkpt lat="44.871" lon="8.8636583"><ele>134.66666666666666</ele><time>2026-04-11T14:44:43.028Z</time></trkpt><trkpt lat="44.87098" lon="8.863425"><ele>134.0</ele><time>2026-04-11T14:44:44.028Z</time></trkpt><trkpt lat="44.8709617" lon="8.8631883"><ele>134.0</ele><time>2026-04-11T14:44:45.028Z</time></trkpt><trkpt lat="44.8709483" lon="8.86295"><ele>134.0</ele><time>2026-04-11T14:44:46.028Z</time></trkpt><trkpt lat="44.8709383" lon="8.8627033"><ele>134.0</ele><time>2026-04-11T14:44:47.028Z</time></trkpt><trkpt lat="44.8709283" lon="8.8624533"><ele>134.0</ele><time>2026-04-11T14:44:48.028Z</time></trkpt><trkpt lat="44.870915" lon="8.8621933"><ele>134.0</ele><time>2026-04-11T14:44:49.028Z</time></trkpt><trkpt lat="44.8709083" lon="8.86194"><ele>134.0</ele><time>2026-04-11T14:44:50.028Z</time></trkpt><trkpt lat="44.8708983" lon="8.8616983"><ele>134.33333333333331</ele><time>2026-04-11T14:44:51.027Z</time></trkpt><trkpt lat="44.8708933" lon="8.861465"><ele>134.66666666666666</ele><time>2026-04-11T14:44:52.028Z</time></trkpt><trkpt lat="44.87089" lon="8.86124"><ele>135.0</ele><time>2026-04-11T14:44:53.027Z</time></trkpt><trkpt lat="44.8708817" lon="8.8610117"><ele>135.33333333333334</ele><time>2026-04-11T14:44:54.028Z</time></trkpt><trkpt lat="44.870885" lon="8.8607867"><ele>135.66666666666669</ele><time>2026-04-11T14:44:55.028Z</time></trkpt><trkpt lat="44.87089" lon="8.8605667"><ele>136.0</ele><time>2026-04-11T14:44:56.028Z</time></trkpt><trkpt lat="44.8709067" lon="8.8603583"><ele>136.0</ele><time>2026-04-11T14:44:57.028Z</time></trkpt><trkpt lat="44.8709367" lon="8.8601417"><ele>136.0</ele><time>2026-04-11T14:44:58.028Z</time></trkpt><trkpt lat="44.8709717" lon="8.8599217"><ele>136.0</ele><time>2026-04-11T14:44:59.027Z</time></trkpt><trkpt lat="44.8710167" lon="8.8597167"><ele>135.75</ele><time>2026-04-11T14:45:00.028Z</time></trkpt><trkpt lat="44.8710567" lon="8.8595117"><ele>135.5</ele><time>2026-04-11T14:45:01.028Z</time></trkpt><trkpt lat="44.87109" lon="8.8593317"><ele>135.25</ele><time>2026-04-11T14:45:02.027Z</time></trkpt><trkpt lat="44.871115" lon="8.85916"><ele>135.0</ele><time>2026-04-11T14:45:03.028Z</time></trkpt><trkpt lat="44.8711367" lon="8.8590117"><ele>135.0</ele><time>2026-04-11T14:45:04.028Z</time></trkpt><trkpt lat="44.87116" lon="8.8588633"><ele>135.0</ele><time>2026-04-11T14:45:05.027Z</time></trkpt><trkpt lat="44.8711817" lon="8.858715"><ele>135.0</ele><time>2026-04-11T14:45:06.027Z</time></trkpt><trkpt lat="44.8712067" lon="8.8585417"><ele>135.0</ele><time>2026-04-11T14:45:07.027Z</time></trkpt><trkpt lat="44.8712317" lon="8.858385"><ele>135.0</ele><time>2026-04-11T14:45:08.028Z</time></trkpt><trkpt lat="44.87125" lon="8.8582283"><ele>135.0</ele><time>2026-04-11T14:45:09.028Z</time></trkpt><trkpt lat="44.8712683" lon="8.85808"><ele>135.0</ele><time>2026-04-11T14:45:10.028Z</time></trkpt><trkpt lat="44.8712817" lon="8.8579317"><ele>135.0</ele><time>2026-04-11T14:45:11.028Z</time></trkpt><trkpt lat="44.8713067" lon="8.857785"><ele>135.0</ele><time>2026-04-11T14:45:12.028Z</time></trkpt><trkpt lat="44.871335" lon="8.8576383"><ele>134.83333333333334</ele><time>2026-04-11T14:45:13.028Z</time></trkpt><trkpt lat="44.8713683" lon="8.8575133"><ele>134.66666666666666</ele><time>2026-04-11T14:45:14.028Z</time></trkpt><trkpt lat="44.8713933" lon="8.8574067"><ele>134.5</ele><time>2026-04-11T14:45:15.028Z</time></trkpt><trkpt lat="44.8714083" lon="8.8573183"><ele>134.33333333333331</ele><time>2026-04-11T14:45:16.028Z</time></trkpt><trkpt lat="44.87144" lon="8.8571783"><ele>134.16666666666666</ele><time>2026-04-11T14:45:18.028Z</time></trkpt><trkpt lat="44.87147" lon="8.85709"><ele>134.0</ele><time>2026-04-11T14:45:20.028Z</time></trkpt><trkpt lat="44.8715217" lon="8.85702"><ele>134.0</ele><time>2026-04-11T14:45:23.028Z</time></trkpt><trkpt lat="44.8715833" lon="8.85698"><ele>134.0</ele><time>2026-04-11T14:45:25.028Z</time></trkpt><trkpt lat="44.8716483" lon="8.85697"><ele>134.0</ele><time>2026-04-11T14:45:26.028Z</time></trkpt><trkpt lat="44.8717367" lon="8.85698"><ele>134.0</ele><time>2026-04-11T14:45:27.028Z</time></trkpt><trkpt lat="44.8718433" lon="8.857"><ele>134.0</ele><time>2026-04-11T14:45:28.028Z</time></trkpt><trkpt lat="44.871965" lon="8.8570333"><ele>133.5</ele><time>2026-04-11T14:45:29.027Z</time></trkpt><trkpt lat="44.8720883" lon="8.8570567"><ele>133.0</ele><time>2026-04-11T14:45:30.027Z</time></trkpt><trkpt lat="44.87221" lon="8.8570867"><ele>132.5</ele><time>2026-04-11T14:45:31.028Z</time></trkpt><trkpt lat="44.8723317" lon="8.8571083"><ele>132.0</ele><time>2026-04-11T14:45:32.028Z</time></trkpt><trkpt lat="44.8724683" lon="8.8571283"><ele>132.0</ele><time>2026-04-11T14:45:33.028Z</time></trkpt><trkpt lat="44.8725967" lon="8.8571483"><ele>132.0</ele><time>2026-04-11T14:45:34.028Z</time></trkpt><trkpt lat="44.8727267" lon="8.8571667"><ele>132.0</ele><time>2026-04-11T14:45:35.028Z</time></trkpt><trkpt lat="44.872865" lon="8.8571817"><ele>132.0</ele><time>2026-04-11T14:45:36.028Z</time></trkpt><trkpt lat="44.8729983" lon="8.8571967"><ele>132.0</ele><time>2026-04-11T14:45:37.028Z</time></trkpt><trkpt lat="44.8731317" lon="8.8572267"><ele>132.0</ele><time>2026-04-11T14:45:38.028Z</time></trkpt><trkpt lat="44.8732733" lon="8.8572567"><ele>132.0</ele><time>2026-04-11T14:45:39.027Z</time></trkpt><trkpt lat="44.8734167" lon="8.857275"><ele>132.0</ele><time>2026-04-11T14:45:40.028Z</time></trkpt><trkpt lat="44.87356" lon="8.8572967"><ele>132.66666666666666</ele><time>2026-04-11T14:45:41.028Z</time></trkpt><trkpt lat="44.8737117" lon="8.85731"><ele>133.33333333333331</ele><time>2026-04-11T14:45:42.028Z</time></trkpt><trkpt lat="44.8738667" lon="8.8573317"><ele>134.0</ele><time>2026-04-11T14:45:43.028Z</time></trkpt><trkpt lat="44.874025" lon="8.8573467"><ele>134.0</ele><time>2026-04-11T14:45:44.028Z</time></trkpt><trkpt lat="44.8741783" lon="8.8573717"><ele>134.0</ele><time>2026-04-11T14:45:45.028Z</time></trkpt><trkpt lat="44.87433" lon="8.8573967"><ele>134.0</ele><time>2026-04-11T14:45:46.028Z</time></trkpt><trkpt lat="44.87449" lon="8.8574217"><ele>133.33333333333331</ele><time>2026-04-11T14:45:47.028Z</time></trkpt><trkpt lat="44.87465" lon="8.8574483"><ele>132.66666666666666</ele><time>2026-04-11T14:45:48.028Z</time></trkpt><trkpt lat="44.8748017" lon="8.8574817"><ele>132.0</ele><time>2026-04-11T14:45:49.028Z</time></trkpt><trkpt lat="44.8749633" lon="8.8575017"><ele>132.0</ele><time>2026-04-11T14:45:50.028Z</time></trkpt><trkpt lat="44.875125" lon="8.857525"><ele>132.0</ele><time>2026-04-11T14:45:51.028Z</time></trkpt><trkpt lat="44.8752917" lon="8.8575467"><ele>132.0</ele><time>2026-04-11T14:45:52.028Z</time></trkpt><trkpt lat="44.8754533" lon="8.8575767"><ele>132.0</ele><time>2026-04-11T14:45:53.027Z</time></trkpt><trkpt lat="44.8756167" lon="8.8575983"><ele>132.0</ele><time>2026-04-11T14:45:54.028Z</time></trkpt><trkpt lat="44.87578" lon="8.8576217"><ele>132.0</ele><time>2026-04-11T14:45:55.028Z</time></trkpt><trkpt lat="44.8759483" lon="8.85764"><ele>131.66666666666666</ele><time>2026-04-11T14:45:56.028Z</time></trkpt><trkpt lat="44.87612" lon="8.85766"><ele>131.33333333333331</ele><time>2026-04-11T14:45:57.028Z</time></trkpt><trkpt lat="44.8763017" lon="8.85768"><ele>131.0</ele><time>2026-04-11T14:45:58.028Z</time></trkpt><trkpt lat="44.87646" lon="8.8577067"><ele>131.0</ele><time>2026-04-11T14:45:59.028Z</time></trkpt><trkpt lat="44.8766233" lon="8.8577333"><ele>131.0</ele><time>2026-04-11T14:46:00.028Z</time></trkpt><trkpt lat="44.8767917" lon="8.85776"><ele>131.0</ele><time>2026-04-11T14:46:01.028Z</time></trkpt><trkpt lat="44.8769617" lon="8.8577883"><ele>130.33333333333331</ele><time>2026-04-11T14:46:02.028Z</time></trkpt><trkpt lat="44.877125" lon="8.857815"><ele>129.66666666666666</ele><time>2026-04-11T14:46:03.028Z</time></trkpt><trkpt lat="44.8772833" lon="8.8578483"><ele>129.0</ele><time>2026-04-11T14:46:04.028Z</time></trkpt><trkpt lat="44.8774483" lon="8.8578717"><ele>129.0</ele><time>2026-04-11T14:46:05.028Z</time></trkpt><trkpt lat="44.8776117" lon="8.8579017"><ele>129.0</ele><time>2026-04-11T14:46:06.028Z</time></trkpt><trkpt lat="44.8777817" lon="8.857925"><ele>129.0</ele><time>2026-04-11T14:46:07.028Z</time></trkpt><trkpt lat="44.8779533" lon="8.857945"><ele>129.0</ele><time>2026-04-11T14:46:08.028Z</time></trkpt><trkpt lat="44.8781167" lon="8.857965"><ele>129.0</ele><time>2026-04-11T14:46:09.028Z</time></trkpt><trkpt lat="44.8782717" lon="8.8579933"><ele>129.0</ele><time>2026-04-11T14:46:10.028Z</time></trkpt><trkpt lat="44.878425" lon="8.8580167"><ele>128.5</ele><time>2026-04-11T14:46:11.028Z</time></trkpt><trkpt lat="44.8785783" lon="8.8580417"><ele>128.0</ele><time>2026-04-11T14:46:12.027Z</time></trkpt><trkpt lat="44.8787283" lon="8.8580533"><ele>127.5</ele><time>2026-04-11T14:46:13.028Z</time></trkpt><trkpt lat="44.8788633" lon="8.8580633"><ele>127.0</ele><time>2026-04-11T14:46:14.028Z</time></trkpt><trkpt lat="44.8790283" lon="8.8580933"><ele>127.0</ele><time>2026-04-11T14:46:15.027Z</time></trkpt><trkpt lat="44.8791883" lon="8.8581217"><ele>127.0</ele><time>2026-04-11T14:46:16.028Z</time></trkpt><trkpt lat="44.8793383" lon="8.8581417"><ele>127.0</ele><time>2026-04-11T14:46:17.028Z</time></trkpt><trkpt lat="44.8794933" lon="8.8581667"><ele>127.66666666666667</ele><time>2026-04-11T14:46:18.028Z</time></trkpt><trkpt lat="44.8796617" lon="8.8581933"><ele>128.33333333333334</ele><time>2026-04-11T14:46:19.028Z</time></trkpt><trkpt lat="44.8798217" lon="8.8582183"><ele>129.0</ele><time>2026-04-11T14:46:20.028Z</time></trkpt><trkpt lat="44.8799717" lon="8.858245"><ele>128.75</ele><time>2026-04-11T14:46:21.028Z</time></trkpt><trkpt lat="44.8801183" lon="8.8582683"><ele>128.5</ele><time>2026-04-11T14:46:22.028Z</time></trkpt><trkpt lat="44.8802617" lon="8.8582883"><ele>128.25</ele><time>2026-04-11T14:46:23.028Z</time></trkpt><trkpt lat="44.8803967" lon="8.858315"><ele>128.0</ele><time>2026-04-11T14:46:24.028Z</time></trkpt><trkpt lat="44.880525" lon="8.85834"><ele>128.0</ele><time>2026-04-11T14:46:25.028Z</time></trkpt><trkpt lat="44.8806633" lon="8.8583567"><ele>128.0</ele><time>2026-04-11T14:46:26.028Z</time></trkpt><trkpt lat="44.8807983" lon="8.85838"><ele>128.0</ele><time>2026-04-11T14:46:27.028Z</time></trkpt><trkpt lat="44.880935" lon="8.8584033"><ele>128.0</ele><time>2026-04-11T14:46:28.028Z</time></trkpt><trkpt lat="44.881075" lon="8.8584183"><ele>128.0</ele><time>2026-04-11T14:46:29.028Z</time></trkpt><trkpt lat="44.8812133" lon="8.8584383"><ele>128.0</ele><time>2026-04-11T14:46:30.028Z</time></trkpt><trkpt lat="44.88135" lon="8.8584583"><ele>128.0</ele><time>2026-04-11T14:46:31.028Z</time></trkpt><trkpt lat="44.881485" lon="8.85848"><ele>128.0</ele><time>2026-04-11T14:46:32.028Z</time></trkpt><trkpt lat="44.8816183" lon="8.8584967"><ele>127.75</ele><time>2026-04-11T14:46:33.028Z</time></trkpt><trkpt lat="44.8817533" lon="8.858515"><ele>127.5</ele><time>2026-04-11T14:46:34.028Z</time></trkpt><trkpt lat="44.8818933" lon="8.8585317"><ele>127.25</ele><time>2026-04-11T14:46:35.028Z</time></trkpt><trkpt lat="44.8820267" lon="8.858555"><ele>127.0</ele><time>2026-04-11T14:46:36.028Z</time></trkpt><trkpt lat="44.88216" lon="8.8585783"><ele>127.0</ele><time>2026-04-11T14:46:37.028Z</time></trkpt><trkpt lat="44.882295" lon="8.8586033"><ele>127.0</ele><time>2026-04-11T14:46:38.027Z</time></trkpt><trkpt lat="44.88242" lon="8.8586317"><ele>127.0</ele><time>2026-04-11T14:46:39.028Z</time></trkpt><trkpt lat="44.882545" lon="8.8586633"><ele>127.0</ele><time>2026-04-11T14:46:40.028Z</time></trkpt><trkpt lat="44.8826717" lon="8.8586917"><ele>127.0</ele><time>2026-04-11T14:46:41.028Z</time></trkpt><trkpt lat="44.8827983" lon="8.858715"><ele>127.0</ele><time>2026-04-11T14:46:42.028Z</time></trkpt><trkpt lat="44.882925" lon="8.85874"><ele>127.0</ele><time>2026-04-11T14:46:43.027Z</time></trkpt><trkpt lat="44.88304" lon="8.8587683"><ele>127.0</ele><time>2026-04-11T14:46:44.027Z</time></trkpt><trkpt lat="44.8831467" lon="8.8587933"><ele>127.00000000000001</ele><time>2026-04-11T14:46:45.028Z</time></trkpt><trkpt lat="44.8832417" lon="8.8588133"><ele>127.0</ele><time>2026-04-11T14:46:46.028Z</time></trkpt><trkpt lat="44.883325" lon="8.85882"><ele>127.0</ele><time>2026-04-11T14:46:47.028Z</time></trkpt><trkpt lat="44.883395" lon="8.858815"><ele>127.0</ele><time>2026-04-11T14:46:48.028Z</time></trkpt><trkpt lat="44.883465" lon="8.8588"><ele>127.00000000000001</ele><time>2026-04-11T14:46:49.028Z</time></trkpt><trkpt lat="44.8835367" lon="8.8587917"><ele>127.0</ele><time>2026-04-11T14:46:50.028Z</time></trkpt><trkpt lat="44.8836033" lon="8.858805"><ele>127.00000000000001</ele><time>2026-04-11T14:46:51.028Z</time></trkpt><trkpt lat="44.88367" lon="8.8588233"><ele>127.0</ele><time>2026-04-11T14:46:52.028Z</time></trkpt><trkpt lat="44.8837383" lon="8.8588167"><ele>127.0</ele><time>2026-04-11T14:46:53.028Z</time></trkpt><trkpt lat="44.8837967" lon="8.8587817"><ele>127.0</ele><time>2026-04-11T14:46:54.027Z</time></trkpt><trkpt lat="44.8838567" lon="8.8586383"><ele>127.00000000000001</ele><time>2026-04-11T14:46:56.028Z</time></trkpt><trkpt lat="44.883875" lon="8.85855"><ele>127.0</ele><time>2026-04-11T14:46:57.028Z</time></trkpt><trkpt lat="44.88389" lon="8.85845"><ele>127.39999999999999</ele><time>2026-04-11T14:46:58.028Z</time></trkpt><trkpt lat="44.8839233" lon="8.8583667"><ele>127.79999999999998</ele><time>2026-04-11T14:46:59.028Z</time></trkpt><trkpt lat="44.8840117" lon="8.8582617"><ele>128.2</ele><time>2026-04-11T14:47:01.028Z</time></trkpt><trkpt lat="44.8841133" lon="8.8581567"><ele>128.6</ele><time>2026-04-11T14:47:03.027Z</time></trkpt><trkpt lat="44.8841733" lon="8.85809"><ele>129.0</ele><time>2026-04-11T14:47:04.027Z</time></trkpt><trkpt lat="44.88424" lon="8.8580267"><ele>129.0</ele><time>2026-04-11T14:47:05.028Z</time></trkpt><trkpt lat="44.8843067" lon="8.8579717"><ele>129.0</ele><time>2026-04-11T14:47:06.028Z</time></trkpt><trkpt lat="44.8843817" lon="8.857905"><ele>129.0</ele><time>2026-04-11T14:47:07.028Z</time></trkpt><trkpt lat="44.8844533" lon="8.8578333"><ele>129.0</ele><time>2026-04-11T14:47:08.028Z</time></trkpt><trkpt lat="44.884535" lon="8.85775"><ele>129.0</ele><time>2026-04-11T14:47:09.028Z</time></trkpt><trkpt lat="44.8846217" lon="8.85767"><ele>128.8</ele><time>2026-04-11T14:47:10.028Z</time></trkpt><trkpt lat="44.8847117" lon="8.8575967"><ele>128.60000000000002</ele><time>2026-04-11T14:47:11.028Z</time></trkpt><trkpt lat="44.8848083" lon="8.8575267"><ele>128.4</ele><time>2026-04-11T14:47:12.028Z</time></trkpt><trkpt lat="44.884905" lon="8.8574533"><ele>128.20000000000002</ele><time>2026-04-11T14:47:13.028Z</time></trkpt><trkpt lat="44.8850017" lon="8.85738"><ele>128.0</ele><time>2026-04-11T14:47:14.028Z</time></trkpt><trkpt lat="44.8850917" lon="8.8573133"><ele>127.83333333333333</ele><time>2026-04-11T14:47:15.028Z</time></trkpt><trkpt lat="44.8851817" lon="8.8572717"><ele>127.66666666666666</ele><time>2026-04-11T14:47:16.028Z</time></trkpt><trkpt lat="44.88526" lon="8.857235"><ele>127.5</ele><time>2026-04-11T14:47:17.027Z</time></trkpt><trkpt lat="44.8853383" lon="8.8572183"><ele>127.33333333333334</ele><time>2026-04-11T14:47:18.028Z</time></trkpt><trkpt lat="44.8854117" lon="8.8571983"><ele>127.16666666666667</ele><time>2026-04-11T14:47:19.028Z</time></trkpt><trkpt lat="44.8854833" lon="8.85719"><ele>127.0</ele><time>2026-04-11T14:47:20.028Z</time></trkpt><trkpt lat="44.8855517" lon="8.8571883"><ele>127.0</ele><time>2026-04-11T14:47:21.028Z</time></trkpt><trkpt lat="44.8856633" lon="8.8571483"><ele>126.99999999999999</ele><time>2026-04-11T14:47:23.028Z</time></trkpt><trkpt lat="44.8857233" lon="8.8570183"><ele>126.99999999999999</ele><time>2026-04-11T14:47:25.028Z</time></trkpt><trkpt lat="44.88572" lon="8.8569267"><ele>127.0</ele><time>2026-04-11T14:47:26.028Z</time></trkpt><trkpt lat="44.885755" lon="8.8567583"><ele>127.0</ele><time>2026-04-11T14:47:28.028Z</time></trkpt><trkpt lat="44.8858333" lon="8.8566317"><ele>127.0</ele><time>2026-04-11T14:47:30.028Z</time></trkpt><trkpt lat="44.885895" lon="8.8565833"><ele>126.99999999999999</ele><time>2026-04-11T14:47:31.028Z</time></trkpt><trkpt lat="44.88597" lon="8.8565217"><ele>126.99999999999999</ele><time>2026-04-11T14:47:32.028Z</time></trkpt><trkpt lat="44.8860517" lon="8.8564583"><ele>127.0</ele><time>2026-04-11T14:47:33.028Z</time></trkpt><trkpt lat="44.8861517" lon="8.8564033"><ele>127.0</ele><time>2026-04-11T14:47:34.028Z</time></trkpt><trkpt lat="44.8862567" lon="8.8563433"><ele>126.5</ele><time>2026-04-11T14:47:35.027Z</time></trkpt><trkpt lat="44.8863583" lon="8.85629"><ele>126.0</ele><time>2026-04-11T14:47:36.028Z</time></trkpt><trkpt lat="44.8864717" lon="8.856235"><ele>125.5</ele><time>2026-04-11T14:47:37.028Z</time></trkpt><trkpt lat="44.8865917" lon="8.85617"><ele>125.0</ele><time>2026-04-11T14:47:38.028Z</time></trkpt><trkpt lat="44.8867133" lon="8.8561167"><ele>125.0</ele><time>2026-04-11T14:47:39.027Z</time></trkpt><trkpt lat="44.8868417" lon="8.8560583"><ele>125.0</ele><time>2026-04-11T14:47:40.027Z</time></trkpt><trkpt lat="44.8869717" lon="8.8560133"><ele>125.0</ele><time>2026-04-11T14:47:41.027Z</time></trkpt><trkpt lat="44.88711" lon="8.85597"><ele>125.0</ele><time>2026-04-11T14:47:42.027Z</time></trkpt><trkpt lat="44.8872517" lon="8.8559333"><ele>125.0</ele><time>2026-04-11T14:47:43.027Z</time></trkpt><trkpt lat="44.8873983" lon="8.85591"><ele>125.0</ele><time>2026-04-11T14:47:44.027Z</time></trkpt><trkpt lat="44.8875467" lon="8.8558883"><ele>125.0</ele><time>2026-04-11T14:47:45.026Z</time></trkpt><trkpt lat="44.88768" lon="8.8558783"><ele>125.0</ele><time>2026-04-11T14:47:46.027Z</time></trkpt><trkpt lat="44.887805" lon="8.8558717"><ele>124.83333333333333</ele><time>2026-04-11T14:47:47.027Z</time></trkpt><trkpt lat="44.88791" lon="8.855865"><ele>124.66666666666666</ele><time>2026-04-11T14:47:48.027Z</time></trkpt><trkpt lat="44.8879983" lon="8.8558633"><ele>124.5</ele><time>2026-04-11T14:47:49.026Z</time></trkpt><trkpt lat="44.8880683" lon="8.8558633"><ele>124.33333333333334</ele><time>2026-04-11T14:47:50.027Z</time></trkpt><trkpt lat="44.888135" lon="8.8558633"><ele>124.16666666666667</ele><time>2026-04-11T14:47:51.027Z</time></trkpt><trkpt lat="44.8882133" lon="8.85586"><ele>124.0</ele><time>2026-04-11T14:47:52.027Z</time></trkpt><trkpt lat="44.8883033" lon="8.85585"><ele>124.0</ele><time>2026-04-11T14:47:53.027Z</time></trkpt><trkpt lat="44.8884033" lon="8.8558433"><ele>124.0</ele><time>2026-04-11T14:47:54.027Z</time></trkpt><trkpt lat="44.8885017" lon="8.85584"><ele>124.0</ele><time>2026-04-11T14:47:55.027Z</time></trkpt><trkpt lat="44.8885983" lon="8.8558333"><ele>124.0</ele><time>2026-04-11T14:47:56.027Z</time></trkpt><trkpt lat="44.88869" lon="8.8558283"><ele>124.0</ele><time>2026-04-11T14:47:57.027Z</time></trkpt><trkpt lat="44.8887767" lon="8.8558267"><ele>124.00000000000001</ele><time>2026-04-11T14:47:58.027Z</time></trkpt><trkpt lat="44.88885" lon="8.8558217"><ele>124.0</ele><time>2026-04-11T14:47:59.027Z</time></trkpt><trkpt lat="44.88894" lon="8.8558167"><ele>124.0</ele><time>2026-04-11T14:48:01.027Z</time></trkpt><trkpt lat="44.8890083" lon="8.8558183"><ele>124.0</ele><time>2026-04-11T14:48:17.027Z</time></trkpt><trkpt lat="44.889075" lon="8.8558167"><ele>124.00000000000001</ele><time>2026-04-11T14:48:19.027Z</time></trkpt><trkpt lat="44.889175" lon="8.8558233"><ele>124.0</ele><time>2026-04-11T14:48:21.027Z</time></trkpt><trkpt lat="44.88924" lon="8.8558217"><ele>123.80000000000001</ele><time>2026-04-11T14:48:22.027Z</time></trkpt><trkpt lat="44.889315" lon="8.8558167"><ele>123.60000000000001</ele><time>2026-04-11T14:48:23.027Z</time></trkpt><trkpt lat="44.8894033" lon="8.85581"><ele>123.4</ele><time>2026-04-11T14:48:24.027Z</time></trkpt><trkpt lat="44.8894917" lon="8.8558083"><ele>123.2</ele><time>2026-04-11T14:48:25.027Z</time></trkpt><trkpt lat="44.8896017" lon="8.8558133"><ele>123.0</ele><time>2026-04-11T14:48:26.027Z</time></trkpt><trkpt lat="44.8897217" lon="8.8558117"><ele>123.0</ele><time>2026-04-11T14:48:27.027Z</time></trkpt><trkpt lat="44.88984" lon="8.8558067"><ele>123.0</ele><time>2026-04-11T14:48:28.027Z</time></trkpt><trkpt lat="44.8899583" lon="8.8558033"><ele>123.0</ele><time>2026-04-11T14:48:29.027Z</time></trkpt><trkpt lat="44.8900933" lon="8.8558067"><ele>123.0</ele><time>2026-04-11T14:48:30.027Z</time></trkpt><trkpt lat="44.8902333" lon="8.8558017"><ele>123.66666666666666</ele><time>2026-04-11T14:48:31.027Z</time></trkpt><trkpt lat="44.8903767" lon="8.8558"><ele>124.33333333333333</ele><time>2026-04-11T14:48:32.027Z</time></trkpt><trkpt lat="44.89053" lon="8.855795"><ele>125.0</ele><time>2026-04-11T14:48:33.027Z</time></trkpt><trkpt lat="44.8906867" lon="8.8557933"><ele>125.0</ele><time>2026-04-11T14:48:34.027Z</time></trkpt><trkpt lat="44.890835" lon="8.8557917"><ele>125.0</ele><time>2026-04-11T14:48:35.027Z</time></trkpt><trkpt lat="44.8909867" lon="8.8557867"><ele>125.0</ele><time>2026-04-11T14:48:36.027Z</time></trkpt><trkpt lat="44.8911283" lon="8.855785"><ele>125.0</ele><time>2026-04-11T14:48:37.027Z</time></trkpt><trkpt lat="44.89127" lon="8.855785"><ele>124.25</ele><time>2026-04-11T14:48:38.027Z</time></trkpt><trkpt lat="44.8914067" lon="8.8557867"><ele>123.5</ele><time>2026-04-11T14:48:39.027Z</time></trkpt><trkpt lat="44.8915483" lon="8.8557783"><ele>122.75</ele><time>2026-04-11T14:48:40.027Z</time></trkpt><trkpt lat="44.8916867" lon="8.8557683"><ele>122.0</ele><time>2026-04-11T14:48:41.026Z</time></trkpt><trkpt lat="44.8918267" lon="8.8557617"><ele>121.25</ele><time>2026-04-11T14:48:42.027Z</time></trkpt><trkpt lat="44.8919533" lon="8.8557517"><ele>120.5</ele><time>2026-04-11T14:48:43.027Z</time></trkpt><trkpt lat="44.8920917" lon="8.8557433"><ele>119.75</ele><time>2026-04-11T14:48:44.027Z</time></trkpt><trkpt lat="44.8922167" lon="8.85574"><ele>119.0</ele><time>2026-04-11T14:48:45.026Z</time></trkpt><trkpt lat="44.8923417" lon="8.855745"><ele>119.0</ele><time>2026-04-11T14:48:46.027Z</time></trkpt><trkpt lat="44.89246" lon="8.8557367"><ele>119.0</ele><time>2026-04-11T14:48:47.026Z</time></trkpt><trkpt lat="44.8925817" lon="8.855745"><ele>119.0</ele><time>2026-04-11T14:48:48.027Z</time></trkpt><trkpt lat="44.8927" lon="8.8557467"><ele>119.0</ele><time>2026-04-11T14:48:49.026Z</time></trkpt><trkpt lat="44.8928283" lon="8.8557417"><ele>119.0</ele><time>2026-04-11T14:48:50.027Z</time></trkpt><trkpt lat="44.89296" lon="8.85574"><ele>119.0</ele><time>2026-04-11T14:48:51.027Z</time></trkpt><trkpt lat="44.8930933" lon="8.855735"><ele>119.0</ele><time>2026-04-11T14:48:52.026Z</time></trkpt><trkpt lat="44.8932267" lon="8.855735"><ele>119.0</ele><time>2026-04-11T14:48:53.027Z</time></trkpt><trkpt lat="44.8933633" lon="8.855735"><ele>119.25</ele><time>2026-04-11T14:48:54.026Z</time></trkpt><trkpt lat="44.8935017" lon="8.8557333"><ele>119.5</ele><time>2026-04-11T14:48:55.027Z</time></trkpt><trkpt lat="44.8936483" lon="8.85573"><ele>119.75</ele><time>2026-04-11T14:48:56.027Z</time></trkpt><trkpt lat="44.8937783" lon="8.85573"><ele>120.0</ele><time>2026-04-11T14:48:57.027Z</time></trkpt><trkpt lat="44.8939183" lon="8.855715"><ele>120.0</ele><time>2026-04-11T14:48:58.027Z</time></trkpt><trkpt lat="44.8940483" lon="8.85571"><ele>120.0</ele><time>2026-04-11T14:48:59.026Z</time></trkpt><trkpt lat="44.8941717" lon="8.85571"><ele>120.0</ele><time>2026-04-11T14:49:00.027Z</time></trkpt><trkpt lat="44.894305" lon="8.8557117"><ele>120.0</ele><time>2026-04-11T14:49:01.026Z</time></trkpt><trkpt lat="44.894435" lon="8.8557083"><ele>120.25</ele><time>2026-04-11T14:49:02.027Z</time></trkpt><trkpt lat="44.8945617" lon="8.8557033"><ele>120.5</ele><time>2026-04-11T14:49:03.027Z</time></trkpt><trkpt lat="44.89469" lon="8.855705"><ele>120.75</ele><time>2026-04-11T14:49:04.027Z</time></trkpt><trkpt lat="44.89482" lon="8.8557067"><ele>121.0</ele><time>2026-04-11T14:49:05.026Z</time></trkpt><trkpt lat="44.8949483" lon="8.8557033"><ele>120.75</ele><time>2026-04-11T14:49:06.027Z</time></trkpt><trkpt lat="44.895095" lon="8.8556933"><ele>120.5</ele><time>2026-04-11T14:49:07.027Z</time></trkpt><trkpt lat="44.89523" lon="8.8556833"><ele>120.25</ele><time>2026-04-11T14:49:08.027Z</time></trkpt><trkpt lat="44.89536" lon="8.855675"><ele>120.0</ele><time>2026-04-11T14:49:09.027Z</time></trkpt><trkpt lat="44.895495" lon="8.8556683"><ele>120.0</ele><time>2026-04-11T14:49:10.027Z</time></trkpt><trkpt lat="44.8956233" lon="8.8556467"><ele>120.0</ele><time>2026-04-11T14:49:11.026Z</time></trkpt><trkpt lat="44.89575" lon="8.8556083"><ele>120.0</ele><time>2026-04-11T14:49:12.027Z</time></trkpt><trkpt lat="44.895865" lon="8.85557"><ele>120.0</ele><time>2026-04-11T14:49:13.027Z</time></trkpt><trkpt lat="44.8959633" lon="8.855525"><ele>119.66666666666667</ele><time>2026-04-11T14:49:14.027Z</time></trkpt><trkpt lat="44.8960483" lon="8.8554833"><ele>119.33333333333334</ele><time>2026-04-11T14:49:15.027Z</time></trkpt><trkpt lat="44.8961067" lon="8.85545"><ele>119.0</ele><time>2026-04-11T14:49:16.027Z</time></trkpt><trkpt lat="44.896175" lon="8.8554067"><ele>118.66666666666667</ele><time>2026-04-11T14:49:20.027Z</time></trkpt><trkpt lat="44.8962617" lon="8.85536"><ele>118.33333333333334</ele><time>2026-04-11T14:49:23.027Z</time></trkpt><trkpt lat="44.8963533" lon="8.8553"><ele>118.0</ele><time>2026-04-11T14:49:25.027Z</time></trkpt><trkpt lat="44.8964067" lon="8.855205"><ele>118.16666666666667</ele><time>2026-04-11T14:49:27.027Z</time></trkpt><trkpt lat="44.8963667" lon="8.8550933"><ele>118.33333333333334</ele><time>2026-04-11T14:49:29.027Z</time></trkpt><trkpt lat="44.8963283" lon="8.85502"><ele>118.5</ele><time>2026-04-11T14:49:30.027Z</time></trkpt><trkpt lat="44.8962817" lon="8.85493"><ele>118.66666666666666</ele><time>2026-04-11T14:49:31.026Z</time></trkpt><trkpt lat="44.896235" lon="8.8548233"><ele>118.83333333333333</ele><time>2026-04-11T14:49:32.026Z</time></trkpt><trkpt lat="44.8961833" lon="8.8546983"><ele>119.0</ele><time>2026-04-11T14:49:33.027Z</time></trkpt><trkpt lat="44.8961283" lon="8.8545583"><ele>119.0</ele><time>2026-04-11T14:49:34.027Z</time></trkpt><trkpt lat="44.89606" lon="8.8544"><ele>119.0</ele><time>2026-04-11T14:49:35.027Z</time></trkpt><trkpt lat="44.895985" lon="8.8542583"><ele>119.0</ele><time>2026-04-11T14:49:36.027Z</time></trkpt><trkpt lat="44.8959" lon="8.8541233"><ele>119.0</ele><time>2026-04-11T14:49:37.026Z</time></trkpt><trkpt lat="44.895805" lon="8.8539983"><ele>119.25</ele><time>2026-04-11T14:49:38.026Z</time></trkpt><trkpt lat="44.8957133" lon="8.8538817"><ele>119.5</ele><time>2026-04-11T14:49:39.026Z</time></trkpt><trkpt lat="44.8956217" lon="8.8537617"><ele>119.75</ele><time>2026-04-11T14:49:40.027Z</time></trkpt><trkpt lat="44.8955283" lon="8.8536333"><ele>120.0</ele><time>2026-04-11T14:49:41.027Z</time></trkpt><trkpt lat="44.8954367" lon="8.8534983"><ele>119.25</ele><time>2026-04-11T14:49:42.026Z</time></trkpt><trkpt lat="44.895345" lon="8.853365"><ele>118.5</ele><time>2026-04-11T14:49:43.027Z</time></trkpt><trkpt lat="44.895255" lon="8.8532433"><ele>117.75</ele><time>2026-04-11T14:49:44.027Z</time></trkpt><trkpt lat="44.89517" lon="8.8531283"><ele>117.0</ele><time>2026-04-11T14:49:45.027Z</time></trkpt><trkpt lat="44.8950983" lon="8.8530033"><ele>117.0</ele><time>2026-04-11T14:49:46.027Z</time></trkpt><trkpt lat="44.8950333" lon="8.85287"><ele>116.99999999999999</ele><time>2026-04-11T14:49:47.027Z</time></trkpt><trkpt lat="44.8949817" lon="8.8527467"><ele>116.99999999999999</ele><time>2026-04-11T14:49:48.027Z</time></trkpt><trkpt lat="44.89494" lon="8.852605"><ele>117.0</ele><time>2026-04-11T14:49:49.027Z</time></trkpt><trkpt lat="44.894915" lon="8.8524483"><ele>117.0</ele><time>2026-04-11T14:49:50.027Z</time></trkpt><trkpt lat="44.894905" lon="8.8522933"><ele>117.19999999999999</ele><time>2026-04-11T14:49:51.027Z</time></trkpt><trkpt lat="44.894895" lon="8.85214"><ele>117.39999999999999</ele><time>2026-04-11T14:49:52.027Z</time></trkpt><trkpt lat="44.8949" lon="8.85201"><ele>117.60000000000001</ele><time>2026-04-11T14:49:53.027Z</time></trkpt><trkpt lat="44.8949067" lon="8.851885"><ele>117.80000000000001</ele><time>2026-04-11T14:49:54.026Z</time></trkpt><trkpt lat="44.8949067" lon="8.8517683"><ele>118.0</ele><time>2026-04-11T14:49:55.027Z</time></trkpt><trkpt lat="44.89491" lon="8.851645"><ele>118.00000000000001</ele><time>2026-04-11T14:49:56.027Z</time></trkpt><trkpt lat="44.894915" lon="8.8515267"><ele>118.0</ele><time>2026-04-11T14:49:57.027Z</time></trkpt><trkpt lat="44.8949217" lon="8.851425"><ele>118.0</ele><time>2026-04-11T14:49:58.027Z</time></trkpt><trkpt lat="44.894935" lon="8.8513283"><ele>118.0</ele><time>2026-04-11T14:49:59.027Z</time></trkpt><trkpt lat="44.8949667" lon="8.8511583"><ele>118.00000000000001</ele><time>2026-04-11T14:50:01.027Z</time></trkpt><trkpt lat="44.8949833" lon="8.8510717"><ele>118.0</ele><time>2026-04-11T14:50:02.027Z</time></trkpt><trkpt lat="44.8949883" lon="8.850975"><ele>118.16666666666667</ele><time>2026-04-11T14:50:03.027Z</time></trkpt><trkpt lat="44.8949767" lon="8.8508783"><ele>118.33333333333334</ele><time>2026-04-11T14:50:04.027Z</time></trkpt><trkpt lat="44.8949467" lon="8.8507683"><ele>118.5</ele><time>2026-04-11T14:50:05.027Z</time></trkpt><trkpt lat="44.894915" lon="8.85066"><ele>118.66666666666666</ele><time>2026-04-11T14:50:06.027Z</time></trkpt><trkpt lat="44.8948833" lon="8.850535"><ele>118.83333333333333</ele><time>2026-04-11T14:50:07.027Z</time></trkpt><trkpt lat="44.894865" lon="8.8503917"><ele>119.0</ele><time>2026-04-11T14:50:08.027Z</time></trkpt><trkpt lat="44.8948617" lon="8.850235"><ele>119.25</ele><time>2026-04-11T14:50:09.027Z</time></trkpt><trkpt lat="44.89486" lon="8.8500717"><ele>119.5</ele><time>2026-04-11T14:50:10.027Z</time></trkpt><trkpt lat="44.8948583" lon="8.84991"><ele>119.75</ele><time>2026-04-11T14:50:11.027Z</time></trkpt><trkpt lat="44.8948533" lon="8.8497533"><ele>120.0</ele><time>2026-04-11T14:50:12.027Z</time></trkpt><trkpt lat="44.89485" lon="8.8495983"><ele>120.0</ele><time>2026-04-11T14:50:13.027Z</time></trkpt><trkpt lat="44.8948433" lon="8.8494433"><ele>120.0</ele><time>2026-04-11T14:50:14.027Z</time></trkpt><trkpt lat="44.89484" lon="8.8492983"><ele>120.0</ele><time>2026-04-11T14:50:15.027Z</time></trkpt><trkpt lat="44.8948383" lon="8.84916"><ele>120.0</ele><time>2026-04-11T14:50:16.027Z</time></trkpt><trkpt lat="44.8948317" lon="8.84903"><ele>120.0</ele><time>2026-04-11T14:50:17.027Z</time></trkpt><trkpt lat="44.8948283" lon="8.8488983"><ele>119.4</ele><time>2026-04-11T14:50:18.027Z</time></trkpt><trkpt lat="44.89483" lon="8.8487617"><ele>118.8</ele><time>2026-04-11T14:50:19.027Z</time></trkpt><trkpt lat="44.8948283" lon="8.8486233"><ele>118.19999999999999</ele><time>2026-04-11T14:50:20.027Z</time></trkpt><trkpt lat="44.894825" lon="8.8484717"><ele>117.6</ele><time>2026-04-11T14:50:21.026Z</time></trkpt><trkpt lat="44.8948267" lon="8.8483133"><ele>117.0</ele><time>2026-04-11T14:50:22.027Z</time></trkpt><trkpt lat="44.89482" lon="8.8481583"><ele>117.0</ele><time>2026-04-11T14:50:23.027Z</time></trkpt><trkpt lat="44.894815" lon="8.84802"><ele>117.0</ele><time>2026-04-11T14:50:24.027Z</time></trkpt><trkpt lat="44.8948167" lon="8.847905"><ele>117.0</ele><time>2026-04-11T14:50:25.026Z</time></trkpt><trkpt lat="44.8948133" lon="8.8477883"><ele>117.0</ele><time>2026-04-11T14:50:26.026Z</time></trkpt><trkpt lat="44.8948083" lon="8.8476783"><ele>117.0</ele><time>2026-04-11T14:50:27.027Z</time></trkpt><trkpt lat="44.8948083" lon="8.8475583"><ele>117.0</ele><time>2026-04-11T14:50:28.027Z</time></trkpt><trkpt lat="44.89481" lon="8.84743"><ele>117.0</ele><time>2026-04-11T14:50:29.027Z</time></trkpt><trkpt lat="44.8948083" lon="8.8472883"><ele>116.99999999999999</ele><time>2026-04-11T14:50:30.027Z</time></trkpt><trkpt lat="44.8948067" lon="8.8471417"><ele>116.99999999999999</ele><time>2026-04-11T14:50:31.027Z</time></trkpt><trkpt lat="44.8948033" lon="8.8469867"><ele>117.0</ele><time>2026-04-11T14:50:32.027Z</time></trkpt><trkpt lat="44.894795" lon="8.8468117"><ele>117.0</ele><time>2026-04-11T14:50:33.027Z</time></trkpt><trkpt lat="44.894795" lon="8.8466283"><ele>116.5</ele><time>2026-04-11T14:50:34.027Z</time></trkpt><trkpt lat="44.894795" lon="8.8464467"><ele>116.0</ele><time>2026-04-11T14:50:35.027Z</time></trkpt><trkpt lat="44.894785" lon="8.846255"><ele>115.5</ele><time>2026-04-11T14:50:36.027Z</time></trkpt><trkpt lat="44.89478" lon="8.8460667"><ele>115.0</ele><time>2026-04-11T14:50:37.027Z</time></trkpt><trkpt lat="44.8947717" lon="8.84587"><ele>114.0</ele><time>2026-04-11T14:50:38.026Z</time></trkpt><trkpt lat="44.8947717" lon="8.8456733"><ele>113.0</ele><time>2026-04-11T14:50:39.027Z</time></trkpt><trkpt lat="44.8947767" lon="8.845475"><ele>112.0</ele><time>2026-04-11T14:50:40.027Z</time></trkpt><trkpt lat="44.8947783" lon="8.8452667"><ele>111.0</ele><time>2026-04-11T14:50:41.027Z</time></trkpt><trkpt lat="44.8947767" lon="8.8450583"><ele>110.75</ele><time>2026-04-11T14:50:42.027Z</time></trkpt><trkpt lat="44.89477" lon="8.844855"><ele>110.5</ele><time>2026-04-11T14:50:43.027Z</time></trkpt><trkpt lat="44.8947617" lon="8.84465"><ele>110.25</ele><time>2026-04-11T14:50:44.027Z</time></trkpt><trkpt lat="44.8947583" lon="8.844455"><ele>110.0</ele><time>2026-04-11T14:50:45.027Z</time></trkpt><trkpt lat="44.89476" lon="8.8442617"><ele>110.0</ele><time>2026-04-11T14:50:46.027Z</time></trkpt><trkpt lat="44.8947583" lon="8.8440717"><ele>110.0</ele><time>2026-04-11T14:50:47.027Z</time></trkpt><trkpt lat="44.8947467" lon="8.8438817"><ele>110.0</ele><time>2026-04-11T14:50:48.027Z</time></trkpt><trkpt lat="44.89474" lon="8.843695"><ele>110.0</ele><time>2026-04-11T14:50:49.027Z</time></trkpt><trkpt lat="44.89473" lon="8.84353"><ele>110.8</ele><time>2026-04-11T14:50:50.027Z</time></trkpt><trkpt lat="44.89474" lon="8.84337"><ele>111.6</ele><time>2026-04-11T14:50:51.026Z</time></trkpt><trkpt lat="44.8947567" lon="8.8432217"><ele>112.4</ele><time>2026-04-11T14:50:52.026Z</time></trkpt><trkpt lat="44.8947867" lon="8.84309"><ele>113.2</ele><time>2026-04-11T14:50:53.027Z</time></trkpt><trkpt lat="44.8948233" lon="8.8429767"><ele>114.0</ele><time>2026-04-11T14:50:54.027Z</time></trkpt><trkpt lat="44.8948667" lon="8.84287"><ele>114.0</ele><time>2026-04-11T14:50:55.027Z</time></trkpt><trkpt lat="44.8949183" lon="8.8427817"><ele>114.0</ele><time>2026-04-11T14:50:56.027Z</time></trkpt><trkpt lat="44.89499" lon="8.8427233"><ele>114.0</ele><time>2026-04-11T14:50:57.027Z</time></trkpt></trkseg></trk></gpx>